<?xml version="1.0" encoding="UTF-8" standalone="no" ?>
<gpx xmlns="http://www.topografix.com/GPX/1/1" xmlns:xsi="http://www.w3.org/2001/XMLSchema-instance" xsi:schemaLocation="http://www.topografix.com/GPX/1/1 http://www.topografix.com/GPX/1/1/gpx.xsd" version="1.1" creator="VisuGPX - https://www.visugpx.com">
  <metadata>
    <name>Pornichet 16/05/2021</name>
    <desc><![CDATA[Sortie VTT du dimanche 16 mai 2021]]></desc>
  </metadata>
  <trk>
    <name><![CDATA[Pornichet Cyclisme]]></name>
    <trkseg>
      <trkpt lat="47.2641" lon="-2.31561">
        <ele>15.60000038147</ele>
        <time>2021-05-16T07:21:43.000Z</time>
      </trkpt>
      <trkpt lat="47.26411" lon="-2.31564">
        <ele>15.60000038147</ele>
        <time>2021-05-16T07:21:44.000Z</time>
      </trkpt>
      <trkpt lat="47.26411" lon="-2.31576">
        <ele>15.60000038147</ele>
        <time>2021-05-16T07:21:47.000Z</time>
      </trkpt>
      <trkpt lat="47.26411" lon="-2.3158">
        <ele>15</ele>
        <time>2021-05-16T07:21:48.000Z</time>
      </trkpt>
      <trkpt lat="47.26411" lon="-2.31585">
        <ele>14.60000038147</ele>
        <time>2021-05-16T07:21:49.000Z</time>
      </trkpt>
      <trkpt lat="47.26409" lon="-2.31601">
        <ele>14.60000038147</ele>
        <time>2021-05-16T07:21:53.000Z</time>
      </trkpt>
      <trkpt lat="47.26408" lon="-2.31602">
        <ele>14.60000038147</ele>
        <time>2021-05-16T07:21:56.000Z</time>
      </trkpt>
      <trkpt lat="47.26408" lon="-2.31602">
        <ele>14.60000038147</ele>
        <time>2021-05-16T07:21:57.000Z</time>
      </trkpt>
      <trkpt lat="47.26408" lon="-2.31606">
        <ele>14.60000038147</ele>
        <time>2021-05-16T07:22:02.000Z</time>
      </trkpt>
      <trkpt lat="47.26406" lon="-2.31612">
        <ele>14.60000038147</ele>
        <time>2021-05-16T07:22:04.000Z</time>
      </trkpt>
      <trkpt lat="47.26408" lon="-2.3163">
        <ele>14.60000038147</ele>
        <time>2021-05-16T07:22:08.000Z</time>
      </trkpt>
      <trkpt lat="47.26407" lon="-2.31656">
        <ele>14.60000038147</ele>
        <time>2021-05-16T07:22:14.000Z</time>
      </trkpt>
      <trkpt lat="47.26404" lon="-2.31656">
        <ele>14.60000038147</ele>
        <time>2021-05-16T07:22:15.000Z</time>
      </trkpt>
      <trkpt lat="47.26389" lon="-2.31661">
        <ele>14.60000038147</ele>
        <time>2021-05-16T07:22:21.000Z</time>
      </trkpt>
      <trkpt lat="47.26372" lon="-2.31667">
        <ele>14.39999961853</ele>
        <time>2021-05-16T07:22:26.000Z</time>
      </trkpt>
      <trkpt lat="47.26368" lon="-2.31669">
        <ele>14.199999809265</ele>
        <time>2021-05-16T07:22:27.000Z</time>
      </trkpt>
      <trkpt lat="47.26364" lon="-2.3167">
        <ele>14</ele>
        <time>2021-05-16T07:22:28.000Z</time>
      </trkpt>
      <trkpt lat="47.26361" lon="-2.31671">
        <ele>13.800000190735</ele>
        <time>2021-05-16T07:22:29.000Z</time>
      </trkpt>
      <trkpt lat="47.26357" lon="-2.31673">
        <ele>13.60000038147</ele>
        <time>2021-05-16T07:22:30.000Z</time>
      </trkpt>
      <trkpt lat="47.26343" lon="-2.3168">
        <ele>13.60000038147</ele>
        <time>2021-05-16T07:22:34.000Z</time>
      </trkpt>
      <trkpt lat="47.26334" lon="-2.31689">
        <ele>13.60000038147</ele>
        <time>2021-05-16T07:22:38.000Z</time>
      </trkpt>
      <trkpt lat="47.26333" lon="-2.31693">
        <ele>13.199999809265</ele>
        <time>2021-05-16T07:22:39.000Z</time>
      </trkpt>
      <trkpt lat="47.26332" lon="-2.31698">
        <ele>12.800000190735</ele>
        <time>2021-05-16T07:22:40.000Z</time>
      </trkpt>
      <trkpt lat="47.2633" lon="-2.317">
        <ele>12.39999961853</ele>
        <time>2021-05-16T07:22:41.000Z</time>
      </trkpt>
      <trkpt lat="47.26326" lon="-2.31702">
        <ele>12</ele>
        <time>2021-05-16T07:22:42.000Z</time>
      </trkpt>
      <trkpt lat="47.26322" lon="-2.31704">
        <ele>11.60000038147</ele>
        <time>2021-05-16T07:22:43.000Z</time>
      </trkpt>
      <trkpt lat="47.26319" lon="-2.31705">
        <ele>11.60000038147</ele>
        <time>2021-05-16T07:22:44.000Z</time>
      </trkpt>
      <trkpt lat="47.2631" lon="-2.31712">
        <ele>11.60000038147</ele>
        <time>2021-05-16T07:22:47.000Z</time>
      </trkpt>
      <trkpt lat="47.26305" lon="-2.31722">
        <ele>11.60000038147</ele>
        <time>2021-05-16T07:22:49.000Z</time>
      </trkpt>
      <trkpt lat="47.26304" lon="-2.31728">
        <ele>11.60000038147</ele>
        <time>2021-05-16T07:22:50.000Z</time>
      </trkpt>
      <trkpt lat="47.26306" lon="-2.31757">
        <ele>11.60000038147</ele>
        <time>2021-05-16T07:22:55.000Z</time>
      </trkpt>
      <trkpt lat="47.26305" lon="-2.31791">
        <ele>11.60000038147</ele>
        <time>2021-05-16T07:23:01.000Z</time>
      </trkpt>
      <trkpt lat="47.26303" lon="-2.31823">
        <ele>11.60000038147</ele>
        <time>2021-05-16T07:23:06.000Z</time>
      </trkpt>
      <trkpt lat="47.26302" lon="-2.31841">
        <ele>11.60000038147</ele>
        <time>2021-05-16T07:23:09.000Z</time>
      </trkpt>
      <trkpt lat="47.26302" lon="-2.31847">
        <ele>11.60000038147</ele>
        <time>2021-05-16T07:23:10.000Z</time>
      </trkpt>
      <trkpt lat="47.26301" lon="-2.31856">
        <ele>11</ele>
        <time>2021-05-16T07:23:12.000Z</time>
      </trkpt>
      <trkpt lat="47.26301" lon="-2.3186">
        <ele>10.199999809265</ele>
        <time>2021-05-16T07:23:13.000Z</time>
      </trkpt>
      <trkpt lat="47.26301" lon="-2.31864">
        <ele>9.8000001907349</ele>
        <time>2021-05-16T07:23:14.000Z</time>
      </trkpt>
      <trkpt lat="47.26301" lon="-2.31868">
        <ele>9.3999996185303</ele>
        <time>2021-05-16T07:23:15.000Z</time>
      </trkpt>
      <trkpt lat="47.26298" lon="-2.3189">
        <ele>9.3999996185303</ele>
        <time>2021-05-16T07:23:20.000Z</time>
      </trkpt>
      <trkpt lat="47.26281" lon="-2.31908">
        <ele>9.3999996185303</ele>
        <time>2021-05-16T07:23:26.000Z</time>
      </trkpt>
      <trkpt lat="47.26269" lon="-2.31926">
        <ele>9.3999996185303</ele>
        <time>2021-05-16T07:23:31.000Z</time>
      </trkpt>
      <trkpt lat="47.26258" lon="-2.31949">
        <ele>9.3999996185303</ele>
        <time>2021-05-16T07:23:36.000Z</time>
      </trkpt>
      <trkpt lat="47.26244" lon="-2.31972">
        <ele>9.3999996185303</ele>
        <time>2021-05-16T07:23:43.000Z</time>
      </trkpt>
      <trkpt lat="47.26241" lon="-2.31972">
        <ele>9.3999996185303</ele>
        <time>2021-05-16T07:23:44.000Z</time>
      </trkpt>
      <trkpt lat="47.26232" lon="-2.31976">
        <ele>9.3999996185303</ele>
        <time>2021-05-16T07:23:47.000Z</time>
      </trkpt>
      <trkpt lat="47.26226" lon="-2.31983">
        <ele>9.3999996185303</ele>
        <time>2021-05-16T07:23:50.000Z</time>
      </trkpt>
      <trkpt lat="47.2622" lon="-2.31988">
        <ele>9.3999996185303</ele>
        <time>2021-05-16T07:23:52.000Z</time>
      </trkpt>
      <trkpt lat="47.26209" lon="-2.31996">
        <ele>9.3999996185303</ele>
        <time>2021-05-16T07:23:56.000Z</time>
      </trkpt>
      <trkpt lat="47.26205" lon="-2.32002">
        <ele>9.3999996185303</ele>
        <time>2021-05-16T07:23:58.000Z</time>
      </trkpt>
      <trkpt lat="47.26202" lon="-2.32014">
        <ele>9.3999996185303</ele>
        <time>2021-05-16T07:24:01.000Z</time>
      </trkpt>
      <trkpt lat="47.262" lon="-2.3202">
        <ele>9.3999996185303</ele>
        <time>2021-05-16T07:24:03.000Z</time>
      </trkpt>
      <trkpt lat="47.26194" lon="-2.3202">
        <ele>9.3999996185303</ele>
        <time>2021-05-16T07:24:07.000Z</time>
      </trkpt>
      <trkpt lat="47.26192" lon="-2.32019">
        <ele>9.3999996185303</ele>
        <time>2021-05-16T07:24:08.000Z</time>
      </trkpt>
      <trkpt lat="47.26183" lon="-2.32023">
        <ele>9.3999996185303</ele>
        <time>2021-05-16T07:24:13.000Z</time>
      </trkpt>
      <trkpt lat="47.26182" lon="-2.32023">
        <ele>9.3999996185303</ele>
        <time>2021-05-16T07:24:17.000Z</time>
      </trkpt>
      <trkpt lat="47.26176" lon="-2.32027">
        <ele>9.3999996185303</ele>
        <time>2021-05-16T07:24:20.000Z</time>
      </trkpt>
      <trkpt lat="47.2616" lon="-2.32044">
        <ele>9.3999996185303</ele>
        <time>2021-05-16T07:24:25.000Z</time>
      </trkpt>
      <trkpt lat="47.26151" lon="-2.3207">
        <ele>9.3999996185303</ele>
        <time>2021-05-16T07:24:30.000Z</time>
      </trkpt>
      <trkpt lat="47.26144" lon="-2.32093">
        <ele>9.3999996185303</ele>
        <time>2021-05-16T07:24:35.000Z</time>
      </trkpt>
      <trkpt lat="47.26136" lon="-2.32126">
        <ele>9.3999996185303</ele>
        <time>2021-05-16T07:24:41.000Z</time>
      </trkpt>
      <trkpt lat="47.26123" lon="-2.32169">
        <ele>9.3999996185303</ele>
        <time>2021-05-16T07:24:49.000Z</time>
      </trkpt>
      <trkpt lat="47.26114" lon="-2.32195">
        <ele>9.3999996185303</ele>
        <time>2021-05-16T07:24:54.000Z</time>
      </trkpt>
      <trkpt lat="47.26095" lon="-2.32228">
        <ele>9.3999996185303</ele>
        <time>2021-05-16T07:25:01.000Z</time>
      </trkpt>
      <trkpt lat="47.26079" lon="-2.32244">
        <ele>9.3999996185303</ele>
        <time>2021-05-16T07:25:05.000Z</time>
      </trkpt>
      <trkpt lat="47.26071" lon="-2.32252">
        <ele>9.3999996185303</ele>
        <time>2021-05-16T07:25:07.000Z</time>
      </trkpt>
      <trkpt lat="47.26051" lon="-2.32275">
        <ele>9.3999996185303</ele>
        <time>2021-05-16T07:25:13.000Z</time>
      </trkpt>
      <trkpt lat="47.2602" lon="-2.32308">
        <ele>9.3999996185303</ele>
        <time>2021-05-16T07:25:21.000Z</time>
      </trkpt>
      <trkpt lat="47.25997" lon="-2.32337">
        <ele>9.3999996185303</ele>
        <time>2021-05-16T07:25:28.000Z</time>
      </trkpt>
      <trkpt lat="47.2597" lon="-2.32372">
        <ele>9.3999996185303</ele>
        <time>2021-05-16T07:25:36.000Z</time>
      </trkpt>
      <trkpt lat="47.2596" lon="-2.32385">
        <ele>9.3999996185303</ele>
        <time>2021-05-16T07:25:39.000Z</time>
      </trkpt>
      <trkpt lat="47.25947" lon="-2.32401">
        <ele>9.3999996185303</ele>
        <time>2021-05-16T07:25:43.000Z</time>
      </trkpt>
      <trkpt lat="47.25928" lon="-2.32427">
        <ele>9.3999996185303</ele>
        <time>2021-05-16T07:25:49.000Z</time>
      </trkpt>
      <trkpt lat="47.25924" lon="-2.32431">
        <ele>9.3999996185303</ele>
        <time>2021-05-16T07:25:50.000Z</time>
      </trkpt>
      <trkpt lat="47.25917" lon="-2.32438">
        <ele>9.3999996185303</ele>
        <time>2021-05-16T07:25:52.000Z</time>
      </trkpt>
      <trkpt lat="47.25909" lon="-2.32451">
        <ele>9.3999996185303</ele>
        <time>2021-05-16T07:25:55.000Z</time>
      </trkpt>
      <trkpt lat="47.25896" lon="-2.32465">
        <ele>9.3999996185303</ele>
        <time>2021-05-16T07:26:00.000Z</time>
      </trkpt>
      <trkpt lat="47.25878" lon="-2.32473">
        <ele>9.3999996185303</ele>
        <time>2021-05-16T07:26:05.000Z</time>
      </trkpt>
      <trkpt lat="47.25873" lon="-2.32473">
        <ele>9.3999996185303</ele>
        <time>2021-05-16T07:26:06.000Z</time>
      </trkpt>
      <trkpt lat="47.25852" lon="-2.32475">
        <ele>9.3999996185303</ele>
        <time>2021-05-16T07:26:11.000Z</time>
      </trkpt>
      <trkpt lat="47.25827" lon="-2.32466">
        <ele>9.3999996185303</ele>
        <time>2021-05-16T07:26:17.000Z</time>
      </trkpt>
      <trkpt lat="47.25802" lon="-2.32456">
        <ele>9.3999996185303</ele>
        <time>2021-05-16T07:26:23.000Z</time>
      </trkpt>
      <trkpt lat="47.25799" lon="-2.32456">
        <ele>9.3999996185303</ele>
        <time>2021-05-16T07:26:24.000Z</time>
      </trkpt>
      <trkpt lat="47.2578" lon="-2.32451">
        <ele>9.3999996185303</ele>
        <time>2021-05-16T07:26:29.000Z</time>
      </trkpt>
      <trkpt lat="47.25777" lon="-2.32446">
        <ele>9.3999996185303</ele>
        <time>2021-05-16T07:26:30.000Z</time>
      </trkpt>
      <trkpt lat="47.2577" lon="-2.32432">
        <ele>9.3999996185303</ele>
        <time>2021-05-16T07:26:33.000Z</time>
      </trkpt>
      <trkpt lat="47.25752" lon="-2.32425">
        <ele>9.3999996185303</ele>
        <time>2021-05-16T07:26:37.000Z</time>
      </trkpt>
      <trkpt lat="47.25741" lon="-2.32424">
        <ele>9.3999996185303</ele>
        <time>2021-05-16T07:26:39.000Z</time>
      </trkpt>
      <trkpt lat="47.25719" lon="-2.32424">
        <ele>9.3999996185303</ele>
        <time>2021-05-16T07:26:43.000Z</time>
      </trkpt>
      <trkpt lat="47.25689" lon="-2.32423">
        <ele>9.3999996185303</ele>
        <time>2021-05-16T07:26:49.000Z</time>
      </trkpt>
      <trkpt lat="47.25665" lon="-2.32423">
        <ele>9.3999996185303</ele>
        <time>2021-05-16T07:26:54.000Z</time>
      </trkpt>
      <trkpt lat="47.25662" lon="-2.32429">
        <ele>9.3999996185303</ele>
        <time>2021-05-16T07:26:55.000Z</time>
      </trkpt>
      <trkpt lat="47.25662" lon="-2.32448">
        <ele>9.3999996185303</ele>
        <time>2021-05-16T07:26:58.000Z</time>
      </trkpt>
      <trkpt lat="47.25669" lon="-2.32471">
        <ele>9.3999996185303</ele>
        <time>2021-05-16T07:27:02.000Z</time>
      </trkpt>
      <trkpt lat="47.25671" lon="-2.32478">
        <ele>9.3999996185303</ele>
        <time>2021-05-16T07:27:03.000Z</time>
      </trkpt>
      <trkpt lat="47.25674" lon="-2.32488">
        <ele>9.8000001907349</ele>
        <time>2021-05-16T07:27:05.000Z</time>
      </trkpt>
      <trkpt lat="47.25676" lon="-2.32493">
        <ele>10.199999809265</ele>
        <time>2021-05-16T07:27:06.000Z</time>
      </trkpt>
      <trkpt lat="47.25679" lon="-2.32499">
        <ele>10.800000190735</ele>
        <time>2021-05-16T07:27:07.000Z</time>
      </trkpt>
      <trkpt lat="47.25681" lon="-2.32504">
        <ele>11.199999809265</ele>
        <time>2021-05-16T07:27:08.000Z</time>
      </trkpt>
      <trkpt lat="47.25683" lon="-2.3251">
        <ele>11.60000038147</ele>
        <time>2021-05-16T07:27:09.000Z</time>
      </trkpt>
      <trkpt lat="47.25696" lon="-2.32553">
        <ele>11.60000038147</ele>
        <time>2021-05-16T07:27:17.000Z</time>
      </trkpt>
      <trkpt lat="47.25702" lon="-2.32574">
        <ele>12.39999961853</ele>
        <time>2021-05-16T07:27:21.000Z</time>
      </trkpt>
      <trkpt lat="47.25704" lon="-2.3258">
        <ele>12.800000190735</ele>
        <time>2021-05-16T07:27:22.000Z</time>
      </trkpt>
      <trkpt lat="47.25705" lon="-2.32585">
        <ele>13.199999809265</ele>
        <time>2021-05-16T07:27:23.000Z</time>
      </trkpt>
      <trkpt lat="47.25707" lon="-2.32591">
        <ele>13.60000038147</ele>
        <time>2021-05-16T07:27:24.000Z</time>
      </trkpt>
      <trkpt lat="47.25709" lon="-2.32619">
        <ele>13.60000038147</ele>
        <time>2021-05-16T07:27:29.000Z</time>
      </trkpt>
      <trkpt lat="47.25707" lon="-2.32623">
        <ele>13.60000038147</ele>
        <time>2021-05-16T07:27:30.000Z</time>
      </trkpt>
      <trkpt lat="47.25699" lon="-2.32627">
        <ele>13.60000038147</ele>
        <time>2021-05-16T07:27:32.000Z</time>
      </trkpt>
      <trkpt lat="47.25691" lon="-2.32631">
        <ele>13.60000038147</ele>
        <time>2021-05-16T07:27:34.000Z</time>
      </trkpt>
      <trkpt lat="47.25675" lon="-2.32639">
        <ele>13.60000038147</ele>
        <time>2021-05-16T07:27:38.000Z</time>
      </trkpt>
      <trkpt lat="47.25672" lon="-2.3264">
        <ele>13.60000038147</ele>
        <time>2021-05-16T07:27:39.000Z</time>
      </trkpt>
      <trkpt lat="47.25668" lon="-2.32642">
        <ele>14.199999809265</ele>
        <time>2021-05-16T07:27:40.000Z</time>
      </trkpt>
      <trkpt lat="47.25663" lon="-2.32643">
        <ele>14.60000038147</ele>
        <time>2021-05-16T07:27:41.000Z</time>
      </trkpt>
      <trkpt lat="47.25659" lon="-2.32645">
        <ele>15</ele>
        <time>2021-05-16T07:27:42.000Z</time>
      </trkpt>
      <trkpt lat="47.25656" lon="-2.32648">
        <ele>15.39999961853</ele>
        <time>2021-05-16T07:27:43.000Z</time>
      </trkpt>
      <trkpt lat="47.25652" lon="-2.3265">
        <ele>16</ele>
        <time>2021-05-16T07:27:44.000Z</time>
      </trkpt>
      <trkpt lat="47.25648" lon="-2.32651">
        <ele>16</ele>
        <time>2021-05-16T07:27:45.000Z</time>
      </trkpt>
      <trkpt lat="47.2562" lon="-2.32661">
        <ele>16</ele>
        <time>2021-05-16T07:27:52.000Z</time>
      </trkpt>
      <trkpt lat="47.25616" lon="-2.32662">
        <ele>16.39999961853</ele>
        <time>2021-05-16T07:27:53.000Z</time>
      </trkpt>
      <trkpt lat="47.25613" lon="-2.32664">
        <ele>16.799999237061</ele>
        <time>2021-05-16T07:27:54.000Z</time>
      </trkpt>
      <trkpt lat="47.25609" lon="-2.32666">
        <ele>17.200000762939</ele>
        <time>2021-05-16T07:27:55.000Z</time>
      </trkpt>
      <trkpt lat="47.25605" lon="-2.32668">
        <ele>17.60000038147</ele>
        <time>2021-05-16T07:27:56.000Z</time>
      </trkpt>
      <trkpt lat="47.25601" lon="-2.32669">
        <ele>18.200000762939</ele>
        <time>2021-05-16T07:27:57.000Z</time>
      </trkpt>
      <trkpt lat="47.25593" lon="-2.32672">
        <ele>18.200000762939</ele>
        <time>2021-05-16T07:27:59.000Z</time>
      </trkpt>
      <trkpt lat="47.25584" lon="-2.32676">
        <ele>18.200000762939</ele>
        <time>2021-05-16T07:28:01.000Z</time>
      </trkpt>
      <trkpt lat="47.25567" lon="-2.32682">
        <ele>18.200000762939</ele>
        <time>2021-05-16T07:28:05.000Z</time>
      </trkpt>
      <trkpt lat="47.25563" lon="-2.32685">
        <ele>18.200000762939</ele>
        <time>2021-05-16T07:28:06.000Z</time>
      </trkpt>
      <trkpt lat="47.25558" lon="-2.32686">
        <ele>18.200000762939</ele>
        <time>2021-05-16T07:28:07.000Z</time>
      </trkpt>
      <trkpt lat="47.25533" lon="-2.32697">
        <ele>18.200000762939</ele>
        <time>2021-05-16T07:28:13.000Z</time>
      </trkpt>
      <trkpt lat="47.25515" lon="-2.327">
        <ele>18.200000762939</ele>
        <time>2021-05-16T07:28:17.000Z</time>
      </trkpt>
      <trkpt lat="47.25505" lon="-2.327">
        <ele>18.200000762939</ele>
        <time>2021-05-16T07:28:19.000Z</time>
      </trkpt>
      <trkpt lat="47.25487" lon="-2.32705">
        <ele>18.200000762939</ele>
        <time>2021-05-16T07:28:23.000Z</time>
      </trkpt>
      <trkpt lat="47.25476" lon="-2.32715">
        <ele>18.200000762939</ele>
        <time>2021-05-16T07:28:26.000Z</time>
      </trkpt>
      <trkpt lat="47.25468" lon="-2.32724">
        <ele>18.200000762939</ele>
        <time>2021-05-16T07:28:28.000Z</time>
      </trkpt>
      <trkpt lat="47.25451" lon="-2.32746">
        <ele>18.200000762939</ele>
        <time>2021-05-16T07:28:33.000Z</time>
      </trkpt>
      <trkpt lat="47.25443" lon="-2.32761">
        <ele>18.200000762939</ele>
        <time>2021-05-16T07:28:36.000Z</time>
      </trkpt>
      <trkpt lat="47.25436" lon="-2.32776">
        <ele>18.200000762939</ele>
        <time>2021-05-16T07:28:39.000Z</time>
      </trkpt>
      <trkpt lat="47.25435" lon="-2.32782">
        <ele>17.60000038147</ele>
        <time>2021-05-16T07:28:40.000Z</time>
      </trkpt>
      <trkpt lat="47.25433" lon="-2.32786">
        <ele>17.200000762939</ele>
        <time>2021-05-16T07:28:41.000Z</time>
      </trkpt>
      <trkpt lat="47.2543" lon="-2.32789">
        <ele>16.799999237061</ele>
        <time>2021-05-16T07:28:42.000Z</time>
      </trkpt>
      <trkpt lat="47.25427" lon="-2.32793">
        <ele>16.39999961853</ele>
        <time>2021-05-16T07:28:43.000Z</time>
      </trkpt>
      <trkpt lat="47.25424" lon="-2.32797">
        <ele>16</ele>
        <time>2021-05-16T07:28:44.000Z</time>
      </trkpt>
      <trkpt lat="47.2542" lon="-2.32802">
        <ele>16</ele>
        <time>2021-05-16T07:28:45.000Z</time>
      </trkpt>
      <trkpt lat="47.25404" lon="-2.32827">
        <ele>16</ele>
        <time>2021-05-16T07:28:50.000Z</time>
      </trkpt>
      <trkpt lat="47.25374" lon="-2.32862">
        <ele>16</ele>
        <time>2021-05-16T07:28:58.000Z</time>
      </trkpt>
      <trkpt lat="47.25352" lon="-2.32884">
        <ele>16</ele>
        <time>2021-05-16T07:29:04.000Z</time>
      </trkpt>
      <trkpt lat="47.25334" lon="-2.32901">
        <ele>16</ele>
        <time>2021-05-16T07:29:09.000Z</time>
      </trkpt>
      <trkpt lat="47.25331" lon="-2.32905">
        <ele>16</ele>
        <time>2021-05-16T07:29:10.000Z</time>
      </trkpt>
      <trkpt lat="47.25323" lon="-2.32913">
        <ele>16</ele>
        <time>2021-05-16T07:29:12.000Z</time>
      </trkpt>
      <trkpt lat="47.25315" lon="-2.3292">
        <ele>15.60000038147</ele>
        <time>2021-05-16T07:29:14.000Z</time>
      </trkpt>
      <trkpt lat="47.25312" lon="-2.32924">
        <ele>15</ele>
        <time>2021-05-16T07:29:15.000Z</time>
      </trkpt>
      <trkpt lat="47.25311" lon="-2.3293">
        <ele>14.60000038147</ele>
        <time>2021-05-16T07:29:16.000Z</time>
      </trkpt>
      <trkpt lat="47.25309" lon="-2.32935">
        <ele>14.199999809265</ele>
        <time>2021-05-16T07:29:17.000Z</time>
      </trkpt>
      <trkpt lat="47.25309" lon="-2.32941">
        <ele>13.800000190735</ele>
        <time>2021-05-16T07:29:18.000Z</time>
      </trkpt>
      <trkpt lat="47.25312" lon="-2.32951">
        <ele>13.800000190735</ele>
        <time>2021-05-16T07:29:20.000Z</time>
      </trkpt>
      <trkpt lat="47.25313" lon="-2.32956">
        <ele>13.800000190735</ele>
        <time>2021-05-16T07:29:21.000Z</time>
      </trkpt>
      <trkpt lat="47.25319" lon="-2.32971">
        <ele>13.800000190735</ele>
        <time>2021-05-16T07:29:24.000Z</time>
      </trkpt>
      <trkpt lat="47.25324" lon="-2.32982">
        <ele>13.800000190735</ele>
        <time>2021-05-16T07:29:26.000Z</time>
      </trkpt>
      <trkpt lat="47.25326" lon="-2.32987">
        <ele>13.800000190735</ele>
        <time>2021-05-16T07:29:27.000Z</time>
      </trkpt>
      <trkpt lat="47.25339" lon="-2.33021">
        <ele>13.800000190735</ele>
        <time>2021-05-16T07:29:34.000Z</time>
      </trkpt>
      <trkpt lat="47.25351" lon="-2.33055">
        <ele>13.800000190735</ele>
        <time>2021-05-16T07:29:41.000Z</time>
      </trkpt>
      <trkpt lat="47.25361" lon="-2.33083">
        <ele>13.800000190735</ele>
        <time>2021-05-16T07:29:48.000Z</time>
      </trkpt>
      <trkpt lat="47.25364" lon="-2.3309">
        <ele>13.800000190735</ele>
        <time>2021-05-16T07:29:51.000Z</time>
      </trkpt>
      <trkpt lat="47.25364" lon="-2.33092">
        <ele>13.800000190735</ele>
        <time>2021-05-16T07:29:53.000Z</time>
      </trkpt>
      <trkpt lat="47.25364" lon="-2.33092">
        <ele>13.800000190735</ele>
        <time>2021-05-16T07:29:54.000Z</time>
      </trkpt>
      <trkpt lat="47.25364" lon="-2.3309">
        <ele>11.800000190735</ele>
        <time>2021-05-16T07:34:18.000Z</time>
      </trkpt>
      <trkpt lat="47.25363" lon="-2.33086">
        <ele>11.800000190735</ele>
        <time>2021-05-16T07:34:20.000Z</time>
      </trkpt>
      <trkpt lat="47.25359" lon="-2.33075">
        <ele>11.800000190735</ele>
        <time>2021-05-16T07:34:25.000Z</time>
      </trkpt>
      <trkpt lat="47.2535" lon="-2.33051">
        <ele>11.800000190735</ele>
        <time>2021-05-16T07:34:32.000Z</time>
      </trkpt>
      <trkpt lat="47.25339" lon="-2.33023">
        <ele>11.800000190735</ele>
        <time>2021-05-16T07:34:39.000Z</time>
      </trkpt>
      <trkpt lat="47.25326" lon="-2.32992">
        <ele>11.800000190735</ele>
        <time>2021-05-16T07:34:46.000Z</time>
      </trkpt>
      <trkpt lat="47.2531" lon="-2.32951">
        <ele>11.800000190735</ele>
        <time>2021-05-16T07:34:55.000Z</time>
      </trkpt>
      <trkpt lat="47.25298" lon="-2.32936">
        <ele>11.800000190735</ele>
        <time>2021-05-16T07:35:00.000Z</time>
      </trkpt>
      <trkpt lat="47.25282" lon="-2.32945">
        <ele>11.800000190735</ele>
        <time>2021-05-16T07:35:05.000Z</time>
      </trkpt>
      <trkpt lat="47.25273" lon="-2.32955">
        <ele>11.800000190735</ele>
        <time>2021-05-16T07:35:08.000Z</time>
      </trkpt>
      <trkpt lat="47.25263" lon="-2.32966">
        <ele>11.800000190735</ele>
        <time>2021-05-16T07:35:11.000Z</time>
      </trkpt>
      <trkpt lat="47.25241" lon="-2.32989">
        <ele>11.800000190735</ele>
        <time>2021-05-16T07:35:18.000Z</time>
      </trkpt>
      <trkpt lat="47.25222" lon="-2.33008">
        <ele>11.800000190735</ele>
        <time>2021-05-16T07:35:24.000Z</time>
      </trkpt>
      <trkpt lat="47.25208" lon="-2.33018">
        <ele>11.800000190735</ele>
        <time>2021-05-16T07:35:28.000Z</time>
      </trkpt>
      <trkpt lat="47.25204" lon="-2.33016">
        <ele>11.800000190735</ele>
        <time>2021-05-16T07:35:29.000Z</time>
      </trkpt>
      <trkpt lat="47.25194" lon="-2.33006">
        <ele>11.800000190735</ele>
        <time>2021-05-16T07:35:32.000Z</time>
      </trkpt>
      <trkpt lat="47.25186" lon="-2.32994">
        <ele>11.800000190735</ele>
        <time>2021-05-16T07:35:35.000Z</time>
      </trkpt>
      <trkpt lat="47.25174" lon="-2.32969">
        <ele>11.800000190735</ele>
        <time>2021-05-16T07:35:41.000Z</time>
      </trkpt>
      <trkpt lat="47.2517" lon="-2.32955">
        <ele>11.800000190735</ele>
        <time>2021-05-16T07:35:47.000Z</time>
      </trkpt>
      <trkpt lat="47.2517" lon="-2.32949">
        <ele>11.800000190735</ele>
        <time>2021-05-16T07:35:49.000Z</time>
      </trkpt>
      <trkpt lat="47.25171" lon="-2.32942">
        <ele>11.800000190735</ele>
        <time>2021-05-16T07:35:51.000Z</time>
      </trkpt>
      <trkpt lat="47.25176" lon="-2.32927">
        <ele>11.800000190735</ele>
        <time>2021-05-16T07:35:55.000Z</time>
      </trkpt>
      <trkpt lat="47.25178" lon="-2.32921">
        <ele>11.800000190735</ele>
        <time>2021-05-16T07:35:56.000Z</time>
      </trkpt>
      <trkpt lat="47.25179" lon="-2.32893">
        <ele>11.800000190735</ele>
        <time>2021-05-16T07:36:01.000Z</time>
      </trkpt>
      <trkpt lat="47.25185" lon="-2.32867">
        <ele>11.800000190735</ele>
        <time>2021-05-16T07:36:06.000Z</time>
      </trkpt>
      <trkpt lat="47.25188" lon="-2.32855">
        <ele>11.800000190735</ele>
        <time>2021-05-16T07:36:09.000Z</time>
      </trkpt>
      <trkpt lat="47.25186" lon="-2.32851">
        <ele>11.800000190735</ele>
        <time>2021-05-16T07:36:10.000Z</time>
      </trkpt>
      <trkpt lat="47.25173" lon="-2.32845">
        <ele>11.800000190735</ele>
        <time>2021-05-16T07:36:14.000Z</time>
      </trkpt>
      <trkpt lat="47.25161" lon="-2.32841">
        <ele>11.800000190735</ele>
        <time>2021-05-16T07:36:17.000Z</time>
      </trkpt>
      <trkpt lat="47.25153" lon="-2.32837">
        <ele>11.800000190735</ele>
        <time>2021-05-16T07:36:19.000Z</time>
      </trkpt>
      <trkpt lat="47.25145" lon="-2.32834">
        <ele>11.800000190735</ele>
        <time>2021-05-16T07:36:21.000Z</time>
      </trkpt>
      <trkpt lat="47.25132" lon="-2.3283">
        <ele>11.800000190735</ele>
        <time>2021-05-16T07:36:24.000Z</time>
      </trkpt>
      <trkpt lat="47.25124" lon="-2.32828">
        <ele>11.800000190735</ele>
        <time>2021-05-16T07:36:26.000Z</time>
      </trkpt>
      <trkpt lat="47.25103" lon="-2.32816">
        <ele>11.800000190735</ele>
        <time>2021-05-16T07:36:31.000Z</time>
      </trkpt>
      <trkpt lat="47.25088" lon="-2.32792">
        <ele>11.800000190735</ele>
        <time>2021-05-16T07:36:36.000Z</time>
      </trkpt>
      <trkpt lat="47.25064" lon="-2.32739">
        <ele>11.800000190735</ele>
        <time>2021-05-16T07:36:45.000Z</time>
      </trkpt>
      <trkpt lat="47.25059" lon="-2.32724">
        <ele>11.800000190735</ele>
        <time>2021-05-16T07:36:48.000Z</time>
      </trkpt>
      <trkpt lat="47.25061" lon="-2.3272">
        <ele>11.800000190735</ele>
        <time>2021-05-16T07:36:49.000Z</time>
      </trkpt>
      <trkpt lat="47.25071" lon="-2.32709">
        <ele>11.800000190735</ele>
        <time>2021-05-16T07:36:52.000Z</time>
      </trkpt>
      <trkpt lat="47.25075" lon="-2.32704">
        <ele>11.800000190735</ele>
        <time>2021-05-16T07:36:53.000Z</time>
      </trkpt>
      <trkpt lat="47.25085" lon="-2.32684">
        <ele>11.800000190735</ele>
        <time>2021-05-16T07:36:57.000Z</time>
      </trkpt>
      <trkpt lat="47.25085" lon="-2.32677">
        <ele>11.800000190735</ele>
        <time>2021-05-16T07:36:58.000Z</time>
      </trkpt>
      <trkpt lat="47.25078" lon="-2.32659">
        <ele>11.800000190735</ele>
        <time>2021-05-16T07:37:01.000Z</time>
      </trkpt>
      <trkpt lat="47.25075" lon="-2.32652">
        <ele>11.800000190735</ele>
        <time>2021-05-16T07:37:02.000Z</time>
      </trkpt>
      <trkpt lat="47.25069" lon="-2.3264">
        <ele>12.199999809265</ele>
        <time>2021-05-16T07:37:04.000Z</time>
      </trkpt>
      <trkpt lat="47.25066" lon="-2.32634">
        <ele>12.60000038147</ele>
        <time>2021-05-16T07:37:05.000Z</time>
      </trkpt>
      <trkpt lat="47.25062" lon="-2.32628">
        <ele>13</ele>
        <time>2021-05-16T07:37:06.000Z</time>
      </trkpt>
      <trkpt lat="47.25059" lon="-2.32621">
        <ele>13.39999961853</ele>
        <time>2021-05-16T07:37:07.000Z</time>
      </trkpt>
      <trkpt lat="47.25057" lon="-2.32615">
        <ele>14</ele>
        <time>2021-05-16T07:37:08.000Z</time>
      </trkpt>
      <trkpt lat="47.2505" lon="-2.32602">
        <ele>14</ele>
        <time>2021-05-16T07:37:10.000Z</time>
      </trkpt>
      <trkpt lat="47.25034" lon="-2.32564">
        <ele>14.39999961853</ele>
        <time>2021-05-16T07:37:16.000Z</time>
      </trkpt>
      <trkpt lat="47.25032" lon="-2.32558">
        <ele>14.800000190735</ele>
        <time>2021-05-16T07:37:17.000Z</time>
      </trkpt>
      <trkpt lat="47.2503" lon="-2.32552">
        <ele>15.199999809265</ele>
        <time>2021-05-16T07:37:18.000Z</time>
      </trkpt>
      <trkpt lat="47.25029" lon="-2.32545">
        <ele>15.60000038147</ele>
        <time>2021-05-16T07:37:19.000Z</time>
      </trkpt>
      <trkpt lat="47.25029" lon="-2.32538">
        <ele>16</ele>
        <time>2021-05-16T07:37:20.000Z</time>
      </trkpt>
      <trkpt lat="47.25029" lon="-2.32532">
        <ele>16</ele>
        <time>2021-05-16T07:37:21.000Z</time>
      </trkpt>
      <trkpt lat="47.25037" lon="-2.32519">
        <ele>16.39999961853</ele>
        <time>2021-05-16T07:37:24.000Z</time>
      </trkpt>
      <trkpt lat="47.25041" lon="-2.32515">
        <ele>17</ele>
        <time>2021-05-16T07:37:25.000Z</time>
      </trkpt>
      <trkpt lat="47.25044" lon="-2.32512">
        <ele>17.39999961853</ele>
        <time>2021-05-16T07:37:26.000Z</time>
      </trkpt>
      <trkpt lat="47.25048" lon="-2.32509">
        <ele>17.799999237061</ele>
        <time>2021-05-16T07:37:27.000Z</time>
      </trkpt>
      <trkpt lat="47.25052" lon="-2.32507">
        <ele>18.200000762939</ele>
        <time>2021-05-16T07:37:28.000Z</time>
      </trkpt>
      <trkpt lat="47.25056" lon="-2.32505">
        <ele>18.200000762939</ele>
        <time>2021-05-16T07:37:29.000Z</time>
      </trkpt>
      <trkpt lat="47.25089" lon="-2.32489">
        <ele>18.200000762939</ele>
        <time>2021-05-16T07:37:37.000Z</time>
      </trkpt>
      <trkpt lat="47.25104" lon="-2.32469">
        <ele>18.200000762939</ele>
        <time>2021-05-16T07:37:42.000Z</time>
      </trkpt>
      <trkpt lat="47.25108" lon="-2.32457">
        <ele>18.200000762939</ele>
        <time>2021-05-16T07:37:44.000Z</time>
      </trkpt>
      <trkpt lat="47.25109" lon="-2.32451">
        <ele>18.200000762939</ele>
        <time>2021-05-16T07:37:45.000Z</time>
      </trkpt>
      <trkpt lat="47.2511" lon="-2.32438">
        <ele>18.60000038147</ele>
        <time>2021-05-16T07:37:47.000Z</time>
      </trkpt>
      <trkpt lat="47.25109" lon="-2.32432">
        <ele>19</ele>
        <time>2021-05-16T07:37:48.000Z</time>
      </trkpt>
      <trkpt lat="47.25109" lon="-2.32426">
        <ele>19.39999961853</ele>
        <time>2021-05-16T07:37:49.000Z</time>
      </trkpt>
      <trkpt lat="47.25108" lon="-2.3242">
        <ele>19.799999237061</ele>
        <time>2021-05-16T07:37:50.000Z</time>
      </trkpt>
      <trkpt lat="47.25108" lon="-2.32414">
        <ele>20.200000762939</ele>
        <time>2021-05-16T07:37:51.000Z</time>
      </trkpt>
      <trkpt lat="47.25107" lon="-2.32396">
        <ele>20.200000762939</ele>
        <time>2021-05-16T07:37:54.000Z</time>
      </trkpt>
      <trkpt lat="47.25108" lon="-2.32369">
        <ele>20.799999237061</ele>
        <time>2021-05-16T07:37:59.000Z</time>
      </trkpt>
      <trkpt lat="47.25108" lon="-2.32363">
        <ele>21.200000762939</ele>
        <time>2021-05-16T07:38:00.000Z</time>
      </trkpt>
      <trkpt lat="47.25109" lon="-2.32358">
        <ele>21.60000038147</ele>
        <time>2021-05-16T07:38:01.000Z</time>
      </trkpt>
      <trkpt lat="47.2511" lon="-2.32352">
        <ele>22</ele>
        <time>2021-05-16T07:38:02.000Z</time>
      </trkpt>
      <trkpt lat="47.25111" lon="-2.32347">
        <ele>22.39999961853</ele>
        <time>2021-05-16T07:38:03.000Z</time>
      </trkpt>
      <trkpt lat="47.25114" lon="-2.32337">
        <ele>22.39999961853</ele>
        <time>2021-05-16T07:38:05.000Z</time>
      </trkpt>
      <trkpt lat="47.25126" lon="-2.32309">
        <ele>22.39999961853</ele>
        <time>2021-05-16T07:38:11.000Z</time>
      </trkpt>
      <trkpt lat="47.25128" lon="-2.32305">
        <ele>22.799999237061</ele>
        <time>2021-05-16T07:38:12.000Z</time>
      </trkpt>
      <trkpt lat="47.2513" lon="-2.32302">
        <ele>23.200000762939</ele>
        <time>2021-05-16T07:38:13.000Z</time>
      </trkpt>
      <trkpt lat="47.25132" lon="-2.32297">
        <ele>23.799999237061</ele>
        <time>2021-05-16T07:38:14.000Z</time>
      </trkpt>
      <trkpt lat="47.25134" lon="-2.32292">
        <ele>24.200000762939</ele>
        <time>2021-05-16T07:38:15.000Z</time>
      </trkpt>
      <trkpt lat="47.25134" lon="-2.32287">
        <ele>24.60000038147</ele>
        <time>2021-05-16T07:38:16.000Z</time>
      </trkpt>
      <trkpt lat="47.25132" lon="-2.32254">
        <ele>24.60000038147</ele>
        <time>2021-05-16T07:38:21.000Z</time>
      </trkpt>
      <trkpt lat="47.25132" lon="-2.32247">
        <ele>24.60000038147</ele>
        <time>2021-05-16T07:38:22.000Z</time>
      </trkpt>
      <trkpt lat="47.25129" lon="-2.32199">
        <ele>24.60000038147</ele>
        <time>2021-05-16T07:38:29.000Z</time>
      </trkpt>
      <trkpt lat="47.25126" lon="-2.32146">
        <ele>25</ele>
        <time>2021-05-16T07:38:36.000Z</time>
      </trkpt>
      <trkpt lat="47.25126" lon="-2.32138">
        <ele>25.39999961853</ele>
        <time>2021-05-16T07:38:37.000Z</time>
      </trkpt>
      <trkpt lat="47.25125" lon="-2.3213">
        <ele>25.799999237061</ele>
        <time>2021-05-16T07:38:38.000Z</time>
      </trkpt>
      <trkpt lat="47.25124" lon="-2.32122">
        <ele>26.200000762939</ele>
        <time>2021-05-16T07:38:39.000Z</time>
      </trkpt>
      <trkpt lat="47.25124" lon="-2.32115">
        <ele>26.799999237061</ele>
        <time>2021-05-16T07:38:40.000Z</time>
      </trkpt>
      <trkpt lat="47.25122" lon="-2.32099">
        <ele>26.799999237061</ele>
        <time>2021-05-16T07:38:42.000Z</time>
      </trkpt>
      <trkpt lat="47.25117" lon="-2.32045">
        <ele>26.799999237061</ele>
        <time>2021-05-16T07:38:49.000Z</time>
      </trkpt>
      <trkpt lat="47.25112" lon="-2.31989">
        <ele>26.799999237061</ele>
        <time>2021-05-16T07:38:56.000Z</time>
      </trkpt>
      <trkpt lat="47.2511" lon="-2.31981">
        <ele>26.799999237061</ele>
        <time>2021-05-16T07:38:57.000Z</time>
      </trkpt>
      <trkpt lat="47.25106" lon="-2.31958">
        <ele>26.799999237061</ele>
        <time>2021-05-16T07:39:00.000Z</time>
      </trkpt>
      <trkpt lat="47.25105" lon="-2.31949">
        <ele>26.799999237061</ele>
        <time>2021-05-16T07:39:01.000Z</time>
      </trkpt>
      <trkpt lat="47.25097" lon="-2.31883">
        <ele>26.799999237061</ele>
        <time>2021-05-16T07:39:09.000Z</time>
      </trkpt>
      <trkpt lat="47.25087" lon="-2.3182">
        <ele>26.799999237061</ele>
        <time>2021-05-16T07:39:17.000Z</time>
      </trkpt>
      <trkpt lat="47.25077" lon="-2.31771">
        <ele>26.799999237061</ele>
        <time>2021-05-16T07:39:24.000Z</time>
      </trkpt>
      <trkpt lat="47.25067" lon="-2.31732">
        <ele>26.799999237061</ele>
        <time>2021-05-16T07:39:30.000Z</time>
      </trkpt>
      <trkpt lat="47.25058" lon="-2.31685">
        <ele>26.799999237061</ele>
        <time>2021-05-16T07:39:37.000Z</time>
      </trkpt>
      <trkpt lat="47.2505" lon="-2.31658">
        <ele>26.799999237061</ele>
        <time>2021-05-16T07:39:42.000Z</time>
      </trkpt>
      <trkpt lat="47.25043" lon="-2.31649">
        <ele>26.799999237061</ele>
        <time>2021-05-16T07:39:45.000Z</time>
      </trkpt>
      <trkpt lat="47.2504" lon="-2.31649">
        <ele>26.799999237061</ele>
        <time>2021-05-16T07:39:46.000Z</time>
      </trkpt>
      <trkpt lat="47.25033" lon="-2.31656">
        <ele>27.200000762939</ele>
        <time>2021-05-16T07:39:48.000Z</time>
      </trkpt>
      <trkpt lat="47.25029" lon="-2.31659">
        <ele>27.60000038147</ele>
        <time>2021-05-16T07:39:49.000Z</time>
      </trkpt>
      <trkpt lat="47.25025" lon="-2.31664">
        <ele>28</ele>
        <time>2021-05-16T07:39:50.000Z</time>
      </trkpt>
      <trkpt lat="47.25021" lon="-2.31668">
        <ele>28.39999961853</ele>
        <time>2021-05-16T07:39:51.000Z</time>
      </trkpt>
      <trkpt lat="47.25017" lon="-2.31672">
        <ele>28.799999237061</ele>
        <time>2021-05-16T07:39:52.000Z</time>
      </trkpt>
      <trkpt lat="47.24999" lon="-2.31692">
        <ele>28.799999237061</ele>
        <time>2021-05-16T07:39:57.000Z</time>
      </trkpt>
      <trkpt lat="47.24974" lon="-2.31719">
        <ele>28.799999237061</ele>
        <time>2021-05-16T07:40:04.000Z</time>
      </trkpt>
      <trkpt lat="47.2497" lon="-2.31723">
        <ele>28.799999237061</ele>
        <time>2021-05-16T07:40:05.000Z</time>
      </trkpt>
      <trkpt lat="47.2495" lon="-2.31742">
        <ele>28.799999237061</ele>
        <time>2021-05-16T07:40:10.000Z</time>
      </trkpt>
      <trkpt lat="47.24924" lon="-2.31767">
        <ele>28.799999237061</ele>
        <time>2021-05-16T07:40:16.000Z</time>
      </trkpt>
      <trkpt lat="47.24887" lon="-2.31801">
        <ele>29.200000762939</ele>
        <time>2021-05-16T07:40:24.000Z</time>
      </trkpt>
      <trkpt lat="47.24883" lon="-2.31805">
        <ele>29.60000038147</ele>
        <time>2021-05-16T07:40:25.000Z</time>
      </trkpt>
      <trkpt lat="47.24878" lon="-2.31809">
        <ele>30.200000762939</ele>
        <time>2021-05-16T07:40:26.000Z</time>
      </trkpt>
      <trkpt lat="47.24874" lon="-2.31813">
        <ele>30.60000038147</ele>
        <time>2021-05-16T07:40:27.000Z</time>
      </trkpt>
      <trkpt lat="47.2487" lon="-2.31817">
        <ele>31.200000762939</ele>
        <time>2021-05-16T07:40:28.000Z</time>
      </trkpt>
      <trkpt lat="47.24865" lon="-2.31821">
        <ele>30.799999237061</ele>
        <time>2021-05-16T07:40:29.000Z</time>
      </trkpt>
      <trkpt lat="47.24861" lon="-2.31825">
        <ele>30.200000762939</ele>
        <time>2021-05-16T07:40:30.000Z</time>
      </trkpt>
      <trkpt lat="47.24856" lon="-2.31829">
        <ele>29.799999237061</ele>
        <time>2021-05-16T07:40:31.000Z</time>
      </trkpt>
      <trkpt lat="47.24851" lon="-2.31833">
        <ele>29</ele>
        <time>2021-05-16T07:40:32.000Z</time>
      </trkpt>
      <trkpt lat="47.24829" lon="-2.31852">
        <ele>28.60000038147</ele>
        <time>2021-05-16T07:40:37.000Z</time>
      </trkpt>
      <trkpt lat="47.24825" lon="-2.31855">
        <ele>28</ele>
        <time>2021-05-16T07:40:38.000Z</time>
      </trkpt>
      <trkpt lat="47.2482" lon="-2.31859">
        <ele>27.60000038147</ele>
        <time>2021-05-16T07:40:39.000Z</time>
      </trkpt>
      <trkpt lat="47.24816" lon="-2.31862">
        <ele>27.200000762939</ele>
        <time>2021-05-16T07:40:40.000Z</time>
      </trkpt>
      <trkpt lat="47.24812" lon="-2.31866">
        <ele>26.799999237061</ele>
        <time>2021-05-16T07:40:41.000Z</time>
      </trkpt>
      <trkpt lat="47.24807" lon="-2.31867">
        <ele>26.799999237061</ele>
        <time>2021-05-16T07:40:42.000Z</time>
      </trkpt>
      <trkpt lat="47.24798" lon="-2.31865">
        <ele>26.799999237061</ele>
        <time>2021-05-16T07:40:44.000Z</time>
      </trkpt>
      <trkpt lat="47.24786" lon="-2.31849">
        <ele>26.799999237061</ele>
        <time>2021-05-16T07:40:47.000Z</time>
      </trkpt>
      <trkpt lat="47.24752" lon="-2.31798">
        <ele>26.799999237061</ele>
        <time>2021-05-16T07:40:55.000Z</time>
      </trkpt>
      <trkpt lat="47.24738" lon="-2.31779">
        <ele>26.799999237061</ele>
        <time>2021-05-16T07:40:58.000Z</time>
      </trkpt>
      <trkpt lat="47.24725" lon="-2.31761">
        <ele>26.799999237061</ele>
        <time>2021-05-16T07:41:01.000Z</time>
      </trkpt>
      <trkpt lat="47.24699" lon="-2.31719">
        <ele>26.799999237061</ele>
        <time>2021-05-16T07:41:08.000Z</time>
      </trkpt>
      <trkpt lat="47.24671" lon="-2.31679">
        <ele>26.799999237061</ele>
        <time>2021-05-16T07:41:15.000Z</time>
      </trkpt>
      <trkpt lat="47.24659" lon="-2.31665">
        <ele>26.799999237061</ele>
        <time>2021-05-16T07:41:18.000Z</time>
      </trkpt>
      <trkpt lat="47.24649" lon="-2.31648">
        <ele>26.799999237061</ele>
        <time>2021-05-16T07:41:21.000Z</time>
      </trkpt>
      <trkpt lat="47.24627" lon="-2.31614">
        <ele>26.799999237061</ele>
        <time>2021-05-16T07:41:27.000Z</time>
      </trkpt>
      <trkpt lat="47.246" lon="-2.31572">
        <ele>26.799999237061</ele>
        <time>2021-05-16T07:41:34.000Z</time>
      </trkpt>
      <trkpt lat="47.24594" lon="-2.31558">
        <ele>26.799999237061</ele>
        <time>2021-05-16T07:41:36.000Z</time>
      </trkpt>
      <trkpt lat="47.24589" lon="-2.31534">
        <ele>26.799999237061</ele>
        <time>2021-05-16T07:41:39.000Z</time>
      </trkpt>
      <trkpt lat="47.24583" lon="-2.31472">
        <ele>26.799999237061</ele>
        <time>2021-05-16T07:41:46.000Z</time>
      </trkpt>
      <trkpt lat="47.24577" lon="-2.31409">
        <ele>26.799999237061</ele>
        <time>2021-05-16T07:41:54.000Z</time>
      </trkpt>
      <trkpt lat="47.24573" lon="-2.31391">
        <ele>26.799999237061</ele>
        <time>2021-05-16T07:41:58.000Z</time>
      </trkpt>
      <trkpt lat="47.24562" lon="-2.31393">
        <ele>26.799999237061</ele>
        <time>2021-05-16T07:42:02.000Z</time>
      </trkpt>
      <trkpt lat="47.24555" lon="-2.31394">
        <ele>26.799999237061</ele>
        <time>2021-05-16T07:42:04.000Z</time>
      </trkpt>
      <trkpt lat="47.24541" lon="-2.31391">
        <ele>26.799999237061</ele>
        <time>2021-05-16T07:42:08.000Z</time>
      </trkpt>
      <trkpt lat="47.24537" lon="-2.31389">
        <ele>26.799999237061</ele>
        <time>2021-05-16T07:42:09.000Z</time>
      </trkpt>
      <trkpt lat="47.24524" lon="-2.31379">
        <ele>26.799999237061</ele>
        <time>2021-05-16T07:42:12.000Z</time>
      </trkpt>
      <trkpt lat="47.24514" lon="-2.31373">
        <ele>26.39999961853</ele>
        <time>2021-05-16T07:42:14.000Z</time>
      </trkpt>
      <trkpt lat="47.2451" lon="-2.31369">
        <ele>25.799999237061</ele>
        <time>2021-05-16T07:42:15.000Z</time>
      </trkpt>
      <trkpt lat="47.24507" lon="-2.31365">
        <ele>25.39999961853</ele>
        <time>2021-05-16T07:42:16.000Z</time>
      </trkpt>
      <trkpt lat="47.24504" lon="-2.3136">
        <ele>25</ele>
        <time>2021-05-16T07:42:17.000Z</time>
      </trkpt>
      <trkpt lat="47.24501" lon="-2.31356">
        <ele>24.60000038147</ele>
        <time>2021-05-16T07:42:18.000Z</time>
      </trkpt>
      <trkpt lat="47.2449" lon="-2.31338">
        <ele>24.200000762939</ele>
        <time>2021-05-16T07:42:22.000Z</time>
      </trkpt>
      <trkpt lat="47.24488" lon="-2.31332">
        <ele>23.60000038147</ele>
        <time>2021-05-16T07:42:23.000Z</time>
      </trkpt>
      <trkpt lat="47.24485" lon="-2.31325">
        <ele>23.200000762939</ele>
        <time>2021-05-16T07:42:24.000Z</time>
      </trkpt>
      <trkpt lat="47.24482" lon="-2.31318">
        <ele>22.799999237061</ele>
        <time>2021-05-16T07:42:25.000Z</time>
      </trkpt>
      <trkpt lat="47.2448" lon="-2.31311">
        <ele>22.200000762939</ele>
        <time>2021-05-16T07:42:26.000Z</time>
      </trkpt>
      <trkpt lat="47.24474" lon="-2.3129">
        <ele>22.200000762939</ele>
        <time>2021-05-16T07:42:28.000Z</time>
      </trkpt>
      <trkpt lat="47.2447" lon="-2.31282">
        <ele>22.200000762939</ele>
        <time>2021-05-16T07:42:29.000Z</time>
      </trkpt>
      <trkpt lat="47.24456" lon="-2.31253">
        <ele>22.200000762939</ele>
        <time>2021-05-16T07:42:34.000Z</time>
      </trkpt>
      <trkpt lat="47.24454" lon="-2.31248">
        <ele>21.799999237061</ele>
        <time>2021-05-16T07:42:35.000Z</time>
      </trkpt>
      <trkpt lat="47.24452" lon="-2.31243">
        <ele>21.39999961853</ele>
        <time>2021-05-16T07:42:36.000Z</time>
      </trkpt>
      <trkpt lat="47.2445" lon="-2.31238">
        <ele>21</ele>
        <time>2021-05-16T07:42:37.000Z</time>
      </trkpt>
      <trkpt lat="47.24448" lon="-2.31233">
        <ele>20.39999961853</ele>
        <time>2021-05-16T07:42:38.000Z</time>
      </trkpt>
      <trkpt lat="47.24446" lon="-2.3123">
        <ele>20</ele>
        <time>2021-05-16T07:42:39.000Z</time>
      </trkpt>
      <trkpt lat="47.24445" lon="-2.31227">
        <ele>20</ele>
        <time>2021-05-16T07:42:40.000Z</time>
      </trkpt>
      <trkpt lat="47.24442" lon="-2.31223">
        <ele>19.60000038147</ele>
        <time>2021-05-16T07:42:42.000Z</time>
      </trkpt>
      <trkpt lat="47.24441" lon="-2.31223">
        <ele>19.200000762939</ele>
        <time>2021-05-16T07:42:43.000Z</time>
      </trkpt>
      <trkpt lat="47.24439" lon="-2.31223">
        <ele>18.799999237061</ele>
        <time>2021-05-16T07:42:44.000Z</time>
      </trkpt>
      <trkpt lat="47.24437" lon="-2.31224">
        <ele>18.39999961853</ele>
        <time>2021-05-16T07:42:45.000Z</time>
      </trkpt>
      <trkpt lat="47.24436" lon="-2.31225">
        <ele>18</ele>
        <time>2021-05-16T07:42:46.000Z</time>
      </trkpt>
      <trkpt lat="47.24428" lon="-2.31228">
        <ele>18</ele>
        <time>2021-05-16T07:42:51.000Z</time>
      </trkpt>
      <trkpt lat="47.24426" lon="-2.31225">
        <ele>18</ele>
        <time>2021-05-16T07:42:53.000Z</time>
      </trkpt>
      <trkpt lat="47.24423" lon="-2.31215">
        <ele>18</ele>
        <time>2021-05-16T07:42:56.000Z</time>
      </trkpt>
      <trkpt lat="47.24421" lon="-2.3121">
        <ele>18</ele>
        <time>2021-05-16T07:42:58.000Z</time>
      </trkpt>
      <trkpt lat="47.24417" lon="-2.31196">
        <ele>18</ele>
        <time>2021-05-16T07:43:02.000Z</time>
      </trkpt>
      <trkpt lat="47.24414" lon="-2.31191">
        <ele>18</ele>
        <time>2021-05-16T07:43:04.000Z</time>
      </trkpt>
      <trkpt lat="47.2441" lon="-2.31184">
        <ele>18</ele>
        <time>2021-05-16T07:43:07.000Z</time>
      </trkpt>
      <trkpt lat="47.24407" lon="-2.3118">
        <ele>18.39999961853</ele>
        <time>2021-05-16T07:43:09.000Z</time>
      </trkpt>
      <trkpt lat="47.24405" lon="-2.31178">
        <ele>18.799999237061</ele>
        <time>2021-05-16T07:43:10.000Z</time>
      </trkpt>
      <trkpt lat="47.24403" lon="-2.31175">
        <ele>19.39999961853</ele>
        <time>2021-05-16T07:43:11.000Z</time>
      </trkpt>
      <trkpt lat="47.24399" lon="-2.31171">
        <ele>19.799999237061</ele>
        <time>2021-05-16T07:43:12.000Z</time>
      </trkpt>
      <trkpt lat="47.24392" lon="-2.31167">
        <ele>20.200000762939</ele>
        <time>2021-05-16T07:43:13.000Z</time>
      </trkpt>
      <trkpt lat="47.24381" lon="-2.31157">
        <ele>20.200000762939</ele>
        <time>2021-05-16T07:43:15.000Z</time>
      </trkpt>
      <trkpt lat="47.24364" lon="-2.31132">
        <ele>20.200000762939</ele>
        <time>2021-05-16T07:43:20.000Z</time>
      </trkpt>
      <trkpt lat="47.24356" lon="-2.31121">
        <ele>20.200000762939</ele>
        <time>2021-05-16T07:43:22.000Z</time>
      </trkpt>
      <trkpt lat="47.2435" lon="-2.31105">
        <ele>20.200000762939</ele>
        <time>2021-05-16T07:43:25.000Z</time>
      </trkpt>
      <trkpt lat="47.24342" lon="-2.31076">
        <ele>20.200000762939</ele>
        <time>2021-05-16T07:43:30.000Z</time>
      </trkpt>
      <trkpt lat="47.24327" lon="-2.31048">
        <ele>20.200000762939</ele>
        <time>2021-05-16T07:43:36.000Z</time>
      </trkpt>
      <trkpt lat="47.24314" lon="-2.31039">
        <ele>20.200000762939</ele>
        <time>2021-05-16T07:43:39.000Z</time>
      </trkpt>
      <trkpt lat="47.24308" lon="-2.31037">
        <ele>20.200000762939</ele>
        <time>2021-05-16T07:43:40.000Z</time>
      </trkpt>
      <trkpt lat="47.24294" lon="-2.31034">
        <ele>20.200000762939</ele>
        <time>2021-05-16T07:43:43.000Z</time>
      </trkpt>
      <trkpt lat="47.24289" lon="-2.31034">
        <ele>20.200000762939</ele>
        <time>2021-05-16T07:43:44.000Z</time>
      </trkpt>
      <trkpt lat="47.24284" lon="-2.31034">
        <ele>20.200000762939</ele>
        <time>2021-05-16T07:43:45.000Z</time>
      </trkpt>
      <trkpt lat="47.24272" lon="-2.31026">
        <ele>19.799999237061</ele>
        <time>2021-05-16T07:43:48.000Z</time>
      </trkpt>
      <trkpt lat="47.2427" lon="-2.31023">
        <ele>19.39999961853</ele>
        <time>2021-05-16T07:43:49.000Z</time>
      </trkpt>
      <trkpt lat="47.24268" lon="-2.31019">
        <ele>18.60000038147</ele>
        <time>2021-05-16T07:43:50.000Z</time>
      </trkpt>
      <trkpt lat="47.24269" lon="-2.31014">
        <ele>18.200000762939</ele>
        <time>2021-05-16T07:43:51.000Z</time>
      </trkpt>
      <trkpt lat="47.24271" lon="-2.31">
        <ele>18.200000762939</ele>
        <time>2021-05-16T07:43:53.000Z</time>
      </trkpt>
      <trkpt lat="47.24274" lon="-2.30986">
        <ele>18.200000762939</ele>
        <time>2021-05-16T07:43:55.000Z</time>
      </trkpt>
      <trkpt lat="47.24275" lon="-2.30971">
        <ele>18.60000038147</ele>
        <time>2021-05-16T07:43:57.000Z</time>
      </trkpt>
      <trkpt lat="47.24276" lon="-2.30965">
        <ele>19</ele>
        <time>2021-05-16T07:43:58.000Z</time>
      </trkpt>
      <trkpt lat="47.24277" lon="-2.30958">
        <ele>19.39999961853</ele>
        <time>2021-05-16T07:43:59.000Z</time>
      </trkpt>
      <trkpt lat="47.24278" lon="-2.30952">
        <ele>20</ele>
        <time>2021-05-16T07:44:00.000Z</time>
      </trkpt>
      <trkpt lat="47.24279" lon="-2.30946">
        <ele>20.39999961853</ele>
        <time>2021-05-16T07:44:01.000Z</time>
      </trkpt>
      <trkpt lat="47.24281" lon="-2.30936">
        <ele>20.799999237061</ele>
        <time>2021-05-16T07:44:03.000Z</time>
      </trkpt>
      <trkpt lat="47.24282" lon="-2.30931">
        <ele>21.200000762939</ele>
        <time>2021-05-16T07:44:04.000Z</time>
      </trkpt>
      <trkpt lat="47.24282" lon="-2.30927">
        <ele>21.60000038147</ele>
        <time>2021-05-16T07:44:05.000Z</time>
      </trkpt>
      <trkpt lat="47.24282" lon="-2.30922">
        <ele>22</ele>
        <time>2021-05-16T07:44:06.000Z</time>
      </trkpt>
      <trkpt lat="47.24281" lon="-2.30917">
        <ele>22.39999961853</ele>
        <time>2021-05-16T07:44:07.000Z</time>
      </trkpt>
      <trkpt lat="47.24278" lon="-2.30892">
        <ele>22.799999237061</ele>
        <time>2021-05-16T07:44:12.000Z</time>
      </trkpt>
      <trkpt lat="47.24278" lon="-2.30887">
        <ele>23.200000762939</ele>
        <time>2021-05-16T07:44:13.000Z</time>
      </trkpt>
      <trkpt lat="47.24277" lon="-2.30882">
        <ele>24</ele>
        <time>2021-05-16T07:44:14.000Z</time>
      </trkpt>
      <trkpt lat="47.24277" lon="-2.30876">
        <ele>24.39999961853</ele>
        <time>2021-05-16T07:44:15.000Z</time>
      </trkpt>
      <trkpt lat="47.24279" lon="-2.30854">
        <ele>24.39999961853</ele>
        <time>2021-05-16T07:44:19.000Z</time>
      </trkpt>
      <trkpt lat="47.24286" lon="-2.3083">
        <ele>24.799999237061</ele>
        <time>2021-05-16T07:44:24.000Z</time>
      </trkpt>
      <trkpt lat="47.24288" lon="-2.30826">
        <ele>25.200000762939</ele>
        <time>2021-05-16T07:44:25.000Z</time>
      </trkpt>
      <trkpt lat="47.2429" lon="-2.30822">
        <ele>25.799999237061</ele>
        <time>2021-05-16T07:44:26.000Z</time>
      </trkpt>
      <trkpt lat="47.24293" lon="-2.30819">
        <ele>26.200000762939</ele>
        <time>2021-05-16T07:44:27.000Z</time>
      </trkpt>
      <trkpt lat="47.24295" lon="-2.30816">
        <ele>26.60000038147</ele>
        <time>2021-05-16T07:44:28.000Z</time>
      </trkpt>
      <trkpt lat="47.24298" lon="-2.30813">
        <ele>26.60000038147</ele>
        <time>2021-05-16T07:44:29.000Z</time>
      </trkpt>
      <trkpt lat="47.24314" lon="-2.30802">
        <ele>26.60000038147</ele>
        <time>2021-05-16T07:44:34.000Z</time>
      </trkpt>
      <trkpt lat="47.2434" lon="-2.30793">
        <ele>26.60000038147</ele>
        <time>2021-05-16T07:44:40.000Z</time>
      </trkpt>
      <trkpt lat="47.24348" lon="-2.3079">
        <ele>27</ele>
        <time>2021-05-16T07:44:42.000Z</time>
      </trkpt>
      <trkpt lat="47.24351" lon="-2.30788">
        <ele>27.39999961853</ele>
        <time>2021-05-16T07:44:43.000Z</time>
      </trkpt>
      <trkpt lat="47.24354" lon="-2.30786">
        <ele>27.799999237061</ele>
        <time>2021-05-16T07:44:44.000Z</time>
      </trkpt>
      <trkpt lat="47.24358" lon="-2.30783">
        <ele>28.200000762939</ele>
        <time>2021-05-16T07:44:45.000Z</time>
      </trkpt>
      <trkpt lat="47.24361" lon="-2.3078">
        <ele>28.60000038147</ele>
        <time>2021-05-16T07:44:46.000Z</time>
      </trkpt>
      <trkpt lat="47.24373" lon="-2.30767">
        <ele>28.60000038147</ele>
        <time>2021-05-16T07:44:50.000Z</time>
      </trkpt>
      <trkpt lat="47.24376" lon="-2.30763">
        <ele>29.200000762939</ele>
        <time>2021-05-16T07:44:51.000Z</time>
      </trkpt>
      <trkpt lat="47.24378" lon="-2.3076">
        <ele>29.60000038147</ele>
        <time>2021-05-16T07:44:52.000Z</time>
      </trkpt>
      <trkpt lat="47.2438" lon="-2.30756">
        <ele>30</ele>
        <time>2021-05-16T07:44:53.000Z</time>
      </trkpt>
      <trkpt lat="47.24383" lon="-2.30753">
        <ele>30.39999961853</ele>
        <time>2021-05-16T07:44:54.000Z</time>
      </trkpt>
      <trkpt lat="47.24386" lon="-2.30751">
        <ele>30.799999237061</ele>
        <time>2021-05-16T07:44:55.000Z</time>
      </trkpt>
      <trkpt lat="47.24397" lon="-2.30734">
        <ele>30.799999237061</ele>
        <time>2021-05-16T07:45:00.000Z</time>
      </trkpt>
      <trkpt lat="47.24397" lon="-2.30708">
        <ele>30.799999237061</ele>
        <time>2021-05-16T07:45:06.000Z</time>
      </trkpt>
      <trkpt lat="47.244" lon="-2.30685">
        <ele>30.799999237061</ele>
        <time>2021-05-16T07:45:10.000Z</time>
      </trkpt>
      <trkpt lat="47.24402" lon="-2.3068">
        <ele>30.799999237061</ele>
        <time>2021-05-16T07:45:11.000Z</time>
      </trkpt>
      <trkpt lat="47.24407" lon="-2.30658">
        <ele>30.799999237061</ele>
        <time>2021-05-16T07:45:15.000Z</time>
      </trkpt>
      <trkpt lat="47.2441" lon="-2.30647">
        <ele>30.799999237061</ele>
        <time>2021-05-16T07:45:17.000Z</time>
      </trkpt>
      <trkpt lat="47.2442" lon="-2.30625">
        <ele>30.799999237061</ele>
        <time>2021-05-16T07:45:22.000Z</time>
      </trkpt>
      <trkpt lat="47.24436" lon="-2.30602">
        <ele>30.799999237061</ele>
        <time>2021-05-16T07:45:28.000Z</time>
      </trkpt>
      <trkpt lat="47.24451" lon="-2.30575">
        <ele>30.799999237061</ele>
        <time>2021-05-16T07:45:33.000Z</time>
      </trkpt>
      <trkpt lat="47.24458" lon="-2.30556">
        <ele>30.799999237061</ele>
        <time>2021-05-16T07:45:37.000Z</time>
      </trkpt>
      <trkpt lat="47.24458" lon="-2.30553">
        <ele>30.799999237061</ele>
        <time>2021-05-16T07:45:38.000Z</time>
      </trkpt>
      <trkpt lat="47.24454" lon="-2.30551">
        <ele>30.799999237061</ele>
        <time>2021-05-16T07:45:40.000Z</time>
      </trkpt>
      <trkpt lat="47.24453" lon="-2.30551">
        <ele>30.39999961853</ele>
        <time>2021-05-16T07:45:41.000Z</time>
      </trkpt>
      <trkpt lat="47.24452" lon="-2.30552">
        <ele>30</ele>
        <time>2021-05-16T07:45:42.000Z</time>
      </trkpt>
      <trkpt lat="47.2445" lon="-2.30553">
        <ele>29.60000038147</ele>
        <time>2021-05-16T07:45:43.000Z</time>
      </trkpt>
      <trkpt lat="47.24449" lon="-2.30556">
        <ele>29.200000762939</ele>
        <time>2021-05-16T07:45:44.000Z</time>
      </trkpt>
      <trkpt lat="47.24447" lon="-2.30558">
        <ele>28.799999237061</ele>
        <time>2021-05-16T07:45:45.000Z</time>
      </trkpt>
      <trkpt lat="47.24443" lon="-2.30573">
        <ele>28.799999237061</ele>
        <time>2021-05-16T07:45:49.000Z</time>
      </trkpt>
      <trkpt lat="47.24435" lon="-2.30582">
        <ele>28.200000762939</ele>
        <time>2021-05-16T07:45:52.000Z</time>
      </trkpt>
      <trkpt lat="47.24431" lon="-2.30584">
        <ele>27.799999237061</ele>
        <time>2021-05-16T07:45:53.000Z</time>
      </trkpt>
      <trkpt lat="47.24426" lon="-2.30585">
        <ele>27.39999961853</ele>
        <time>2021-05-16T07:45:54.000Z</time>
      </trkpt>
      <trkpt lat="47.24422" lon="-2.30587">
        <ele>27</ele>
        <time>2021-05-16T07:45:55.000Z</time>
      </trkpt>
      <trkpt lat="47.24418" lon="-2.30588">
        <ele>26.60000038147</ele>
        <time>2021-05-16T07:45:56.000Z</time>
      </trkpt>
      <trkpt lat="47.2441" lon="-2.30584">
        <ele>26.60000038147</ele>
        <time>2021-05-16T07:45:58.000Z</time>
      </trkpt>
      <trkpt lat="47.24387" lon="-2.30567">
        <ele>26.60000038147</ele>
        <time>2021-05-16T07:46:03.000Z</time>
      </trkpt>
      <trkpt lat="47.24382" lon="-2.30561">
        <ele>26.60000038147</ele>
        <time>2021-05-16T07:46:04.000Z</time>
      </trkpt>
      <trkpt lat="47.24367" lon="-2.30529">
        <ele>26.60000038147</ele>
        <time>2021-05-16T07:46:09.000Z</time>
      </trkpt>
      <trkpt lat="47.24359" lon="-2.3051">
        <ele>26.60000038147</ele>
        <time>2021-05-16T07:46:12.000Z</time>
      </trkpt>
      <trkpt lat="47.2436" lon="-2.30505">
        <ele>26.60000038147</ele>
        <time>2021-05-16T07:46:13.000Z</time>
      </trkpt>
      <trkpt lat="47.24365" lon="-2.30488">
        <ele>27</ele>
        <time>2021-05-16T07:46:17.000Z</time>
      </trkpt>
      <trkpt lat="47.24366" lon="-2.30483">
        <ele>27.60000038147</ele>
        <time>2021-05-16T07:46:18.000Z</time>
      </trkpt>
      <trkpt lat="47.24367" lon="-2.30479">
        <ele>28</ele>
        <time>2021-05-16T07:46:19.000Z</time>
      </trkpt>
      <trkpt lat="47.24368" lon="-2.30475">
        <ele>28.39999961853</ele>
        <time>2021-05-16T07:46:20.000Z</time>
      </trkpt>
      <trkpt lat="47.24369" lon="-2.3047">
        <ele>28.799999237061</ele>
        <time>2021-05-16T07:46:21.000Z</time>
      </trkpt>
      <trkpt lat="47.2437" lon="-2.3046">
        <ele>28.799999237061</ele>
        <time>2021-05-16T07:46:23.000Z</time>
      </trkpt>
      <trkpt lat="47.24369" lon="-2.30452">
        <ele>29.200000762939</ele>
        <time>2021-05-16T07:46:25.000Z</time>
      </trkpt>
      <trkpt lat="47.24366" lon="-2.3045">
        <ele>29.799999237061</ele>
        <time>2021-05-16T07:46:26.000Z</time>
      </trkpt>
      <trkpt lat="47.24366" lon="-2.30449">
        <ele>30.200000762939</ele>
        <time>2021-05-16T07:46:27.000Z</time>
      </trkpt>
      <trkpt lat="47.24364" lon="-2.3045">
        <ele>30.60000038147</ele>
        <time>2021-05-16T07:46:28.000Z</time>
      </trkpt>
      <trkpt lat="47.24362" lon="-2.3045">
        <ele>31</ele>
        <time>2021-05-16T07:46:29.000Z</time>
      </trkpt>
      <trkpt lat="47.24359" lon="-2.3045">
        <ele>31</ele>
        <time>2021-05-16T07:46:30.000Z</time>
      </trkpt>
      <trkpt lat="47.24339" lon="-2.30442">
        <ele>31</ele>
        <time>2021-05-16T07:46:35.000Z</time>
      </trkpt>
      <trkpt lat="47.24334" lon="-2.30441">
        <ele>31.39999961853</ele>
        <time>2021-05-16T07:46:36.000Z</time>
      </trkpt>
      <trkpt lat="47.24329" lon="-2.30439">
        <ele>32</ele>
        <time>2021-05-16T07:46:37.000Z</time>
      </trkpt>
      <trkpt lat="47.24324" lon="-2.30436">
        <ele>32.400001525879</ele>
        <time>2021-05-16T07:46:38.000Z</time>
      </trkpt>
      <trkpt lat="47.2432" lon="-2.30434">
        <ele>32.799999237061</ele>
        <time>2021-05-16T07:46:39.000Z</time>
      </trkpt>
      <trkpt lat="47.24317" lon="-2.3043">
        <ele>33.200000762939</ele>
        <time>2021-05-16T07:46:40.000Z</time>
      </trkpt>
      <trkpt lat="47.24305" lon="-2.30423">
        <ele>33.200000762939</ele>
        <time>2021-05-16T07:46:44.000Z</time>
      </trkpt>
      <trkpt lat="47.24287" lon="-2.30409">
        <ele>33.200000762939</ele>
        <time>2021-05-16T07:46:50.000Z</time>
      </trkpt>
      <trkpt lat="47.24265" lon="-2.30379">
        <ele>33.200000762939</ele>
        <time>2021-05-16T07:46:57.000Z</time>
      </trkpt>
      <trkpt lat="47.24243" lon="-2.30343">
        <ele>33.200000762939</ele>
        <time>2021-05-16T07:47:05.000Z</time>
      </trkpt>
      <trkpt lat="47.24227" lon="-2.30325">
        <ele>33.200000762939</ele>
        <time>2021-05-16T07:47:10.000Z</time>
      </trkpt>
      <trkpt lat="47.24213" lon="-2.3033">
        <ele>33.200000762939</ele>
        <time>2021-05-16T07:47:14.000Z</time>
      </trkpt>
      <trkpt lat="47.24203" lon="-2.30327">
        <ele>32.599998474121</ele>
        <time>2021-05-16T07:47:16.000Z</time>
      </trkpt>
      <trkpt lat="47.24198" lon="-2.30323">
        <ele>32.200000762939</ele>
        <time>2021-05-16T07:47:17.000Z</time>
      </trkpt>
      <trkpt lat="47.24194" lon="-2.30317">
        <ele>31.60000038147</ele>
        <time>2021-05-16T07:47:18.000Z</time>
      </trkpt>
      <trkpt lat="47.2419" lon="-2.3031">
        <ele>31</ele>
        <time>2021-05-16T07:47:19.000Z</time>
      </trkpt>
      <trkpt lat="47.24188" lon="-2.30301">
        <ele>30.60000038147</ele>
        <time>2021-05-16T07:47:20.000Z</time>
      </trkpt>
      <trkpt lat="47.24187" lon="-2.30293">
        <ele>30</ele>
        <time>2021-05-16T07:47:21.000Z</time>
      </trkpt>
      <trkpt lat="47.24185" lon="-2.30285">
        <ele>29.60000038147</ele>
        <time>2021-05-16T07:47:22.000Z</time>
      </trkpt>
      <trkpt lat="47.24184" lon="-2.30277">
        <ele>29</ele>
        <time>2021-05-16T07:47:23.000Z</time>
      </trkpt>
      <trkpt lat="47.24183" lon="-2.30269">
        <ele>28.60000038147</ele>
        <time>2021-05-16T07:47:24.000Z</time>
      </trkpt>
      <trkpt lat="47.24181" lon="-2.30253">
        <ele>28.60000038147</ele>
        <time>2021-05-16T07:47:26.000Z</time>
      </trkpt>
      <trkpt lat="47.24181" lon="-2.30239">
        <ele>28.60000038147</ele>
        <time>2021-05-16T07:47:29.000Z</time>
      </trkpt>
      <trkpt lat="47.24176" lon="-2.30228">
        <ele>28.60000038147</ele>
        <time>2021-05-16T07:47:33.000Z</time>
      </trkpt>
      <trkpt lat="47.24174" lon="-2.30233">
        <ele>28.60000038147</ele>
        <time>2021-05-16T07:47:34.000Z</time>
      </trkpt>
      <trkpt lat="47.24159" lon="-2.30234">
        <ele>28.60000038147</ele>
        <time>2021-05-16T07:47:38.000Z</time>
      </trkpt>
      <trkpt lat="47.24149" lon="-2.30218">
        <ele>28.60000038147</ele>
        <time>2021-05-16T07:47:42.000Z</time>
      </trkpt>
      <trkpt lat="47.24147" lon="-2.30214">
        <ele>28.60000038147</ele>
        <time>2021-05-16T07:47:43.000Z</time>
      </trkpt>
      <trkpt lat="47.24136" lon="-2.30194">
        <ele>28.60000038147</ele>
        <time>2021-05-16T07:47:48.000Z</time>
      </trkpt>
      <trkpt lat="47.24132" lon="-2.30184">
        <ele>29</ele>
        <time>2021-05-16T07:47:52.000Z</time>
      </trkpt>
      <trkpt lat="47.2413" lon="-2.30182">
        <ele>29.39999961853</ele>
        <time>2021-05-16T07:47:53.000Z</time>
      </trkpt>
      <trkpt lat="47.24129" lon="-2.30179">
        <ele>29.799999237061</ele>
        <time>2021-05-16T07:47:54.000Z</time>
      </trkpt>
      <trkpt lat="47.24127" lon="-2.30176">
        <ele>30.200000762939</ele>
        <time>2021-05-16T07:47:55.000Z</time>
      </trkpt>
      <trkpt lat="47.24126" lon="-2.30174">
        <ele>30.60000038147</ele>
        <time>2021-05-16T07:47:56.000Z</time>
      </trkpt>
      <trkpt lat="47.24124" lon="-2.30172">
        <ele>31.200000762939</ele>
        <time>2021-05-16T07:47:57.000Z</time>
      </trkpt>
      <trkpt lat="47.24123" lon="-2.3017">
        <ele>31.799999237061</ele>
        <time>2021-05-16T07:47:58.000Z</time>
      </trkpt>
      <trkpt lat="47.24123" lon="-2.30169">
        <ele>32.200000762939</ele>
        <time>2021-05-16T07:47:59.000Z</time>
      </trkpt>
      <trkpt lat="47.24122" lon="-2.30168">
        <ele>32.799999237061</ele>
        <time>2021-05-16T07:48:00.000Z</time>
      </trkpt>
      <trkpt lat="47.24121" lon="-2.30167">
        <ele>33.400001525879</ele>
        <time>2021-05-16T07:48:01.000Z</time>
      </trkpt>
      <trkpt lat="47.24117" lon="-2.30164">
        <ele>33.400001525879</ele>
        <time>2021-05-16T07:48:06.000Z</time>
      </trkpt>
      <trkpt lat="47.24116" lon="-2.30163">
        <ele>33.400001525879</ele>
        <time>2021-05-16T07:48:07.000Z</time>
      </trkpt>
      <trkpt lat="47.24109" lon="-2.30166">
        <ele>34.200000762939</ele>
        <time>2021-05-16T07:48:42.000Z</time>
      </trkpt>
      <trkpt lat="47.24109" lon="-2.30165">
        <ele>34.599998474121</ele>
        <time>2021-05-16T07:48:43.000Z</time>
      </trkpt>
      <trkpt lat="47.24108" lon="-2.30164">
        <ele>35.400001525879</ele>
        <time>2021-05-16T07:48:44.000Z</time>
      </trkpt>
      <trkpt lat="47.24106" lon="-2.30162">
        <ele>35.400001525879</ele>
        <time>2021-05-16T07:48:45.000Z</time>
      </trkpt>
      <trkpt lat="47.24102" lon="-2.30161">
        <ele>35.400001525879</ele>
        <time>2021-05-16T07:48:47.000Z</time>
      </trkpt>
      <trkpt lat="47.24093" lon="-2.30163">
        <ele>35.400001525879</ele>
        <time>2021-05-16T07:48:49.000Z</time>
      </trkpt>
      <trkpt lat="47.24086" lon="-2.30165">
        <ele>35.400001525879</ele>
        <time>2021-05-16T07:48:51.000Z</time>
      </trkpt>
      <trkpt lat="47.24077" lon="-2.30171">
        <ele>35.400001525879</ele>
        <time>2021-05-16T07:48:54.000Z</time>
      </trkpt>
      <trkpt lat="47.24074" lon="-2.30173">
        <ele>35.799999237061</ele>
        <time>2021-05-16T07:48:55.000Z</time>
      </trkpt>
      <trkpt lat="47.24071" lon="-2.30175">
        <ele>36.200000762939</ele>
        <time>2021-05-16T07:48:56.000Z</time>
      </trkpt>
      <trkpt lat="47.24068" lon="-2.30179">
        <ele>36.599998474121</ele>
        <time>2021-05-16T07:48:57.000Z</time>
      </trkpt>
      <trkpt lat="47.24064" lon="-2.30181">
        <ele>37</ele>
        <time>2021-05-16T07:48:58.000Z</time>
      </trkpt>
      <trkpt lat="47.2406" lon="-2.30184">
        <ele>37.599998474121</ele>
        <time>2021-05-16T07:48:59.000Z</time>
      </trkpt>
      <trkpt lat="47.24047" lon="-2.30189">
        <ele>37.599998474121</ele>
        <time>2021-05-16T07:49:03.000Z</time>
      </trkpt>
      <trkpt lat="47.24043" lon="-2.30186">
        <ele>37.599998474121</ele>
        <time>2021-05-16T07:49:04.000Z</time>
      </trkpt>
      <trkpt lat="47.24036" lon="-2.30179">
        <ele>37.599998474121</ele>
        <time>2021-05-16T07:49:06.000Z</time>
      </trkpt>
      <trkpt lat="47.24015" lon="-2.30164">
        <ele>37.599998474121</ele>
        <time>2021-05-16T07:49:12.000Z</time>
      </trkpt>
      <trkpt lat="47.23997" lon="-2.30154">
        <ele>37.599998474121</ele>
        <time>2021-05-16T07:49:17.000Z</time>
      </trkpt>
      <trkpt lat="47.2398" lon="-2.30145">
        <ele>37.599998474121</ele>
        <time>2021-05-16T07:49:22.000Z</time>
      </trkpt>
      <trkpt lat="47.23972" lon="-2.30141">
        <ele>37.599998474121</ele>
        <time>2021-05-16T07:49:24.000Z</time>
      </trkpt>
      <trkpt lat="47.23961" lon="-2.30136">
        <ele>37.599998474121</ele>
        <time>2021-05-16T07:49:27.000Z</time>
      </trkpt>
      <trkpt lat="47.23953" lon="-2.30123">
        <ele>37.599998474121</ele>
        <time>2021-05-16T07:49:31.000Z</time>
      </trkpt>
      <trkpt lat="47.2396" lon="-2.30113">
        <ele>37.599998474121</ele>
        <time>2021-05-16T07:49:37.000Z</time>
      </trkpt>
      <trkpt lat="47.23965" lon="-2.30107">
        <ele>37.599998474121</ele>
        <time>2021-05-16T07:49:41.000Z</time>
      </trkpt>
      <trkpt lat="47.2397" lon="-2.30102">
        <ele>37.599998474121</ele>
        <time>2021-05-16T07:49:44.000Z</time>
      </trkpt>
      <trkpt lat="47.2398" lon="-2.30083">
        <ele>37.599998474121</ele>
        <time>2021-05-16T07:49:49.000Z</time>
      </trkpt>
      <trkpt lat="47.23986" lon="-2.30059">
        <ele>37.599998474121</ele>
        <time>2021-05-16T07:49:54.000Z</time>
      </trkpt>
      <trkpt lat="47.23996" lon="-2.30036">
        <ele>38</ele>
        <time>2021-05-16T07:49:59.000Z</time>
      </trkpt>
      <trkpt lat="47.23997" lon="-2.30032">
        <ele>38.400001525879</ele>
        <time>2021-05-16T07:50:00.000Z</time>
      </trkpt>
      <trkpt lat="47.24" lon="-2.30028">
        <ele>38.799999237061</ele>
        <time>2021-05-16T07:50:01.000Z</time>
      </trkpt>
      <trkpt lat="47.24001" lon="-2.30024">
        <ele>39.200000762939</ele>
        <time>2021-05-16T07:50:02.000Z</time>
      </trkpt>
      <trkpt lat="47.24004" lon="-2.30019">
        <ele>39.599998474121</ele>
        <time>2021-05-16T07:50:03.000Z</time>
      </trkpt>
      <trkpt lat="47.2401" lon="-2.30008">
        <ele>39.599998474121</ele>
        <time>2021-05-16T07:50:06.000Z</time>
      </trkpt>
      <trkpt lat="47.2402" lon="-2.29994">
        <ele>39.599998474121</ele>
        <time>2021-05-16T07:50:11.000Z</time>
      </trkpt>
      <trkpt lat="47.24023" lon="-2.29992">
        <ele>39.599998474121</ele>
        <time>2021-05-16T07:50:12.000Z</time>
      </trkpt>
      <trkpt lat="47.24036" lon="-2.29994">
        <ele>39.599998474121</ele>
        <time>2021-05-16T07:50:16.000Z</time>
      </trkpt>
      <trkpt lat="47.24056" lon="-2.29992">
        <ele>39.599998474121</ele>
        <time>2021-05-16T07:50:20.000Z</time>
      </trkpt>
      <trkpt lat="47.24077" lon="-2.30002">
        <ele>39.599998474121</ele>
        <time>2021-05-16T07:50:24.000Z</time>
      </trkpt>
      <trkpt lat="47.2408" lon="-2.30004">
        <ele>39.599998474121</ele>
        <time>2021-05-16T07:50:25.000Z</time>
      </trkpt>
      <trkpt lat="47.24089" lon="-2.30008">
        <ele>39.599998474121</ele>
        <time>2021-05-16T07:50:28.000Z</time>
      </trkpt>
      <trkpt lat="47.24096" lon="-2.30006">
        <ele>39.599998474121</ele>
        <time>2021-05-16T07:50:30.000Z</time>
      </trkpt>
      <trkpt lat="47.241" lon="-2.29996">
        <ele>39.599998474121</ele>
        <time>2021-05-16T07:50:33.000Z</time>
      </trkpt>
      <trkpt lat="47.24102" lon="-2.29991">
        <ele>39.599998474121</ele>
        <time>2021-05-16T07:50:35.000Z</time>
      </trkpt>
      <trkpt lat="47.24103" lon="-2.2999">
        <ele>39.599998474121</ele>
        <time>2021-05-16T07:50:36.000Z</time>
      </trkpt>
      <trkpt lat="47.24105" lon="-2.29989">
        <ele>39.599998474121</ele>
        <time>2021-05-16T07:50:37.000Z</time>
      </trkpt>
      <trkpt lat="47.24116" lon="-2.29988">
        <ele>39.599998474121</ele>
        <time>2021-05-16T07:50:41.000Z</time>
      </trkpt>
      <trkpt lat="47.2412" lon="-2.29987">
        <ele>39.599998474121</ele>
        <time>2021-05-16T07:50:42.000Z</time>
      </trkpt>
      <trkpt lat="47.24139" lon="-2.29985">
        <ele>39.599998474121</ele>
        <time>2021-05-16T07:50:47.000Z</time>
      </trkpt>
      <trkpt lat="47.24153" lon="-2.29983">
        <ele>39.599998474121</ele>
        <time>2021-05-16T07:50:52.000Z</time>
      </trkpt>
      <trkpt lat="47.24162" lon="-2.29989">
        <ele>39.599998474121</ele>
        <time>2021-05-16T07:50:56.000Z</time>
      </trkpt>
      <trkpt lat="47.24166" lon="-2.29994">
        <ele>39.599998474121</ele>
        <time>2021-05-16T07:50:58.000Z</time>
      </trkpt>
      <trkpt lat="47.2418" lon="-2.30018">
        <ele>39.599998474121</ele>
        <time>2021-05-16T07:51:05.000Z</time>
      </trkpt>
      <trkpt lat="47.24181" lon="-2.30023">
        <ele>39.200000762939</ele>
        <time>2021-05-16T07:51:06.000Z</time>
      </trkpt>
      <trkpt lat="47.24182" lon="-2.30026">
        <ele>38.799999237061</ele>
        <time>2021-05-16T07:51:07.000Z</time>
      </trkpt>
      <trkpt lat="47.24181" lon="-2.30029">
        <ele>38.400001525879</ele>
        <time>2021-05-16T07:51:08.000Z</time>
      </trkpt>
      <trkpt lat="47.2418" lon="-2.30031">
        <ele>38</ele>
        <time>2021-05-16T07:51:09.000Z</time>
      </trkpt>
      <trkpt lat="47.24179" lon="-2.30031">
        <ele>37.599998474121</ele>
        <time>2021-05-16T07:51:10.000Z</time>
      </trkpt>
      <trkpt lat="47.24177" lon="-2.30031">
        <ele>37.599998474121</ele>
        <time>2021-05-16T07:51:11.000Z</time>
      </trkpt>
      <trkpt lat="47.24168" lon="-2.30026">
        <ele>37.599998474121</ele>
        <time>2021-05-16T07:51:16.000Z</time>
      </trkpt>
      <trkpt lat="47.24162" lon="-2.30023">
        <ele>37.599998474121</ele>
        <time>2021-05-16T07:51:20.000Z</time>
      </trkpt>
      <trkpt lat="47.2416" lon="-2.30024">
        <ele>37.599998474121</ele>
        <time>2021-05-16T07:51:21.000Z</time>
      </trkpt>
      <trkpt lat="47.24157" lon="-2.30036">
        <ele>37.599998474121</ele>
        <time>2021-05-16T07:51:26.000Z</time>
      </trkpt>
      <trkpt lat="47.24158" lon="-2.30056">
        <ele>37.599998474121</ele>
        <time>2021-05-16T07:51:32.000Z</time>
      </trkpt>
      <trkpt lat="47.24152" lon="-2.30076">
        <ele>37.599998474121</ele>
        <time>2021-05-16T07:51:36.000Z</time>
      </trkpt>
      <trkpt lat="47.2415" lon="-2.30081">
        <ele>37.599998474121</ele>
        <time>2021-05-16T07:51:37.000Z</time>
      </trkpt>
      <trkpt lat="47.24148" lon="-2.30102">
        <ele>37</ele>
        <time>2021-05-16T07:51:40.000Z</time>
      </trkpt>
      <trkpt lat="47.24147" lon="-2.30109">
        <ele>36.599998474121</ele>
        <time>2021-05-16T07:51:41.000Z</time>
      </trkpt>
      <trkpt lat="47.24146" lon="-2.30116">
        <ele>36.200000762939</ele>
        <time>2021-05-16T07:51:42.000Z</time>
      </trkpt>
      <trkpt lat="47.24144" lon="-2.30123">
        <ele>35.799999237061</ele>
        <time>2021-05-16T07:51:43.000Z</time>
      </trkpt>
      <trkpt lat="47.24141" lon="-2.3013">
        <ele>35.400001525879</ele>
        <time>2021-05-16T07:51:44.000Z</time>
      </trkpt>
      <trkpt lat="47.24136" lon="-2.30139">
        <ele>35.400001525879</ele>
        <time>2021-05-16T07:51:46.000Z</time>
      </trkpt>
      <trkpt lat="47.24134" lon="-2.30145">
        <ele>35.400001525879</ele>
        <time>2021-05-16T07:51:48.000Z</time>
      </trkpt>
      <trkpt lat="47.24133" lon="-2.3015">
        <ele>35.400001525879</ele>
        <time>2021-05-16T07:51:50.000Z</time>
      </trkpt>
      <trkpt lat="47.24133" lon="-2.30157">
        <ele>35.400001525879</ele>
        <time>2021-05-16T07:51:54.000Z</time>
      </trkpt>
      <trkpt lat="47.24136" lon="-2.30155">
        <ele>35</ele>
        <time>2021-05-16T07:51:57.000Z</time>
      </trkpt>
      <trkpt lat="47.24137" lon="-2.30153">
        <ele>34.599998474121</ele>
        <time>2021-05-16T07:51:58.000Z</time>
      </trkpt>
      <trkpt lat="47.24138" lon="-2.30151">
        <ele>34.200000762939</ele>
        <time>2021-05-16T07:51:59.000Z</time>
      </trkpt>
      <trkpt lat="47.24139" lon="-2.30148">
        <ele>33.599998474121</ele>
        <time>2021-05-16T07:52:00.000Z</time>
      </trkpt>
      <trkpt lat="47.2414" lon="-2.30145">
        <ele>33.200000762939</ele>
        <time>2021-05-16T07:52:01.000Z</time>
      </trkpt>
      <trkpt lat="47.24142" lon="-2.30125">
        <ele>33.200000762939</ele>
        <time>2021-05-16T07:52:06.000Z</time>
      </trkpt>
      <trkpt lat="47.24141" lon="-2.3011">
        <ele>33.200000762939</ele>
        <time>2021-05-16T07:52:10.000Z</time>
      </trkpt>
      <trkpt lat="47.24142" lon="-2.30098">
        <ele>33.799999237061</ele>
        <time>2021-05-16T07:52:13.000Z</time>
      </trkpt>
      <trkpt lat="47.24143" lon="-2.30093">
        <ele>34.200000762939</ele>
        <time>2021-05-16T07:52:14.000Z</time>
      </trkpt>
      <trkpt lat="47.24144" lon="-2.30088">
        <ele>34.599998474121</ele>
        <time>2021-05-16T07:52:15.000Z</time>
      </trkpt>
      <trkpt lat="47.24145" lon="-2.30083">
        <ele>35</ele>
        <time>2021-05-16T07:52:16.000Z</time>
      </trkpt>
      <trkpt lat="47.24146" lon="-2.30079">
        <ele>35.400001525879</ele>
        <time>2021-05-16T07:52:17.000Z</time>
      </trkpt>
      <trkpt lat="47.24156" lon="-2.3006">
        <ele>35.400001525879</ele>
        <time>2021-05-16T07:52:22.000Z</time>
      </trkpt>
      <trkpt lat="47.2416" lon="-2.30057">
        <ele>35.799999237061</ele>
        <time>2021-05-16T07:52:25.000Z</time>
      </trkpt>
      <trkpt lat="47.24162" lon="-2.30055">
        <ele>36.200000762939</ele>
        <time>2021-05-16T07:52:26.000Z</time>
      </trkpt>
      <trkpt lat="47.24163" lon="-2.30054">
        <ele>37</ele>
        <time>2021-05-16T07:52:27.000Z</time>
      </trkpt>
      <trkpt lat="47.24164" lon="-2.30053">
        <ele>37.400001525879</ele>
        <time>2021-05-16T07:52:28.000Z</time>
      </trkpt>
      <trkpt lat="47.24166" lon="-2.30052">
        <ele>37.400001525879</ele>
        <time>2021-05-16T07:52:29.000Z</time>
      </trkpt>
      <trkpt lat="47.24173" lon="-2.30045">
        <ele>37.400001525879</ele>
        <time>2021-05-16T07:52:34.000Z</time>
      </trkpt>
      <trkpt lat="47.24175" lon="-2.30043">
        <ele>37.400001525879</ele>
        <time>2021-05-16T07:52:35.000Z</time>
      </trkpt>
      <trkpt lat="47.24182" lon="-2.30033">
        <ele>37.400001525879</ele>
        <time>2021-05-16T07:52:38.000Z</time>
      </trkpt>
      <trkpt lat="47.24182" lon="-2.30028">
        <ele>37.400001525879</ele>
        <time>2021-05-16T07:52:40.000Z</time>
      </trkpt>
      <trkpt lat="47.24181" lon="-2.30024">
        <ele>37.400001525879</ele>
        <time>2021-05-16T07:52:42.000Z</time>
      </trkpt>
      <trkpt lat="47.24178" lon="-2.30017">
        <ele>37.400001525879</ele>
        <time>2021-05-16T07:52:47.000Z</time>
      </trkpt>
      <trkpt lat="47.24176" lon="-2.30014">
        <ele>37.400001525879</ele>
        <time>2021-05-16T07:52:49.000Z</time>
      </trkpt>
      <trkpt lat="47.24172" lon="-2.30002">
        <ele>37.400001525879</ele>
        <time>2021-05-16T07:52:52.000Z</time>
      </trkpt>
      <trkpt lat="47.24172" lon="-2.29998">
        <ele>38</ele>
        <time>2021-05-16T07:52:53.000Z</time>
      </trkpt>
      <trkpt lat="47.24171" lon="-2.29994">
        <ele>38.400001525879</ele>
        <time>2021-05-16T07:52:54.000Z</time>
      </trkpt>
      <trkpt lat="47.24171" lon="-2.2999">
        <ele>38.799999237061</ele>
        <time>2021-05-16T07:52:55.000Z</time>
      </trkpt>
      <trkpt lat="47.24173" lon="-2.29988">
        <ele>39.200000762939</ele>
        <time>2021-05-16T07:52:56.000Z</time>
      </trkpt>
      <trkpt lat="47.24173" lon="-2.29985">
        <ele>39.599998474121</ele>
        <time>2021-05-16T07:52:57.000Z</time>
      </trkpt>
      <trkpt lat="47.24174" lon="-2.29967">
        <ele>39.599998474121</ele>
        <time>2021-05-16T07:53:03.000Z</time>
      </trkpt>
      <trkpt lat="47.24174" lon="-2.29963">
        <ele>39.599998474121</ele>
        <time>2021-05-16T07:53:04.000Z</time>
      </trkpt>
      <trkpt lat="47.2417" lon="-2.29948">
        <ele>39.599998474121</ele>
        <time>2021-05-16T07:53:08.000Z</time>
      </trkpt>
      <trkpt lat="47.24167" lon="-2.29934">
        <ele>39.599998474121</ele>
        <time>2021-05-16T07:53:11.000Z</time>
      </trkpt>
      <trkpt lat="47.24164" lon="-2.29915">
        <ele>39.599998474121</ele>
        <time>2021-05-16T07:53:14.000Z</time>
      </trkpt>
      <trkpt lat="47.24164" lon="-2.29909">
        <ele>39.599998474121</ele>
        <time>2021-05-16T07:53:15.000Z</time>
      </trkpt>
      <trkpt lat="47.24158" lon="-2.29879">
        <ele>39.599998474121</ele>
        <time>2021-05-16T07:53:19.000Z</time>
      </trkpt>
      <trkpt lat="47.24157" lon="-2.29857">
        <ele>39.599998474121</ele>
        <time>2021-05-16T07:53:24.000Z</time>
      </trkpt>
      <trkpt lat="47.24158" lon="-2.29855">
        <ele>39.599998474121</ele>
        <time>2021-05-16T07:53:25.000Z</time>
      </trkpt>
      <trkpt lat="47.24161" lon="-2.29855">
        <ele>39.599998474121</ele>
        <time>2021-05-16T07:53:28.000Z</time>
      </trkpt>
      <trkpt lat="47.24165" lon="-2.29855">
        <ele>39.599998474121</ele>
        <time>2021-05-16T07:53:30.000Z</time>
      </trkpt>
      <trkpt lat="47.24169" lon="-2.29855">
        <ele>39.599998474121</ele>
        <time>2021-05-16T07:53:33.000Z</time>
      </trkpt>
      <trkpt lat="47.24172" lon="-2.29858">
        <ele>39.599998474121</ele>
        <time>2021-05-16T07:53:35.000Z</time>
      </trkpt>
      <trkpt lat="47.24174" lon="-2.29866">
        <ele>39.599998474121</ele>
        <time>2021-05-16T07:53:38.000Z</time>
      </trkpt>
      <trkpt lat="47.24177" lon="-2.29881">
        <ele>39.599998474121</ele>
        <time>2021-05-16T07:53:44.000Z</time>
      </trkpt>
      <trkpt lat="47.24177" lon="-2.29889">
        <ele>39.599998474121</ele>
        <time>2021-05-16T07:53:47.000Z</time>
      </trkpt>
      <trkpt lat="47.24175" lon="-2.29896">
        <ele>39.599998474121</ele>
        <time>2021-05-16T07:53:49.000Z</time>
      </trkpt>
      <trkpt lat="47.24164" lon="-2.29927">
        <ele>39.599998474121</ele>
        <time>2021-05-16T07:53:56.000Z</time>
      </trkpt>
      <trkpt lat="47.24156" lon="-2.29953">
        <ele>39.599998474121</ele>
        <time>2021-05-16T07:54:02.000Z</time>
      </trkpt>
      <trkpt lat="47.24155" lon="-2.29965">
        <ele>39.599998474121</ele>
        <time>2021-05-16T07:54:06.000Z</time>
      </trkpt>
      <trkpt lat="47.24161" lon="-2.29969">
        <ele>39.599998474121</ele>
        <time>2021-05-16T07:54:14.000Z</time>
      </trkpt>
      <trkpt lat="47.24166" lon="-2.29971">
        <ele>39.599998474121</ele>
        <time>2021-05-16T07:54:16.000Z</time>
      </trkpt>
      <trkpt lat="47.24185" lon="-2.29971">
        <ele>39.599998474121</ele>
        <time>2021-05-16T07:54:22.000Z</time>
      </trkpt>
      <trkpt lat="47.24203" lon="-2.29964">
        <ele>39.599998474121</ele>
        <time>2021-05-16T07:54:26.000Z</time>
      </trkpt>
      <trkpt lat="47.24208" lon="-2.29962">
        <ele>39.599998474121</ele>
        <time>2021-05-16T07:54:27.000Z</time>
      </trkpt>
      <trkpt lat="47.24222" lon="-2.29957">
        <ele>39.599998474121</ele>
        <time>2021-05-16T07:54:30.000Z</time>
      </trkpt>
      <trkpt lat="47.24238" lon="-2.29948">
        <ele>39.599998474121</ele>
        <time>2021-05-16T07:54:33.000Z</time>
      </trkpt>
      <trkpt lat="47.24246" lon="-2.29939">
        <ele>39.599998474121</ele>
        <time>2021-05-16T07:54:35.000Z</time>
      </trkpt>
      <trkpt lat="47.24253" lon="-2.29928">
        <ele>39.599998474121</ele>
        <time>2021-05-16T07:54:37.000Z</time>
      </trkpt>
      <trkpt lat="47.24266" lon="-2.29913">
        <ele>39.599998474121</ele>
        <time>2021-05-16T07:54:40.000Z</time>
      </trkpt>
      <trkpt lat="47.24276" lon="-2.29905">
        <ele>39.599998474121</ele>
        <time>2021-05-16T07:54:42.000Z</time>
      </trkpt>
      <trkpt lat="47.24282" lon="-2.299">
        <ele>39.599998474121</ele>
        <time>2021-05-16T07:54:43.000Z</time>
      </trkpt>
      <trkpt lat="47.24292" lon="-2.29891">
        <ele>39.599998474121</ele>
        <time>2021-05-16T07:54:45.000Z</time>
      </trkpt>
      <trkpt lat="47.24302" lon="-2.29879">
        <ele>39.599998474121</ele>
        <time>2021-05-16T07:54:47.000Z</time>
      </trkpt>
      <trkpt lat="47.24305" lon="-2.29872">
        <ele>39.599998474121</ele>
        <time>2021-05-16T07:54:48.000Z</time>
      </trkpt>
      <trkpt lat="47.24308" lon="-2.29847">
        <ele>39.599998474121</ele>
        <time>2021-05-16T07:54:51.000Z</time>
      </trkpt>
      <trkpt lat="47.24309" lon="-2.29838">
        <ele>39.599998474121</ele>
        <time>2021-05-16T07:54:52.000Z</time>
      </trkpt>
      <trkpt lat="47.24312" lon="-2.29822">
        <ele>39.599998474121</ele>
        <time>2021-05-16T07:54:54.000Z</time>
      </trkpt>
      <trkpt lat="47.2432" lon="-2.2981">
        <ele>39.599998474121</ele>
        <time>2021-05-16T07:54:56.000Z</time>
      </trkpt>
      <trkpt lat="47.24336" lon="-2.29803">
        <ele>39.599998474121</ele>
        <time>2021-05-16T07:54:59.000Z</time>
      </trkpt>
      <trkpt lat="47.24351" lon="-2.29794">
        <ele>39.599998474121</ele>
        <time>2021-05-16T07:55:02.000Z</time>
      </trkpt>
      <trkpt lat="47.24358" lon="-2.29783">
        <ele>39.599998474121</ele>
        <time>2021-05-16T07:55:04.000Z</time>
      </trkpt>
      <trkpt lat="47.24379" lon="-2.29739">
        <ele>39.599998474121</ele>
        <time>2021-05-16T07:55:10.000Z</time>
      </trkpt>
      <trkpt lat="47.24395" lon="-2.29705">
        <ele>39.599998474121</ele>
        <time>2021-05-16T07:55:15.000Z</time>
      </trkpt>
      <trkpt lat="47.244" lon="-2.29701">
        <ele>39.599998474121</ele>
        <time>2021-05-16T07:55:16.000Z</time>
      </trkpt>
      <trkpt lat="47.24412" lon="-2.29695">
        <ele>39.599998474121</ele>
        <time>2021-05-16T07:55:19.000Z</time>
      </trkpt>
      <trkpt lat="47.24417" lon="-2.29693">
        <ele>39.599998474121</ele>
        <time>2021-05-16T07:55:20.000Z</time>
      </trkpt>
      <trkpt lat="47.24426" lon="-2.29694">
        <ele>39.599998474121</ele>
        <time>2021-05-16T07:55:22.000Z</time>
      </trkpt>
      <trkpt lat="47.2443" lon="-2.29699">
        <ele>39.599998474121</ele>
        <time>2021-05-16T07:55:23.000Z</time>
      </trkpt>
      <trkpt lat="47.24438" lon="-2.29718">
        <ele>39.599998474121</ele>
        <time>2021-05-16T07:55:26.000Z</time>
      </trkpt>
      <trkpt lat="47.24448" lon="-2.29745">
        <ele>39.599998474121</ele>
        <time>2021-05-16T07:55:30.000Z</time>
      </trkpt>
      <trkpt lat="47.24454" lon="-2.2976">
        <ele>39.599998474121</ele>
        <time>2021-05-16T07:55:32.000Z</time>
      </trkpt>
      <trkpt lat="47.24455" lon="-2.29767">
        <ele>39.599998474121</ele>
        <time>2021-05-16T07:55:33.000Z</time>
      </trkpt>
      <trkpt lat="47.2446" lon="-2.2979">
        <ele>39.599998474121</ele>
        <time>2021-05-16T07:55:36.000Z</time>
      </trkpt>
      <trkpt lat="47.24463" lon="-2.29797">
        <ele>40.200000762939</ele>
        <time>2021-05-16T07:55:37.000Z</time>
      </trkpt>
      <trkpt lat="47.24466" lon="-2.29805">
        <ele>40.599998474121</ele>
        <time>2021-05-16T07:55:38.000Z</time>
      </trkpt>
      <trkpt lat="47.24469" lon="-2.29812">
        <ele>41</ele>
        <time>2021-05-16T07:55:39.000Z</time>
      </trkpt>
      <trkpt lat="47.24473" lon="-2.29819">
        <ele>41.599998474121</ele>
        <time>2021-05-16T07:55:40.000Z</time>
      </trkpt>
      <trkpt lat="47.24476" lon="-2.29824">
        <ele>42</ele>
        <time>2021-05-16T07:55:41.000Z</time>
      </trkpt>
      <trkpt lat="47.24488" lon="-2.29842">
        <ele>42</ele>
        <time>2021-05-16T07:55:44.000Z</time>
      </trkpt>
      <trkpt lat="47.24493" lon="-2.29845">
        <ele>42</ele>
        <time>2021-05-16T07:55:45.000Z</time>
      </trkpt>
      <trkpt lat="47.24525" lon="-2.29863">
        <ele>42</ele>
        <time>2021-05-16T07:55:51.000Z</time>
      </trkpt>
      <trkpt lat="47.24549" lon="-2.29871">
        <ele>42</ele>
        <time>2021-05-16T07:55:56.000Z</time>
      </trkpt>
      <trkpt lat="47.24553" lon="-2.29874">
        <ele>42</ele>
        <time>2021-05-16T07:55:57.000Z</time>
      </trkpt>
      <trkpt lat="47.24561" lon="-2.29885">
        <ele>42</ele>
        <time>2021-05-16T07:56:00.000Z</time>
      </trkpt>
      <trkpt lat="47.24566" lon="-2.299">
        <ele>42</ele>
        <time>2021-05-16T07:56:04.000Z</time>
      </trkpt>
      <trkpt lat="47.24566" lon="-2.299">
        <ele>42</ele>
        <time>2021-05-16T07:56:06.000Z</time>
      </trkpt>
      <trkpt lat="47.24567" lon="-2.29902">
        <ele>42</ele>
        <time>2021-05-16T07:56:20.000Z</time>
      </trkpt>
      <trkpt lat="47.24576" lon="-2.29915">
        <ele>42</ele>
        <time>2021-05-16T07:56:26.000Z</time>
      </trkpt>
      <trkpt lat="47.24591" lon="-2.29936">
        <ele>42</ele>
        <time>2021-05-16T07:56:32.000Z</time>
      </trkpt>
      <trkpt lat="47.24601" lon="-2.29942">
        <ele>42</ele>
        <time>2021-05-16T07:56:35.000Z</time>
      </trkpt>
      <trkpt lat="47.24605" lon="-2.29941">
        <ele>42</ele>
        <time>2021-05-16T07:56:36.000Z</time>
      </trkpt>
      <trkpt lat="47.24637" lon="-2.2993">
        <ele>42</ele>
        <time>2021-05-16T07:56:43.000Z</time>
      </trkpt>
      <trkpt lat="47.24675" lon="-2.29915">
        <ele>42</ele>
        <time>2021-05-16T07:56:51.000Z</time>
      </trkpt>
      <trkpt lat="47.2468" lon="-2.29912">
        <ele>42</ele>
        <time>2021-05-16T07:56:52.000Z</time>
      </trkpt>
      <trkpt lat="47.24705" lon="-2.29905">
        <ele>42</ele>
        <time>2021-05-16T07:56:57.000Z</time>
      </trkpt>
      <trkpt lat="47.24714" lon="-2.29902">
        <ele>42.799999237061</ele>
        <time>2021-05-16T07:56:59.000Z</time>
      </trkpt>
      <trkpt lat="47.24719" lon="-2.29901">
        <ele>43.200000762939</ele>
        <time>2021-05-16T07:57:00.000Z</time>
      </trkpt>
      <trkpt lat="47.24723" lon="-2.29899">
        <ele>43.599998474121</ele>
        <time>2021-05-16T07:57:01.000Z</time>
      </trkpt>
      <trkpt lat="47.24728" lon="-2.29898">
        <ele>44</ele>
        <time>2021-05-16T07:57:02.000Z</time>
      </trkpt>
      <trkpt lat="47.24743" lon="-2.29891">
        <ele>44</ele>
        <time>2021-05-16T07:57:05.000Z</time>
      </trkpt>
      <trkpt lat="47.2477" lon="-2.2987">
        <ele>44</ele>
        <time>2021-05-16T07:57:11.000Z</time>
      </trkpt>
      <trkpt lat="47.24788" lon="-2.29858">
        <ele>44</ele>
        <time>2021-05-16T07:57:15.000Z</time>
      </trkpt>
      <trkpt lat="47.24798" lon="-2.29852">
        <ele>44</ele>
        <time>2021-05-16T07:57:17.000Z</time>
      </trkpt>
      <trkpt lat="47.24804" lon="-2.2985">
        <ele>44</ele>
        <time>2021-05-16T07:57:18.000Z</time>
      </trkpt>
      <trkpt lat="47.24819" lon="-2.29845">
        <ele>44</ele>
        <time>2021-05-16T07:57:21.000Z</time>
      </trkpt>
      <trkpt lat="47.24827" lon="-2.29841">
        <ele>44</ele>
        <time>2021-05-16T07:57:23.000Z</time>
      </trkpt>
      <trkpt lat="47.24842" lon="-2.29837">
        <ele>44</ele>
        <time>2021-05-16T07:57:26.000Z</time>
      </trkpt>
      <trkpt lat="47.24847" lon="-2.29835">
        <ele>44</ele>
        <time>2021-05-16T07:57:27.000Z</time>
      </trkpt>
      <trkpt lat="47.24865" lon="-2.29833">
        <ele>44</ele>
        <time>2021-05-16T07:57:32.000Z</time>
      </trkpt>
      <trkpt lat="47.24868" lon="-2.2985">
        <ele>44</ele>
        <time>2021-05-16T07:57:35.000Z</time>
      </trkpt>
      <trkpt lat="47.24869" lon="-2.29856">
        <ele>44</ele>
        <time>2021-05-16T07:57:36.000Z</time>
      </trkpt>
      <trkpt lat="47.2487" lon="-2.29862">
        <ele>44.400001525879</ele>
        <time>2021-05-16T07:57:37.000Z</time>
      </trkpt>
      <trkpt lat="47.24872" lon="-2.29869">
        <ele>44.799999237061</ele>
        <time>2021-05-16T07:57:38.000Z</time>
      </trkpt>
      <trkpt lat="47.24874" lon="-2.29876">
        <ele>45.200000762939</ele>
        <time>2021-05-16T07:57:39.000Z</time>
      </trkpt>
      <trkpt lat="47.24876" lon="-2.29883">
        <ele>45.599998474121</ele>
        <time>2021-05-16T07:57:40.000Z</time>
      </trkpt>
      <trkpt lat="47.24877" lon="-2.29891">
        <ele>46.200000762939</ele>
        <time>2021-05-16T07:57:41.000Z</time>
      </trkpt>
      <trkpt lat="47.24886" lon="-2.29945">
        <ele>46.200000762939</ele>
        <time>2021-05-16T07:57:48.000Z</time>
      </trkpt>
      <trkpt lat="47.24889" lon="-2.29961">
        <ele>46.200000762939</ele>
        <time>2021-05-16T07:57:50.000Z</time>
      </trkpt>
      <trkpt lat="47.24898" lon="-2.29996">
        <ele>46.200000762939</ele>
        <time>2021-05-16T07:57:54.000Z</time>
      </trkpt>
      <trkpt lat="47.24905" lon="-2.30037">
        <ele>46.200000762939</ele>
        <time>2021-05-16T07:57:59.000Z</time>
      </trkpt>
      <trkpt lat="47.24905" lon="-2.30043">
        <ele>46.200000762939</ele>
        <time>2021-05-16T07:58:00.000Z</time>
      </trkpt>
      <trkpt lat="47.24909" lon="-2.30056">
        <ele>46.200000762939</ele>
        <time>2021-05-16T07:58:03.000Z</time>
      </trkpt>
      <trkpt lat="47.24919" lon="-2.30055">
        <ele>46.200000762939</ele>
        <time>2021-05-16T07:58:06.000Z</time>
      </trkpt>
      <trkpt lat="47.24944" lon="-2.30054">
        <ele>46.200000762939</ele>
        <time>2021-05-16T07:58:12.000Z</time>
      </trkpt>
      <trkpt lat="47.24967" lon="-2.30054">
        <ele>46.200000762939</ele>
        <time>2021-05-16T07:58:18.000Z</time>
      </trkpt>
      <trkpt lat="47.24987" lon="-2.30052">
        <ele>45.799999237061</ele>
        <time>2021-05-16T07:58:24.000Z</time>
      </trkpt>
      <trkpt lat="47.24991" lon="-2.30051">
        <ele>45.400001525879</ele>
        <time>2021-05-16T07:58:25.000Z</time>
      </trkpt>
      <trkpt lat="47.24995" lon="-2.30051">
        <ele>45</ele>
        <time>2021-05-16T07:58:26.000Z</time>
      </trkpt>
      <trkpt lat="47.24998" lon="-2.3005">
        <ele>44.599998474121</ele>
        <time>2021-05-16T07:58:27.000Z</time>
      </trkpt>
      <trkpt lat="47.25001" lon="-2.30051">
        <ele>44</ele>
        <time>2021-05-16T07:58:28.000Z</time>
      </trkpt>
      <trkpt lat="47.25009" lon="-2.30051">
        <ele>44</ele>
        <time>2021-05-16T07:58:31.000Z</time>
      </trkpt>
      <trkpt lat="47.25025" lon="-2.30052">
        <ele>44</ele>
        <time>2021-05-16T07:58:36.000Z</time>
      </trkpt>
      <trkpt lat="47.25042" lon="-2.30053">
        <ele>44</ele>
        <time>2021-05-16T07:58:41.000Z</time>
      </trkpt>
      <trkpt lat="47.25065" lon="-2.30058">
        <ele>44</ele>
        <time>2021-05-16T07:58:47.000Z</time>
      </trkpt>
      <trkpt lat="47.25069" lon="-2.30072">
        <ele>44</ele>
        <time>2021-05-16T07:58:50.000Z</time>
      </trkpt>
      <trkpt lat="47.25067" lon="-2.30091">
        <ele>44</ele>
        <time>2021-05-16T07:58:53.000Z</time>
      </trkpt>
      <trkpt lat="47.25066" lon="-2.30098">
        <ele>44</ele>
        <time>2021-05-16T07:58:54.000Z</time>
      </trkpt>
      <trkpt lat="47.25065" lon="-2.30132">
        <ele>44</ele>
        <time>2021-05-16T07:58:59.000Z</time>
      </trkpt>
      <trkpt lat="47.25068" lon="-2.30135">
        <ele>44</ele>
        <time>2021-05-16T07:59:00.000Z</time>
      </trkpt>
      <trkpt lat="47.25082" lon="-2.30136">
        <ele>44</ele>
        <time>2021-05-16T07:59:03.000Z</time>
      </trkpt>
      <trkpt lat="47.25086" lon="-2.30136">
        <ele>44</ele>
        <time>2021-05-16T07:59:04.000Z</time>
      </trkpt>
      <trkpt lat="47.2511" lon="-2.30129">
        <ele>44</ele>
        <time>2021-05-16T07:59:09.000Z</time>
      </trkpt>
      <trkpt lat="47.25125" lon="-2.30126">
        <ele>43.599998474121</ele>
        <time>2021-05-16T07:59:13.000Z</time>
      </trkpt>
      <trkpt lat="47.25128" lon="-2.30126">
        <ele>43.200000762939</ele>
        <time>2021-05-16T07:59:14.000Z</time>
      </trkpt>
      <trkpt lat="47.25131" lon="-2.30125">
        <ele>42.799999237061</ele>
        <time>2021-05-16T07:59:15.000Z</time>
      </trkpt>
      <trkpt lat="47.25135" lon="-2.30125">
        <ele>42.400001525879</ele>
        <time>2021-05-16T07:59:16.000Z</time>
      </trkpt>
      <trkpt lat="47.25139" lon="-2.30123">
        <ele>42</ele>
        <time>2021-05-16T07:59:17.000Z</time>
      </trkpt>
      <trkpt lat="47.25147" lon="-2.3012">
        <ele>42</ele>
        <time>2021-05-16T07:59:19.000Z</time>
      </trkpt>
      <trkpt lat="47.25172" lon="-2.30116">
        <ele>42</ele>
        <time>2021-05-16T07:59:25.000Z</time>
      </trkpt>
      <trkpt lat="47.25175" lon="-2.30118">
        <ele>42</ele>
        <time>2021-05-16T07:59:26.000Z</time>
      </trkpt>
      <trkpt lat="47.2518" lon="-2.30127">
        <ele>42</ele>
        <time>2021-05-16T07:59:28.000Z</time>
      </trkpt>
      <trkpt lat="47.25187" lon="-2.30143">
        <ele>41.599998474121</ele>
        <time>2021-05-16T07:59:31.000Z</time>
      </trkpt>
      <trkpt lat="47.2519" lon="-2.30147">
        <ele>41.200000762939</ele>
        <time>2021-05-16T07:59:32.000Z</time>
      </trkpt>
      <trkpt lat="47.25194" lon="-2.30151">
        <ele>40.799999237061</ele>
        <time>2021-05-16T07:59:33.000Z</time>
      </trkpt>
      <trkpt lat="47.252" lon="-2.30156">
        <ele>40.400001525879</ele>
        <time>2021-05-16T07:59:34.000Z</time>
      </trkpt>
      <trkpt lat="47.25205" lon="-2.30161">
        <ele>40</ele>
        <time>2021-05-16T07:59:35.000Z</time>
      </trkpt>
      <trkpt lat="47.25216" lon="-2.30174">
        <ele>40</ele>
        <time>2021-05-16T07:59:38.000Z</time>
      </trkpt>
      <trkpt lat="47.25221" lon="-2.30177">
        <ele>40</ele>
        <time>2021-05-16T07:59:39.000Z</time>
      </trkpt>
      <trkpt lat="47.25236" lon="-2.30183">
        <ele>40</ele>
        <time>2021-05-16T07:59:42.000Z</time>
      </trkpt>
      <trkpt lat="47.25247" lon="-2.30187">
        <ele>39.599998474121</ele>
        <time>2021-05-16T07:59:44.000Z</time>
      </trkpt>
      <trkpt lat="47.25252" lon="-2.3019">
        <ele>39.200000762939</ele>
        <time>2021-05-16T07:59:45.000Z</time>
      </trkpt>
      <trkpt lat="47.25257" lon="-2.30192">
        <ele>38.799999237061</ele>
        <time>2021-05-16T07:59:46.000Z</time>
      </trkpt>
      <trkpt lat="47.25263" lon="-2.30195">
        <ele>38.400001525879</ele>
        <time>2021-05-16T07:59:47.000Z</time>
      </trkpt>
      <trkpt lat="47.25269" lon="-2.30197">
        <ele>38</ele>
        <time>2021-05-16T07:59:48.000Z</time>
      </trkpt>
      <trkpt lat="47.25275" lon="-2.30201">
        <ele>38</ele>
        <time>2021-05-16T07:59:49.000Z</time>
      </trkpt>
      <trkpt lat="47.2529" lon="-2.30209">
        <ele>38</ele>
        <time>2021-05-16T07:59:52.000Z</time>
      </trkpt>
      <trkpt lat="47.25297" lon="-2.3021">
        <ele>37.599998474121</ele>
        <time>2021-05-16T07:59:54.000Z</time>
      </trkpt>
      <trkpt lat="47.253" lon="-2.30209">
        <ele>37</ele>
        <time>2021-05-16T07:59:55.000Z</time>
      </trkpt>
      <trkpt lat="47.25302" lon="-2.30205">
        <ele>36.599998474121</ele>
        <time>2021-05-16T07:59:56.000Z</time>
      </trkpt>
      <trkpt lat="47.25305" lon="-2.30203">
        <ele>36.200000762939</ele>
        <time>2021-05-16T07:59:57.000Z</time>
      </trkpt>
      <trkpt lat="47.25309" lon="-2.30205">
        <ele>35.799999237061</ele>
        <time>2021-05-16T07:59:58.000Z</time>
      </trkpt>
      <trkpt lat="47.25317" lon="-2.30207">
        <ele>35.799999237061</ele>
        <time>2021-05-16T08:00:00.000Z</time>
      </trkpt>
      <trkpt lat="47.25331" lon="-2.30207">
        <ele>35.799999237061</ele>
        <time>2021-05-16T08:00:03.000Z</time>
      </trkpt>
      <trkpt lat="47.2536" lon="-2.30208">
        <ele>35.799999237061</ele>
        <time>2021-05-16T08:00:09.000Z</time>
      </trkpt>
      <trkpt lat="47.2537" lon="-2.30209">
        <ele>35.799999237061</ele>
        <time>2021-05-16T08:00:11.000Z</time>
      </trkpt>
      <trkpt lat="47.25379" lon="-2.30211">
        <ele>35.799999237061</ele>
        <time>2021-05-16T08:00:14.000Z</time>
      </trkpt>
      <trkpt lat="47.25389" lon="-2.30217">
        <ele>35.799999237061</ele>
        <time>2021-05-16T08:00:19.000Z</time>
      </trkpt>
      <trkpt lat="47.25398" lon="-2.30222">
        <ele>35.400001525879</ele>
        <time>2021-05-16T08:00:22.000Z</time>
      </trkpt>
      <trkpt lat="47.25401" lon="-2.30223">
        <ele>35</ele>
        <time>2021-05-16T08:00:23.000Z</time>
      </trkpt>
      <trkpt lat="47.25404" lon="-2.30226">
        <ele>34.599998474121</ele>
        <time>2021-05-16T08:00:24.000Z</time>
      </trkpt>
      <trkpt lat="47.25407" lon="-2.30228">
        <ele>34.200000762939</ele>
        <time>2021-05-16T08:00:25.000Z</time>
      </trkpt>
      <trkpt lat="47.2541" lon="-2.30229">
        <ele>33.799999237061</ele>
        <time>2021-05-16T08:00:26.000Z</time>
      </trkpt>
      <trkpt lat="47.25418" lon="-2.30233">
        <ele>33.799999237061</ele>
        <time>2021-05-16T08:00:29.000Z</time>
      </trkpt>
      <trkpt lat="47.25441" lon="-2.3024">
        <ele>33.799999237061</ele>
        <time>2021-05-16T08:00:35.000Z</time>
      </trkpt>
      <trkpt lat="47.25454" lon="-2.30245">
        <ele>33.799999237061</ele>
        <time>2021-05-16T08:00:38.000Z</time>
      </trkpt>
      <trkpt lat="47.25465" lon="-2.30246">
        <ele>33.799999237061</ele>
        <time>2021-05-16T08:00:41.000Z</time>
      </trkpt>
      <trkpt lat="47.2547" lon="-2.30233">
        <ele>33.799999237061</ele>
        <time>2021-05-16T08:00:44.000Z</time>
      </trkpt>
      <trkpt lat="47.25479" lon="-2.30212">
        <ele>33.799999237061</ele>
        <time>2021-05-16T08:00:48.000Z</time>
      </trkpt>
      <trkpt lat="47.25498" lon="-2.30194">
        <ele>33.400001525879</ele>
        <time>2021-05-16T08:00:53.000Z</time>
      </trkpt>
      <trkpt lat="47.25503" lon="-2.30194">
        <ele>33</ele>
        <time>2021-05-16T08:00:54.000Z</time>
      </trkpt>
      <trkpt lat="47.25508" lon="-2.30195">
        <ele>32.400001525879</ele>
        <time>2021-05-16T08:00:55.000Z</time>
      </trkpt>
      <trkpt lat="47.25511" lon="-2.30195">
        <ele>32</ele>
        <time>2021-05-16T08:00:56.000Z</time>
      </trkpt>
      <trkpt lat="47.25517" lon="-2.30194">
        <ele>31.60000038147</ele>
        <time>2021-05-16T08:00:57.000Z</time>
      </trkpt>
      <trkpt lat="47.25527" lon="-2.30188">
        <ele>31.60000038147</ele>
        <time>2021-05-16T08:00:59.000Z</time>
      </trkpt>
      <trkpt lat="47.2554" lon="-2.30182">
        <ele>31.60000038147</ele>
        <time>2021-05-16T08:01:02.000Z</time>
      </trkpt>
      <trkpt lat="47.25551" lon="-2.30182">
        <ele>31.60000038147</ele>
        <time>2021-05-16T08:01:04.000Z</time>
      </trkpt>
      <trkpt lat="47.25557" lon="-2.30177">
        <ele>31.60000038147</ele>
        <time>2021-05-16T08:01:06.000Z</time>
      </trkpt>
      <trkpt lat="47.25559" lon="-2.30169">
        <ele>31.60000038147</ele>
        <time>2021-05-16T08:01:09.000Z</time>
      </trkpt>
      <trkpt lat="47.2556" lon="-2.30166">
        <ele>31.60000038147</ele>
        <time>2021-05-16T08:01:11.000Z</time>
      </trkpt>
      <trkpt lat="47.25562" lon="-2.30165">
        <ele>31.60000038147</ele>
        <time>2021-05-16T08:01:13.000Z</time>
      </trkpt>
      <trkpt lat="47.25564" lon="-2.30158">
        <ele>31.60000038147</ele>
        <time>2021-05-16T08:01:23.000Z</time>
      </trkpt>
      <trkpt lat="47.25565" lon="-2.30137">
        <ele>31.60000038147</ele>
        <time>2021-05-16T08:01:28.000Z</time>
      </trkpt>
      <trkpt lat="47.25568" lon="-2.3011">
        <ele>31.60000038147</ele>
        <time>2021-05-16T08:01:32.000Z</time>
      </trkpt>
      <trkpt lat="47.25581" lon="-2.30086">
        <ele>32</ele>
        <time>2021-05-16T08:01:37.000Z</time>
      </trkpt>
      <trkpt lat="47.25584" lon="-2.30081">
        <ele>32.400001525879</ele>
        <time>2021-05-16T08:01:38.000Z</time>
      </trkpt>
      <trkpt lat="47.25587" lon="-2.30076">
        <ele>33</ele>
        <time>2021-05-16T08:01:39.000Z</time>
      </trkpt>
      <trkpt lat="47.25591" lon="-2.30071">
        <ele>33.400001525879</ele>
        <time>2021-05-16T08:01:40.000Z</time>
      </trkpt>
      <trkpt lat="47.25595" lon="-2.30065">
        <ele>33.799999237061</ele>
        <time>2021-05-16T08:01:41.000Z</time>
      </trkpt>
      <trkpt lat="47.25603" lon="-2.30056">
        <ele>33.799999237061</ele>
        <time>2021-05-16T08:01:43.000Z</time>
      </trkpt>
      <trkpt lat="47.2561" lon="-2.30043">
        <ele>33.799999237061</ele>
        <time>2021-05-16T08:01:45.000Z</time>
      </trkpt>
      <trkpt lat="47.25613" lon="-2.30028">
        <ele>33.799999237061</ele>
        <time>2021-05-16T08:01:47.000Z</time>
      </trkpt>
      <trkpt lat="47.25608" lon="-2.30006">
        <ele>33.799999237061</ele>
        <time>2021-05-16T08:01:50.000Z</time>
      </trkpt>
      <trkpt lat="47.25598" lon="-2.29988">
        <ele>33.799999237061</ele>
        <time>2021-05-16T08:01:53.000Z</time>
      </trkpt>
      <trkpt lat="47.25594" lon="-2.29983">
        <ele>33.799999237061</ele>
        <time>2021-05-16T08:01:54.000Z</time>
      </trkpt>
      <trkpt lat="47.25564" lon="-2.29933">
        <ele>33.799999237061</ele>
        <time>2021-05-16T08:02:03.000Z</time>
      </trkpt>
      <trkpt lat="47.25558" lon="-2.29923">
        <ele>34.200000762939</ele>
        <time>2021-05-16T08:02:05.000Z</time>
      </trkpt>
      <trkpt lat="47.25555" lon="-2.29918">
        <ele>34.599998474121</ele>
        <time>2021-05-16T08:02:06.000Z</time>
      </trkpt>
      <trkpt lat="47.25552" lon="-2.29914">
        <ele>35</ele>
        <time>2021-05-16T08:02:07.000Z</time>
      </trkpt>
      <trkpt lat="47.25549" lon="-2.2991">
        <ele>35.400001525879</ele>
        <time>2021-05-16T08:02:08.000Z</time>
      </trkpt>
      <trkpt lat="47.25546" lon="-2.29906">
        <ele>35.799999237061</ele>
        <time>2021-05-16T08:02:09.000Z</time>
      </trkpt>
      <trkpt lat="47.25544" lon="-2.29902">
        <ele>35.799999237061</ele>
        <time>2021-05-16T08:02:10.000Z</time>
      </trkpt>
      <trkpt lat="47.25532" lon="-2.2988">
        <ele>35.799999237061</ele>
        <time>2021-05-16T08:02:16.000Z</time>
      </trkpt>
      <trkpt lat="47.25534" lon="-2.29874">
        <ele>36.200000762939</ele>
        <time>2021-05-16T08:02:17.000Z</time>
      </trkpt>
      <trkpt lat="47.25536" lon="-2.29869">
        <ele>36.599998474121</ele>
        <time>2021-05-16T08:02:18.000Z</time>
      </trkpt>
      <trkpt lat="47.2554" lon="-2.29865">
        <ele>37</ele>
        <time>2021-05-16T08:02:19.000Z</time>
      </trkpt>
      <trkpt lat="47.25543" lon="-2.2986">
        <ele>37.799999237061</ele>
        <time>2021-05-16T08:02:20.000Z</time>
      </trkpt>
      <trkpt lat="47.25547" lon="-2.29854">
        <ele>37.799999237061</ele>
        <time>2021-05-16T08:02:21.000Z</time>
      </trkpt>
      <trkpt lat="47.25558" lon="-2.29836">
        <ele>37.799999237061</ele>
        <time>2021-05-16T08:02:24.000Z</time>
      </trkpt>
      <trkpt lat="47.25574" lon="-2.29812">
        <ele>37.400001525879</ele>
        <time>2021-05-16T08:02:29.000Z</time>
      </trkpt>
      <trkpt lat="47.25575" lon="-2.29806">
        <ele>37</ele>
        <time>2021-05-16T08:02:30.000Z</time>
      </trkpt>
      <trkpt lat="47.25574" lon="-2.29801">
        <ele>36.599998474121</ele>
        <time>2021-05-16T08:02:31.000Z</time>
      </trkpt>
      <trkpt lat="47.25571" lon="-2.29797">
        <ele>36</ele>
        <time>2021-05-16T08:02:32.000Z</time>
      </trkpt>
      <trkpt lat="47.25568" lon="-2.29794">
        <ele>35.599998474121</ele>
        <time>2021-05-16T08:02:33.000Z</time>
      </trkpt>
      <trkpt lat="47.25561" lon="-2.29781">
        <ele>35.599998474121</ele>
        <time>2021-05-16T08:02:36.000Z</time>
      </trkpt>
      <trkpt lat="47.25549" lon="-2.29765">
        <ele>35.599998474121</ele>
        <time>2021-05-16T08:02:40.000Z</time>
      </trkpt>
      <trkpt lat="47.25524" lon="-2.2974">
        <ele>35.599998474121</ele>
        <time>2021-05-16T08:02:47.000Z</time>
      </trkpt>
      <trkpt lat="47.25519" lon="-2.29739">
        <ele>36</ele>
        <time>2021-05-16T08:02:48.000Z</time>
      </trkpt>
      <trkpt lat="47.25515" lon="-2.29738">
        <ele>36.400001525879</ele>
        <time>2021-05-16T08:02:49.000Z</time>
      </trkpt>
      <trkpt lat="47.2551" lon="-2.29738">
        <ele>36.799999237061</ele>
        <time>2021-05-16T08:02:50.000Z</time>
      </trkpt>
      <trkpt lat="47.25507" lon="-2.29738">
        <ele>37.200000762939</ele>
        <time>2021-05-16T08:02:51.000Z</time>
      </trkpt>
      <trkpt lat="47.25502" lon="-2.29739">
        <ele>37.599998474121</ele>
        <time>2021-05-16T08:02:52.000Z</time>
      </trkpt>
      <trkpt lat="47.25488" lon="-2.29744">
        <ele>37.599998474121</ele>
        <time>2021-05-16T08:02:55.000Z</time>
      </trkpt>
      <trkpt lat="47.25483" lon="-2.29746">
        <ele>38</ele>
        <time>2021-05-16T08:02:56.000Z</time>
      </trkpt>
      <trkpt lat="47.25478" lon="-2.29748">
        <ele>38.400001525879</ele>
        <time>2021-05-16T08:02:57.000Z</time>
      </trkpt>
      <trkpt lat="47.25473" lon="-2.29749">
        <ele>38.799999237061</ele>
        <time>2021-05-16T08:02:58.000Z</time>
      </trkpt>
      <trkpt lat="47.25468" lon="-2.29752">
        <ele>39.400001525879</ele>
        <time>2021-05-16T08:02:59.000Z</time>
      </trkpt>
      <trkpt lat="47.25463" lon="-2.29754">
        <ele>39.799999237061</ele>
        <time>2021-05-16T08:03:00.000Z</time>
      </trkpt>
      <trkpt lat="47.25453" lon="-2.29756">
        <ele>39.799999237061</ele>
        <time>2021-05-16T08:03:02.000Z</time>
      </trkpt>
      <trkpt lat="47.25422" lon="-2.29758">
        <ele>39.799999237061</ele>
        <time>2021-05-16T08:03:08.000Z</time>
      </trkpt>
      <trkpt lat="47.25412" lon="-2.29758">
        <ele>40.599998474121</ele>
        <time>2021-05-16T08:03:10.000Z</time>
      </trkpt>
      <trkpt lat="47.25407" lon="-2.29758">
        <ele>41</ele>
        <time>2021-05-16T08:03:11.000Z</time>
      </trkpt>
      <trkpt lat="47.25402" lon="-2.29759">
        <ele>41.400001525879</ele>
        <time>2021-05-16T08:03:12.000Z</time>
      </trkpt>
      <trkpt lat="47.25397" lon="-2.29759">
        <ele>41.799999237061</ele>
        <time>2021-05-16T08:03:13.000Z</time>
      </trkpt>
      <trkpt lat="47.25386" lon="-2.29758">
        <ele>41.799999237061</ele>
        <time>2021-05-16T08:03:15.000Z</time>
      </trkpt>
      <trkpt lat="47.25351" lon="-2.29759">
        <ele>41.799999237061</ele>
        <time>2021-05-16T08:03:22.000Z</time>
      </trkpt>
      <trkpt lat="47.25316" lon="-2.29752">
        <ele>41.799999237061</ele>
        <time>2021-05-16T08:03:29.000Z</time>
      </trkpt>
      <trkpt lat="47.25274" lon="-2.29742">
        <ele>41.799999237061</ele>
        <time>2021-05-16T08:03:37.000Z</time>
      </trkpt>
      <trkpt lat="47.25242" lon="-2.29747">
        <ele>41.799999237061</ele>
        <time>2021-05-16T08:03:43.000Z</time>
      </trkpt>
      <trkpt lat="47.25197" lon="-2.29752">
        <ele>41.799999237061</ele>
        <time>2021-05-16T08:03:52.000Z</time>
      </trkpt>
      <trkpt lat="47.25193" lon="-2.29751">
        <ele>41.799999237061</ele>
        <time>2021-05-16T08:03:53.000Z</time>
      </trkpt>
      <trkpt lat="47.25192" lon="-2.29741">
        <ele>41.799999237061</ele>
        <time>2021-05-16T08:03:55.000Z</time>
      </trkpt>
      <trkpt lat="47.25192" lon="-2.29719">
        <ele>41.799999237061</ele>
        <time>2021-05-16T08:03:59.000Z</time>
      </trkpt>
      <trkpt lat="47.25192" lon="-2.29712">
        <ele>41.799999237061</ele>
        <time>2021-05-16T08:04:00.000Z</time>
      </trkpt>
      <trkpt lat="47.25187" lon="-2.29661">
        <ele>42.200000762939</ele>
        <time>2021-05-16T08:04:07.000Z</time>
      </trkpt>
      <trkpt lat="47.25187" lon="-2.29653">
        <ele>42.599998474121</ele>
        <time>2021-05-16T08:04:08.000Z</time>
      </trkpt>
      <trkpt lat="47.25186" lon="-2.29646">
        <ele>43</ele>
        <time>2021-05-16T08:04:09.000Z</time>
      </trkpt>
      <trkpt lat="47.25187" lon="-2.29639">
        <ele>43.400001525879</ele>
        <time>2021-05-16T08:04:10.000Z</time>
      </trkpt>
      <trkpt lat="47.25187" lon="-2.29632">
        <ele>43.799999237061</ele>
        <time>2021-05-16T08:04:11.000Z</time>
      </trkpt>
      <trkpt lat="47.25189" lon="-2.29626">
        <ele>43.799999237061</ele>
        <time>2021-05-16T08:04:12.000Z</time>
      </trkpt>
      <trkpt lat="47.252" lon="-2.29604">
        <ele>43.799999237061</ele>
        <time>2021-05-16T08:04:16.000Z</time>
      </trkpt>
      <trkpt lat="47.25202" lon="-2.29597">
        <ele>43.799999237061</ele>
        <time>2021-05-16T08:04:17.000Z</time>
      </trkpt>
      <trkpt lat="47.25206" lon="-2.29586">
        <ele>43.799999237061</ele>
        <time>2021-05-16T08:04:19.000Z</time>
      </trkpt>
      <trkpt lat="47.25214" lon="-2.2958">
        <ele>43.799999237061</ele>
        <time>2021-05-16T08:04:21.000Z</time>
      </trkpt>
      <trkpt lat="47.25224" lon="-2.29576">
        <ele>43.799999237061</ele>
        <time>2021-05-16T08:04:23.000Z</time>
      </trkpt>
      <trkpt lat="47.25238" lon="-2.29567">
        <ele>43.799999237061</ele>
        <time>2021-05-16T08:04:26.000Z</time>
      </trkpt>
      <trkpt lat="47.25279" lon="-2.29538">
        <ele>43.799999237061</ele>
        <time>2021-05-16T08:04:33.000Z</time>
      </trkpt>
      <trkpt lat="47.25289" lon="-2.29534">
        <ele>43.799999237061</ele>
        <time>2021-05-16T08:04:36.000Z</time>
      </trkpt>
      <trkpt lat="47.25311" lon="-2.29525">
        <ele>43.799999237061</ele>
        <time>2021-05-16T08:04:40.000Z</time>
      </trkpt>
      <trkpt lat="47.25322" lon="-2.29517">
        <ele>43.799999237061</ele>
        <time>2021-05-16T08:04:42.000Z</time>
      </trkpt>
      <trkpt lat="47.25331" lon="-2.29506">
        <ele>43.799999237061</ele>
        <time>2021-05-16T08:04:44.000Z</time>
      </trkpt>
      <trkpt lat="47.2534" lon="-2.29484">
        <ele>43.799999237061</ele>
        <time>2021-05-16T08:04:47.000Z</time>
      </trkpt>
      <trkpt lat="47.25344" lon="-2.2946">
        <ele>43.799999237061</ele>
        <time>2021-05-16T08:04:50.000Z</time>
      </trkpt>
      <trkpt lat="47.25345" lon="-2.29443">
        <ele>43.799999237061</ele>
        <time>2021-05-16T08:04:52.000Z</time>
      </trkpt>
      <trkpt lat="47.25345" lon="-2.29433">
        <ele>43.799999237061</ele>
        <time>2021-05-16T08:04:53.000Z</time>
      </trkpt>
      <trkpt lat="47.25343" lon="-2.29408">
        <ele>43.799999237061</ele>
        <time>2021-05-16T08:04:56.000Z</time>
      </trkpt>
      <trkpt lat="47.25344" lon="-2.29392">
        <ele>43.799999237061</ele>
        <time>2021-05-16T08:04:58.000Z</time>
      </trkpt>
      <trkpt lat="47.25348" lon="-2.29367">
        <ele>43.799999237061</ele>
        <time>2021-05-16T08:05:01.000Z</time>
      </trkpt>
      <trkpt lat="47.2535" lon="-2.29358">
        <ele>43.799999237061</ele>
        <time>2021-05-16T08:05:02.000Z</time>
      </trkpt>
      <trkpt lat="47.25355" lon="-2.29333">
        <ele>43.799999237061</ele>
        <time>2021-05-16T08:05:05.000Z</time>
      </trkpt>
      <trkpt lat="47.25356" lon="-2.29317">
        <ele>43.799999237061</ele>
        <time>2021-05-16T08:05:07.000Z</time>
      </trkpt>
      <trkpt lat="47.25363" lon="-2.2928">
        <ele>43.799999237061</ele>
        <time>2021-05-16T08:05:12.000Z</time>
      </trkpt>
      <trkpt lat="47.25371" lon="-2.29244">
        <ele>43.799999237061</ele>
        <time>2021-05-16T08:05:17.000Z</time>
      </trkpt>
      <trkpt lat="47.25373" lon="-2.29237">
        <ele>43.799999237061</ele>
        <time>2021-05-16T08:05:18.000Z</time>
      </trkpt>
      <trkpt lat="47.25384" lon="-2.29219">
        <ele>43.799999237061</ele>
        <time>2021-05-16T08:05:21.000Z</time>
      </trkpt>
      <trkpt lat="47.25399" lon="-2.29198">
        <ele>43.799999237061</ele>
        <time>2021-05-16T08:05:25.000Z</time>
      </trkpt>
      <trkpt lat="47.25406" lon="-2.29192">
        <ele>43.799999237061</ele>
        <time>2021-05-16T08:05:27.000Z</time>
      </trkpt>
      <trkpt lat="47.25418" lon="-2.29183">
        <ele>43.799999237061</ele>
        <time>2021-05-16T08:05:30.000Z</time>
      </trkpt>
      <trkpt lat="47.25428" lon="-2.29176">
        <ele>43.799999237061</ele>
        <time>2021-05-16T08:05:32.000Z</time>
      </trkpt>
      <trkpt lat="47.25432" lon="-2.29172">
        <ele>43.799999237061</ele>
        <time>2021-05-16T08:05:33.000Z</time>
      </trkpt>
      <trkpt lat="47.2546" lon="-2.29139">
        <ele>43.799999237061</ele>
        <time>2021-05-16T08:05:39.000Z</time>
      </trkpt>
      <trkpt lat="47.25465" lon="-2.29134">
        <ele>43.799999237061</ele>
        <time>2021-05-16T08:05:40.000Z</time>
      </trkpt>
      <trkpt lat="47.25489" lon="-2.29121">
        <ele>43.799999237061</ele>
        <time>2021-05-16T08:05:44.000Z</time>
      </trkpt>
      <trkpt lat="47.25495" lon="-2.29119">
        <ele>43.799999237061</ele>
        <time>2021-05-16T08:05:45.000Z</time>
      </trkpt>
      <trkpt lat="47.25529" lon="-2.29105">
        <ele>43.799999237061</ele>
        <time>2021-05-16T08:05:50.000Z</time>
      </trkpt>
      <trkpt lat="47.2554" lon="-2.29092">
        <ele>43.400001525879</ele>
        <time>2021-05-16T08:05:52.000Z</time>
      </trkpt>
      <trkpt lat="47.25545" lon="-2.29084">
        <ele>43</ele>
        <time>2021-05-16T08:05:53.000Z</time>
      </trkpt>
      <trkpt lat="47.25549" lon="-2.29075">
        <ele>42.599998474121</ele>
        <time>2021-05-16T08:05:54.000Z</time>
      </trkpt>
      <trkpt lat="47.25552" lon="-2.29066">
        <ele>42</ele>
        <time>2021-05-16T08:05:55.000Z</time>
      </trkpt>
      <trkpt lat="47.25554" lon="-2.29056">
        <ele>41.599998474121</ele>
        <time>2021-05-16T08:05:56.000Z</time>
      </trkpt>
      <trkpt lat="47.25554" lon="-2.29017">
        <ele>41.599998474121</ele>
        <time>2021-05-16T08:06:00.000Z</time>
      </trkpt>
      <trkpt lat="47.25555" lon="-2.29007">
        <ele>41.599998474121</ele>
        <time>2021-05-16T08:06:01.000Z</time>
      </trkpt>
      <trkpt lat="47.25557" lon="-2.28999">
        <ele>41.599998474121</ele>
        <time>2021-05-16T08:06:02.000Z</time>
      </trkpt>
      <trkpt lat="47.25563" lon="-2.28989">
        <ele>41.599998474121</ele>
        <time>2021-05-16T08:06:04.000Z</time>
      </trkpt>
      <trkpt lat="47.2558" lon="-2.28976">
        <ele>41.599998474121</ele>
        <time>2021-05-16T08:06:07.000Z</time>
      </trkpt>
      <trkpt lat="47.25587" lon="-2.28958">
        <ele>41.599998474121</ele>
        <time>2021-05-16T08:06:10.000Z</time>
      </trkpt>
      <trkpt lat="47.25586" lon="-2.28943">
        <ele>41.200000762939</ele>
        <time>2021-05-16T08:06:12.000Z</time>
      </trkpt>
      <trkpt lat="47.25584" lon="-2.28935">
        <ele>40.799999237061</ele>
        <time>2021-05-16T08:06:13.000Z</time>
      </trkpt>
      <trkpt lat="47.25582" lon="-2.28927">
        <ele>40.400001525879</ele>
        <time>2021-05-16T08:06:14.000Z</time>
      </trkpt>
      <trkpt lat="47.25581" lon="-2.28919">
        <ele>39.799999237061</ele>
        <time>2021-05-16T08:06:15.000Z</time>
      </trkpt>
      <trkpt lat="47.25578" lon="-2.28911">
        <ele>39.400001525879</ele>
        <time>2021-05-16T08:06:16.000Z</time>
      </trkpt>
      <trkpt lat="47.25573" lon="-2.28884">
        <ele>39.400001525879</ele>
        <time>2021-05-16T08:06:19.000Z</time>
      </trkpt>
      <trkpt lat="47.25561" lon="-2.28832">
        <ele>39.400001525879</ele>
        <time>2021-05-16T08:06:25.000Z</time>
      </trkpt>
      <trkpt lat="47.25542" lon="-2.28775">
        <ele>39.799999237061</ele>
        <time>2021-05-16T08:06:32.000Z</time>
      </trkpt>
      <trkpt lat="47.25541" lon="-2.28767">
        <ele>40.200000762939</ele>
        <time>2021-05-16T08:06:33.000Z</time>
      </trkpt>
      <trkpt lat="47.25539" lon="-2.28759">
        <ele>40.599998474121</ele>
        <time>2021-05-16T08:06:34.000Z</time>
      </trkpt>
      <trkpt lat="47.25537" lon="-2.2875">
        <ele>41.200000762939</ele>
        <time>2021-05-16T08:06:35.000Z</time>
      </trkpt>
      <trkpt lat="47.25535" lon="-2.28741">
        <ele>41.599998474121</ele>
        <time>2021-05-16T08:06:36.000Z</time>
      </trkpt>
      <trkpt lat="47.25532" lon="-2.28722">
        <ele>41.599998474121</ele>
        <time>2021-05-16T08:06:38.000Z</time>
      </trkpt>
      <trkpt lat="47.25521" lon="-2.28667">
        <ele>41.599998474121</ele>
        <time>2021-05-16T08:06:44.000Z</time>
      </trkpt>
      <trkpt lat="47.25516" lon="-2.28611">
        <ele>41.599998474121</ele>
        <time>2021-05-16T08:06:50.000Z</time>
      </trkpt>
      <trkpt lat="47.25513" lon="-2.28564">
        <ele>42</ele>
        <time>2021-05-16T08:06:55.000Z</time>
      </trkpt>
      <trkpt lat="47.25512" lon="-2.28554">
        <ele>42.400001525879</ele>
        <time>2021-05-16T08:06:56.000Z</time>
      </trkpt>
      <trkpt lat="47.25512" lon="-2.28544">
        <ele>42.799999237061</ele>
        <time>2021-05-16T08:06:57.000Z</time>
      </trkpt>
      <trkpt lat="47.25511" lon="-2.28534">
        <ele>43.200000762939</ele>
        <time>2021-05-16T08:06:58.000Z</time>
      </trkpt>
      <trkpt lat="47.25511" lon="-2.28524">
        <ele>43.599998474121</ele>
        <time>2021-05-16T08:06:59.000Z</time>
      </trkpt>
      <trkpt lat="47.25512" lon="-2.28475">
        <ele>43.599998474121</ele>
        <time>2021-05-16T08:07:04.000Z</time>
      </trkpt>
      <trkpt lat="47.25513" lon="-2.28444">
        <ele>44</ele>
        <time>2021-05-16T08:07:07.000Z</time>
      </trkpt>
      <trkpt lat="47.25514" lon="-2.28434">
        <ele>44.400001525879</ele>
        <time>2021-05-16T08:07:08.000Z</time>
      </trkpt>
      <trkpt lat="47.25514" lon="-2.28425">
        <ele>44.799999237061</ele>
        <time>2021-05-16T08:07:09.000Z</time>
      </trkpt>
      <trkpt lat="47.25515" lon="-2.28414">
        <ele>45.200000762939</ele>
        <time>2021-05-16T08:07:10.000Z</time>
      </trkpt>
      <trkpt lat="47.25515" lon="-2.28404">
        <ele>45.599998474121</ele>
        <time>2021-05-16T08:07:11.000Z</time>
      </trkpt>
      <trkpt lat="47.25511" lon="-2.28368">
        <ele>45.599998474121</ele>
        <time>2021-05-16T08:07:15.000Z</time>
      </trkpt>
      <trkpt lat="47.25498" lon="-2.28357">
        <ele>45.599998474121</ele>
        <time>2021-05-16T08:07:18.000Z</time>
      </trkpt>
      <trkpt lat="47.25486" lon="-2.2836">
        <ele>45.599998474121</ele>
        <time>2021-05-16T08:07:21.000Z</time>
      </trkpt>
      <trkpt lat="47.25484" lon="-2.28361">
        <ele>45.599998474121</ele>
        <time>2021-05-16T08:07:22.000Z</time>
      </trkpt>
      <trkpt lat="47.2547" lon="-2.28363">
        <ele>45.599998474121</ele>
        <time>2021-05-16T08:07:29.000Z</time>
      </trkpt>
      <trkpt lat="47.25456" lon="-2.28371">
        <ele>45.599998474121</ele>
        <time>2021-05-16T08:07:36.000Z</time>
      </trkpt>
      <trkpt lat="47.25441" lon="-2.28382">
        <ele>45.599998474121</ele>
        <time>2021-05-16T08:07:41.000Z</time>
      </trkpt>
      <trkpt lat="47.25417" lon="-2.28402">
        <ele>45.599998474121</ele>
        <time>2021-05-16T08:07:48.000Z</time>
      </trkpt>
      <trkpt lat="47.25402" lon="-2.28413">
        <ele>45.599998474121</ele>
        <time>2021-05-16T08:07:53.000Z</time>
      </trkpt>
      <trkpt lat="47.25384" lon="-2.28428">
        <ele>45.599998474121</ele>
        <time>2021-05-16T08:07:58.000Z</time>
      </trkpt>
      <trkpt lat="47.25376" lon="-2.28434">
        <ele>45.599998474121</ele>
        <time>2021-05-16T08:08:00.000Z</time>
      </trkpt>
      <trkpt lat="47.25346" lon="-2.28459">
        <ele>45.599998474121</ele>
        <time>2021-05-16T08:08:08.000Z</time>
      </trkpt>
      <trkpt lat="47.25321" lon="-2.28485">
        <ele>45.599998474121</ele>
        <time>2021-05-16T08:08:15.000Z</time>
      </trkpt>
      <trkpt lat="47.25294" lon="-2.28515">
        <ele>45.599998474121</ele>
        <time>2021-05-16T08:08:21.000Z</time>
      </trkpt>
      <trkpt lat="47.25255" lon="-2.28564">
        <ele>45.599998474121</ele>
        <time>2021-05-16T08:08:29.000Z</time>
      </trkpt>
      <trkpt lat="47.2525" lon="-2.28569">
        <ele>45.599998474121</ele>
        <time>2021-05-16T08:08:30.000Z</time>
      </trkpt>
      <trkpt lat="47.2524" lon="-2.28581">
        <ele>45.599998474121</ele>
        <time>2021-05-16T08:08:32.000Z</time>
      </trkpt>
      <trkpt lat="47.25231" lon="-2.28594">
        <ele>45.599998474121</ele>
        <time>2021-05-16T08:08:34.000Z</time>
      </trkpt>
      <trkpt lat="47.252" lon="-2.28629">
        <ele>45.599998474121</ele>
        <time>2021-05-16T08:08:40.000Z</time>
      </trkpt>
      <trkpt lat="47.25194" lon="-2.28634">
        <ele>45.200000762939</ele>
        <time>2021-05-16T08:08:41.000Z</time>
      </trkpt>
      <trkpt lat="47.25188" lon="-2.28639">
        <ele>44.799999237061</ele>
        <time>2021-05-16T08:08:42.000Z</time>
      </trkpt>
      <trkpt lat="47.25182" lon="-2.28644">
        <ele>44.400001525879</ele>
        <time>2021-05-16T08:08:43.000Z</time>
      </trkpt>
      <trkpt lat="47.25175" lon="-2.28648">
        <ele>44</ele>
        <time>2021-05-16T08:08:44.000Z</time>
      </trkpt>
      <trkpt lat="47.25168" lon="-2.28652">
        <ele>43.400001525879</ele>
        <time>2021-05-16T08:08:45.000Z</time>
      </trkpt>
      <trkpt lat="47.25161" lon="-2.28656">
        <ele>43.400001525879</ele>
        <time>2021-05-16T08:08:46.000Z</time>
      </trkpt>
      <trkpt lat="47.25112" lon="-2.28683">
        <ele>42.599998474121</ele>
        <time>2021-05-16T08:08:53.000Z</time>
      </trkpt>
      <trkpt lat="47.25106" lon="-2.28687">
        <ele>42.200000762939</ele>
        <time>2021-05-16T08:08:54.000Z</time>
      </trkpt>
      <trkpt lat="47.25099" lon="-2.2869">
        <ele>41.799999237061</ele>
        <time>2021-05-16T08:08:55.000Z</time>
      </trkpt>
      <trkpt lat="47.25093" lon="-2.28691">
        <ele>41.200000762939</ele>
        <time>2021-05-16T08:08:56.000Z</time>
      </trkpt>
      <trkpt lat="47.25087" lon="-2.28688">
        <ele>40.799999237061</ele>
        <time>2021-05-16T08:08:57.000Z</time>
      </trkpt>
      <trkpt lat="47.25084" lon="-2.28682">
        <ele>40.400001525879</ele>
        <time>2021-05-16T08:08:58.000Z</time>
      </trkpt>
      <trkpt lat="47.25081" lon="-2.28675">
        <ele>40</ele>
        <time>2021-05-16T08:08:59.000Z</time>
      </trkpt>
      <trkpt lat="47.25079" lon="-2.28667">
        <ele>39.599998474121</ele>
        <time>2021-05-16T08:09:00.000Z</time>
      </trkpt>
      <trkpt lat="47.25078" lon="-2.28659">
        <ele>39.200000762939</ele>
        <time>2021-05-16T08:09:01.000Z</time>
      </trkpt>
      <trkpt lat="47.25073" lon="-2.2863">
        <ele>39.200000762939</ele>
        <time>2021-05-16T08:09:04.000Z</time>
      </trkpt>
      <trkpt lat="47.25059" lon="-2.28571">
        <ele>39.200000762939</ele>
        <time>2021-05-16T08:09:10.000Z</time>
      </trkpt>
      <trkpt lat="47.25051" lon="-2.28509">
        <ele>39.200000762939</ele>
        <time>2021-05-16T08:09:16.000Z</time>
      </trkpt>
      <trkpt lat="47.2505" lon="-2.2842">
        <ele>39.200000762939</ele>
        <time>2021-05-16T08:09:24.000Z</time>
      </trkpt>
      <trkpt lat="47.25043" lon="-2.28356">
        <ele>38.799999237061</ele>
        <time>2021-05-16T08:09:30.000Z</time>
      </trkpt>
      <trkpt lat="47.25041" lon="-2.28346">
        <ele>38.400001525879</ele>
        <time>2021-05-16T08:09:31.000Z</time>
      </trkpt>
      <trkpt lat="47.25038" lon="-2.28336">
        <ele>38</ele>
        <time>2021-05-16T08:09:32.000Z</time>
      </trkpt>
      <trkpt lat="47.25035" lon="-2.28328">
        <ele>37.400001525879</ele>
        <time>2021-05-16T08:09:33.000Z</time>
      </trkpt>
      <trkpt lat="47.25032" lon="-2.28318">
        <ele>37</ele>
        <time>2021-05-16T08:09:34.000Z</time>
      </trkpt>
      <trkpt lat="47.25028" lon="-2.28283">
        <ele>37</ele>
        <time>2021-05-16T08:09:38.000Z</time>
      </trkpt>
      <trkpt lat="47.25033" lon="-2.28256">
        <ele>37</ele>
        <time>2021-05-16T08:09:41.000Z</time>
      </trkpt>
      <trkpt lat="47.25035" lon="-2.28246">
        <ele>37</ele>
        <time>2021-05-16T08:09:42.000Z</time>
      </trkpt>
      <trkpt lat="47.25036" lon="-2.28237">
        <ele>37</ele>
        <time>2021-05-16T08:09:43.000Z</time>
      </trkpt>
      <trkpt lat="47.25047" lon="-2.28185">
        <ele>37</ele>
        <time>2021-05-16T08:09:49.000Z</time>
      </trkpt>
      <trkpt lat="47.25062" lon="-2.28132">
        <ele>37</ele>
        <time>2021-05-16T08:09:56.000Z</time>
      </trkpt>
      <trkpt lat="47.25067" lon="-2.28117">
        <ele>37</ele>
        <time>2021-05-16T08:09:58.000Z</time>
      </trkpt>
      <trkpt lat="47.25071" lon="-2.28095">
        <ele>37</ele>
        <time>2021-05-16T08:10:01.000Z</time>
      </trkpt>
      <trkpt lat="47.25073" lon="-2.28088">
        <ele>37</ele>
        <time>2021-05-16T08:10:02.000Z</time>
      </trkpt>
      <trkpt lat="47.25078" lon="-2.2807">
        <ele>37</ele>
        <time>2021-05-16T08:10:04.000Z</time>
      </trkpt>
      <trkpt lat="47.25082" lon="-2.28061">
        <ele>37</ele>
        <time>2021-05-16T08:10:05.000Z</time>
      </trkpt>
      <trkpt lat="47.25105" lon="-2.28006">
        <ele>37</ele>
        <time>2021-05-16T08:10:11.000Z</time>
      </trkpt>
      <trkpt lat="47.25125" lon="-2.2797">
        <ele>37</ele>
        <time>2021-05-16T08:10:16.000Z</time>
      </trkpt>
      <trkpt lat="47.25135" lon="-2.27957">
        <ele>37.400001525879</ele>
        <time>2021-05-16T08:10:18.000Z</time>
      </trkpt>
      <trkpt lat="47.2514" lon="-2.27952">
        <ele>37.799999237061</ele>
        <time>2021-05-16T08:10:19.000Z</time>
      </trkpt>
      <trkpt lat="47.25146" lon="-2.27948">
        <ele>38.200000762939</ele>
        <time>2021-05-16T08:10:20.000Z</time>
      </trkpt>
      <trkpt lat="47.25151" lon="-2.27944">
        <ele>38.599998474121</ele>
        <time>2021-05-16T08:10:21.000Z</time>
      </trkpt>
      <trkpt lat="47.25157" lon="-2.27939">
        <ele>39</ele>
        <time>2021-05-16T08:10:22.000Z</time>
      </trkpt>
      <trkpt lat="47.25197" lon="-2.2791">
        <ele>39</ele>
        <time>2021-05-16T08:10:29.000Z</time>
      </trkpt>
      <trkpt lat="47.25202" lon="-2.27907">
        <ele>39.400001525879</ele>
        <time>2021-05-16T08:10:30.000Z</time>
      </trkpt>
      <trkpt lat="47.25208" lon="-2.27904">
        <ele>39.799999237061</ele>
        <time>2021-05-16T08:10:31.000Z</time>
      </trkpt>
      <trkpt lat="47.25214" lon="-2.27902">
        <ele>40.599998474121</ele>
        <time>2021-05-16T08:10:32.000Z</time>
      </trkpt>
      <trkpt lat="47.2522" lon="-2.27899">
        <ele>41</ele>
        <time>2021-05-16T08:10:33.000Z</time>
      </trkpt>
      <trkpt lat="47.25225" lon="-2.27896">
        <ele>41</ele>
        <time>2021-05-16T08:10:34.000Z</time>
      </trkpt>
      <trkpt lat="47.25269" lon="-2.27874">
        <ele>41</ele>
        <time>2021-05-16T08:10:41.000Z</time>
      </trkpt>
      <trkpt lat="47.25307" lon="-2.27867">
        <ele>41</ele>
        <time>2021-05-16T08:10:47.000Z</time>
      </trkpt>
      <trkpt lat="47.25319" lon="-2.27866">
        <ele>41.599998474121</ele>
        <time>2021-05-16T08:10:49.000Z</time>
      </trkpt>
      <trkpt lat="47.25325" lon="-2.27865">
        <ele>42</ele>
        <time>2021-05-16T08:10:50.000Z</time>
      </trkpt>
      <trkpt lat="47.25331" lon="-2.27864">
        <ele>42.400001525879</ele>
        <time>2021-05-16T08:10:51.000Z</time>
      </trkpt>
      <trkpt lat="47.25337" lon="-2.27863">
        <ele>42.799999237061</ele>
        <time>2021-05-16T08:10:52.000Z</time>
      </trkpt>
      <trkpt lat="47.25343" lon="-2.27862">
        <ele>43.200000762939</ele>
        <time>2021-05-16T08:10:53.000Z</time>
      </trkpt>
      <trkpt lat="47.25349" lon="-2.27861">
        <ele>43.200000762939</ele>
        <time>2021-05-16T08:10:54.000Z</time>
      </trkpt>
      <trkpt lat="47.25392" lon="-2.27847">
        <ele>43.200000762939</ele>
        <time>2021-05-16T08:11:01.000Z</time>
      </trkpt>
      <trkpt lat="47.25407" lon="-2.27838">
        <ele>43.200000762939</ele>
        <time>2021-05-16T08:11:04.000Z</time>
      </trkpt>
      <trkpt lat="47.25418" lon="-2.27831">
        <ele>43.200000762939</ele>
        <time>2021-05-16T08:11:06.000Z</time>
      </trkpt>
      <trkpt lat="47.25439" lon="-2.27812">
        <ele>43.599998474121</ele>
        <time>2021-05-16T08:11:10.000Z</time>
      </trkpt>
      <trkpt lat="47.25443" lon="-2.27808">
        <ele>44</ele>
        <time>2021-05-16T08:11:11.000Z</time>
      </trkpt>
      <trkpt lat="47.25448" lon="-2.27803">
        <ele>44.400001525879</ele>
        <time>2021-05-16T08:11:12.000Z</time>
      </trkpt>
      <trkpt lat="47.25452" lon="-2.27798">
        <ele>44.799999237061</ele>
        <time>2021-05-16T08:11:13.000Z</time>
      </trkpt>
      <trkpt lat="47.25456" lon="-2.27793">
        <ele>45.200000762939</ele>
        <time>2021-05-16T08:11:14.000Z</time>
      </trkpt>
      <trkpt lat="47.25475" lon="-2.2777">
        <ele>45.200000762939</ele>
        <time>2021-05-16T08:11:19.000Z</time>
      </trkpt>
      <trkpt lat="47.25492" lon="-2.27746">
        <ele>45.200000762939</ele>
        <time>2021-05-16T08:11:24.000Z</time>
      </trkpt>
      <trkpt lat="47.25493" lon="-2.27725">
        <ele>45.200000762939</ele>
        <time>2021-05-16T08:11:27.000Z</time>
      </trkpt>
      <trkpt lat="47.25491" lon="-2.27708">
        <ele>45.599998474121</ele>
        <time>2021-05-16T08:11:29.000Z</time>
      </trkpt>
      <trkpt lat="47.2549" lon="-2.27699">
        <ele>46.200000762939</ele>
        <time>2021-05-16T08:11:30.000Z</time>
      </trkpt>
      <trkpt lat="47.25488" lon="-2.27692">
        <ele>46.599998474121</ele>
        <time>2021-05-16T08:11:31.000Z</time>
      </trkpt>
      <trkpt lat="47.25486" lon="-2.27684">
        <ele>47</ele>
        <time>2021-05-16T08:11:32.000Z</time>
      </trkpt>
      <trkpt lat="47.25484" lon="-2.27677">
        <ele>47.400001525879</ele>
        <time>2021-05-16T08:11:33.000Z</time>
      </trkpt>
      <trkpt lat="47.25479" lon="-2.27645">
        <ele>47.400001525879</ele>
        <time>2021-05-16T08:11:37.000Z</time>
      </trkpt>
      <trkpt lat="47.25476" lon="-2.27631">
        <ele>47.400001525879</ele>
        <time>2021-05-16T08:11:39.000Z</time>
      </trkpt>
      <trkpt lat="47.25472" lon="-2.2762">
        <ele>47.400001525879</ele>
        <time>2021-05-16T08:11:41.000Z</time>
      </trkpt>
      <trkpt lat="47.25468" lon="-2.2761">
        <ele>47.400001525879</ele>
        <time>2021-05-16T08:11:44.000Z</time>
      </trkpt>
      <trkpt lat="47.25461" lon="-2.27599">
        <ele>47.400001525879</ele>
        <time>2021-05-16T08:11:52.000Z</time>
      </trkpt>
      <trkpt lat="47.25456" lon="-2.27584">
        <ele>47.400001525879</ele>
        <time>2021-05-16T08:11:57.000Z</time>
      </trkpt>
      <trkpt lat="47.25451" lon="-2.27565">
        <ele>47.400001525879</ele>
        <time>2021-05-16T08:12:03.000Z</time>
      </trkpt>
      <trkpt lat="47.25442" lon="-2.27538">
        <ele>47.400001525879</ele>
        <time>2021-05-16T08:12:10.000Z</time>
      </trkpt>
      <trkpt lat="47.25437" lon="-2.27515">
        <ele>47.400001525879</ele>
        <time>2021-05-16T08:12:16.000Z</time>
      </trkpt>
      <trkpt lat="47.25432" lon="-2.27501">
        <ele>47.400001525879</ele>
        <time>2021-05-16T08:12:21.000Z</time>
      </trkpt>
      <trkpt lat="47.25421" lon="-2.27489">
        <ele>47.400001525879</ele>
        <time>2021-05-16T08:12:27.000Z</time>
      </trkpt>
      <trkpt lat="47.25412" lon="-2.27464">
        <ele>47.400001525879</ele>
        <time>2021-05-16T08:12:33.000Z</time>
      </trkpt>
      <trkpt lat="47.254" lon="-2.27433">
        <ele>47.400001525879</ele>
        <time>2021-05-16T08:12:38.000Z</time>
      </trkpt>
      <trkpt lat="47.25389" lon="-2.27392">
        <ele>47.400001525879</ele>
        <time>2021-05-16T08:12:44.000Z</time>
      </trkpt>
      <trkpt lat="47.25383" lon="-2.27376">
        <ele>47.400001525879</ele>
        <time>2021-05-16T08:12:47.000Z</time>
      </trkpt>
      <trkpt lat="47.2538" lon="-2.27374">
        <ele>47.400001525879</ele>
        <time>2021-05-16T08:12:48.000Z</time>
      </trkpt>
      <trkpt lat="47.25368" lon="-2.27372">
        <ele>47.400001525879</ele>
        <time>2021-05-16T08:12:52.000Z</time>
      </trkpt>
      <trkpt lat="47.25366" lon="-2.27369">
        <ele>47.400001525879</ele>
        <time>2021-05-16T08:12:53.000Z</time>
      </trkpt>
      <trkpt lat="47.25363" lon="-2.2736">
        <ele>47.400001525879</ele>
        <time>2021-05-16T08:12:55.000Z</time>
      </trkpt>
      <trkpt lat="47.25361" lon="-2.27342">
        <ele>47.400001525879</ele>
        <time>2021-05-16T08:12:59.000Z</time>
      </trkpt>
      <trkpt lat="47.25357" lon="-2.27335">
        <ele>47.400001525879</ele>
        <time>2021-05-16T08:13:01.000Z</time>
      </trkpt>
      <trkpt lat="47.2535" lon="-2.27326">
        <ele>47.400001525879</ele>
        <time>2021-05-16T08:13:03.000Z</time>
      </trkpt>
      <trkpt lat="47.25344" lon="-2.27316">
        <ele>47.400001525879</ele>
        <time>2021-05-16T08:13:05.000Z</time>
      </trkpt>
      <trkpt lat="47.25338" lon="-2.27299">
        <ele>47.400001525879</ele>
        <time>2021-05-16T08:13:08.000Z</time>
      </trkpt>
      <trkpt lat="47.25329" lon="-2.27275">
        <ele>47.400001525879</ele>
        <time>2021-05-16T08:13:12.000Z</time>
      </trkpt>
      <trkpt lat="47.25326" lon="-2.2727">
        <ele>47.400001525879</ele>
        <time>2021-05-16T08:13:13.000Z</time>
      </trkpt>
      <trkpt lat="47.25307" lon="-2.27245">
        <ele>47.400001525879</ele>
        <time>2021-05-16T08:13:18.000Z</time>
      </trkpt>
      <trkpt lat="47.25303" lon="-2.27239">
        <ele>47.400001525879</ele>
        <time>2021-05-16T08:13:19.000Z</time>
      </trkpt>
      <trkpt lat="47.25295" lon="-2.2722">
        <ele>47.400001525879</ele>
        <time>2021-05-16T08:13:22.000Z</time>
      </trkpt>
      <trkpt lat="47.25288" lon="-2.27198">
        <ele>47.400001525879</ele>
        <time>2021-05-16T08:13:25.000Z</time>
      </trkpt>
      <trkpt lat="47.25285" lon="-2.27191">
        <ele>47.400001525879</ele>
        <time>2021-05-16T08:13:26.000Z</time>
      </trkpt>
      <trkpt lat="47.25274" lon="-2.27173">
        <ele>47.400001525879</ele>
        <time>2021-05-16T08:13:29.000Z</time>
      </trkpt>
      <trkpt lat="47.25256" lon="-2.27144">
        <ele>47.400001525879</ele>
        <time>2021-05-16T08:13:34.000Z</time>
      </trkpt>
      <trkpt lat="47.25252" lon="-2.2714">
        <ele>47.400001525879</ele>
        <time>2021-05-16T08:13:35.000Z</time>
      </trkpt>
      <trkpt lat="47.25239" lon="-2.27121">
        <ele>47.400001525879</ele>
        <time>2021-05-16T08:13:38.000Z</time>
      </trkpt>
      <trkpt lat="47.25234" lon="-2.27114">
        <ele>47.400001525879</ele>
        <time>2021-05-16T08:13:39.000Z</time>
      </trkpt>
      <trkpt lat="47.25214" lon="-2.27073">
        <ele>47.400001525879</ele>
        <time>2021-05-16T08:13:45.000Z</time>
      </trkpt>
      <trkpt lat="47.25199" lon="-2.27049">
        <ele>47.400001525879</ele>
        <time>2021-05-16T08:13:49.000Z</time>
      </trkpt>
      <trkpt lat="47.25195" lon="-2.27036">
        <ele>47.400001525879</ele>
        <time>2021-05-16T08:13:51.000Z</time>
      </trkpt>
      <trkpt lat="47.2519" lon="-2.27025">
        <ele>47.400001525879</ele>
        <time>2021-05-16T08:13:53.000Z</time>
      </trkpt>
      <trkpt lat="47.25182" lon="-2.27009">
        <ele>47.400001525879</ele>
        <time>2021-05-16T08:13:56.000Z</time>
      </trkpt>
      <trkpt lat="47.25179" lon="-2.27004">
        <ele>47.400001525879</ele>
        <time>2021-05-16T08:13:57.000Z</time>
      </trkpt>
      <trkpt lat="47.25176" lon="-2.26983">
        <ele>47.400001525879</ele>
        <time>2021-05-16T08:14:00.000Z</time>
      </trkpt>
      <trkpt lat="47.25174" lon="-2.26973">
        <ele>47.400001525879</ele>
        <time>2021-05-16T08:14:02.000Z</time>
      </trkpt>
      <trkpt lat="47.25172" lon="-2.26971">
        <ele>47.400001525879</ele>
        <time>2021-05-16T08:14:03.000Z</time>
      </trkpt>
      <trkpt lat="47.25163" lon="-2.26968">
        <ele>47.400001525879</ele>
        <time>2021-05-16T08:14:06.000Z</time>
      </trkpt>
      <trkpt lat="47.25156" lon="-2.26954">
        <ele>47.400001525879</ele>
        <time>2021-05-16T08:14:09.000Z</time>
      </trkpt>
      <trkpt lat="47.25154" lon="-2.2695">
        <ele>47.400001525879</ele>
        <time>2021-05-16T08:14:10.000Z</time>
      </trkpt>
      <trkpt lat="47.25147" lon="-2.26944">
        <ele>47.400001525879</ele>
        <time>2021-05-16T08:14:12.000Z</time>
      </trkpt>
      <trkpt lat="47.25139" lon="-2.26937">
        <ele>47.400001525879</ele>
        <time>2021-05-16T08:14:14.000Z</time>
      </trkpt>
      <trkpt lat="47.25127" lon="-2.26911">
        <ele>47.400001525879</ele>
        <time>2021-05-16T08:14:18.000Z</time>
      </trkpt>
      <trkpt lat="47.25116" lon="-2.26895">
        <ele>47.400001525879</ele>
        <time>2021-05-16T08:14:21.000Z</time>
      </trkpt>
      <trkpt lat="47.25111" lon="-2.26894">
        <ele>47.799999237061</ele>
        <time>2021-05-16T08:14:22.000Z</time>
      </trkpt>
      <trkpt lat="47.25106" lon="-2.26893">
        <ele>48.200000762939</ele>
        <time>2021-05-16T08:14:23.000Z</time>
      </trkpt>
      <trkpt lat="47.25102" lon="-2.2689">
        <ele>48.599998474121</ele>
        <time>2021-05-16T08:14:24.000Z</time>
      </trkpt>
      <trkpt lat="47.25097" lon="-2.26885">
        <ele>49</ele>
        <time>2021-05-16T08:14:25.000Z</time>
      </trkpt>
      <trkpt lat="47.25093" lon="-2.26881">
        <ele>49.400001525879</ele>
        <time>2021-05-16T08:14:26.000Z</time>
      </trkpt>
      <trkpt lat="47.25086" lon="-2.2687">
        <ele>49.400001525879</ele>
        <time>2021-05-16T08:14:28.000Z</time>
      </trkpt>
      <trkpt lat="47.25066" lon="-2.2686">
        <ele>49.400001525879</ele>
        <time>2021-05-16T08:14:32.000Z</time>
      </trkpt>
      <trkpt lat="47.25061" lon="-2.26859">
        <ele>49.400001525879</ele>
        <time>2021-05-16T08:14:33.000Z</time>
      </trkpt>
      <trkpt lat="47.25051" lon="-2.26857">
        <ele>49.400001525879</ele>
        <time>2021-05-16T08:14:36.000Z</time>
      </trkpt>
      <trkpt lat="47.25048" lon="-2.26856">
        <ele>49.400001525879</ele>
        <time>2021-05-16T08:14:39.000Z</time>
      </trkpt>
      <trkpt lat="47.25047" lon="-2.26856">
        <ele>49.400001525879</ele>
        <time>2021-05-16T08:14:40.000Z</time>
      </trkpt>
      <trkpt lat="47.25034" lon="-2.26862">
        <ele>49.400001525879</ele>
        <time>2021-05-16T08:14:44.000Z</time>
      </trkpt>
      <trkpt lat="47.25025" lon="-2.26865">
        <ele>49.400001525879</ele>
        <time>2021-05-16T08:14:46.000Z</time>
      </trkpt>
      <trkpt lat="47.25011" lon="-2.26869">
        <ele>49.400001525879</ele>
        <time>2021-05-16T08:14:49.000Z</time>
      </trkpt>
      <trkpt lat="47.25003" lon="-2.26872">
        <ele>49.400001525879</ele>
        <time>2021-05-16T08:14:51.000Z</time>
      </trkpt>
      <trkpt lat="47.24992" lon="-2.26873">
        <ele>49.400001525879</ele>
        <time>2021-05-16T08:14:54.000Z</time>
      </trkpt>
      <trkpt lat="47.24984" lon="-2.26872">
        <ele>49.400001525879</ele>
        <time>2021-05-16T08:14:56.000Z</time>
      </trkpt>
      <trkpt lat="47.24975" lon="-2.26871">
        <ele>49.400001525879</ele>
        <time>2021-05-16T08:14:58.000Z</time>
      </trkpt>
      <trkpt lat="47.2497" lon="-2.26868">
        <ele>49.400001525879</ele>
        <time>2021-05-16T08:14:59.000Z</time>
      </trkpt>
      <trkpt lat="47.24956" lon="-2.26855">
        <ele>49.400001525879</ele>
        <time>2021-05-16T08:15:02.000Z</time>
      </trkpt>
      <trkpt lat="47.2495" lon="-2.26851">
        <ele>49.400001525879</ele>
        <time>2021-05-16T08:15:03.000Z</time>
      </trkpt>
      <trkpt lat="47.24935" lon="-2.26844">
        <ele>49.400001525879</ele>
        <time>2021-05-16T08:15:06.000Z</time>
      </trkpt>
      <trkpt lat="47.24925" lon="-2.26836">
        <ele>49.400001525879</ele>
        <time>2021-05-16T08:15:08.000Z</time>
      </trkpt>
      <trkpt lat="47.2492" lon="-2.26832">
        <ele>49.400001525879</ele>
        <time>2021-05-16T08:15:09.000Z</time>
      </trkpt>
      <trkpt lat="47.24911" lon="-2.26828">
        <ele>49.400001525879</ele>
        <time>2021-05-16T08:15:11.000Z</time>
      </trkpt>
      <trkpt lat="47.24907" lon="-2.26826">
        <ele>49</ele>
        <time>2021-05-16T08:15:12.000Z</time>
      </trkpt>
      <trkpt lat="47.24903" lon="-2.26824">
        <ele>48.599998474121</ele>
        <time>2021-05-16T08:15:13.000Z</time>
      </trkpt>
      <trkpt lat="47.24898" lon="-2.26822">
        <ele>48.200000762939</ele>
        <time>2021-05-16T08:15:14.000Z</time>
      </trkpt>
      <trkpt lat="47.24893" lon="-2.26821">
        <ele>47.799999237061</ele>
        <time>2021-05-16T08:15:15.000Z</time>
      </trkpt>
      <trkpt lat="47.24887" lon="-2.26818">
        <ele>47.400001525879</ele>
        <time>2021-05-16T08:15:16.000Z</time>
      </trkpt>
      <trkpt lat="47.24854" lon="-2.26803">
        <ele>47.400001525879</ele>
        <time>2021-05-16T08:15:21.000Z</time>
      </trkpt>
      <trkpt lat="47.2484" lon="-2.268">
        <ele>47.400001525879</ele>
        <time>2021-05-16T08:15:23.000Z</time>
      </trkpt>
      <trkpt lat="47.24834" lon="-2.26801">
        <ele>47.400001525879</ele>
        <time>2021-05-16T08:15:24.000Z</time>
      </trkpt>
      <trkpt lat="47.24814" lon="-2.26797">
        <ele>47.400001525879</ele>
        <time>2021-05-16T08:15:27.000Z</time>
      </trkpt>
      <trkpt lat="47.24807" lon="-2.26795">
        <ele>47.400001525879</ele>
        <time>2021-05-16T08:15:28.000Z</time>
      </trkpt>
      <trkpt lat="47.24769" lon="-2.26781">
        <ele>46.799999237061</ele>
        <time>2021-05-16T08:15:34.000Z</time>
      </trkpt>
      <trkpt lat="47.24762" lon="-2.2678">
        <ele>46.400001525879</ele>
        <time>2021-05-16T08:15:35.000Z</time>
      </trkpt>
      <trkpt lat="47.24756" lon="-2.26779">
        <ele>46</ele>
        <time>2021-05-16T08:15:36.000Z</time>
      </trkpt>
      <trkpt lat="47.2475" lon="-2.26778">
        <ele>45.400001525879</ele>
        <time>2021-05-16T08:15:37.000Z</time>
      </trkpt>
      <trkpt lat="47.24743" lon="-2.26778">
        <ele>45</ele>
        <time>2021-05-16T08:15:38.000Z</time>
      </trkpt>
      <trkpt lat="47.24737" lon="-2.26778">
        <ele>45</ele>
        <time>2021-05-16T08:15:39.000Z</time>
      </trkpt>
      <trkpt lat="47.24723" lon="-2.26776">
        <ele>44.599998474121</ele>
        <time>2021-05-16T08:15:41.000Z</time>
      </trkpt>
      <trkpt lat="47.24716" lon="-2.26776">
        <ele>44.200000762939</ele>
        <time>2021-05-16T08:15:42.000Z</time>
      </trkpt>
      <trkpt lat="47.24709" lon="-2.26776">
        <ele>43.799999237061</ele>
        <time>2021-05-16T08:15:43.000Z</time>
      </trkpt>
      <trkpt lat="47.24702" lon="-2.26776">
        <ele>43.400001525879</ele>
        <time>2021-05-16T08:15:44.000Z</time>
      </trkpt>
      <trkpt lat="47.24696" lon="-2.26777">
        <ele>43</ele>
        <time>2021-05-16T08:15:45.000Z</time>
      </trkpt>
      <trkpt lat="47.2469" lon="-2.26777">
        <ele>43</ele>
        <time>2021-05-16T08:15:46.000Z</time>
      </trkpt>
      <trkpt lat="47.24679" lon="-2.2678">
        <ele>43</ele>
        <time>2021-05-16T08:15:48.000Z</time>
      </trkpt>
      <trkpt lat="47.24671" lon="-2.2679">
        <ele>43</ele>
        <time>2021-05-16T08:15:50.000Z</time>
      </trkpt>
      <trkpt lat="47.24667" lon="-2.26794">
        <ele>43</ele>
        <time>2021-05-16T08:15:51.000Z</time>
      </trkpt>
      <trkpt lat="47.24653" lon="-2.26804">
        <ele>43</ele>
        <time>2021-05-16T08:15:54.000Z</time>
      </trkpt>
      <trkpt lat="47.24647" lon="-2.26807">
        <ele>43</ele>
        <time>2021-05-16T08:15:55.000Z</time>
      </trkpt>
      <trkpt lat="47.24641" lon="-2.26809">
        <ele>42.400001525879</ele>
        <time>2021-05-16T08:15:56.000Z</time>
      </trkpt>
      <trkpt lat="47.24635" lon="-2.26811">
        <ele>42</ele>
        <time>2021-05-16T08:15:57.000Z</time>
      </trkpt>
      <trkpt lat="47.24629" lon="-2.26814">
        <ele>41.599998474121</ele>
        <time>2021-05-16T08:15:58.000Z</time>
      </trkpt>
      <trkpt lat="47.24623" lon="-2.26819">
        <ele>41.200000762939</ele>
        <time>2021-05-16T08:15:59.000Z</time>
      </trkpt>
      <trkpt lat="47.24617" lon="-2.26822">
        <ele>40.799999237061</ele>
        <time>2021-05-16T08:16:00.000Z</time>
      </trkpt>
      <trkpt lat="47.24607" lon="-2.26832">
        <ele>40.799999237061</ele>
        <time>2021-05-16T08:16:02.000Z</time>
      </trkpt>
      <trkpt lat="47.24594" lon="-2.26838">
        <ele>40.200000762939</ele>
        <time>2021-05-16T08:16:05.000Z</time>
      </trkpt>
      <trkpt lat="47.24589" lon="-2.26839">
        <ele>39.799999237061</ele>
        <time>2021-05-16T08:16:06.000Z</time>
      </trkpt>
      <trkpt lat="47.24584" lon="-2.26839">
        <ele>39.400001525879</ele>
        <time>2021-05-16T08:16:07.000Z</time>
      </trkpt>
      <trkpt lat="47.2458" lon="-2.26842">
        <ele>39</ele>
        <time>2021-05-16T08:16:08.000Z</time>
      </trkpt>
      <trkpt lat="47.24575" lon="-2.26845">
        <ele>38.599998474121</ele>
        <time>2021-05-16T08:16:09.000Z</time>
      </trkpt>
      <trkpt lat="47.24557" lon="-2.26862">
        <ele>38</ele>
        <time>2021-05-16T08:16:13.000Z</time>
      </trkpt>
      <trkpt lat="47.24553" lon="-2.26867">
        <ele>37.599998474121</ele>
        <time>2021-05-16T08:16:14.000Z</time>
      </trkpt>
      <trkpt lat="47.24549" lon="-2.2687">
        <ele>37.200000762939</ele>
        <time>2021-05-16T08:16:15.000Z</time>
      </trkpt>
      <trkpt lat="47.24545" lon="-2.26874">
        <ele>36.599998474121</ele>
        <time>2021-05-16T08:16:16.000Z</time>
      </trkpt>
      <trkpt lat="47.24541" lon="-2.26877">
        <ele>36.200000762939</ele>
        <time>2021-05-16T08:16:17.000Z</time>
      </trkpt>
      <trkpt lat="47.24533" lon="-2.26889">
        <ele>36.200000762939</ele>
        <time>2021-05-16T08:16:20.000Z</time>
      </trkpt>
      <trkpt lat="47.24519" lon="-2.26916">
        <ele>36.200000762939</ele>
        <time>2021-05-16T08:16:25.000Z</time>
      </trkpt>
      <trkpt lat="47.24512" lon="-2.26928">
        <ele>36.200000762939</ele>
        <time>2021-05-16T08:16:27.000Z</time>
      </trkpt>
      <trkpt lat="47.24502" lon="-2.26936">
        <ele>36.200000762939</ele>
        <time>2021-05-16T08:16:29.000Z</time>
      </trkpt>
      <trkpt lat="47.24481" lon="-2.26941">
        <ele>36.200000762939</ele>
        <time>2021-05-16T08:16:33.000Z</time>
      </trkpt>
      <trkpt lat="47.24469" lon="-2.26937">
        <ele>36.200000762939</ele>
        <time>2021-05-16T08:16:35.000Z</time>
      </trkpt>
      <trkpt lat="47.24451" lon="-2.26934">
        <ele>36.200000762939</ele>
        <time>2021-05-16T08:16:38.000Z</time>
      </trkpt>
      <trkpt lat="47.24441" lon="-2.26935">
        <ele>36.200000762939</ele>
        <time>2021-05-16T08:16:40.000Z</time>
      </trkpt>
      <trkpt lat="47.24437" lon="-2.26939">
        <ele>36.200000762939</ele>
        <time>2021-05-16T08:16:41.000Z</time>
      </trkpt>
      <trkpt lat="47.24402" lon="-2.26973">
        <ele>36.200000762939</ele>
        <time>2021-05-16T08:16:49.000Z</time>
      </trkpt>
      <trkpt lat="47.24393" lon="-2.26984">
        <ele>35.799999237061</ele>
        <time>2021-05-16T08:16:51.000Z</time>
      </trkpt>
      <trkpt lat="47.2439" lon="-2.2699">
        <ele>35.400001525879</ele>
        <time>2021-05-16T08:16:52.000Z</time>
      </trkpt>
      <trkpt lat="47.24385" lon="-2.26995">
        <ele>35</ele>
        <time>2021-05-16T08:16:53.000Z</time>
      </trkpt>
      <trkpt lat="47.24381" lon="-2.27001">
        <ele>34.599998474121</ele>
        <time>2021-05-16T08:16:54.000Z</time>
      </trkpt>
      <trkpt lat="47.24376" lon="-2.27007">
        <ele>34.200000762939</ele>
        <time>2021-05-16T08:16:55.000Z</time>
      </trkpt>
      <trkpt lat="47.24354" lon="-2.27043">
        <ele>34.200000762939</ele>
        <time>2021-05-16T08:17:00.000Z</time>
      </trkpt>
      <trkpt lat="47.24345" lon="-2.27058">
        <ele>34.200000762939</ele>
        <time>2021-05-16T08:17:02.000Z</time>
      </trkpt>
      <trkpt lat="47.24327" lon="-2.27074">
        <ele>34.200000762939</ele>
        <time>2021-05-16T08:17:05.000Z</time>
      </trkpt>
      <trkpt lat="47.243" lon="-2.27106">
        <ele>34.200000762939</ele>
        <time>2021-05-16T08:17:10.000Z</time>
      </trkpt>
      <trkpt lat="47.24281" lon="-2.2711">
        <ele>34.200000762939</ele>
        <time>2021-05-16T08:17:13.000Z</time>
      </trkpt>
      <trkpt lat="47.24274" lon="-2.27109">
        <ele>34.200000762939</ele>
        <time>2021-05-16T08:17:14.000Z</time>
      </trkpt>
      <trkpt lat="47.24269" lon="-2.27109">
        <ele>34.200000762939</ele>
        <time>2021-05-16T08:17:15.000Z</time>
      </trkpt>
      <trkpt lat="47.24259" lon="-2.27113">
        <ele>34.200000762939</ele>
        <time>2021-05-16T08:17:17.000Z</time>
      </trkpt>
      <trkpt lat="47.24247" lon="-2.27119">
        <ele>34.200000762939</ele>
        <time>2021-05-16T08:17:19.000Z</time>
      </trkpt>
      <trkpt lat="47.24242" lon="-2.27123">
        <ele>33.799999237061</ele>
        <time>2021-05-16T08:17:20.000Z</time>
      </trkpt>
      <trkpt lat="47.24236" lon="-2.27126">
        <ele>33.400001525879</ele>
        <time>2021-05-16T08:17:21.000Z</time>
      </trkpt>
      <trkpt lat="47.24231" lon="-2.2713">
        <ele>33</ele>
        <time>2021-05-16T08:17:22.000Z</time>
      </trkpt>
      <trkpt lat="47.24226" lon="-2.27134">
        <ele>32.599998474121</ele>
        <time>2021-05-16T08:17:23.000Z</time>
      </trkpt>
      <trkpt lat="47.24221" lon="-2.27139">
        <ele>32.200000762939</ele>
        <time>2021-05-16T08:17:24.000Z</time>
      </trkpt>
      <trkpt lat="47.24212" lon="-2.27147">
        <ele>32.200000762939</ele>
        <time>2021-05-16T08:17:26.000Z</time>
      </trkpt>
      <trkpt lat="47.24198" lon="-2.27155">
        <ele>32.200000762939</ele>
        <time>2021-05-16T08:17:29.000Z</time>
      </trkpt>
      <trkpt lat="47.24155" lon="-2.27172">
        <ele>32.200000762939</ele>
        <time>2021-05-16T08:17:37.000Z</time>
      </trkpt>
      <trkpt lat="47.24133" lon="-2.27181">
        <ele>32.200000762939</ele>
        <time>2021-05-16T08:17:41.000Z</time>
      </trkpt>
      <trkpt lat="47.24123" lon="-2.27187">
        <ele>31.799999237061</ele>
        <time>2021-05-16T08:17:43.000Z</time>
      </trkpt>
      <trkpt lat="47.24119" lon="-2.27188">
        <ele>31.200000762939</ele>
        <time>2021-05-16T08:17:44.000Z</time>
      </trkpt>
      <trkpt lat="47.24116" lon="-2.2719">
        <ele>30.799999237061</ele>
        <time>2021-05-16T08:17:45.000Z</time>
      </trkpt>
      <trkpt lat="47.24113" lon="-2.27191">
        <ele>30.39999961853</ele>
        <time>2021-05-16T08:17:46.000Z</time>
      </trkpt>
      <trkpt lat="47.24111" lon="-2.27191">
        <ele>30</ele>
        <time>2021-05-16T08:17:47.000Z</time>
      </trkpt>
      <trkpt lat="47.24108" lon="-2.27191">
        <ele>30</ele>
        <time>2021-05-16T08:17:48.000Z</time>
      </trkpt>
      <trkpt lat="47.24104" lon="-2.2719">
        <ele>29.60000038147</ele>
        <time>2021-05-16T08:17:50.000Z</time>
      </trkpt>
      <trkpt lat="47.24102" lon="-2.27187">
        <ele>29.200000762939</ele>
        <time>2021-05-16T08:17:51.000Z</time>
      </trkpt>
      <trkpt lat="47.24101" lon="-2.27182">
        <ele>28.60000038147</ele>
        <time>2021-05-16T08:17:52.000Z</time>
      </trkpt>
      <trkpt lat="47.241" lon="-2.27176">
        <ele>28.200000762939</ele>
        <time>2021-05-16T08:17:53.000Z</time>
      </trkpt>
      <trkpt lat="47.24099" lon="-2.2717">
        <ele>27.799999237061</ele>
        <time>2021-05-16T08:17:54.000Z</time>
      </trkpt>
      <trkpt lat="47.24099" lon="-2.27163">
        <ele>27.799999237061</ele>
        <time>2021-05-16T08:17:55.000Z</time>
      </trkpt>
      <trkpt lat="47.24098" lon="-2.27155">
        <ele>27.799999237061</ele>
        <time>2021-05-16T08:17:56.000Z</time>
      </trkpt>
      <trkpt lat="47.24098" lon="-2.27106">
        <ele>27.799999237061</ele>
        <time>2021-05-16T08:18:02.000Z</time>
      </trkpt>
      <trkpt lat="47.24098" lon="-2.27049">
        <ele>27.799999237061</ele>
        <time>2021-05-16T08:18:08.000Z</time>
      </trkpt>
      <trkpt lat="47.24097" lon="-2.26985">
        <ele>27.799999237061</ele>
        <time>2021-05-16T08:18:15.000Z</time>
      </trkpt>
      <trkpt lat="47.24098" lon="-2.26925">
        <ele>27.799999237061</ele>
        <time>2021-05-16T08:18:22.000Z</time>
      </trkpt>
      <trkpt lat="47.24097" lon="-2.26908">
        <ele>28.200000762939</ele>
        <time>2021-05-16T08:18:24.000Z</time>
      </trkpt>
      <trkpt lat="47.24098" lon="-2.26901">
        <ele>28.60000038147</ele>
        <time>2021-05-16T08:18:25.000Z</time>
      </trkpt>
      <trkpt lat="47.24099" lon="-2.26894">
        <ele>29</ele>
        <time>2021-05-16T08:18:26.000Z</time>
      </trkpt>
      <trkpt lat="47.241" lon="-2.26886">
        <ele>29.39999961853</ele>
        <time>2021-05-16T08:18:27.000Z</time>
      </trkpt>
      <trkpt lat="47.241" lon="-2.26879">
        <ele>30</ele>
        <time>2021-05-16T08:18:28.000Z</time>
      </trkpt>
      <trkpt lat="47.24101" lon="-2.26865">
        <ele>30.39999961853</ele>
        <time>2021-05-16T08:18:30.000Z</time>
      </trkpt>
      <trkpt lat="47.24102" lon="-2.26859">
        <ele>30.799999237061</ele>
        <time>2021-05-16T08:18:31.000Z</time>
      </trkpt>
      <trkpt lat="47.24102" lon="-2.26854">
        <ele>31.200000762939</ele>
        <time>2021-05-16T08:18:32.000Z</time>
      </trkpt>
      <trkpt lat="47.24103" lon="-2.2685">
        <ele>31.60000038147</ele>
        <time>2021-05-16T08:18:33.000Z</time>
      </trkpt>
      <trkpt lat="47.24103" lon="-2.26847">
        <ele>32</ele>
        <time>2021-05-16T08:18:34.000Z</time>
      </trkpt>
      <trkpt lat="47.24103" lon="-2.26843">
        <ele>32</ele>
        <time>2021-05-16T08:18:35.000Z</time>
      </trkpt>
      <trkpt lat="47.24102" lon="-2.2684">
        <ele>32</ele>
        <time>2021-05-16T08:18:37.000Z</time>
      </trkpt>
      <trkpt lat="47.24097" lon="-2.26836">
        <ele>32</ele>
        <time>2021-05-16T08:18:40.000Z</time>
      </trkpt>
      <trkpt lat="47.24087" lon="-2.26839">
        <ele>32.400001525879</ele>
        <time>2021-05-16T08:18:44.000Z</time>
      </trkpt>
      <trkpt lat="47.24085" lon="-2.26839">
        <ele>33</ele>
        <time>2021-05-16T08:18:45.000Z</time>
      </trkpt>
      <trkpt lat="47.24082" lon="-2.26839">
        <ele>33.400001525879</ele>
        <time>2021-05-16T08:18:46.000Z</time>
      </trkpt>
      <trkpt lat="47.24078" lon="-2.26839">
        <ele>34.200000762939</ele>
        <time>2021-05-16T08:18:47.000Z</time>
      </trkpt>
      <trkpt lat="47.24067" lon="-2.2684">
        <ele>34.200000762939</ele>
        <time>2021-05-16T08:18:51.000Z</time>
      </trkpt>
      <trkpt lat="47.24059" lon="-2.26851">
        <ele>34.200000762939</ele>
        <time>2021-05-16T08:18:56.000Z</time>
      </trkpt>
      <trkpt lat="47.24056" lon="-2.26871">
        <ele>34.599998474121</ele>
        <time>2021-05-16T08:19:02.000Z</time>
      </trkpt>
      <trkpt lat="47.24056" lon="-2.26875">
        <ele>35.200000762939</ele>
        <time>2021-05-16T08:19:03.000Z</time>
      </trkpt>
      <trkpt lat="47.24055" lon="-2.2688">
        <ele>35.599998474121</ele>
        <time>2021-05-16T08:19:04.000Z</time>
      </trkpt>
      <trkpt lat="47.24055" lon="-2.26884">
        <ele>36</ele>
        <time>2021-05-16T08:19:05.000Z</time>
      </trkpt>
      <trkpt lat="47.24055" lon="-2.2689">
        <ele>36.400001525879</ele>
        <time>2021-05-16T08:19:06.000Z</time>
      </trkpt>
      <trkpt lat="47.24053" lon="-2.26898">
        <ele>36.400001525879</ele>
        <time>2021-05-16T08:19:07.000Z</time>
      </trkpt>
      <trkpt lat="47.24048" lon="-2.2692">
        <ele>36.400001525879</ele>
        <time>2021-05-16T08:19:10.000Z</time>
      </trkpt>
      <trkpt lat="47.24047" lon="-2.26927">
        <ele>36.400001525879</ele>
        <time>2021-05-16T08:19:11.000Z</time>
      </trkpt>
      <trkpt lat="47.24047" lon="-2.26935">
        <ele>35.400001525879</ele>
        <time>2021-05-16T08:19:12.000Z</time>
      </trkpt>
      <trkpt lat="47.24046" lon="-2.26942">
        <ele>35</ele>
        <time>2021-05-16T08:19:13.000Z</time>
      </trkpt>
      <trkpt lat="47.24046" lon="-2.26949">
        <ele>34.400001525879</ele>
        <time>2021-05-16T08:19:14.000Z</time>
      </trkpt>
      <trkpt lat="47.24047" lon="-2.26957">
        <ele>34</ele>
        <time>2021-05-16T08:19:15.000Z</time>
      </trkpt>
      <trkpt lat="47.24046" lon="-2.26965">
        <ele>34</ele>
        <time>2021-05-16T08:19:16.000Z</time>
      </trkpt>
      <trkpt lat="47.24047" lon="-2.26973">
        <ele>33.400001525879</ele>
        <time>2021-05-16T08:19:17.000Z</time>
      </trkpt>
      <trkpt lat="47.24047" lon="-2.2698">
        <ele>32.799999237061</ele>
        <time>2021-05-16T08:19:18.000Z</time>
      </trkpt>
      <trkpt lat="47.24046" lon="-2.26986">
        <ele>32</ele>
        <time>2021-05-16T08:19:19.000Z</time>
      </trkpt>
      <trkpt lat="47.24045" lon="-2.26991">
        <ele>31</ele>
        <time>2021-05-16T08:19:20.000Z</time>
      </trkpt>
      <trkpt lat="47.24043" lon="-2.26995">
        <ele>30.200000762939</ele>
        <time>2021-05-16T08:19:21.000Z</time>
      </trkpt>
      <trkpt lat="47.24039" lon="-2.26999">
        <ele>29.39999961853</ele>
        <time>2021-05-16T08:19:22.000Z</time>
      </trkpt>
      <trkpt lat="47.24035" lon="-2.27001">
        <ele>28.39999961853</ele>
        <time>2021-05-16T08:19:23.000Z</time>
      </trkpt>
      <trkpt lat="47.2403" lon="-2.27004">
        <ele>27.60000038147</ele>
        <time>2021-05-16T08:19:24.000Z</time>
      </trkpt>
      <trkpt lat="47.24026" lon="-2.27006">
        <ele>26.60000038147</ele>
        <time>2021-05-16T08:19:25.000Z</time>
      </trkpt>
      <trkpt lat="47.24022" lon="-2.27006">
        <ele>25.799999237061</ele>
        <time>2021-05-16T08:19:26.000Z</time>
      </trkpt>
      <trkpt lat="47.24018" lon="-2.27004">
        <ele>25.799999237061</ele>
        <time>2021-05-16T08:19:27.000Z</time>
      </trkpt>
      <trkpt lat="47.24013" lon="-2.26994">
        <ele>25.39999961853</ele>
        <time>2021-05-16T08:19:29.000Z</time>
      </trkpt>
      <trkpt lat="47.24011" lon="-2.26989">
        <ele>25</ele>
        <time>2021-05-16T08:19:30.000Z</time>
      </trkpt>
      <trkpt lat="47.24009" lon="-2.26984">
        <ele>24.39999961853</ele>
        <time>2021-05-16T08:19:31.000Z</time>
      </trkpt>
      <trkpt lat="47.24006" lon="-2.2698">
        <ele>24</ele>
        <time>2021-05-16T08:19:32.000Z</time>
      </trkpt>
      <trkpt lat="47.24003" lon="-2.26975">
        <ele>23.60000038147</ele>
        <time>2021-05-16T08:19:33.000Z</time>
      </trkpt>
      <trkpt lat="47.24" lon="-2.26972">
        <ele>23.60000038147</ele>
        <time>2021-05-16T08:19:34.000Z</time>
      </trkpt>
      <trkpt lat="47.23991" lon="-2.26967">
        <ele>23.60000038147</ele>
        <time>2021-05-16T08:19:36.000Z</time>
      </trkpt>
      <trkpt lat="47.23972" lon="-2.26957">
        <ele>23.60000038147</ele>
        <time>2021-05-16T08:19:40.000Z</time>
      </trkpt>
      <trkpt lat="47.23951" lon="-2.26945">
        <ele>23.60000038147</ele>
        <time>2021-05-16T08:19:45.000Z</time>
      </trkpt>
      <trkpt lat="47.23949" lon="-2.2694">
        <ele>23.60000038147</ele>
        <time>2021-05-16T08:19:46.000Z</time>
      </trkpt>
      <trkpt lat="47.23947" lon="-2.26918">
        <ele>23.60000038147</ele>
        <time>2021-05-16T08:19:50.000Z</time>
      </trkpt>
      <trkpt lat="47.23946" lon="-2.26908">
        <ele>24.200000762939</ele>
        <time>2021-05-16T08:19:52.000Z</time>
      </trkpt>
      <trkpt lat="47.23946" lon="-2.26903">
        <ele>24.60000038147</ele>
        <time>2021-05-16T08:19:53.000Z</time>
      </trkpt>
      <trkpt lat="47.23946" lon="-2.26898">
        <ele>25.39999961853</ele>
        <time>2021-05-16T08:19:54.000Z</time>
      </trkpt>
      <trkpt lat="47.23946" lon="-2.26893">
        <ele>26</ele>
        <time>2021-05-16T08:19:55.000Z</time>
      </trkpt>
      <trkpt lat="47.23947" lon="-2.26889">
        <ele>26.799999237061</ele>
        <time>2021-05-16T08:19:56.000Z</time>
      </trkpt>
      <trkpt lat="47.23947" lon="-2.26886">
        <ele>27.60000038147</ele>
        <time>2021-05-16T08:19:57.000Z</time>
      </trkpt>
      <trkpt lat="47.23946" lon="-2.26882">
        <ele>28.200000762939</ele>
        <time>2021-05-16T08:19:58.000Z</time>
      </trkpt>
      <trkpt lat="47.23946" lon="-2.26879">
        <ele>28.799999237061</ele>
        <time>2021-05-16T08:19:59.000Z</time>
      </trkpt>
      <trkpt lat="47.23945" lon="-2.26875">
        <ele>29.39999961853</ele>
        <time>2021-05-16T08:20:00.000Z</time>
      </trkpt>
      <trkpt lat="47.23944" lon="-2.26871">
        <ele>30.60000038147</ele>
        <time>2021-05-16T08:20:01.000Z</time>
      </trkpt>
      <trkpt lat="47.23938" lon="-2.26846">
        <ele>30.60000038147</ele>
        <time>2021-05-16T08:20:07.000Z</time>
      </trkpt>
      <trkpt lat="47.23933" lon="-2.26815">
        <ele>30.60000038147</ele>
        <time>2021-05-16T08:20:14.000Z</time>
      </trkpt>
      <trkpt lat="47.2393" lon="-2.26788">
        <ele>30.60000038147</ele>
        <time>2021-05-16T08:20:21.000Z</time>
      </trkpt>
      <trkpt lat="47.23931" lon="-2.26768">
        <ele>30.60000038147</ele>
        <time>2021-05-16T08:20:28.000Z</time>
      </trkpt>
      <trkpt lat="47.23927" lon="-2.26756">
        <ele>30.60000038147</ele>
        <time>2021-05-16T08:20:33.000Z</time>
      </trkpt>
      <trkpt lat="47.2392" lon="-2.26754">
        <ele>30.60000038147</ele>
        <time>2021-05-16T08:20:37.000Z</time>
      </trkpt>
      <trkpt lat="47.23911" lon="-2.26756">
        <ele>30.60000038147</ele>
        <time>2021-05-16T08:20:41.000Z</time>
      </trkpt>
      <trkpt lat="47.23909" lon="-2.26758">
        <ele>30.60000038147</ele>
        <time>2021-05-16T08:20:42.000Z</time>
      </trkpt>
      <trkpt lat="47.23901" lon="-2.26767">
        <ele>30.60000038147</ele>
        <time>2021-05-16T08:20:47.000Z</time>
      </trkpt>
      <trkpt lat="47.23898" lon="-2.26768">
        <ele>30.60000038147</ele>
        <time>2021-05-16T08:20:49.000Z</time>
      </trkpt>
      <trkpt lat="47.23893" lon="-2.26766">
        <ele>30.60000038147</ele>
        <time>2021-05-16T08:20:52.000Z</time>
      </trkpt>
      <trkpt lat="47.23887" lon="-2.26755">
        <ele>30.60000038147</ele>
        <time>2021-05-16T08:20:56.000Z</time>
      </trkpt>
      <trkpt lat="47.23887" lon="-2.2675">
        <ele>30</ele>
        <time>2021-05-16T08:20:57.000Z</time>
      </trkpt>
      <trkpt lat="47.23889" lon="-2.26748">
        <ele>29.60000038147</ele>
        <time>2021-05-16T08:20:58.000Z</time>
      </trkpt>
      <trkpt lat="47.23891" lon="-2.26746">
        <ele>29</ele>
        <time>2021-05-16T08:20:59.000Z</time>
      </trkpt>
      <trkpt lat="47.23892" lon="-2.26746">
        <ele>28.60000038147</ele>
        <time>2021-05-16T08:21:00.000Z</time>
      </trkpt>
      <trkpt lat="47.23894" lon="-2.26745">
        <ele>28</ele>
        <time>2021-05-16T08:21:01.000Z</time>
      </trkpt>
      <trkpt lat="47.23901" lon="-2.26746">
        <ele>28</ele>
        <time>2021-05-16T08:21:05.000Z</time>
      </trkpt>
      <trkpt lat="47.23906" lon="-2.26747">
        <ele>28</ele>
        <time>2021-05-16T08:21:08.000Z</time>
      </trkpt>
      <trkpt lat="47.23909" lon="-2.26747">
        <ele>28</ele>
        <time>2021-05-16T08:21:10.000Z</time>
      </trkpt>
      <trkpt lat="47.2391" lon="-2.26748">
        <ele>28.39999961853</ele>
        <time>2021-05-16T08:21:11.000Z</time>
      </trkpt>
      <trkpt lat="47.23911" lon="-2.26748">
        <ele>28.799999237061</ele>
        <time>2021-05-16T08:21:12.000Z</time>
      </trkpt>
      <trkpt lat="47.23913" lon="-2.26748">
        <ele>29.200000762939</ele>
        <time>2021-05-16T08:21:13.000Z</time>
      </trkpt>
      <trkpt lat="47.23913" lon="-2.26748">
        <ele>29.60000038147</ele>
        <time>2021-05-16T08:21:14.000Z</time>
      </trkpt>
      <trkpt lat="47.23913" lon="-2.26749">
        <ele>30</ele>
        <time>2021-05-16T08:21:15.000Z</time>
      </trkpt>
      <trkpt lat="47.23918" lon="-2.2675">
        <ele>28</ele>
        <time>2021-05-16T08:22:11.000Z</time>
      </trkpt>
      <trkpt lat="47.23923" lon="-2.26752">
        <ele>28</ele>
        <time>2021-05-16T08:22:14.000Z</time>
      </trkpt>
      <trkpt lat="47.2393" lon="-2.26755">
        <ele>28</ele>
        <time>2021-05-16T08:22:20.000Z</time>
      </trkpt>
      <trkpt lat="47.2393" lon="-2.26756">
        <ele>28</ele>
        <time>2021-05-16T08:22:21.000Z</time>
      </trkpt>
      <trkpt lat="47.23931" lon="-2.26755">
        <ele>30.200000762939</ele>
        <time>2021-05-16T08:22:44.000Z</time>
      </trkpt>
      <trkpt lat="47.23933" lon="-2.26752">
        <ele>30.200000762939</ele>
        <time>2021-05-16T08:22:46.000Z</time>
      </trkpt>
      <trkpt lat="47.23941" lon="-2.26743">
        <ele>30.200000762939</ele>
        <time>2021-05-16T08:22:50.000Z</time>
      </trkpt>
      <trkpt lat="47.23957" lon="-2.26737">
        <ele>30.200000762939</ele>
        <time>2021-05-16T08:22:56.000Z</time>
      </trkpt>
      <trkpt lat="47.2397" lon="-2.26739">
        <ele>30.200000762939</ele>
        <time>2021-05-16T08:23:01.000Z</time>
      </trkpt>
      <trkpt lat="47.23984" lon="-2.26738">
        <ele>30.200000762939</ele>
        <time>2021-05-16T08:23:06.000Z</time>
      </trkpt>
      <trkpt lat="47.24004" lon="-2.2674">
        <ele>30.200000762939</ele>
        <time>2021-05-16T08:23:13.000Z</time>
      </trkpt>
      <trkpt lat="47.24023" lon="-2.26738">
        <ele>30.200000762939</ele>
        <time>2021-05-16T08:23:19.000Z</time>
      </trkpt>
      <trkpt lat="47.24026" lon="-2.26737">
        <ele>30.60000038147</ele>
        <time>2021-05-16T08:23:20.000Z</time>
      </trkpt>
      <trkpt lat="47.24029" lon="-2.26735">
        <ele>31</ele>
        <time>2021-05-16T08:23:21.000Z</time>
      </trkpt>
      <trkpt lat="47.24031" lon="-2.26734">
        <ele>31.39999961853</ele>
        <time>2021-05-16T08:23:22.000Z</time>
      </trkpt>
      <trkpt lat="47.24034" lon="-2.26732">
        <ele>31.799999237061</ele>
        <time>2021-05-16T08:23:23.000Z</time>
      </trkpt>
      <trkpt lat="47.24037" lon="-2.2673">
        <ele>32.200000762939</ele>
        <time>2021-05-16T08:23:24.000Z</time>
      </trkpt>
      <trkpt lat="47.2404" lon="-2.26729">
        <ele>32.200000762939</ele>
        <time>2021-05-16T08:23:25.000Z</time>
      </trkpt>
      <trkpt lat="47.24054" lon="-2.26716">
        <ele>32.200000762939</ele>
        <time>2021-05-16T08:23:31.000Z</time>
      </trkpt>
      <trkpt lat="47.24065" lon="-2.26706">
        <ele>32.599998474121</ele>
        <time>2021-05-16T08:23:36.000Z</time>
      </trkpt>
      <trkpt lat="47.24067" lon="-2.26703">
        <ele>33</ele>
        <time>2021-05-16T08:23:37.000Z</time>
      </trkpt>
      <trkpt lat="47.24069" lon="-2.26701">
        <ele>33.599998474121</ele>
        <time>2021-05-16T08:23:38.000Z</time>
      </trkpt>
      <trkpt lat="47.24071" lon="-2.26698">
        <ele>34</ele>
        <time>2021-05-16T08:23:39.000Z</time>
      </trkpt>
      <trkpt lat="47.24072" lon="-2.26695">
        <ele>34.400001525879</ele>
        <time>2021-05-16T08:23:40.000Z</time>
      </trkpt>
      <trkpt lat="47.24077" lon="-2.26684">
        <ele>34.799999237061</ele>
        <time>2021-05-16T08:23:43.000Z</time>
      </trkpt>
      <trkpt lat="47.24079" lon="-2.26681">
        <ele>35.599998474121</ele>
        <time>2021-05-16T08:23:44.000Z</time>
      </trkpt>
      <trkpt lat="47.2408" lon="-2.26678">
        <ele>36</ele>
        <time>2021-05-16T08:23:45.000Z</time>
      </trkpt>
      <trkpt lat="47.24081" lon="-2.26674">
        <ele>36.599998474121</ele>
        <time>2021-05-16T08:23:46.000Z</time>
      </trkpt>
      <trkpt lat="47.24091" lon="-2.26655">
        <ele>36.599998474121</ele>
        <time>2021-05-16T08:23:52.000Z</time>
      </trkpt>
      <trkpt lat="47.24095" lon="-2.26652">
        <ele>36.599998474121</ele>
        <time>2021-05-16T08:23:54.000Z</time>
      </trkpt>
      <trkpt lat="47.24098" lon="-2.26653">
        <ele>36.599998474121</ele>
        <time>2021-05-16T08:23:56.000Z</time>
      </trkpt>
      <trkpt lat="47.24102" lon="-2.26655">
        <ele>36.599998474121</ele>
        <time>2021-05-16T08:23:59.000Z</time>
      </trkpt>
      <trkpt lat="47.24104" lon="-2.26655">
        <ele>36.599998474121</ele>
        <time>2021-05-16T08:24:01.000Z</time>
      </trkpt>
      <trkpt lat="47.24104" lon="-2.26655">
        <ele>36.599998474121</ele>
        <time>2021-05-16T08:24:02.000Z</time>
      </trkpt>
      <trkpt lat="47.24106" lon="-2.26653">
        <ele>36.599998474121</ele>
        <time>2021-05-16T08:24:08.000Z</time>
      </trkpt>
      <trkpt lat="47.24108" lon="-2.2665">
        <ele>36.599998474121</ele>
        <time>2021-05-16T08:24:10.000Z</time>
      </trkpt>
      <trkpt lat="47.24111" lon="-2.2664">
        <ele>36.599998474121</ele>
        <time>2021-05-16T08:24:14.000Z</time>
      </trkpt>
      <trkpt lat="47.24112" lon="-2.26639">
        <ele>36.599998474121</ele>
        <time>2021-05-16T08:24:15.000Z</time>
      </trkpt>
      <trkpt lat="47.24117" lon="-2.26641">
        <ele>36</ele>
        <time>2021-05-16T08:24:18.000Z</time>
      </trkpt>
      <trkpt lat="47.24119" lon="-2.26639">
        <ele>35.599998474121</ele>
        <time>2021-05-16T08:24:19.000Z</time>
      </trkpt>
      <trkpt lat="47.2412" lon="-2.26635">
        <ele>35.200000762939</ele>
        <time>2021-05-16T08:24:20.000Z</time>
      </trkpt>
      <trkpt lat="47.24122" lon="-2.2663">
        <ele>34.799999237061</ele>
        <time>2021-05-16T08:24:21.000Z</time>
      </trkpt>
      <trkpt lat="47.24124" lon="-2.26626">
        <ele>34.400001525879</ele>
        <time>2021-05-16T08:24:22.000Z</time>
      </trkpt>
      <trkpt lat="47.24126" lon="-2.26621">
        <ele>34.400001525879</ele>
        <time>2021-05-16T08:24:23.000Z</time>
      </trkpt>
      <trkpt lat="47.2413" lon="-2.26609">
        <ele>34.400001525879</ele>
        <time>2021-05-16T08:24:25.000Z</time>
      </trkpt>
      <trkpt lat="47.24135" lon="-2.266">
        <ele>34.400001525879</ele>
        <time>2021-05-16T08:24:27.000Z</time>
      </trkpt>
      <trkpt lat="47.24138" lon="-2.26595">
        <ele>34.400001525879</ele>
        <time>2021-05-16T08:24:29.000Z</time>
      </trkpt>
      <trkpt lat="47.24138" lon="-2.26592">
        <ele>34.400001525879</ele>
        <time>2021-05-16T08:24:30.000Z</time>
      </trkpt>
      <trkpt lat="47.24137" lon="-2.26588">
        <ele>34</ele>
        <time>2021-05-16T08:24:31.000Z</time>
      </trkpt>
      <trkpt lat="47.24137" lon="-2.26585">
        <ele>33.599998474121</ele>
        <time>2021-05-16T08:24:32.000Z</time>
      </trkpt>
      <trkpt lat="47.24138" lon="-2.26582">
        <ele>32.799999237061</ele>
        <time>2021-05-16T08:24:33.000Z</time>
      </trkpt>
      <trkpt lat="47.24139" lon="-2.26579">
        <ele>32.400001525879</ele>
        <time>2021-05-16T08:24:34.000Z</time>
      </trkpt>
      <trkpt lat="47.24148" lon="-2.26579">
        <ele>32.400001525879</ele>
        <time>2021-05-16T08:24:38.000Z</time>
      </trkpt>
      <trkpt lat="47.2416" lon="-2.26582">
        <ele>32.400001525879</ele>
        <time>2021-05-16T08:24:43.000Z</time>
      </trkpt>
      <trkpt lat="47.2416" lon="-2.2659">
        <ele>32.400001525879</ele>
        <time>2021-05-16T08:24:46.000Z</time>
      </trkpt>
      <trkpt lat="47.24159" lon="-2.26593">
        <ele>32.799999237061</ele>
        <time>2021-05-16T08:24:47.000Z</time>
      </trkpt>
      <trkpt lat="47.24158" lon="-2.26597">
        <ele>33.200000762939</ele>
        <time>2021-05-16T08:24:48.000Z</time>
      </trkpt>
      <trkpt lat="47.24157" lon="-2.26601">
        <ele>33.599998474121</ele>
        <time>2021-05-16T08:24:49.000Z</time>
      </trkpt>
      <trkpt lat="47.24157" lon="-2.26605">
        <ele>34.200000762939</ele>
        <time>2021-05-16T08:24:50.000Z</time>
      </trkpt>
      <trkpt lat="47.24156" lon="-2.26609">
        <ele>34.599998474121</ele>
        <time>2021-05-16T08:24:51.000Z</time>
      </trkpt>
      <trkpt lat="47.24157" lon="-2.26613">
        <ele>34.599998474121</ele>
        <time>2021-05-16T08:24:52.000Z</time>
      </trkpt>
      <trkpt lat="47.24158" lon="-2.26615">
        <ele>35</ele>
        <time>2021-05-16T08:24:53.000Z</time>
      </trkpt>
      <trkpt lat="47.24161" lon="-2.26617">
        <ele>35.400001525879</ele>
        <time>2021-05-16T08:24:54.000Z</time>
      </trkpt>
      <trkpt lat="47.24164" lon="-2.26616">
        <ele>35.799999237061</ele>
        <time>2021-05-16T08:24:55.000Z</time>
      </trkpt>
      <trkpt lat="47.24167" lon="-2.26615">
        <ele>36.200000762939</ele>
        <time>2021-05-16T08:24:56.000Z</time>
      </trkpt>
      <trkpt lat="47.24172" lon="-2.26615">
        <ele>36.799999237061</ele>
        <time>2021-05-16T08:24:57.000Z</time>
      </trkpt>
      <trkpt lat="47.24187" lon="-2.26619">
        <ele>36.799999237061</ele>
        <time>2021-05-16T08:25:01.000Z</time>
      </trkpt>
      <trkpt lat="47.24201" lon="-2.26623">
        <ele>36.799999237061</ele>
        <time>2021-05-16T08:25:06.000Z</time>
      </trkpt>
      <trkpt lat="47.24221" lon="-2.26625">
        <ele>36.799999237061</ele>
        <time>2021-05-16T08:25:14.000Z</time>
      </trkpt>
      <trkpt lat="47.24242" lon="-2.26608">
        <ele>36.799999237061</ele>
        <time>2021-05-16T08:25:20.000Z</time>
      </trkpt>
      <trkpt lat="47.24276" lon="-2.26575">
        <ele>36.799999237061</ele>
        <time>2021-05-16T08:25:28.000Z</time>
      </trkpt>
      <trkpt lat="47.24314" lon="-2.26539">
        <ele>36.799999237061</ele>
        <time>2021-05-16T08:25:36.000Z</time>
      </trkpt>
      <trkpt lat="47.24347" lon="-2.26511">
        <ele>36.799999237061</ele>
        <time>2021-05-16T08:25:42.000Z</time>
      </trkpt>
      <trkpt lat="47.24397" lon="-2.26473">
        <ele>36.799999237061</ele>
        <time>2021-05-16T08:25:51.000Z</time>
      </trkpt>
      <trkpt lat="47.24418" lon="-2.26458">
        <ele>36.799999237061</ele>
        <time>2021-05-16T08:25:55.000Z</time>
      </trkpt>
      <trkpt lat="47.24429" lon="-2.2645">
        <ele>36.799999237061</ele>
        <time>2021-05-16T08:25:57.000Z</time>
      </trkpt>
      <trkpt lat="47.24469" lon="-2.26427">
        <ele>36.799999237061</ele>
        <time>2021-05-16T08:26:04.000Z</time>
      </trkpt>
      <trkpt lat="47.24499" lon="-2.26411">
        <ele>36.799999237061</ele>
        <time>2021-05-16T08:26:10.000Z</time>
      </trkpt>
      <trkpt lat="47.2451" lon="-2.26406">
        <ele>37.599998474121</ele>
        <time>2021-05-16T08:26:12.000Z</time>
      </trkpt>
      <trkpt lat="47.24516" lon="-2.26403">
        <ele>38</ele>
        <time>2021-05-16T08:26:13.000Z</time>
      </trkpt>
      <trkpt lat="47.24522" lon="-2.26401">
        <ele>38.400001525879</ele>
        <time>2021-05-16T08:26:14.000Z</time>
      </trkpt>
      <trkpt lat="47.24527" lon="-2.26399">
        <ele>38.799999237061</ele>
        <time>2021-05-16T08:26:15.000Z</time>
      </trkpt>
      <trkpt lat="47.24544" lon="-2.26392">
        <ele>38.799999237061</ele>
        <time>2021-05-16T08:26:18.000Z</time>
      </trkpt>
      <trkpt lat="47.24586" lon="-2.26378">
        <ele>38.799999237061</ele>
        <time>2021-05-16T08:26:25.000Z</time>
      </trkpt>
      <trkpt lat="47.24603" lon="-2.26374">
        <ele>38.799999237061</ele>
        <time>2021-05-16T08:26:28.000Z</time>
      </trkpt>
      <trkpt lat="47.24616" lon="-2.26375">
        <ele>38.799999237061</ele>
        <time>2021-05-16T08:26:30.000Z</time>
      </trkpt>
      <trkpt lat="47.24652" lon="-2.26385">
        <ele>38.799999237061</ele>
        <time>2021-05-16T08:26:36.000Z</time>
      </trkpt>
      <trkpt lat="47.24698" lon="-2.26407">
        <ele>38.799999237061</ele>
        <time>2021-05-16T08:26:44.000Z</time>
      </trkpt>
      <trkpt lat="47.2474" lon="-2.26428">
        <ele>38.799999237061</ele>
        <time>2021-05-16T08:26:52.000Z</time>
      </trkpt>
      <trkpt lat="47.24777" lon="-2.26445">
        <ele>38.799999237061</ele>
        <time>2021-05-16T08:26:59.000Z</time>
      </trkpt>
      <trkpt lat="47.24822" lon="-2.26454">
        <ele>38.799999237061</ele>
        <time>2021-05-16T08:27:07.000Z</time>
      </trkpt>
      <trkpt lat="47.24856" lon="-2.2645">
        <ele>38.799999237061</ele>
        <time>2021-05-16T08:27:13.000Z</time>
      </trkpt>
      <trkpt lat="47.24899" lon="-2.26439">
        <ele>38.799999237061</ele>
        <time>2021-05-16T08:27:21.000Z</time>
      </trkpt>
      <trkpt lat="47.24926" lon="-2.26428">
        <ele>38.799999237061</ele>
        <time>2021-05-16T08:27:27.000Z</time>
      </trkpt>
      <trkpt lat="47.24929" lon="-2.26423">
        <ele>38.799999237061</ele>
        <time>2021-05-16T08:27:28.000Z</time>
      </trkpt>
      <trkpt lat="47.24929" lon="-2.26412">
        <ele>38.799999237061</ele>
        <time>2021-05-16T08:27:30.000Z</time>
      </trkpt>
      <trkpt lat="47.24923" lon="-2.26389">
        <ele>38.799999237061</ele>
        <time>2021-05-16T08:27:34.000Z</time>
      </trkpt>
      <trkpt lat="47.24917" lon="-2.26332">
        <ele>38.799999237061</ele>
        <time>2021-05-16T08:27:42.000Z</time>
      </trkpt>
      <trkpt lat="47.24913" lon="-2.263">
        <ele>38.799999237061</ele>
        <time>2021-05-16T08:27:46.000Z</time>
      </trkpt>
      <trkpt lat="47.24916" lon="-2.26287">
        <ele>38.799999237061</ele>
        <time>2021-05-16T08:27:48.000Z</time>
      </trkpt>
      <trkpt lat="47.24925" lon="-2.26279">
        <ele>38.799999237061</ele>
        <time>2021-05-16T08:27:51.000Z</time>
      </trkpt>
      <trkpt lat="47.24929" lon="-2.26278">
        <ele>38.799999237061</ele>
        <time>2021-05-16T08:27:52.000Z</time>
      </trkpt>
      <trkpt lat="47.24949" lon="-2.26272">
        <ele>38.799999237061</ele>
        <time>2021-05-16T08:27:56.000Z</time>
      </trkpt>
      <trkpt lat="47.24959" lon="-2.2627">
        <ele>38.799999237061</ele>
        <time>2021-05-16T08:27:58.000Z</time>
      </trkpt>
      <trkpt lat="47.24976" lon="-2.26265">
        <ele>38.799999237061</ele>
        <time>2021-05-16T08:28:02.000Z</time>
      </trkpt>
      <trkpt lat="47.24998" lon="-2.26263">
        <ele>38.799999237061</ele>
        <time>2021-05-16T08:28:08.000Z</time>
      </trkpt>
      <trkpt lat="47.25" lon="-2.26261">
        <ele>38.799999237061</ele>
        <time>2021-05-16T08:28:09.000Z</time>
      </trkpt>
      <trkpt lat="47.25001" lon="-2.26254">
        <ele>38.799999237061</ele>
        <time>2021-05-16T08:28:11.000Z</time>
      </trkpt>
      <trkpt lat="47.24999" lon="-2.2624">
        <ele>38.799999237061</ele>
        <time>2021-05-16T08:28:14.000Z</time>
      </trkpt>
      <trkpt lat="47.24999" lon="-2.26235">
        <ele>38.799999237061</ele>
        <time>2021-05-16T08:28:15.000Z</time>
      </trkpt>
      <trkpt lat="47.24997" lon="-2.26199">
        <ele>38.799999237061</ele>
        <time>2021-05-16T08:28:21.000Z</time>
      </trkpt>
      <trkpt lat="47.24998" lon="-2.26193">
        <ele>38.799999237061</ele>
        <time>2021-05-16T08:28:22.000Z</time>
      </trkpt>
      <trkpt lat="47.24996" lon="-2.26166">
        <ele>38.799999237061</ele>
        <time>2021-05-16T08:28:26.000Z</time>
      </trkpt>
      <trkpt lat="47.24991" lon="-2.26116">
        <ele>38.799999237061</ele>
        <time>2021-05-16T08:28:33.000Z</time>
      </trkpt>
      <trkpt lat="47.24994" lon="-2.26073">
        <ele>38.799999237061</ele>
        <time>2021-05-16T08:28:38.000Z</time>
      </trkpt>
      <trkpt lat="47.25006" lon="-2.26036">
        <ele>38.799999237061</ele>
        <time>2021-05-16T08:28:42.000Z</time>
      </trkpt>
      <trkpt lat="47.25011" lon="-2.26027">
        <ele>38.400001525879</ele>
        <time>2021-05-16T08:28:43.000Z</time>
      </trkpt>
      <trkpt lat="47.25016" lon="-2.26019">
        <ele>38</ele>
        <time>2021-05-16T08:28:44.000Z</time>
      </trkpt>
      <trkpt lat="47.2502" lon="-2.26011">
        <ele>37.400001525879</ele>
        <time>2021-05-16T08:28:45.000Z</time>
      </trkpt>
      <trkpt lat="47.25024" lon="-2.26003">
        <ele>37</ele>
        <time>2021-05-16T08:28:46.000Z</time>
      </trkpt>
      <trkpt lat="47.25028" lon="-2.25995">
        <ele>36.599998474121</ele>
        <time>2021-05-16T08:28:47.000Z</time>
      </trkpt>
      <trkpt lat="47.25031" lon="-2.25988">
        <ele>36.200000762939</ele>
        <time>2021-05-16T08:28:48.000Z</time>
      </trkpt>
      <trkpt lat="47.2503" lon="-2.25982">
        <ele>35.599998474121</ele>
        <time>2021-05-16T08:28:49.000Z</time>
      </trkpt>
      <trkpt lat="47.2503" lon="-2.25977">
        <ele>35.200000762939</ele>
        <time>2021-05-16T08:28:50.000Z</time>
      </trkpt>
      <trkpt lat="47.2503" lon="-2.25974">
        <ele>34.799999237061</ele>
        <time>2021-05-16T08:28:51.000Z</time>
      </trkpt>
      <trkpt lat="47.2503" lon="-2.25971">
        <ele>34.200000762939</ele>
        <time>2021-05-16T08:28:52.000Z</time>
      </trkpt>
      <trkpt lat="47.25029" lon="-2.25967">
        <ele>33.799999237061</ele>
        <time>2021-05-16T08:28:54.000Z</time>
      </trkpt>
      <trkpt lat="47.25029" lon="-2.25965">
        <ele>33.400001525879</ele>
        <time>2021-05-16T08:28:55.000Z</time>
      </trkpt>
      <trkpt lat="47.25029" lon="-2.25963">
        <ele>33</ele>
        <time>2021-05-16T08:28:56.000Z</time>
      </trkpt>
      <trkpt lat="47.2503" lon="-2.25962">
        <ele>32.599998474121</ele>
        <time>2021-05-16T08:28:57.000Z</time>
      </trkpt>
      <trkpt lat="47.2503" lon="-2.25962">
        <ele>32.200000762939</ele>
        <time>2021-05-16T08:28:58.000Z</time>
      </trkpt>
      <trkpt lat="47.2503" lon="-2.25962">
        <ele>32.200000762939</ele>
        <time>2021-05-16T08:28:59.000Z</time>
      </trkpt>
      <trkpt lat="47.25035" lon="-2.25955">
        <ele>32.200000762939</ele>
        <time>2021-05-16T08:29:06.000Z</time>
      </trkpt>
      <trkpt lat="47.25037" lon="-2.25952">
        <ele>31.799999237061</ele>
        <time>2021-05-16T08:29:09.000Z</time>
      </trkpt>
      <trkpt lat="47.25039" lon="-2.25951">
        <ele>31.39999961853</ele>
        <time>2021-05-16T08:29:10.000Z</time>
      </trkpt>
      <trkpt lat="47.2504" lon="-2.2595">
        <ele>30.799999237061</ele>
        <time>2021-05-16T08:29:11.000Z</time>
      </trkpt>
      <trkpt lat="47.25041" lon="-2.25951">
        <ele>30.39999961853</ele>
        <time>2021-05-16T08:29:12.000Z</time>
      </trkpt>
      <trkpt lat="47.25043" lon="-2.25952">
        <ele>30</ele>
        <time>2021-05-16T08:29:13.000Z</time>
      </trkpt>
      <trkpt lat="47.25044" lon="-2.25952">
        <ele>29.60000038147</ele>
        <time>2021-05-16T08:29:14.000Z</time>
      </trkpt>
      <trkpt lat="47.25046" lon="-2.25954">
        <ele>29</ele>
        <time>2021-05-16T08:29:15.000Z</time>
      </trkpt>
      <trkpt lat="47.25047" lon="-2.25955">
        <ele>28.60000038147</ele>
        <time>2021-05-16T08:29:16.000Z</time>
      </trkpt>
      <trkpt lat="47.25048" lon="-2.25957">
        <ele>28</ele>
        <time>2021-05-16T08:29:17.000Z</time>
      </trkpt>
      <trkpt lat="47.2505" lon="-2.2596">
        <ele>27.60000038147</ele>
        <time>2021-05-16T08:29:18.000Z</time>
      </trkpt>
      <trkpt lat="47.2505" lon="-2.25964">
        <ele>27.60000038147</ele>
        <time>2021-05-16T08:29:19.000Z</time>
      </trkpt>
      <trkpt lat="47.25052" lon="-2.25987">
        <ele>27.60000038147</ele>
        <time>2021-05-16T08:29:23.000Z</time>
      </trkpt>
      <trkpt lat="47.25056" lon="-2.26026">
        <ele>27.60000038147</ele>
        <time>2021-05-16T08:29:29.000Z</time>
      </trkpt>
      <trkpt lat="47.25055" lon="-2.26043">
        <ele>28</ele>
        <time>2021-05-16T08:29:32.000Z</time>
      </trkpt>
      <trkpt lat="47.25054" lon="-2.26048">
        <ele>28.39999961853</ele>
        <time>2021-05-16T08:29:33.000Z</time>
      </trkpt>
      <trkpt lat="47.25054" lon="-2.26054">
        <ele>29</ele>
        <time>2021-05-16T08:29:34.000Z</time>
      </trkpt>
      <trkpt lat="47.25053" lon="-2.26059">
        <ele>29.39999961853</ele>
        <time>2021-05-16T08:29:35.000Z</time>
      </trkpt>
      <trkpt lat="47.25053" lon="-2.26064">
        <ele>29.799999237061</ele>
        <time>2021-05-16T08:29:36.000Z</time>
      </trkpt>
      <trkpt lat="47.25052" lon="-2.26093">
        <ele>30.200000762939</ele>
        <time>2021-05-16T08:29:42.000Z</time>
      </trkpt>
      <trkpt lat="47.25053" lon="-2.26095">
        <ele>30.60000038147</ele>
        <time>2021-05-16T08:29:43.000Z</time>
      </trkpt>
      <trkpt lat="47.25054" lon="-2.26097">
        <ele>31</ele>
        <time>2021-05-16T08:29:44.000Z</time>
      </trkpt>
      <trkpt lat="47.25055" lon="-2.26098">
        <ele>31.39999961853</ele>
        <time>2021-05-16T08:29:45.000Z</time>
      </trkpt>
      <trkpt lat="47.25056" lon="-2.261">
        <ele>31.799999237061</ele>
        <time>2021-05-16T08:29:46.000Z</time>
      </trkpt>
      <trkpt lat="47.25059" lon="-2.26102">
        <ele>32.200000762939</ele>
        <time>2021-05-16T08:29:49.000Z</time>
      </trkpt>
      <trkpt lat="47.25062" lon="-2.26104">
        <ele>32.599998474121</ele>
        <time>2021-05-16T08:29:50.000Z</time>
      </trkpt>
      <trkpt lat="47.25064" lon="-2.26105">
        <ele>33</ele>
        <time>2021-05-16T08:29:51.000Z</time>
      </trkpt>
      <trkpt lat="47.25068" lon="-2.26108">
        <ele>33.599998474121</ele>
        <time>2021-05-16T08:29:52.000Z</time>
      </trkpt>
      <trkpt lat="47.2507" lon="-2.2611">
        <ele>34</ele>
        <time>2021-05-16T08:29:53.000Z</time>
      </trkpt>
      <trkpt lat="47.25081" lon="-2.2611">
        <ele>34</ele>
        <time>2021-05-16T08:29:59.000Z</time>
      </trkpt>
      <trkpt lat="47.25082" lon="-2.26108">
        <ele>34</ele>
        <time>2021-05-16T08:30:00.000Z</time>
      </trkpt>
      <trkpt lat="47.25085" lon="-2.26094">
        <ele>34</ele>
        <time>2021-05-16T08:30:03.000Z</time>
      </trkpt>
      <trkpt lat="47.25087" lon="-2.26083">
        <ele>34</ele>
        <time>2021-05-16T08:30:05.000Z</time>
      </trkpt>
      <trkpt lat="47.25089" lon="-2.26072">
        <ele>34</ele>
        <time>2021-05-16T08:30:07.000Z</time>
      </trkpt>
      <trkpt lat="47.25093" lon="-2.2605">
        <ele>34</ele>
        <time>2021-05-16T08:30:10.000Z</time>
      </trkpt>
      <trkpt lat="47.25105" lon="-2.25998">
        <ele>34</ele>
        <time>2021-05-16T08:30:16.000Z</time>
      </trkpt>
      <trkpt lat="47.25121" lon="-2.25949">
        <ele>34</ele>
        <time>2021-05-16T08:30:22.000Z</time>
      </trkpt>
      <trkpt lat="47.25131" lon="-2.25932">
        <ele>34</ele>
        <time>2021-05-16T08:30:26.000Z</time>
      </trkpt>
      <trkpt lat="47.25136" lon="-2.25925">
        <ele>33.599998474121</ele>
        <time>2021-05-16T08:30:29.000Z</time>
      </trkpt>
      <trkpt lat="47.25137" lon="-2.25924">
        <ele>33.200000762939</ele>
        <time>2021-05-16T08:30:30.000Z</time>
      </trkpt>
      <trkpt lat="47.25139" lon="-2.25922">
        <ele>32.599998474121</ele>
        <time>2021-05-16T08:30:31.000Z</time>
      </trkpt>
      <trkpt lat="47.25139" lon="-2.25921">
        <ele>32.200000762939</ele>
        <time>2021-05-16T08:30:32.000Z</time>
      </trkpt>
      <trkpt lat="47.2514" lon="-2.25919">
        <ele>31.799999237061</ele>
        <time>2021-05-16T08:30:33.000Z</time>
      </trkpt>
      <trkpt lat="47.25146" lon="-2.25912">
        <ele>31.799999237061</ele>
        <time>2021-05-16T08:30:39.000Z</time>
      </trkpt>
      <trkpt lat="47.25148" lon="-2.25914">
        <ele>31.799999237061</ele>
        <time>2021-05-16T08:30:43.000Z</time>
      </trkpt>
      <trkpt lat="47.2515" lon="-2.25916">
        <ele>31.799999237061</ele>
        <time>2021-05-16T08:30:44.000Z</time>
      </trkpt>
      <trkpt lat="47.25164" lon="-2.25918">
        <ele>31.799999237061</ele>
        <time>2021-05-16T08:30:49.000Z</time>
      </trkpt>
      <trkpt lat="47.25169" lon="-2.25917">
        <ele>31.799999237061</ele>
        <time>2021-05-16T08:30:52.000Z</time>
      </trkpt>
      <trkpt lat="47.25171" lon="-2.25917">
        <ele>32.400001525879</ele>
        <time>2021-05-16T08:30:53.000Z</time>
      </trkpt>
      <trkpt lat="47.25172" lon="-2.25916">
        <ele>32.799999237061</ele>
        <time>2021-05-16T08:30:54.000Z</time>
      </trkpt>
      <trkpt lat="47.25174" lon="-2.25915">
        <ele>33.400001525879</ele>
        <time>2021-05-16T08:30:55.000Z</time>
      </trkpt>
      <trkpt lat="47.25176" lon="-2.25914">
        <ele>33.799999237061</ele>
        <time>2021-05-16T08:30:56.000Z</time>
      </trkpt>
      <trkpt lat="47.25178" lon="-2.25913">
        <ele>34.400001525879</ele>
        <time>2021-05-16T08:30:57.000Z</time>
      </trkpt>
      <trkpt lat="47.2518" lon="-2.25912">
        <ele>34.400001525879</ele>
        <time>2021-05-16T08:30:58.000Z</time>
      </trkpt>
      <trkpt lat="47.25191" lon="-2.2591">
        <ele>34.400001525879</ele>
        <time>2021-05-16T08:31:04.000Z</time>
      </trkpt>
      <trkpt lat="47.25191" lon="-2.2591">
        <ele>34.400001525879</ele>
        <time>2021-05-16T08:31:05.000Z</time>
      </trkpt>
      <trkpt lat="47.25195" lon="-2.25913">
        <ele>34.400001525879</ele>
        <time>2021-05-16T08:31:25.000Z</time>
      </trkpt>
      <trkpt lat="47.25198" lon="-2.25914">
        <ele>34.400001525879</ele>
        <time>2021-05-16T08:31:26.000Z</time>
      </trkpt>
      <trkpt lat="47.25211" lon="-2.25928">
        <ele>34.400001525879</ele>
        <time>2021-05-16T08:31:31.000Z</time>
      </trkpt>
      <trkpt lat="47.2523" lon="-2.25954">
        <ele>34.400001525879</ele>
        <time>2021-05-16T08:31:38.000Z</time>
      </trkpt>
      <trkpt lat="47.25241" lon="-2.25972">
        <ele>34.799999237061</ele>
        <time>2021-05-16T08:31:42.000Z</time>
      </trkpt>
      <trkpt lat="47.25244" lon="-2.25977">
        <ele>35.200000762939</ele>
        <time>2021-05-16T08:31:43.000Z</time>
      </trkpt>
      <trkpt lat="47.25246" lon="-2.25981">
        <ele>35.599998474121</ele>
        <time>2021-05-16T08:31:44.000Z</time>
      </trkpt>
      <trkpt lat="47.25249" lon="-2.25985">
        <ele>36.200000762939</ele>
        <time>2021-05-16T08:31:45.000Z</time>
      </trkpt>
      <trkpt lat="47.25251" lon="-2.2599">
        <ele>36.599998474121</ele>
        <time>2021-05-16T08:31:46.000Z</time>
      </trkpt>
      <trkpt lat="47.25269" lon="-2.26015">
        <ele>36.599998474121</ele>
        <time>2021-05-16T08:31:53.000Z</time>
      </trkpt>
      <trkpt lat="47.25285" lon="-2.26027">
        <ele>36.599998474121</ele>
        <time>2021-05-16T08:31:59.000Z</time>
      </trkpt>
      <trkpt lat="47.25299" lon="-2.26025">
        <ele>36.599998474121</ele>
        <time>2021-05-16T08:32:04.000Z</time>
      </trkpt>
      <trkpt lat="47.25313" lon="-2.26025">
        <ele>36.599998474121</ele>
        <time>2021-05-16T08:32:09.000Z</time>
      </trkpt>
      <trkpt lat="47.25317" lon="-2.26031">
        <ele>36.599998474121</ele>
        <time>2021-05-16T08:32:13.000Z</time>
      </trkpt>
      <trkpt lat="47.25325" lon="-2.26035">
        <ele>36.599998474121</ele>
        <time>2021-05-16T08:32:21.000Z</time>
      </trkpt>
      <trkpt lat="47.25328" lon="-2.26036">
        <ele>35.599998474121</ele>
        <time>2021-05-16T08:32:23.000Z</time>
      </trkpt>
      <trkpt lat="47.2533" lon="-2.26036">
        <ele>35.200000762939</ele>
        <time>2021-05-16T08:32:24.000Z</time>
      </trkpt>
      <trkpt lat="47.25331" lon="-2.26036">
        <ele>34.799999237061</ele>
        <time>2021-05-16T08:32:25.000Z</time>
      </trkpt>
      <trkpt lat="47.25334" lon="-2.26033">
        <ele>34.400001525879</ele>
        <time>2021-05-16T08:32:26.000Z</time>
      </trkpt>
      <trkpt lat="47.25346" lon="-2.26023">
        <ele>34.400001525879</ele>
        <time>2021-05-16T08:32:31.000Z</time>
      </trkpt>
      <trkpt lat="47.25348" lon="-2.26021">
        <ele>34</ele>
        <time>2021-05-16T08:32:32.000Z</time>
      </trkpt>
      <trkpt lat="47.25349" lon="-2.26019">
        <ele>33.599998474121</ele>
        <time>2021-05-16T08:32:33.000Z</time>
      </trkpt>
      <trkpt lat="47.25351" lon="-2.26017">
        <ele>33.200000762939</ele>
        <time>2021-05-16T08:32:34.000Z</time>
      </trkpt>
      <trkpt lat="47.25351" lon="-2.26018">
        <ele>32.799999237061</ele>
        <time>2021-05-16T08:32:35.000Z</time>
      </trkpt>
      <trkpt lat="47.25352" lon="-2.26017">
        <ele>32.400001525879</ele>
        <time>2021-05-16T08:32:36.000Z</time>
      </trkpt>
      <trkpt lat="47.25355" lon="-2.26009">
        <ele>32.400001525879</ele>
        <time>2021-05-16T08:32:46.000Z</time>
      </trkpt>
      <trkpt lat="47.25355" lon="-2.25997">
        <ele>32</ele>
        <time>2021-05-16T08:32:49.000Z</time>
      </trkpt>
      <trkpt lat="47.25355" lon="-2.25994">
        <ele>31.60000038147</ele>
        <time>2021-05-16T08:32:50.000Z</time>
      </trkpt>
      <trkpt lat="47.25355" lon="-2.25991">
        <ele>31</ele>
        <time>2021-05-16T08:32:51.000Z</time>
      </trkpt>
      <trkpt lat="47.25356" lon="-2.25988">
        <ele>30.60000038147</ele>
        <time>2021-05-16T08:32:52.000Z</time>
      </trkpt>
      <trkpt lat="47.25357" lon="-2.25988">
        <ele>30.200000762939</ele>
        <time>2021-05-16T08:32:53.000Z</time>
      </trkpt>
      <trkpt lat="47.25371" lon="-2.25983">
        <ele>28.200000762939</ele>
        <time>2021-05-16T08:33:03.000Z</time>
      </trkpt>
      <trkpt lat="47.25373" lon="-2.25982">
        <ele>27.60000038147</ele>
        <time>2021-05-16T08:33:04.000Z</time>
      </trkpt>
      <trkpt lat="47.25375" lon="-2.25981">
        <ele>27.200000762939</ele>
        <time>2021-05-16T08:33:05.000Z</time>
      </trkpt>
      <trkpt lat="47.25377" lon="-2.2598">
        <ele>26.60000038147</ele>
        <time>2021-05-16T08:33:06.000Z</time>
      </trkpt>
      <trkpt lat="47.25379" lon="-2.2598">
        <ele>26.200000762939</ele>
        <time>2021-05-16T08:33:07.000Z</time>
      </trkpt>
      <trkpt lat="47.25381" lon="-2.25979">
        <ele>25.60000038147</ele>
        <time>2021-05-16T08:33:08.000Z</time>
      </trkpt>
      <trkpt lat="47.25383" lon="-2.25979">
        <ele>25.200000762939</ele>
        <time>2021-05-16T08:33:09.000Z</time>
      </trkpt>
      <trkpt lat="47.25385" lon="-2.25978">
        <ele>24.60000038147</ele>
        <time>2021-05-16T08:33:10.000Z</time>
      </trkpt>
      <trkpt lat="47.25388" lon="-2.25976">
        <ele>24</ele>
        <time>2021-05-16T08:33:11.000Z</time>
      </trkpt>
      <trkpt lat="47.25391" lon="-2.25973">
        <ele>23</ele>
        <time>2021-05-16T08:33:12.000Z</time>
      </trkpt>
      <trkpt lat="47.25393" lon="-2.2597">
        <ele>22.60000038147</ele>
        <time>2021-05-16T08:33:13.000Z</time>
      </trkpt>
      <trkpt lat="47.25395" lon="-2.25966">
        <ele>22.200000762939</ele>
        <time>2021-05-16T08:33:14.000Z</time>
      </trkpt>
      <trkpt lat="47.25398" lon="-2.25962">
        <ele>21.799999237061</ele>
        <time>2021-05-16T08:33:15.000Z</time>
      </trkpt>
      <trkpt lat="47.25402" lon="-2.25959">
        <ele>21.39999961853</ele>
        <time>2021-05-16T08:33:16.000Z</time>
      </trkpt>
      <trkpt lat="47.2541" lon="-2.2595">
        <ele>21.39999961853</ele>
        <time>2021-05-16T08:33:19.000Z</time>
      </trkpt>
      <trkpt lat="47.25427" lon="-2.25934">
        <ele>21.39999961853</ele>
        <time>2021-05-16T08:33:25.000Z</time>
      </trkpt>
      <trkpt lat="47.25428" lon="-2.25927">
        <ele>21.799999237061</ele>
        <time>2021-05-16T08:33:27.000Z</time>
      </trkpt>
      <trkpt lat="47.25429" lon="-2.25924">
        <ele>22.200000762939</ele>
        <time>2021-05-16T08:33:28.000Z</time>
      </trkpt>
      <trkpt lat="47.25429" lon="-2.2592">
        <ele>22.60000038147</ele>
        <time>2021-05-16T08:33:29.000Z</time>
      </trkpt>
      <trkpt lat="47.25428" lon="-2.25914">
        <ele>23</ele>
        <time>2021-05-16T08:33:30.000Z</time>
      </trkpt>
      <trkpt lat="47.25427" lon="-2.25909">
        <ele>23.39999961853</ele>
        <time>2021-05-16T08:33:31.000Z</time>
      </trkpt>
      <trkpt lat="47.25427" lon="-2.25904">
        <ele>23.39999961853</ele>
        <time>2021-05-16T08:33:32.000Z</time>
      </trkpt>
      <trkpt lat="47.25423" lon="-2.25869">
        <ele>23.39999961853</ele>
        <time>2021-05-16T08:33:38.000Z</time>
      </trkpt>
      <trkpt lat="47.25429" lon="-2.25838">
        <ele>23.39999961853</ele>
        <time>2021-05-16T08:33:43.000Z</time>
      </trkpt>
      <trkpt lat="47.25432" lon="-2.25811">
        <ele>23.39999961853</ele>
        <time>2021-05-16T08:33:48.000Z</time>
      </trkpt>
      <trkpt lat="47.25438" lon="-2.25779">
        <ele>23.39999961853</ele>
        <time>2021-05-16T08:33:54.000Z</time>
      </trkpt>
      <trkpt lat="47.25442" lon="-2.25747">
        <ele>23.39999961853</ele>
        <time>2021-05-16T08:34:00.000Z</time>
      </trkpt>
      <trkpt lat="47.25442" lon="-2.25737">
        <ele>23</ele>
        <time>2021-05-16T08:34:02.000Z</time>
      </trkpt>
      <trkpt lat="47.25441" lon="-2.25731">
        <ele>22.60000038147</ele>
        <time>2021-05-16T08:34:03.000Z</time>
      </trkpt>
      <trkpt lat="47.25442" lon="-2.25725">
        <ele>22.200000762939</ele>
        <time>2021-05-16T08:34:04.000Z</time>
      </trkpt>
      <trkpt lat="47.25443" lon="-2.2572">
        <ele>21.799999237061</ele>
        <time>2021-05-16T08:34:05.000Z</time>
      </trkpt>
      <trkpt lat="47.25444" lon="-2.25717">
        <ele>21.200000762939</ele>
        <time>2021-05-16T08:34:06.000Z</time>
      </trkpt>
      <trkpt lat="47.25446" lon="-2.25714">
        <ele>21.200000762939</ele>
        <time>2021-05-16T08:34:08.000Z</time>
      </trkpt>
      <trkpt lat="47.25449" lon="-2.25704">
        <ele>21.200000762939</ele>
        <time>2021-05-16T08:34:24.000Z</time>
      </trkpt>
      <trkpt lat="47.25456" lon="-2.25705">
        <ele>21.200000762939</ele>
        <time>2021-05-16T08:34:28.000Z</time>
      </trkpt>
      <trkpt lat="47.2546" lon="-2.25717">
        <ele>21.200000762939</ele>
        <time>2021-05-16T08:34:34.000Z</time>
      </trkpt>
      <trkpt lat="47.25464" lon="-2.25733">
        <ele>21.799999237061</ele>
        <time>2021-05-16T08:34:39.000Z</time>
      </trkpt>
      <trkpt lat="47.25464" lon="-2.25736">
        <ele>22.200000762939</ele>
        <time>2021-05-16T08:34:40.000Z</time>
      </trkpt>
      <trkpt lat="47.25465" lon="-2.25738">
        <ele>22.60000038147</ele>
        <time>2021-05-16T08:34:41.000Z</time>
      </trkpt>
      <trkpt lat="47.25465" lon="-2.25742">
        <ele>23</ele>
        <time>2021-05-16T08:34:42.000Z</time>
      </trkpt>
      <trkpt lat="47.25466" lon="-2.25746">
        <ele>23.60000038147</ele>
        <time>2021-05-16T08:34:43.000Z</time>
      </trkpt>
      <trkpt lat="47.25461" lon="-2.25758">
        <ele>23.60000038147</ele>
        <time>2021-05-16T08:34:48.000Z</time>
      </trkpt>
      <trkpt lat="47.2546" lon="-2.25767">
        <ele>24</ele>
        <time>2021-05-16T08:34:52.000Z</time>
      </trkpt>
      <trkpt lat="47.25461" lon="-2.25768">
        <ele>24.39999961853</ele>
        <time>2021-05-16T08:34:53.000Z</time>
      </trkpt>
      <trkpt lat="47.25462" lon="-2.2577">
        <ele>24.799999237061</ele>
        <time>2021-05-16T08:34:54.000Z</time>
      </trkpt>
      <trkpt lat="47.25466" lon="-2.2578">
        <ele>25.799999237061</ele>
        <time>2021-05-16T08:34:58.000Z</time>
      </trkpt>
      <trkpt lat="47.25468" lon="-2.25789">
        <ele>25.799999237061</ele>
        <time>2021-05-16T08:35:01.000Z</time>
      </trkpt>
      <trkpt lat="47.2547" lon="-2.258">
        <ele>26.200000762939</ele>
        <time>2021-05-16T08:35:05.000Z</time>
      </trkpt>
      <trkpt lat="47.25469" lon="-2.25802">
        <ele>26.60000038147</ele>
        <time>2021-05-16T08:35:06.000Z</time>
      </trkpt>
      <trkpt lat="47.25468" lon="-2.25805">
        <ele>27</ele>
        <time>2021-05-16T08:35:07.000Z</time>
      </trkpt>
      <trkpt lat="47.25467" lon="-2.25807">
        <ele>27.39999961853</ele>
        <time>2021-05-16T08:35:08.000Z</time>
      </trkpt>
      <trkpt lat="47.25466" lon="-2.25808">
        <ele>27.799999237061</ele>
        <time>2021-05-16T08:35:09.000Z</time>
      </trkpt>
      <trkpt lat="47.25458" lon="-2.25812">
        <ele>27.799999237061</ele>
        <time>2021-05-16T08:35:16.000Z</time>
      </trkpt>
      <trkpt lat="47.25453" lon="-2.25813">
        <ele>27.39999961853</ele>
        <time>2021-05-16T08:35:18.000Z</time>
      </trkpt>
      <trkpt lat="47.2545" lon="-2.25814">
        <ele>27</ele>
        <time>2021-05-16T08:35:19.000Z</time>
      </trkpt>
      <trkpt lat="47.25449" lon="-2.25816">
        <ele>26.60000038147</ele>
        <time>2021-05-16T08:35:20.000Z</time>
      </trkpt>
      <trkpt lat="47.25447" lon="-2.25818">
        <ele>26</ele>
        <time>2021-05-16T08:35:21.000Z</time>
      </trkpt>
      <trkpt lat="47.25446" lon="-2.25821">
        <ele>25.60000038147</ele>
        <time>2021-05-16T08:35:22.000Z</time>
      </trkpt>
      <trkpt lat="47.25443" lon="-2.25835">
        <ele>25.60000038147</ele>
        <time>2021-05-16T08:35:26.000Z</time>
      </trkpt>
      <trkpt lat="47.25439" lon="-2.25855">
        <ele>25.200000762939</ele>
        <time>2021-05-16T08:35:31.000Z</time>
      </trkpt>
      <trkpt lat="47.25438" lon="-2.25859">
        <ele>24.799999237061</ele>
        <time>2021-05-16T08:35:32.000Z</time>
      </trkpt>
      <trkpt lat="47.25437" lon="-2.25863">
        <ele>24.39999961853</ele>
        <time>2021-05-16T08:35:33.000Z</time>
      </trkpt>
      <trkpt lat="47.25436" lon="-2.25867">
        <ele>24</ele>
        <time>2021-05-16T08:35:34.000Z</time>
      </trkpt>
      <trkpt lat="47.25434" lon="-2.25871">
        <ele>23.60000038147</ele>
        <time>2021-05-16T08:35:35.000Z</time>
      </trkpt>
      <trkpt lat="47.25431" lon="-2.25877">
        <ele>23.60000038147</ele>
        <time>2021-05-16T08:35:38.000Z</time>
      </trkpt>
      <trkpt lat="47.25429" lon="-2.25875">
        <ele>22.799999237061</ele>
        <time>2021-05-16T08:35:40.000Z</time>
      </trkpt>
      <trkpt lat="47.25428" lon="-2.25872">
        <ele>22.39999961853</ele>
        <time>2021-05-16T08:35:41.000Z</time>
      </trkpt>
      <trkpt lat="47.25428" lon="-2.2587">
        <ele>22</ele>
        <time>2021-05-16T08:35:42.000Z</time>
      </trkpt>
      <trkpt lat="47.25427" lon="-2.25868">
        <ele>21.39999961853</ele>
        <time>2021-05-16T08:35:43.000Z</time>
      </trkpt>
      <trkpt lat="47.25427" lon="-2.25865">
        <ele>21.39999961853</ele>
        <time>2021-05-16T08:35:44.000Z</time>
      </trkpt>
      <trkpt lat="47.25425" lon="-2.25861">
        <ele>21.39999961853</ele>
        <time>2021-05-16T08:35:46.000Z</time>
      </trkpt>
      <trkpt lat="47.25419" lon="-2.25858">
        <ele>21.39999961853</ele>
        <time>2021-05-16T08:35:49.000Z</time>
      </trkpt>
      <trkpt lat="47.25418" lon="-2.25856">
        <ele>21</ele>
        <time>2021-05-16T08:35:50.000Z</time>
      </trkpt>
      <trkpt lat="47.25416" lon="-2.25854">
        <ele>20.60000038147</ele>
        <time>2021-05-16T08:35:51.000Z</time>
      </trkpt>
      <trkpt lat="47.25416" lon="-2.25853">
        <ele>20.200000762939</ele>
        <time>2021-05-16T08:35:52.000Z</time>
      </trkpt>
      <trkpt lat="47.25413" lon="-2.25852">
        <ele>19.799999237061</ele>
        <time>2021-05-16T08:35:53.000Z</time>
      </trkpt>
      <trkpt lat="47.25411" lon="-2.2585">
        <ele>19.39999961853</ele>
        <time>2021-05-16T08:35:54.000Z</time>
      </trkpt>
      <trkpt lat="47.25409" lon="-2.25849">
        <ele>19.39999961853</ele>
        <time>2021-05-16T08:35:55.000Z</time>
      </trkpt>
      <trkpt lat="47.25406" lon="-2.25849">
        <ele>19.39999961853</ele>
        <time>2021-05-16T08:35:57.000Z</time>
      </trkpt>
      <trkpt lat="47.25401" lon="-2.2586">
        <ele>19.39999961853</ele>
        <time>2021-05-16T08:36:05.000Z</time>
      </trkpt>
      <trkpt lat="47.25403" lon="-2.25865">
        <ele>19.39999961853</ele>
        <time>2021-05-16T08:36:07.000Z</time>
      </trkpt>
      <trkpt lat="47.25404" lon="-2.25885">
        <ele>19.39999961853</ele>
        <time>2021-05-16T08:36:12.000Z</time>
      </trkpt>
      <trkpt lat="47.25408" lon="-2.25913">
        <ele>19.39999961853</ele>
        <time>2021-05-16T08:36:17.000Z</time>
      </trkpt>
      <trkpt lat="47.25411" lon="-2.25947">
        <ele>19.39999961853</ele>
        <time>2021-05-16T08:36:23.000Z</time>
      </trkpt>
      <trkpt lat="47.25412" lon="-2.25955">
        <ele>19.39999961853</ele>
        <time>2021-05-16T08:36:27.000Z</time>
      </trkpt>
      <trkpt lat="47.25408" lon="-2.25962">
        <ele>19.39999961853</ele>
        <time>2021-05-16T08:36:46.000Z</time>
      </trkpt>
      <trkpt lat="47.25404" lon="-2.25974">
        <ele>19.39999961853</ele>
        <time>2021-05-16T08:36:50.000Z</time>
      </trkpt>
      <trkpt lat="47.25403" lon="-2.25987">
        <ele>19.799999237061</ele>
        <time>2021-05-16T08:36:54.000Z</time>
      </trkpt>
      <trkpt lat="47.25402" lon="-2.25988">
        <ele>20.200000762939</ele>
        <time>2021-05-16T08:36:55.000Z</time>
      </trkpt>
      <trkpt lat="47.25402" lon="-2.25989">
        <ele>20.60000038147</ele>
        <time>2021-05-16T08:36:56.000Z</time>
      </trkpt>
      <trkpt lat="47.254" lon="-2.25992">
        <ele>21.200000762939</ele>
        <time>2021-05-16T08:36:57.000Z</time>
      </trkpt>
      <trkpt lat="47.254" lon="-2.25992">
        <ele>21.60000038147</ele>
        <time>2021-05-16T08:36:58.000Z</time>
      </trkpt>
      <trkpt lat="47.25398" lon="-2.25994">
        <ele>22</ele>
        <time>2021-05-16T08:37:00.000Z</time>
      </trkpt>
      <trkpt lat="47.25396" lon="-2.25994">
        <ele>22.39999961853</ele>
        <time>2021-05-16T08:37:01.000Z</time>
      </trkpt>
      <trkpt lat="47.25394" lon="-2.25995">
        <ele>22.799999237061</ele>
        <time>2021-05-16T08:37:02.000Z</time>
      </trkpt>
      <trkpt lat="47.25393" lon="-2.25996">
        <ele>23.200000762939</ele>
        <time>2021-05-16T08:37:03.000Z</time>
      </trkpt>
      <trkpt lat="47.2539" lon="-2.25996">
        <ele>23.799999237061</ele>
        <time>2021-05-16T08:37:04.000Z</time>
      </trkpt>
      <trkpt lat="47.25389" lon="-2.25997">
        <ele>24.200000762939</ele>
        <time>2021-05-16T08:37:05.000Z</time>
      </trkpt>
      <trkpt lat="47.25387" lon="-2.25997">
        <ele>24.60000038147</ele>
        <time>2021-05-16T08:37:06.000Z</time>
      </trkpt>
      <trkpt lat="47.25385" lon="-2.25997">
        <ele>25.200000762939</ele>
        <time>2021-05-16T08:37:07.000Z</time>
      </trkpt>
      <trkpt lat="47.25383" lon="-2.25996">
        <ele>25.60000038147</ele>
        <time>2021-05-16T08:37:08.000Z</time>
      </trkpt>
      <trkpt lat="47.25382" lon="-2.25995">
        <ele>26</ele>
        <time>2021-05-16T08:37:09.000Z</time>
      </trkpt>
      <trkpt lat="47.25379" lon="-2.25992">
        <ele>26</ele>
        <time>2021-05-16T08:37:11.000Z</time>
      </trkpt>
      <trkpt lat="47.25378" lon="-2.2599">
        <ele>26</ele>
        <time>2021-05-16T08:37:12.000Z</time>
      </trkpt>
      <trkpt lat="47.25372" lon="-2.25987">
        <ele>26</ele>
        <time>2021-05-16T08:37:15.000Z</time>
      </trkpt>
      <trkpt lat="47.2537" lon="-2.25987">
        <ele>26.60000038147</ele>
        <time>2021-05-16T08:37:16.000Z</time>
      </trkpt>
      <trkpt lat="47.25368" lon="-2.25987">
        <ele>27</ele>
        <time>2021-05-16T08:37:17.000Z</time>
      </trkpt>
      <trkpt lat="47.25366" lon="-2.25984">
        <ele>27.799999237061</ele>
        <time>2021-05-16T08:37:18.000Z</time>
      </trkpt>
      <trkpt lat="47.25365" lon="-2.25982">
        <ele>28.200000762939</ele>
        <time>2021-05-16T08:37:19.000Z</time>
      </trkpt>
      <trkpt lat="47.25361" lon="-2.25975">
        <ele>28.200000762939</ele>
        <time>2021-05-16T08:37:21.000Z</time>
      </trkpt>
      <trkpt lat="47.2536" lon="-2.25956">
        <ele>28.200000762939</ele>
        <time>2021-05-16T08:37:25.000Z</time>
      </trkpt>
      <trkpt lat="47.25362" lon="-2.25935">
        <ele>28.200000762939</ele>
        <time>2021-05-16T08:37:31.000Z</time>
      </trkpt>
      <trkpt lat="47.25361" lon="-2.25924">
        <ele>28.200000762939</ele>
        <time>2021-05-16T08:37:36.000Z</time>
      </trkpt>
      <trkpt lat="47.25358" lon="-2.25913">
        <ele>28.200000762939</ele>
        <time>2021-05-16T08:37:43.000Z</time>
      </trkpt>
      <trkpt lat="47.25359" lon="-2.25902">
        <ele>28.200000762939</ele>
        <time>2021-05-16T08:37:50.000Z</time>
      </trkpt>
      <trkpt lat="47.25363" lon="-2.25898">
        <ele>28.200000762939</ele>
        <time>2021-05-16T08:37:53.000Z</time>
      </trkpt>
      <trkpt lat="47.25366" lon="-2.25893">
        <ele>28.200000762939</ele>
        <time>2021-05-16T08:37:55.000Z</time>
      </trkpt>
      <trkpt lat="47.2537" lon="-2.2589">
        <ele>27.60000038147</ele>
        <time>2021-05-16T08:37:56.000Z</time>
      </trkpt>
      <trkpt lat="47.25374" lon="-2.25889">
        <ele>27.200000762939</ele>
        <time>2021-05-16T08:37:57.000Z</time>
      </trkpt>
      <trkpt lat="47.25378" lon="-2.25888">
        <ele>26</ele>
        <time>2021-05-16T08:37:58.000Z</time>
      </trkpt>
      <trkpt lat="47.25381" lon="-2.25886">
        <ele>25</ele>
        <time>2021-05-16T08:37:59.000Z</time>
      </trkpt>
      <trkpt lat="47.25383" lon="-2.25884">
        <ele>24</ele>
        <time>2021-05-16T08:38:00.000Z</time>
      </trkpt>
      <trkpt lat="47.25384" lon="-2.25883">
        <ele>22.799999237061</ele>
        <time>2021-05-16T08:38:01.000Z</time>
      </trkpt>
      <trkpt lat="47.25385" lon="-2.25881">
        <ele>21.799999237061</ele>
        <time>2021-05-16T08:38:02.000Z</time>
      </trkpt>
      <trkpt lat="47.25385" lon="-2.25878">
        <ele>20.60000038147</ele>
        <time>2021-05-16T08:38:03.000Z</time>
      </trkpt>
      <trkpt lat="47.25385" lon="-2.25874">
        <ele>19.39999961853</ele>
        <time>2021-05-16T08:38:04.000Z</time>
      </trkpt>
      <trkpt lat="47.25385" lon="-2.25862">
        <ele>19.39999961853</ele>
        <time>2021-05-16T08:38:07.000Z</time>
      </trkpt>
      <trkpt lat="47.2538" lon="-2.25836">
        <ele>19.39999961853</ele>
        <time>2021-05-16T08:38:14.000Z</time>
      </trkpt>
      <trkpt lat="47.25378" lon="-2.25822">
        <ele>19.39999961853</ele>
        <time>2021-05-16T08:38:21.000Z</time>
      </trkpt>
      <trkpt lat="47.25378" lon="-2.2582">
        <ele>19.39999961853</ele>
        <time>2021-05-16T08:38:22.000Z</time>
      </trkpt>
      <trkpt lat="47.25377" lon="-2.25813">
        <ele>19.39999961853</ele>
        <time>2021-05-16T08:38:32.000Z</time>
      </trkpt>
      <trkpt lat="47.25376" lon="-2.25811">
        <ele>19.39999961853</ele>
        <time>2021-05-16T08:38:34.000Z</time>
      </trkpt>
      <trkpt lat="47.25371" lon="-2.25813">
        <ele>19.39999961853</ele>
        <time>2021-05-16T08:38:39.000Z</time>
      </trkpt>
      <trkpt lat="47.25357" lon="-2.25817">
        <ele>19.39999961853</ele>
        <time>2021-05-16T08:38:45.000Z</time>
      </trkpt>
      <trkpt lat="47.25352" lon="-2.25823">
        <ele>20</ele>
        <time>2021-05-16T08:38:48.000Z</time>
      </trkpt>
      <trkpt lat="47.25351" lon="-2.25825">
        <ele>20.39999961853</ele>
        <time>2021-05-16T08:38:49.000Z</time>
      </trkpt>
      <trkpt lat="47.2535" lon="-2.25827">
        <ele>20.799999237061</ele>
        <time>2021-05-16T08:38:50.000Z</time>
      </trkpt>
      <trkpt lat="47.25349" lon="-2.25829">
        <ele>21.200000762939</ele>
        <time>2021-05-16T08:38:51.000Z</time>
      </trkpt>
      <trkpt lat="47.25349" lon="-2.25831">
        <ele>21.60000038147</ele>
        <time>2021-05-16T08:38:52.000Z</time>
      </trkpt>
      <trkpt lat="47.25348" lon="-2.25834">
        <ele>22</ele>
        <time>2021-05-16T08:38:54.000Z</time>
      </trkpt>
      <trkpt lat="47.25347" lon="-2.25836">
        <ele>22.39999961853</ele>
        <time>2021-05-16T08:38:55.000Z</time>
      </trkpt>
      <trkpt lat="47.25346" lon="-2.25838">
        <ele>23.200000762939</ele>
        <time>2021-05-16T08:38:56.000Z</time>
      </trkpt>
      <trkpt lat="47.25345" lon="-2.25841">
        <ele>23.60000038147</ele>
        <time>2021-05-16T08:38:57.000Z</time>
      </trkpt>
      <trkpt lat="47.25344" lon="-2.25842">
        <ele>24.200000762939</ele>
        <time>2021-05-16T08:38:58.000Z</time>
      </trkpt>
      <trkpt lat="47.25344" lon="-2.25843">
        <ele>24.60000038147</ele>
        <time>2021-05-16T08:38:59.000Z</time>
      </trkpt>
      <trkpt lat="47.25342" lon="-2.25846">
        <ele>25.200000762939</ele>
        <time>2021-05-16T08:39:00.000Z</time>
      </trkpt>
      <trkpt lat="47.25342" lon="-2.25847">
        <ele>25.60000038147</ele>
        <time>2021-05-16T08:39:01.000Z</time>
      </trkpt>
      <trkpt lat="47.25341" lon="-2.25848">
        <ele>26</ele>
        <time>2021-05-16T08:39:02.000Z</time>
      </trkpt>
      <trkpt lat="47.2534" lon="-2.25849">
        <ele>26</ele>
        <time>2021-05-16T08:39:03.000Z</time>
      </trkpt>
      <trkpt lat="47.25339" lon="-2.25851">
        <ele>26.39999961853</ele>
        <time>2021-05-16T08:39:04.000Z</time>
      </trkpt>
      <trkpt lat="47.25338" lon="-2.25851">
        <ele>26.799999237061</ele>
        <time>2021-05-16T08:39:05.000Z</time>
      </trkpt>
      <trkpt lat="47.25338" lon="-2.25845">
        <ele>28.200000762939</ele>
        <time>2021-05-16T08:39:46.000Z</time>
      </trkpt>
      <trkpt lat="47.25338" lon="-2.25842">
        <ele>28.200000762939</ele>
        <time>2021-05-16T08:39:48.000Z</time>
      </trkpt>
      <trkpt lat="47.25339" lon="-2.25839">
        <ele>28.200000762939</ele>
        <time>2021-05-16T08:39:50.000Z</time>
      </trkpt>
      <trkpt lat="47.2534" lon="-2.25835">
        <ele>28.200000762939</ele>
        <time>2021-05-16T08:40:10.000Z</time>
      </trkpt>
      <trkpt lat="47.25341" lon="-2.25833">
        <ele>27.799999237061</ele>
        <time>2021-05-16T08:40:11.000Z</time>
      </trkpt>
      <trkpt lat="47.25341" lon="-2.25829">
        <ele>27.200000762939</ele>
        <time>2021-05-16T08:40:12.000Z</time>
      </trkpt>
      <trkpt lat="47.25342" lon="-2.25823">
        <ele>26.799999237061</ele>
        <time>2021-05-16T08:40:13.000Z</time>
      </trkpt>
      <trkpt lat="47.25342" lon="-2.2582">
        <ele>26.39999961853</ele>
        <time>2021-05-16T08:40:14.000Z</time>
      </trkpt>
      <trkpt lat="47.25342" lon="-2.25816">
        <ele>26</ele>
        <time>2021-05-16T08:40:15.000Z</time>
      </trkpt>
      <trkpt lat="47.25342" lon="-2.25807">
        <ele>26</ele>
        <time>2021-05-16T08:40:18.000Z</time>
      </trkpt>
      <trkpt lat="47.25345" lon="-2.25786">
        <ele>26</ele>
        <time>2021-05-16T08:40:24.000Z</time>
      </trkpt>
      <trkpt lat="47.25346" lon="-2.25764">
        <ele>26</ele>
        <time>2021-05-16T08:40:29.000Z</time>
      </trkpt>
      <trkpt lat="47.25348" lon="-2.25739">
        <ele>26</ele>
        <time>2021-05-16T08:40:35.000Z</time>
      </trkpt>
      <trkpt lat="47.25347" lon="-2.25705">
        <ele>26</ele>
        <time>2021-05-16T08:40:42.000Z</time>
      </trkpt>
      <trkpt lat="47.25345" lon="-2.25674">
        <ele>26</ele>
        <time>2021-05-16T08:40:48.000Z</time>
      </trkpt>
      <trkpt lat="47.25344" lon="-2.25642">
        <ele>26</ele>
        <time>2021-05-16T08:40:53.000Z</time>
      </trkpt>
      <trkpt lat="47.25336" lon="-2.25613">
        <ele>26</ele>
        <time>2021-05-16T08:40:59.000Z</time>
      </trkpt>
      <trkpt lat="47.25331" lon="-2.25577">
        <ele>26</ele>
        <time>2021-05-16T08:41:05.000Z</time>
      </trkpt>
      <trkpt lat="47.25328" lon="-2.25557">
        <ele>26</ele>
        <time>2021-05-16T08:41:08.000Z</time>
      </trkpt>
      <trkpt lat="47.25326" lon="-2.25534">
        <ele>26</ele>
        <time>2021-05-16T08:41:11.000Z</time>
      </trkpt>
      <trkpt lat="47.25325" lon="-2.25524">
        <ele>25.60000038147</ele>
        <time>2021-05-16T08:41:12.000Z</time>
      </trkpt>
      <trkpt lat="47.25325" lon="-2.25516">
        <ele>25.200000762939</ele>
        <time>2021-05-16T08:41:13.000Z</time>
      </trkpt>
      <trkpt lat="47.25324" lon="-2.25508">
        <ele>24.799999237061</ele>
        <time>2021-05-16T08:41:14.000Z</time>
      </trkpt>
      <trkpt lat="47.25324" lon="-2.25501">
        <ele>24.39999961853</ele>
        <time>2021-05-16T08:41:15.000Z</time>
      </trkpt>
      <trkpt lat="47.25323" lon="-2.25492">
        <ele>24</ele>
        <time>2021-05-16T08:41:16.000Z</time>
      </trkpt>
      <trkpt lat="47.25323" lon="-2.25483">
        <ele>23.60000038147</ele>
        <time>2021-05-16T08:41:17.000Z</time>
      </trkpt>
      <trkpt lat="47.25323" lon="-2.25475">
        <ele>23.200000762939</ele>
        <time>2021-05-16T08:41:18.000Z</time>
      </trkpt>
      <trkpt lat="47.25322" lon="-2.25467">
        <ele>22.60000038147</ele>
        <time>2021-05-16T08:41:19.000Z</time>
      </trkpt>
      <trkpt lat="47.25322" lon="-2.25459">
        <ele>22</ele>
        <time>2021-05-16T08:41:20.000Z</time>
      </trkpt>
      <trkpt lat="47.25322" lon="-2.25453">
        <ele>21.39999961853</ele>
        <time>2021-05-16T08:41:21.000Z</time>
      </trkpt>
      <trkpt lat="47.25322" lon="-2.25447">
        <ele>20.799999237061</ele>
        <time>2021-05-16T08:41:22.000Z</time>
      </trkpt>
      <trkpt lat="47.25321" lon="-2.25442">
        <ele>19.39999961853</ele>
        <time>2021-05-16T08:41:23.000Z</time>
      </trkpt>
      <trkpt lat="47.25321" lon="-2.2544">
        <ele>18.60000038147</ele>
        <time>2021-05-16T08:41:24.000Z</time>
      </trkpt>
      <trkpt lat="47.2532" lon="-2.25438">
        <ele>17.799999237061</ele>
        <time>2021-05-16T08:41:25.000Z</time>
      </trkpt>
      <trkpt lat="47.2532" lon="-2.25433">
        <ele>17.200000762939</ele>
        <time>2021-05-16T08:41:26.000Z</time>
      </trkpt>
      <trkpt lat="47.2532" lon="-2.2543">
        <ele>16.60000038147</ele>
        <time>2021-05-16T08:41:27.000Z</time>
      </trkpt>
      <trkpt lat="47.25321" lon="-2.25428">
        <ele>16.200000762939</ele>
        <time>2021-05-16T08:41:28.000Z</time>
      </trkpt>
      <trkpt lat="47.25322" lon="-2.25427">
        <ele>15.800000190735</ele>
        <time>2021-05-16T08:41:29.000Z</time>
      </trkpt>
      <trkpt lat="47.25324" lon="-2.25427">
        <ele>15.199999809265</ele>
        <time>2021-05-16T08:41:30.000Z</time>
      </trkpt>
      <trkpt lat="47.25326" lon="-2.25426">
        <ele>14.800000190735</ele>
        <time>2021-05-16T08:41:31.000Z</time>
      </trkpt>
      <trkpt lat="47.25329" lon="-2.25426">
        <ele>14.199999809265</ele>
        <time>2021-05-16T08:41:32.000Z</time>
      </trkpt>
      <trkpt lat="47.25333" lon="-2.25421">
        <ele>13.800000190735</ele>
        <time>2021-05-16T08:41:33.000Z</time>
      </trkpt>
      <trkpt lat="47.25335" lon="-2.25418">
        <ele>13.199999809265</ele>
        <time>2021-05-16T08:41:34.000Z</time>
      </trkpt>
      <trkpt lat="47.25337" lon="-2.25416">
        <ele>12.60000038147</ele>
        <time>2021-05-16T08:41:35.000Z</time>
      </trkpt>
      <trkpt lat="47.25338" lon="-2.25413">
        <ele>12.199999809265</ele>
        <time>2021-05-16T08:41:36.000Z</time>
      </trkpt>
      <trkpt lat="47.25339" lon="-2.25411">
        <ele>11.60000038147</ele>
        <time>2021-05-16T08:41:37.000Z</time>
      </trkpt>
      <trkpt lat="47.25339" lon="-2.25409">
        <ele>11.199999809265</ele>
        <time>2021-05-16T08:41:38.000Z</time>
      </trkpt>
      <trkpt lat="47.2534" lon="-2.25407">
        <ele>10.60000038147</ele>
        <time>2021-05-16T08:41:39.000Z</time>
      </trkpt>
      <trkpt lat="47.25342" lon="-2.25405">
        <ele>10.60000038147</ele>
        <time>2021-05-16T08:41:41.000Z</time>
      </trkpt>
      <trkpt lat="47.25348" lon="-2.254">
        <ele>10.60000038147</ele>
        <time>2021-05-16T08:41:53.000Z</time>
      </trkpt>
      <trkpt lat="47.25354" lon="-2.25393">
        <ele>10.60000038147</ele>
        <time>2021-05-16T08:41:56.000Z</time>
      </trkpt>
      <trkpt lat="47.25368" lon="-2.25383">
        <ele>10.60000038147</ele>
        <time>2021-05-16T08:42:02.000Z</time>
      </trkpt>
      <trkpt lat="47.25377" lon="-2.25379">
        <ele>10.60000038147</ele>
        <time>2021-05-16T08:42:07.000Z</time>
      </trkpt>
      <trkpt lat="47.25382" lon="-2.25377">
        <ele>10.60000038147</ele>
        <time>2021-05-16T08:42:12.000Z</time>
      </trkpt>
      <trkpt lat="47.25388" lon="-2.25381">
        <ele>10.60000038147</ele>
        <time>2021-05-16T08:42:31.000Z</time>
      </trkpt>
      <trkpt lat="47.2539" lon="-2.25388">
        <ele>10.60000038147</ele>
        <time>2021-05-16T08:42:34.000Z</time>
      </trkpt>
      <trkpt lat="47.25394" lon="-2.25391">
        <ele>10.60000038147</ele>
        <time>2021-05-16T08:42:36.000Z</time>
      </trkpt>
      <trkpt lat="47.25405" lon="-2.25397">
        <ele>11</ele>
        <time>2021-05-16T08:42:41.000Z</time>
      </trkpt>
      <trkpt lat="47.25407" lon="-2.25398">
        <ele>11.39999961853</ele>
        <time>2021-05-16T08:42:42.000Z</time>
      </trkpt>
      <trkpt lat="47.25409" lon="-2.254">
        <ele>11.800000190735</ele>
        <time>2021-05-16T08:42:43.000Z</time>
      </trkpt>
      <trkpt lat="47.25411" lon="-2.25401">
        <ele>12.199999809265</ele>
        <time>2021-05-16T08:42:44.000Z</time>
      </trkpt>
      <trkpt lat="47.25413" lon="-2.25402">
        <ele>12.60000038147</ele>
        <time>2021-05-16T08:42:45.000Z</time>
      </trkpt>
      <trkpt lat="47.25421" lon="-2.25405">
        <ele>12.60000038147</ele>
        <time>2021-05-16T08:42:49.000Z</time>
      </trkpt>
      <trkpt lat="47.25425" lon="-2.25408">
        <ele>13</ele>
        <time>2021-05-16T08:42:51.000Z</time>
      </trkpt>
      <trkpt lat="47.25428" lon="-2.25409">
        <ele>13.60000038147</ele>
        <time>2021-05-16T08:42:52.000Z</time>
      </trkpt>
      <trkpt lat="47.2543" lon="-2.25409">
        <ele>14</ele>
        <time>2021-05-16T08:42:53.000Z</time>
      </trkpt>
      <trkpt lat="47.25431" lon="-2.25408">
        <ele>14.39999961853</ele>
        <time>2021-05-16T08:42:54.000Z</time>
      </trkpt>
      <trkpt lat="47.25432" lon="-2.25407">
        <ele>14.800000190735</ele>
        <time>2021-05-16T08:42:55.000Z</time>
      </trkpt>
      <trkpt lat="47.25434" lon="-2.25402">
        <ele>14.800000190735</ele>
        <time>2021-05-16T08:42:57.000Z</time>
      </trkpt>
      <trkpt lat="47.25435" lon="-2.25399">
        <ele>14.800000190735</ele>
        <time>2021-05-16T08:42:59.000Z</time>
      </trkpt>
      <trkpt lat="47.25437" lon="-2.25397">
        <ele>15.199999809265</ele>
        <time>2021-05-16T08:43:03.000Z</time>
      </trkpt>
      <trkpt lat="47.25439" lon="-2.25398">
        <ele>16</ele>
        <time>2021-05-16T08:43:04.000Z</time>
      </trkpt>
      <trkpt lat="47.2544" lon="-2.25399">
        <ele>16.39999961853</ele>
        <time>2021-05-16T08:43:05.000Z</time>
      </trkpt>
      <trkpt lat="47.25442" lon="-2.254">
        <ele>16.799999237061</ele>
        <time>2021-05-16T08:43:06.000Z</time>
      </trkpt>
      <trkpt lat="47.25448" lon="-2.25403">
        <ele>16.799999237061</ele>
        <time>2021-05-16T08:43:11.000Z</time>
      </trkpt>
      <trkpt lat="47.25451" lon="-2.25405">
        <ele>17.200000762939</ele>
        <time>2021-05-16T08:43:17.000Z</time>
      </trkpt>
      <trkpt lat="47.25452" lon="-2.25404">
        <ele>17.799999237061</ele>
        <time>2021-05-16T08:43:18.000Z</time>
      </trkpt>
      <trkpt lat="47.25453" lon="-2.25403">
        <ele>18.200000762939</ele>
        <time>2021-05-16T08:43:19.000Z</time>
      </trkpt>
      <trkpt lat="47.25455" lon="-2.25401">
        <ele>18.60000038147</ele>
        <time>2021-05-16T08:43:20.000Z</time>
      </trkpt>
      <trkpt lat="47.25457" lon="-2.25401">
        <ele>19</ele>
        <time>2021-05-16T08:43:21.000Z</time>
      </trkpt>
      <trkpt lat="47.25462" lon="-2.254">
        <ele>19</ele>
        <time>2021-05-16T08:43:23.000Z</time>
      </trkpt>
      <trkpt lat="47.25472" lon="-2.25401">
        <ele>19.39999961853</ele>
        <time>2021-05-16T08:43:27.000Z</time>
      </trkpt>
      <trkpt lat="47.25474" lon="-2.25403">
        <ele>19.799999237061</ele>
        <time>2021-05-16T08:43:28.000Z</time>
      </trkpt>
      <trkpt lat="47.25476" lon="-2.25405">
        <ele>20.60000038147</ele>
        <time>2021-05-16T08:43:29.000Z</time>
      </trkpt>
      <trkpt lat="47.25478" lon="-2.25406">
        <ele>21</ele>
        <time>2021-05-16T08:43:30.000Z</time>
      </trkpt>
      <trkpt lat="47.25487" lon="-2.25414">
        <ele>21</ele>
        <time>2021-05-16T08:43:35.000Z</time>
      </trkpt>
      <trkpt lat="47.2549" lon="-2.25423">
        <ele>21.39999961853</ele>
        <time>2021-05-16T08:43:38.000Z</time>
      </trkpt>
      <trkpt lat="47.25491" lon="-2.25425">
        <ele>21.799999237061</ele>
        <time>2021-05-16T08:43:39.000Z</time>
      </trkpt>
      <trkpt lat="47.25492" lon="-2.25427">
        <ele>22.200000762939</ele>
        <time>2021-05-16T08:43:40.000Z</time>
      </trkpt>
      <trkpt lat="47.25493" lon="-2.25429">
        <ele>22.799999237061</ele>
        <time>2021-05-16T08:43:41.000Z</time>
      </trkpt>
      <trkpt lat="47.25495" lon="-2.25432">
        <ele>23.200000762939</ele>
        <time>2021-05-16T08:43:42.000Z</time>
      </trkpt>
      <trkpt lat="47.25501" lon="-2.25452">
        <ele>23.200000762939</ele>
        <time>2021-05-16T08:43:48.000Z</time>
      </trkpt>
      <trkpt lat="47.25504" lon="-2.25464">
        <ele>23.60000038147</ele>
        <time>2021-05-16T08:43:52.000Z</time>
      </trkpt>
      <trkpt lat="47.25504" lon="-2.25468">
        <ele>24.39999961853</ele>
        <time>2021-05-16T08:43:53.000Z</time>
      </trkpt>
      <trkpt lat="47.25504" lon="-2.25471">
        <ele>24.799999237061</ele>
        <time>2021-05-16T08:43:54.000Z</time>
      </trkpt>
      <trkpt lat="47.25505" lon="-2.25474">
        <ele>25.200000762939</ele>
        <time>2021-05-16T08:43:55.000Z</time>
      </trkpt>
      <trkpt lat="47.25507" lon="-2.25492">
        <ele>25.200000762939</ele>
        <time>2021-05-16T08:44:00.000Z</time>
      </trkpt>
      <trkpt lat="47.25513" lon="-2.25511">
        <ele>25.200000762939</ele>
        <time>2021-05-16T08:44:07.000Z</time>
      </trkpt>
      <trkpt lat="47.25516" lon="-2.25527">
        <ele>25.200000762939</ele>
        <time>2021-05-16T08:44:14.000Z</time>
      </trkpt>
      <trkpt lat="47.25516" lon="-2.25544">
        <ele>25.200000762939</ele>
        <time>2021-05-16T08:44:22.000Z</time>
      </trkpt>
      <trkpt lat="47.25517" lon="-2.25548">
        <ele>25.60000038147</ele>
        <time>2021-05-16T08:44:24.000Z</time>
      </trkpt>
      <trkpt lat="47.25518" lon="-2.2555">
        <ele>26</ele>
        <time>2021-05-16T08:44:25.000Z</time>
      </trkpt>
      <trkpt lat="47.25518" lon="-2.25551">
        <ele>26.39999961853</ele>
        <time>2021-05-16T08:44:26.000Z</time>
      </trkpt>
      <trkpt lat="47.2552" lon="-2.25543">
        <ele>27.200000762939</ele>
        <time>2021-05-16T08:44:33.000Z</time>
      </trkpt>
      <trkpt lat="47.25517" lon="-2.25535">
        <ele>27.200000762939</ele>
        <time>2021-05-16T08:44:38.000Z</time>
      </trkpt>
      <trkpt lat="47.25515" lon="-2.25546">
        <ele>27.200000762939</ele>
        <time>2021-05-16T08:44:43.000Z</time>
      </trkpt>
      <trkpt lat="47.25521" lon="-2.25557">
        <ele>27.200000762939</ele>
        <time>2021-05-16T08:44:47.000Z</time>
      </trkpt>
      <trkpt lat="47.25522" lon="-2.25558">
        <ele>27.200000762939</ele>
        <time>2021-05-16T08:44:48.000Z</time>
      </trkpt>
      <trkpt lat="47.25522" lon="-2.25562">
        <ele>27.200000762939</ele>
        <time>2021-05-16T08:44:51.000Z</time>
      </trkpt>
      <trkpt lat="47.25522" lon="-2.25565">
        <ele>27.200000762939</ele>
        <time>2021-05-16T08:45:02.000Z</time>
      </trkpt>
      <trkpt lat="47.2552" lon="-2.25579">
        <ele>27.200000762939</ele>
        <time>2021-05-16T08:45:06.000Z</time>
      </trkpt>
      <trkpt lat="47.25509" lon="-2.25599">
        <ele>27.200000762939</ele>
        <time>2021-05-16T08:45:11.000Z</time>
      </trkpt>
      <trkpt lat="47.25492" lon="-2.25628">
        <ele>26.799999237061</ele>
        <time>2021-05-16T08:45:16.000Z</time>
      </trkpt>
      <trkpt lat="47.25488" lon="-2.25635">
        <ele>26.39999961853</ele>
        <time>2021-05-16T08:45:17.000Z</time>
      </trkpt>
      <trkpt lat="47.25484" lon="-2.25641">
        <ele>26</ele>
        <time>2021-05-16T08:45:18.000Z</time>
      </trkpt>
      <trkpt lat="47.2548" lon="-2.25647">
        <ele>25.60000038147</ele>
        <time>2021-05-16T08:45:19.000Z</time>
      </trkpt>
      <trkpt lat="47.25477" lon="-2.25652">
        <ele>25.200000762939</ele>
        <time>2021-05-16T08:45:20.000Z</time>
      </trkpt>
      <trkpt lat="47.25474" lon="-2.25656">
        <ele>24.60000038147</ele>
        <time>2021-05-16T08:45:21.000Z</time>
      </trkpt>
      <trkpt lat="47.25472" lon="-2.25658">
        <ele>24.200000762939</ele>
        <time>2021-05-16T08:45:22.000Z</time>
      </trkpt>
      <trkpt lat="47.2547" lon="-2.2566">
        <ele>23.60000038147</ele>
        <time>2021-05-16T08:45:23.000Z</time>
      </trkpt>
      <trkpt lat="47.25469" lon="-2.25662">
        <ele>23.200000762939</ele>
        <time>2021-05-16T08:45:24.000Z</time>
      </trkpt>
      <trkpt lat="47.25467" lon="-2.25664">
        <ele>22.60000038147</ele>
        <time>2021-05-16T08:45:25.000Z</time>
      </trkpt>
      <trkpt lat="47.25464" lon="-2.25671">
        <ele>22.60000038147</ele>
        <time>2021-05-16T08:45:31.000Z</time>
      </trkpt>
      <trkpt lat="47.25463" lon="-2.25672">
        <ele>20.60000038147</ele>
        <time>2021-05-16T08:45:37.000Z</time>
      </trkpt>
      <trkpt lat="47.25459" lon="-2.25678">
        <ele>20.60000038147</ele>
        <time>2021-05-16T08:45:41.000Z</time>
      </trkpt>
      <trkpt lat="47.25455" lon="-2.25691">
        <ele>20.60000038147</ele>
        <time>2021-05-16T08:45:45.000Z</time>
      </trkpt>
      <trkpt lat="47.25452" lon="-2.25703">
        <ele>20.200000762939</ele>
        <time>2021-05-16T08:45:48.000Z</time>
      </trkpt>
      <trkpt lat="47.25451" lon="-2.25706">
        <ele>19.799999237061</ele>
        <time>2021-05-16T08:45:49.000Z</time>
      </trkpt>
      <trkpt lat="47.2545" lon="-2.2571">
        <ele>19.39999961853</ele>
        <time>2021-05-16T08:45:50.000Z</time>
      </trkpt>
      <trkpt lat="47.25449" lon="-2.25713">
        <ele>19</ele>
        <time>2021-05-16T08:45:51.000Z</time>
      </trkpt>
      <trkpt lat="47.25448" lon="-2.25717">
        <ele>18.60000038147</ele>
        <time>2021-05-16T08:45:52.000Z</time>
      </trkpt>
      <trkpt lat="47.25442" lon="-2.25726">
        <ele>18.60000038147</ele>
        <time>2021-05-16T08:45:55.000Z</time>
      </trkpt>
      <trkpt lat="47.25437" lon="-2.25737">
        <ele>18.60000038147</ele>
        <time>2021-05-16T08:45:58.000Z</time>
      </trkpt>
      <trkpt lat="47.25436" lon="-2.25746">
        <ele>18.60000038147</ele>
        <time>2021-05-16T08:46:00.000Z</time>
      </trkpt>
      <trkpt lat="47.25433" lon="-2.25768">
        <ele>18.60000038147</ele>
        <time>2021-05-16T08:46:05.000Z</time>
      </trkpt>
      <trkpt lat="47.25433" lon="-2.2579">
        <ele>18.60000038147</ele>
        <time>2021-05-16T08:46:10.000Z</time>
      </trkpt>
      <trkpt lat="47.25428" lon="-2.25811">
        <ele>18.60000038147</ele>
        <time>2021-05-16T08:46:16.000Z</time>
      </trkpt>
      <trkpt lat="47.25428" lon="-2.25814">
        <ele>18.60000038147</ele>
        <time>2021-05-16T08:46:17.000Z</time>
      </trkpt>
      <trkpt lat="47.25426" lon="-2.25834">
        <ele>18.60000038147</ele>
        <time>2021-05-16T08:46:22.000Z</time>
      </trkpt>
      <trkpt lat="47.25427" lon="-2.25869">
        <ele>19</ele>
        <time>2021-05-16T08:46:27.000Z</time>
      </trkpt>
      <trkpt lat="47.25427" lon="-2.25874">
        <ele>19.39999961853</ele>
        <time>2021-05-16T08:46:28.000Z</time>
      </trkpt>
      <trkpt lat="47.25427" lon="-2.25882">
        <ele>19.799999237061</ele>
        <time>2021-05-16T08:46:29.000Z</time>
      </trkpt>
      <trkpt lat="47.25428" lon="-2.25886">
        <ele>20.200000762939</ele>
        <time>2021-05-16T08:46:30.000Z</time>
      </trkpt>
      <trkpt lat="47.25429" lon="-2.2589">
        <ele>20.799999237061</ele>
        <time>2021-05-16T08:46:31.000Z</time>
      </trkpt>
      <trkpt lat="47.25429" lon="-2.25909">
        <ele>20.799999237061</ele>
        <time>2021-05-16T08:46:35.000Z</time>
      </trkpt>
      <trkpt lat="47.25428" lon="-2.25912">
        <ele>20.799999237061</ele>
        <time>2021-05-16T08:46:36.000Z</time>
      </trkpt>
      <trkpt lat="47.25424" lon="-2.2592">
        <ele>20.799999237061</ele>
        <time>2021-05-16T08:46:39.000Z</time>
      </trkpt>
      <trkpt lat="47.25417" lon="-2.25925">
        <ele>20.799999237061</ele>
        <time>2021-05-16T08:46:41.000Z</time>
      </trkpt>
      <trkpt lat="47.25406" lon="-2.25957">
        <ele>20.799999237061</ele>
        <time>2021-05-16T08:46:46.000Z</time>
      </trkpt>
      <trkpt lat="47.254" lon="-2.25975">
        <ele>20.799999237061</ele>
        <time>2021-05-16T08:46:51.000Z</time>
      </trkpt>
      <trkpt lat="47.25401" lon="-2.25985">
        <ele>20.799999237061</ele>
        <time>2021-05-16T08:46:56.000Z</time>
      </trkpt>
      <trkpt lat="47.254" lon="-2.25989">
        <ele>20.799999237061</ele>
        <time>2021-05-16T08:46:58.000Z</time>
      </trkpt>
      <trkpt lat="47.25396" lon="-2.25995">
        <ele>20.799999237061</ele>
        <time>2021-05-16T08:47:02.000Z</time>
      </trkpt>
      <trkpt lat="47.25396" lon="-2.25998">
        <ele>20.799999237061</ele>
        <time>2021-05-16T08:47:03.000Z</time>
      </trkpt>
      <trkpt lat="47.25395" lon="-2.26007">
        <ele>21.200000762939</ele>
        <time>2021-05-16T08:47:07.000Z</time>
      </trkpt>
      <trkpt lat="47.25395" lon="-2.26009">
        <ele>21.60000038147</ele>
        <time>2021-05-16T08:47:08.000Z</time>
      </trkpt>
      <trkpt lat="47.25396" lon="-2.26012">
        <ele>22</ele>
        <time>2021-05-16T08:47:09.000Z</time>
      </trkpt>
      <trkpt lat="47.25395" lon="-2.26014">
        <ele>22.39999961853</ele>
        <time>2021-05-16T08:47:10.000Z</time>
      </trkpt>
      <trkpt lat="47.25395" lon="-2.26016">
        <ele>23</ele>
        <time>2021-05-16T08:47:11.000Z</time>
      </trkpt>
      <trkpt lat="47.25393" lon="-2.2602">
        <ele>23.39999961853</ele>
        <time>2021-05-16T08:47:12.000Z</time>
      </trkpt>
      <trkpt lat="47.25392" lon="-2.26023">
        <ele>23.799999237061</ele>
        <time>2021-05-16T08:47:13.000Z</time>
      </trkpt>
      <trkpt lat="47.25391" lon="-2.26026">
        <ele>24.39999961853</ele>
        <time>2021-05-16T08:47:14.000Z</time>
      </trkpt>
      <trkpt lat="47.25389" lon="-2.26028">
        <ele>24.799999237061</ele>
        <time>2021-05-16T08:47:15.000Z</time>
      </trkpt>
      <trkpt lat="47.25388" lon="-2.2603">
        <ele>25.200000762939</ele>
        <time>2021-05-16T08:47:16.000Z</time>
      </trkpt>
      <trkpt lat="47.25386" lon="-2.26052">
        <ele>25.200000762939</ele>
        <time>2021-05-16T08:47:22.000Z</time>
      </trkpt>
      <trkpt lat="47.25389" lon="-2.26084">
        <ele>25.200000762939</ele>
        <time>2021-05-16T08:47:28.000Z</time>
      </trkpt>
      <trkpt lat="47.25389" lon="-2.26087">
        <ele>25.200000762939</ele>
        <time>2021-05-16T08:47:29.000Z</time>
      </trkpt>
      <trkpt lat="47.25391" lon="-2.26101">
        <ele>25.200000762939</ele>
        <time>2021-05-16T08:47:33.000Z</time>
      </trkpt>
      <trkpt lat="47.25387" lon="-2.26115">
        <ele>25.200000762939</ele>
        <time>2021-05-16T08:47:38.000Z</time>
      </trkpt>
      <trkpt lat="47.25385" lon="-2.26116">
        <ele>25.799999237061</ele>
        <time>2021-05-16T08:47:39.000Z</time>
      </trkpt>
      <trkpt lat="47.25383" lon="-2.26117">
        <ele>26.200000762939</ele>
        <time>2021-05-16T08:47:40.000Z</time>
      </trkpt>
      <trkpt lat="47.25382" lon="-2.26119">
        <ele>26.799999237061</ele>
        <time>2021-05-16T08:47:41.000Z</time>
      </trkpt>
      <trkpt lat="47.25381" lon="-2.26121">
        <ele>27.200000762939</ele>
        <time>2021-05-16T08:47:42.000Z</time>
      </trkpt>
      <trkpt lat="47.2538" lon="-2.26123">
        <ele>27.60000038147</ele>
        <time>2021-05-16T08:47:43.000Z</time>
      </trkpt>
      <trkpt lat="47.2538" lon="-2.26126">
        <ele>27.60000038147</ele>
        <time>2021-05-16T08:47:45.000Z</time>
      </trkpt>
      <trkpt lat="47.25377" lon="-2.26134">
        <ele>28.200000762939</ele>
        <time>2021-05-16T08:47:50.000Z</time>
      </trkpt>
      <trkpt lat="47.25375" lon="-2.26135">
        <ele>28.60000038147</ele>
        <time>2021-05-16T08:47:51.000Z</time>
      </trkpt>
      <trkpt lat="47.25374" lon="-2.26135">
        <ele>29</ele>
        <time>2021-05-16T08:47:52.000Z</time>
      </trkpt>
      <trkpt lat="47.25374" lon="-2.26136">
        <ele>29.39999961853</ele>
        <time>2021-05-16T08:47:53.000Z</time>
      </trkpt>
      <trkpt lat="47.25373" lon="-2.26136">
        <ele>29.799999237061</ele>
        <time>2021-05-16T08:47:54.000Z</time>
      </trkpt>
      <trkpt lat="47.2537" lon="-2.26142">
        <ele>29.799999237061</ele>
        <time>2021-05-16T08:47:59.000Z</time>
      </trkpt>
      <trkpt lat="47.25367" lon="-2.26144">
        <ele>29.799999237061</ele>
        <time>2021-05-16T08:48:01.000Z</time>
      </trkpt>
      <trkpt lat="47.25358" lon="-2.26147">
        <ele>29.799999237061</ele>
        <time>2021-05-16T08:48:08.000Z</time>
      </trkpt>
      <trkpt lat="47.25354" lon="-2.26148">
        <ele>29.799999237061</ele>
        <time>2021-05-16T08:48:11.000Z</time>
      </trkpt>
      <trkpt lat="47.25353" lon="-2.26148">
        <ele>30.200000762939</ele>
        <time>2021-05-16T08:48:12.000Z</time>
      </trkpt>
      <trkpt lat="47.25351" lon="-2.26148">
        <ele>30.60000038147</ele>
        <time>2021-05-16T08:48:13.000Z</time>
      </trkpt>
      <trkpt lat="47.2535" lon="-2.26149">
        <ele>31</ele>
        <time>2021-05-16T08:48:14.000Z</time>
      </trkpt>
      <trkpt lat="47.25348" lon="-2.26149">
        <ele>31.39999961853</ele>
        <time>2021-05-16T08:48:15.000Z</time>
      </trkpt>
      <trkpt lat="47.25347" lon="-2.2615">
        <ele>31.799999237061</ele>
        <time>2021-05-16T08:48:16.000Z</time>
      </trkpt>
      <trkpt lat="47.25346" lon="-2.26151">
        <ele>31.799999237061</ele>
        <time>2021-05-16T08:48:17.000Z</time>
      </trkpt>
      <trkpt lat="47.25345" lon="-2.26152">
        <ele>31.799999237061</ele>
        <time>2021-05-16T08:48:19.000Z</time>
      </trkpt>
      <trkpt lat="47.25343" lon="-2.26163">
        <ele>31.799999237061</ele>
        <time>2021-05-16T08:48:25.000Z</time>
      </trkpt>
      <trkpt lat="47.25342" lon="-2.26165">
        <ele>32.200000762939</ele>
        <time>2021-05-16T08:48:26.000Z</time>
      </trkpt>
      <trkpt lat="47.25341" lon="-2.26166">
        <ele>32.599998474121</ele>
        <time>2021-05-16T08:48:27.000Z</time>
      </trkpt>
      <trkpt lat="47.2534" lon="-2.26167">
        <ele>33</ele>
        <time>2021-05-16T08:48:28.000Z</time>
      </trkpt>
      <trkpt lat="47.25339" lon="-2.26168">
        <ele>33.400001525879</ele>
        <time>2021-05-16T08:48:29.000Z</time>
      </trkpt>
      <trkpt lat="47.25338" lon="-2.26161">
        <ele>33.799999237061</ele>
        <time>2021-05-16T08:48:34.000Z</time>
      </trkpt>
      <trkpt lat="47.2534" lon="-2.26157">
        <ele>33.799999237061</ele>
        <time>2021-05-16T08:48:36.000Z</time>
      </trkpt>
      <trkpt lat="47.25344" lon="-2.26152">
        <ele>33.799999237061</ele>
        <time>2021-05-16T08:48:41.000Z</time>
      </trkpt>
      <trkpt lat="47.25346" lon="-2.26151">
        <ele>33.400001525879</ele>
        <time>2021-05-16T08:48:42.000Z</time>
      </trkpt>
      <trkpt lat="47.25348" lon="-2.26151">
        <ele>33</ele>
        <time>2021-05-16T08:48:43.000Z</time>
      </trkpt>
      <trkpt lat="47.25351" lon="-2.26152">
        <ele>32.599998474121</ele>
        <time>2021-05-16T08:48:44.000Z</time>
      </trkpt>
      <trkpt lat="47.25354" lon="-2.26153">
        <ele>32.200000762939</ele>
        <time>2021-05-16T08:48:45.000Z</time>
      </trkpt>
      <trkpt lat="47.25356" lon="-2.26155">
        <ele>31.799999237061</ele>
        <time>2021-05-16T08:48:46.000Z</time>
      </trkpt>
      <trkpt lat="47.25359" lon="-2.26157">
        <ele>31.799999237061</ele>
        <time>2021-05-16T08:48:47.000Z</time>
      </trkpt>
      <trkpt lat="47.25368" lon="-2.2617">
        <ele>31.799999237061</ele>
        <time>2021-05-16T08:48:51.000Z</time>
      </trkpt>
      <trkpt lat="47.25376" lon="-2.26197">
        <ele>31.799999237061</ele>
        <time>2021-05-16T08:48:57.000Z</time>
      </trkpt>
      <trkpt lat="47.25389" lon="-2.26223">
        <ele>31.799999237061</ele>
        <time>2021-05-16T08:49:02.000Z</time>
      </trkpt>
      <trkpt lat="47.25397" lon="-2.26244">
        <ele>31.799999237061</ele>
        <time>2021-05-16T08:49:05.000Z</time>
      </trkpt>
      <trkpt lat="47.25397" lon="-2.26256">
        <ele>31.799999237061</ele>
        <time>2021-05-16T08:49:07.000Z</time>
      </trkpt>
      <trkpt lat="47.25397" lon="-2.26266">
        <ele>32.200000762939</ele>
        <time>2021-05-16T08:49:09.000Z</time>
      </trkpt>
      <trkpt lat="47.25396" lon="-2.2627">
        <ele>32.599998474121</ele>
        <time>2021-05-16T08:49:10.000Z</time>
      </trkpt>
      <trkpt lat="47.25395" lon="-2.26273">
        <ele>33</ele>
        <time>2021-05-16T08:49:11.000Z</time>
      </trkpt>
      <trkpt lat="47.25395" lon="-2.26275">
        <ele>33.400001525879</ele>
        <time>2021-05-16T08:49:12.000Z</time>
      </trkpt>
      <trkpt lat="47.25395" lon="-2.2628">
        <ele>33.799999237061</ele>
        <time>2021-05-16T08:49:13.000Z</time>
      </trkpt>
      <trkpt lat="47.254" lon="-2.263">
        <ele>33.799999237061</ele>
        <time>2021-05-16T08:49:17.000Z</time>
      </trkpt>
      <trkpt lat="47.25407" lon="-2.26327">
        <ele>33.799999237061</ele>
        <time>2021-05-16T08:49:23.000Z</time>
      </trkpt>
      <trkpt lat="47.25409" lon="-2.26351">
        <ele>33.799999237061</ele>
        <time>2021-05-16T08:49:29.000Z</time>
      </trkpt>
      <trkpt lat="47.25418" lon="-2.2637">
        <ele>33.799999237061</ele>
        <time>2021-05-16T08:49:33.000Z</time>
      </trkpt>
      <trkpt lat="47.25424" lon="-2.26382">
        <ele>33.799999237061</ele>
        <time>2021-05-16T08:49:35.000Z</time>
      </trkpt>
      <trkpt lat="47.25426" lon="-2.26389">
        <ele>33.400001525879</ele>
        <time>2021-05-16T08:49:36.000Z</time>
      </trkpt>
      <trkpt lat="47.25427" lon="-2.26396">
        <ele>33</ele>
        <time>2021-05-16T08:49:37.000Z</time>
      </trkpt>
      <trkpt lat="47.25426" lon="-2.26404">
        <ele>32.599998474121</ele>
        <time>2021-05-16T08:49:38.000Z</time>
      </trkpt>
      <trkpt lat="47.25426" lon="-2.2641">
        <ele>32.200000762939</ele>
        <time>2021-05-16T08:49:39.000Z</time>
      </trkpt>
      <trkpt lat="47.25426" lon="-2.26416">
        <ele>31.60000038147</ele>
        <time>2021-05-16T08:49:40.000Z</time>
      </trkpt>
      <trkpt lat="47.25427" lon="-2.26419">
        <ele>31.60000038147</ele>
        <time>2021-05-16T08:49:41.000Z</time>
      </trkpt>
      <trkpt lat="47.25428" lon="-2.26421">
        <ele>31.60000038147</ele>
        <time>2021-05-16T08:49:42.000Z</time>
      </trkpt>
      <trkpt lat="47.25435" lon="-2.26422">
        <ele>31.60000038147</ele>
        <time>2021-05-16T08:49:44.000Z</time>
      </trkpt>
      <trkpt lat="47.25446" lon="-2.26432">
        <ele>31.60000038147</ele>
        <time>2021-05-16T08:49:47.000Z</time>
      </trkpt>
      <trkpt lat="47.25452" lon="-2.26455">
        <ele>31.60000038147</ele>
        <time>2021-05-16T08:49:51.000Z</time>
      </trkpt>
      <trkpt lat="47.25463" lon="-2.26481">
        <ele>31.60000038147</ele>
        <time>2021-05-16T08:49:55.000Z</time>
      </trkpt>
      <trkpt lat="47.25471" lon="-2.265">
        <ele>32.200000762939</ele>
        <time>2021-05-16T08:49:59.000Z</time>
      </trkpt>
      <trkpt lat="47.25472" lon="-2.26504">
        <ele>32.599998474121</ele>
        <time>2021-05-16T08:50:00.000Z</time>
      </trkpt>
      <trkpt lat="47.25473" lon="-2.26507">
        <ele>33</ele>
        <time>2021-05-16T08:50:01.000Z</time>
      </trkpt>
      <trkpt lat="47.25473" lon="-2.2651">
        <ele>33.599998474121</ele>
        <time>2021-05-16T08:50:02.000Z</time>
      </trkpt>
      <trkpt lat="47.25474" lon="-2.26513">
        <ele>34</ele>
        <time>2021-05-16T08:50:03.000Z</time>
      </trkpt>
      <trkpt lat="47.25477" lon="-2.26529">
        <ele>34.400001525879</ele>
        <time>2021-05-16T08:50:06.000Z</time>
      </trkpt>
      <trkpt lat="47.25478" lon="-2.26535">
        <ele>34.799999237061</ele>
        <time>2021-05-16T08:50:07.000Z</time>
      </trkpt>
      <trkpt lat="47.25479" lon="-2.26541">
        <ele>35.200000762939</ele>
        <time>2021-05-16T08:50:08.000Z</time>
      </trkpt>
      <trkpt lat="47.2548" lon="-2.26546">
        <ele>35.799999237061</ele>
        <time>2021-05-16T08:50:09.000Z</time>
      </trkpt>
      <trkpt lat="47.25481" lon="-2.26552">
        <ele>36.200000762939</ele>
        <time>2021-05-16T08:50:10.000Z</time>
      </trkpt>
      <trkpt lat="47.25486" lon="-2.26569">
        <ele>36.200000762939</ele>
        <time>2021-05-16T08:50:13.000Z</time>
      </trkpt>
      <trkpt lat="47.25487" lon="-2.26575">
        <ele>36.200000762939</ele>
        <time>2021-05-16T08:50:14.000Z</time>
      </trkpt>
      <trkpt lat="47.25486" lon="-2.26608">
        <ele>36.200000762939</ele>
        <time>2021-05-16T08:50:20.000Z</time>
      </trkpt>
      <trkpt lat="47.25485" lon="-2.26632">
        <ele>36.200000762939</ele>
        <time>2021-05-16T08:50:24.000Z</time>
      </trkpt>
      <trkpt lat="47.25486" lon="-2.26639">
        <ele>36.200000762939</ele>
        <time>2021-05-16T08:50:25.000Z</time>
      </trkpt>
      <trkpt lat="47.25485" lon="-2.26675">
        <ele>36.200000762939</ele>
        <time>2021-05-16T08:50:31.000Z</time>
      </trkpt>
      <trkpt lat="47.25483" lon="-2.26689">
        <ele>36.200000762939</ele>
        <time>2021-05-16T08:50:34.000Z</time>
      </trkpt>
      <trkpt lat="47.25481" lon="-2.26693">
        <ele>36.200000762939</ele>
        <time>2021-05-16T08:50:35.000Z</time>
      </trkpt>
      <trkpt lat="47.25479" lon="-2.26701">
        <ele>36.599998474121</ele>
        <time>2021-05-16T08:50:37.000Z</time>
      </trkpt>
      <trkpt lat="47.25478" lon="-2.26705">
        <ele>37</ele>
        <time>2021-05-16T08:50:38.000Z</time>
      </trkpt>
      <trkpt lat="47.25477" lon="-2.26709">
        <ele>37.400001525879</ele>
        <time>2021-05-16T08:50:39.000Z</time>
      </trkpt>
      <trkpt lat="47.25476" lon="-2.26712">
        <ele>37.799999237061</ele>
        <time>2021-05-16T08:50:40.000Z</time>
      </trkpt>
      <trkpt lat="47.25477" lon="-2.26716">
        <ele>38.200000762939</ele>
        <time>2021-05-16T08:50:41.000Z</time>
      </trkpt>
      <trkpt lat="47.25477" lon="-2.26731">
        <ele>38.200000762939</ele>
        <time>2021-05-16T08:50:45.000Z</time>
      </trkpt>
      <trkpt lat="47.25478" lon="-2.26736">
        <ele>38.599998474121</ele>
        <time>2021-05-16T08:50:46.000Z</time>
      </trkpt>
      <trkpt lat="47.2548" lon="-2.2674">
        <ele>39</ele>
        <time>2021-05-16T08:50:47.000Z</time>
      </trkpt>
      <trkpt lat="47.25482" lon="-2.26744">
        <ele>39.400001525879</ele>
        <time>2021-05-16T08:50:48.000Z</time>
      </trkpt>
      <trkpt lat="47.25484" lon="-2.26748">
        <ele>40</ele>
        <time>2021-05-16T08:50:49.000Z</time>
      </trkpt>
      <trkpt lat="47.25486" lon="-2.26752">
        <ele>40.400001525879</ele>
        <time>2021-05-16T08:50:50.000Z</time>
      </trkpt>
      <trkpt lat="47.25502" lon="-2.26779">
        <ele>40.400001525879</ele>
        <time>2021-05-16T08:50:57.000Z</time>
      </trkpt>
      <trkpt lat="47.25514" lon="-2.26798">
        <ele>40.400001525879</ele>
        <time>2021-05-16T08:51:02.000Z</time>
      </trkpt>
      <trkpt lat="47.25519" lon="-2.26805">
        <ele>40.799999237061</ele>
        <time>2021-05-16T08:51:04.000Z</time>
      </trkpt>
      <trkpt lat="47.25521" lon="-2.26809">
        <ele>41.200000762939</ele>
        <time>2021-05-16T08:51:05.000Z</time>
      </trkpt>
      <trkpt lat="47.25523" lon="-2.26812">
        <ele>41.599998474121</ele>
        <time>2021-05-16T08:51:06.000Z</time>
      </trkpt>
      <trkpt lat="47.25526" lon="-2.26815">
        <ele>42</ele>
        <time>2021-05-16T08:51:07.000Z</time>
      </trkpt>
      <trkpt lat="47.25529" lon="-2.26818">
        <ele>42.400001525879</ele>
        <time>2021-05-16T08:51:08.000Z</time>
      </trkpt>
      <trkpt lat="47.25547" lon="-2.26835">
        <ele>42.400001525879</ele>
        <time>2021-05-16T08:51:14.000Z</time>
      </trkpt>
      <trkpt lat="47.25567" lon="-2.26851">
        <ele>42.400001525879</ele>
        <time>2021-05-16T08:51:21.000Z</time>
      </trkpt>
      <trkpt lat="47.25569" lon="-2.26853">
        <ele>42.799999237061</ele>
        <time>2021-05-16T08:51:22.000Z</time>
      </trkpt>
      <trkpt lat="47.25572" lon="-2.26855">
        <ele>43.200000762939</ele>
        <time>2021-05-16T08:51:23.000Z</time>
      </trkpt>
      <trkpt lat="47.25575" lon="-2.26857">
        <ele>43.799999237061</ele>
        <time>2021-05-16T08:51:24.000Z</time>
      </trkpt>
      <trkpt lat="47.25578" lon="-2.26859">
        <ele>44.200000762939</ele>
        <time>2021-05-16T08:51:25.000Z</time>
      </trkpt>
      <trkpt lat="47.2558" lon="-2.26861">
        <ele>44.599998474121</ele>
        <time>2021-05-16T08:51:26.000Z</time>
      </trkpt>
      <trkpt lat="47.25583" lon="-2.26862">
        <ele>44.599998474121</ele>
        <time>2021-05-16T08:51:27.000Z</time>
      </trkpt>
      <trkpt lat="47.256" lon="-2.2687">
        <ele>44.599998474121</ele>
        <time>2021-05-16T08:51:33.000Z</time>
      </trkpt>
      <trkpt lat="47.25605" lon="-2.26872">
        <ele>45</ele>
        <time>2021-05-16T08:51:35.000Z</time>
      </trkpt>
      <trkpt lat="47.25608" lon="-2.26874">
        <ele>45.400001525879</ele>
        <time>2021-05-16T08:51:36.000Z</time>
      </trkpt>
      <trkpt lat="47.25611" lon="-2.26875">
        <ele>45.799999237061</ele>
        <time>2021-05-16T08:51:37.000Z</time>
      </trkpt>
      <trkpt lat="47.25614" lon="-2.26876">
        <ele>46.200000762939</ele>
        <time>2021-05-16T08:51:38.000Z</time>
      </trkpt>
      <trkpt lat="47.25617" lon="-2.26877">
        <ele>46.599998474121</ele>
        <time>2021-05-16T08:51:39.000Z</time>
      </trkpt>
      <trkpt lat="47.25628" lon="-2.26875">
        <ele>46.599998474121</ele>
        <time>2021-05-16T08:51:43.000Z</time>
      </trkpt>
      <trkpt lat="47.25648" lon="-2.26843">
        <ele>46.599998474121</ele>
        <time>2021-05-16T08:51:49.000Z</time>
      </trkpt>
      <trkpt lat="47.25664" lon="-2.26825">
        <ele>46.599998474121</ele>
        <time>2021-05-16T08:51:53.000Z</time>
      </trkpt>
      <trkpt lat="47.25672" lon="-2.26822">
        <ele>46.599998474121</ele>
        <time>2021-05-16T08:51:55.000Z</time>
      </trkpt>
      <trkpt lat="47.25677" lon="-2.26821">
        <ele>46.599998474121</ele>
        <time>2021-05-16T08:51:57.000Z</time>
      </trkpt>
      <trkpt lat="47.25685" lon="-2.26821">
        <ele>46.599998474121</ele>
        <time>2021-05-16T08:51:59.000Z</time>
      </trkpt>
      <trkpt lat="47.25694" lon="-2.26823">
        <ele>47</ele>
        <time>2021-05-16T08:52:01.000Z</time>
      </trkpt>
      <trkpt lat="47.25699" lon="-2.26825">
        <ele>47.599998474121</ele>
        <time>2021-05-16T08:52:02.000Z</time>
      </trkpt>
      <trkpt lat="47.25703" lon="-2.26826">
        <ele>48</ele>
        <time>2021-05-16T08:52:03.000Z</time>
      </trkpt>
      <trkpt lat="47.25705" lon="-2.26827">
        <ele>48.400001525879</ele>
        <time>2021-05-16T08:52:04.000Z</time>
      </trkpt>
      <trkpt lat="47.25708" lon="-2.26828">
        <ele>48.799999237061</ele>
        <time>2021-05-16T08:52:05.000Z</time>
      </trkpt>
      <trkpt lat="47.25718" lon="-2.26836">
        <ele>48.799999237061</ele>
        <time>2021-05-16T08:52:08.000Z</time>
      </trkpt>
      <trkpt lat="47.25722" lon="-2.2684">
        <ele>48.799999237061</ele>
        <time>2021-05-16T08:52:09.000Z</time>
      </trkpt>
      <trkpt lat="47.2573" lon="-2.2685">
        <ele>48.799999237061</ele>
        <time>2021-05-16T08:52:11.000Z</time>
      </trkpt>
      <trkpt lat="47.25737" lon="-2.26863">
        <ele>48.799999237061</ele>
        <time>2021-05-16T08:52:13.000Z</time>
      </trkpt>
      <trkpt lat="47.25742" lon="-2.26877">
        <ele>49.200000762939</ele>
        <time>2021-05-16T08:52:15.000Z</time>
      </trkpt>
      <trkpt lat="47.25743" lon="-2.26885">
        <ele>49.599998474121</ele>
        <time>2021-05-16T08:52:16.000Z</time>
      </trkpt>
      <trkpt lat="47.25745" lon="-2.26891">
        <ele>50.200000762939</ele>
        <time>2021-05-16T08:52:17.000Z</time>
      </trkpt>
      <trkpt lat="47.25749" lon="-2.26896">
        <ele>50.599998474121</ele>
        <time>2021-05-16T08:52:18.000Z</time>
      </trkpt>
      <trkpt lat="47.25753" lon="-2.26899">
        <ele>51</ele>
        <time>2021-05-16T08:52:19.000Z</time>
      </trkpt>
      <trkpt lat="47.25758" lon="-2.26899">
        <ele>50.599998474121</ele>
        <time>2021-05-16T08:52:20.000Z</time>
      </trkpt>
      <trkpt lat="47.25762" lon="-2.26899">
        <ele>50.200000762939</ele>
        <time>2021-05-16T08:52:21.000Z</time>
      </trkpt>
      <trkpt lat="47.25767" lon="-2.26897">
        <ele>49.799999237061</ele>
        <time>2021-05-16T08:52:22.000Z</time>
      </trkpt>
      <trkpt lat="47.25771" lon="-2.26895">
        <ele>49.400001525879</ele>
        <time>2021-05-16T08:52:23.000Z</time>
      </trkpt>
      <trkpt lat="47.25777" lon="-2.26894">
        <ele>49</ele>
        <time>2021-05-16T08:52:24.000Z</time>
      </trkpt>
      <trkpt lat="47.25787" lon="-2.26889">
        <ele>49</ele>
        <time>2021-05-16T08:52:26.000Z</time>
      </trkpt>
      <trkpt lat="47.25798" lon="-2.26883">
        <ele>49</ele>
        <time>2021-05-16T08:52:28.000Z</time>
      </trkpt>
      <trkpt lat="47.2581" lon="-2.26878">
        <ele>48.599998474121</ele>
        <time>2021-05-16T08:52:30.000Z</time>
      </trkpt>
      <trkpt lat="47.25818" lon="-2.26875">
        <ele>48.200000762939</ele>
        <time>2021-05-16T08:52:31.000Z</time>
      </trkpt>
      <trkpt lat="47.25824" lon="-2.26871">
        <ele>47.799999237061</ele>
        <time>2021-05-16T08:52:32.000Z</time>
      </trkpt>
      <trkpt lat="47.2583" lon="-2.26867">
        <ele>47</ele>
        <time>2021-05-16T08:52:33.000Z</time>
      </trkpt>
      <trkpt lat="47.25861" lon="-2.26854">
        <ele>47</ele>
        <time>2021-05-16T08:52:38.000Z</time>
      </trkpt>
      <trkpt lat="47.25888" lon="-2.26842">
        <ele>46.400001525879</ele>
        <time>2021-05-16T08:52:42.000Z</time>
      </trkpt>
      <trkpt lat="47.25894" lon="-2.26839">
        <ele>46</ele>
        <time>2021-05-16T08:52:43.000Z</time>
      </trkpt>
      <trkpt lat="47.25901" lon="-2.26836">
        <ele>45.599998474121</ele>
        <time>2021-05-16T08:52:44.000Z</time>
      </trkpt>
      <trkpt lat="47.25908" lon="-2.26833">
        <ele>45.200000762939</ele>
        <time>2021-05-16T08:52:45.000Z</time>
      </trkpt>
      <trkpt lat="47.25915" lon="-2.26829">
        <ele>44.799999237061</ele>
        <time>2021-05-16T08:52:46.000Z</time>
      </trkpt>
      <trkpt lat="47.25942" lon="-2.26816">
        <ele>44.799999237061</ele>
        <time>2021-05-16T08:52:50.000Z</time>
      </trkpt>
      <trkpt lat="47.25967" lon="-2.26813">
        <ele>44.799999237061</ele>
        <time>2021-05-16T08:52:54.000Z</time>
      </trkpt>
      <trkpt lat="47.25977" lon="-2.26817">
        <ele>44.799999237061</ele>
        <time>2021-05-16T08:52:56.000Z</time>
      </trkpt>
      <trkpt lat="47.25981" lon="-2.26818">
        <ele>44.400001525879</ele>
        <time>2021-05-16T08:52:57.000Z</time>
      </trkpt>
      <trkpt lat="47.25985" lon="-2.2682">
        <ele>44</ele>
        <time>2021-05-16T08:52:58.000Z</time>
      </trkpt>
      <trkpt lat="47.25988" lon="-2.26824">
        <ele>43.599998474121</ele>
        <time>2021-05-16T08:52:59.000Z</time>
      </trkpt>
      <trkpt lat="47.25989" lon="-2.26829">
        <ele>43.200000762939</ele>
        <time>2021-05-16T08:53:00.000Z</time>
      </trkpt>
      <trkpt lat="47.25989" lon="-2.26835">
        <ele>42.799999237061</ele>
        <time>2021-05-16T08:53:01.000Z</time>
      </trkpt>
      <trkpt lat="47.25989" lon="-2.26849">
        <ele>42.799999237061</ele>
        <time>2021-05-16T08:53:03.000Z</time>
      </trkpt>
      <trkpt lat="47.25989" lon="-2.26871">
        <ele>42.799999237061</ele>
        <time>2021-05-16T08:53:06.000Z</time>
      </trkpt>
      <trkpt lat="47.2599" lon="-2.26879">
        <ele>42.799999237061</ele>
        <time>2021-05-16T08:53:07.000Z</time>
      </trkpt>
      <trkpt lat="47.25998" lon="-2.26903">
        <ele>42.799999237061</ele>
        <time>2021-05-16T08:53:10.000Z</time>
      </trkpt>
      <trkpt lat="47.2601" lon="-2.26924">
        <ele>42.799999237061</ele>
        <time>2021-05-16T08:53:13.000Z</time>
      </trkpt>
      <trkpt lat="47.26019" lon="-2.26936">
        <ele>42.799999237061</ele>
        <time>2021-05-16T08:53:15.000Z</time>
      </trkpt>
      <trkpt lat="47.26044" lon="-2.26968">
        <ele>42.799999237061</ele>
        <time>2021-05-16T08:53:21.000Z</time>
      </trkpt>
      <trkpt lat="47.26052" lon="-2.2698">
        <ele>42.799999237061</ele>
        <time>2021-05-16T08:53:23.000Z</time>
      </trkpt>
      <trkpt lat="47.26062" lon="-2.27001">
        <ele>43.200000762939</ele>
        <time>2021-05-16T08:53:26.000Z</time>
      </trkpt>
      <trkpt lat="47.26065" lon="-2.27008">
        <ele>43.599998474121</ele>
        <time>2021-05-16T08:53:27.000Z</time>
      </trkpt>
      <trkpt lat="47.26068" lon="-2.27015">
        <ele>44</ele>
        <time>2021-05-16T08:53:28.000Z</time>
      </trkpt>
      <trkpt lat="47.26071" lon="-2.27023">
        <ele>44.400001525879</ele>
        <time>2021-05-16T08:53:29.000Z</time>
      </trkpt>
      <trkpt lat="47.26073" lon="-2.27031">
        <ele>44.799999237061</ele>
        <time>2021-05-16T08:53:30.000Z</time>
      </trkpt>
      <trkpt lat="47.26079" lon="-2.27057">
        <ele>44.799999237061</ele>
        <time>2021-05-16T08:53:33.000Z</time>
      </trkpt>
      <trkpt lat="47.26085" lon="-2.27095">
        <ele>44.799999237061</ele>
        <time>2021-05-16T08:53:37.000Z</time>
      </trkpt>
      <trkpt lat="47.26087" lon="-2.27104">
        <ele>44.799999237061</ele>
        <time>2021-05-16T08:53:38.000Z</time>
      </trkpt>
      <trkpt lat="47.26101" lon="-2.27156">
        <ele>44.799999237061</ele>
        <time>2021-05-16T08:53:44.000Z</time>
      </trkpt>
      <trkpt lat="47.26118" lon="-2.27197">
        <ele>44.799999237061</ele>
        <time>2021-05-16T08:53:50.000Z</time>
      </trkpt>
      <trkpt lat="47.26123" lon="-2.27211">
        <ele>44.799999237061</ele>
        <time>2021-05-16T08:53:52.000Z</time>
      </trkpt>
      <trkpt lat="47.26132" lon="-2.27236">
        <ele>44.799999237061</ele>
        <time>2021-05-16T08:53:56.000Z</time>
      </trkpt>
      <trkpt lat="47.2614" lon="-2.27271">
        <ele>44.799999237061</ele>
        <time>2021-05-16T08:54:01.000Z</time>
      </trkpt>
      <trkpt lat="47.26141" lon="-2.27278">
        <ele>44.400001525879</ele>
        <time>2021-05-16T08:54:02.000Z</time>
      </trkpt>
      <trkpt lat="47.26142" lon="-2.27286">
        <ele>44</ele>
        <time>2021-05-16T08:54:03.000Z</time>
      </trkpt>
      <trkpt lat="47.26144" lon="-2.27293">
        <ele>43.400001525879</ele>
        <time>2021-05-16T08:54:04.000Z</time>
      </trkpt>
      <trkpt lat="47.26145" lon="-2.273">
        <ele>43</ele>
        <time>2021-05-16T08:54:05.000Z</time>
      </trkpt>
      <trkpt lat="47.26146" lon="-2.27306">
        <ele>42.599998474121</ele>
        <time>2021-05-16T08:54:06.000Z</time>
      </trkpt>
      <trkpt lat="47.26152" lon="-2.27318">
        <ele>42.599998474121</ele>
        <time>2021-05-16T08:54:09.000Z</time>
      </trkpt>
      <trkpt lat="47.26155" lon="-2.27319">
        <ele>42.599998474121</ele>
        <time>2021-05-16T08:54:10.000Z</time>
      </trkpt>
      <trkpt lat="47.26177" lon="-2.27317">
        <ele>42.599998474121</ele>
        <time>2021-05-16T08:54:15.000Z</time>
      </trkpt>
      <trkpt lat="47.26182" lon="-2.27317">
        <ele>42.599998474121</ele>
        <time>2021-05-16T08:54:16.000Z</time>
      </trkpt>
      <trkpt lat="47.26206" lon="-2.27314">
        <ele>42.599998474121</ele>
        <time>2021-05-16T08:54:21.000Z</time>
      </trkpt>
      <trkpt lat="47.26238" lon="-2.27319">
        <ele>42.599998474121</ele>
        <time>2021-05-16T08:54:27.000Z</time>
      </trkpt>
      <trkpt lat="47.26249" lon="-2.27321">
        <ele>42.599998474121</ele>
        <time>2021-05-16T08:54:29.000Z</time>
      </trkpt>
      <trkpt lat="47.26266" lon="-2.27321">
        <ele>42.599998474121</ele>
        <time>2021-05-16T08:54:32.000Z</time>
      </trkpt>
      <trkpt lat="47.26289" lon="-2.27323">
        <ele>42.200000762939</ele>
        <time>2021-05-16T08:54:36.000Z</time>
      </trkpt>
      <trkpt lat="47.26295" lon="-2.27323">
        <ele>41.799999237061</ele>
        <time>2021-05-16T08:54:37.000Z</time>
      </trkpt>
      <trkpt lat="47.26301" lon="-2.27324">
        <ele>41.400001525879</ele>
        <time>2021-05-16T08:54:38.000Z</time>
      </trkpt>
      <trkpt lat="47.26307" lon="-2.27325">
        <ele>41</ele>
        <time>2021-05-16T08:54:39.000Z</time>
      </trkpt>
      <trkpt lat="47.26313" lon="-2.27326">
        <ele>40.599998474121</ele>
        <time>2021-05-16T08:54:40.000Z</time>
      </trkpt>
      <trkpt lat="47.26345" lon="-2.27329">
        <ele>40.599998474121</ele>
        <time>2021-05-16T08:54:46.000Z</time>
      </trkpt>
      <trkpt lat="47.26393" lon="-2.27329">
        <ele>40.599998474121</ele>
        <time>2021-05-16T08:54:55.000Z</time>
      </trkpt>
      <trkpt lat="47.26398" lon="-2.27329">
        <ele>40.599998474121</ele>
        <time>2021-05-16T08:54:56.000Z</time>
      </trkpt>
      <trkpt lat="47.26415" lon="-2.27334">
        <ele>40.599998474121</ele>
        <time>2021-05-16T08:54:59.000Z</time>
      </trkpt>
      <trkpt lat="47.26427" lon="-2.27346">
        <ele>40.599998474121</ele>
        <time>2021-05-16T08:55:02.000Z</time>
      </trkpt>
      <trkpt lat="47.26433" lon="-2.2736">
        <ele>40.599998474121</ele>
        <time>2021-05-16T08:55:04.000Z</time>
      </trkpt>
      <trkpt lat="47.26441" lon="-2.2738">
        <ele>40.200000762939</ele>
        <time>2021-05-16T08:55:07.000Z</time>
      </trkpt>
      <trkpt lat="47.26442" lon="-2.27386">
        <ele>39.799999237061</ele>
        <time>2021-05-16T08:55:08.000Z</time>
      </trkpt>
      <trkpt lat="47.26444" lon="-2.27393">
        <ele>39.400001525879</ele>
        <time>2021-05-16T08:55:09.000Z</time>
      </trkpt>
      <trkpt lat="47.26446" lon="-2.27399">
        <ele>39</ele>
        <time>2021-05-16T08:55:10.000Z</time>
      </trkpt>
      <trkpt lat="47.26449" lon="-2.27406">
        <ele>38.400001525879</ele>
        <time>2021-05-16T08:55:11.000Z</time>
      </trkpt>
      <trkpt lat="47.26454" lon="-2.27421">
        <ele>38.400001525879</ele>
        <time>2021-05-16T08:55:13.000Z</time>
      </trkpt>
      <trkpt lat="47.26459" lon="-2.27437">
        <ele>38.400001525879</ele>
        <time>2021-05-16T08:55:15.000Z</time>
      </trkpt>
      <trkpt lat="47.26464" lon="-2.27452">
        <ele>38.400001525879</ele>
        <time>2021-05-16T08:55:17.000Z</time>
      </trkpt>
      <trkpt lat="47.26466" lon="-2.2746">
        <ele>38.400001525879</ele>
        <time>2021-05-16T08:55:18.000Z</time>
      </trkpt>
      <trkpt lat="47.26484" lon="-2.27522">
        <ele>38</ele>
        <time>2021-05-16T08:55:26.000Z</time>
      </trkpt>
      <trkpt lat="47.26485" lon="-2.27531">
        <ele>37.599998474121</ele>
        <time>2021-05-16T08:55:27.000Z</time>
      </trkpt>
      <trkpt lat="47.26487" lon="-2.2754">
        <ele>37.200000762939</ele>
        <time>2021-05-16T08:55:28.000Z</time>
      </trkpt>
      <trkpt lat="47.26488" lon="-2.2755">
        <ele>36.799999237061</ele>
        <time>2021-05-16T08:55:29.000Z</time>
      </trkpt>
      <trkpt lat="47.2649" lon="-2.27559">
        <ele>36.400001525879</ele>
        <time>2021-05-16T08:55:30.000Z</time>
      </trkpt>
      <trkpt lat="47.26491" lon="-2.27567">
        <ele>36.400001525879</ele>
        <time>2021-05-16T08:55:31.000Z</time>
      </trkpt>
      <trkpt lat="47.26493" lon="-2.27574">
        <ele>36.400001525879</ele>
        <time>2021-05-16T08:55:32.000Z</time>
      </trkpt>
      <trkpt lat="47.26501" lon="-2.27581">
        <ele>36</ele>
        <time>2021-05-16T08:55:34.000Z</time>
      </trkpt>
      <trkpt lat="47.26504" lon="-2.27581">
        <ele>35.400001525879</ele>
        <time>2021-05-16T08:55:35.000Z</time>
      </trkpt>
      <trkpt lat="47.26507" lon="-2.2758">
        <ele>35</ele>
        <time>2021-05-16T08:55:36.000Z</time>
      </trkpt>
      <trkpt lat="47.26511" lon="-2.27579">
        <ele>34.599998474121</ele>
        <time>2021-05-16T08:55:37.000Z</time>
      </trkpt>
      <trkpt lat="47.26515" lon="-2.27578">
        <ele>34.200000762939</ele>
        <time>2021-05-16T08:55:38.000Z</time>
      </trkpt>
      <trkpt lat="47.26529" lon="-2.27575">
        <ele>34.200000762939</ele>
        <time>2021-05-16T08:55:42.000Z</time>
      </trkpt>
      <trkpt lat="47.2653" lon="-2.27576">
        <ele>34.200000762939</ele>
        <time>2021-05-16T08:55:43.000Z</time>
      </trkpt>
      <trkpt lat="47.26531" lon="-2.27576">
        <ele>34.200000762939</ele>
        <time>2021-05-16T08:55:45.000Z</time>
      </trkpt>
      <trkpt lat="47.26536" lon="-2.2758">
        <ele>34.200000762939</ele>
        <time>2021-05-16T08:55:54.000Z</time>
      </trkpt>
      <trkpt lat="47.26539" lon="-2.27581">
        <ele>34.200000762939</ele>
        <time>2021-05-16T08:55:55.000Z</time>
      </trkpt>
      <trkpt lat="47.26553" lon="-2.27582">
        <ele>34.200000762939</ele>
        <time>2021-05-16T08:55:58.000Z</time>
      </trkpt>
      <trkpt lat="47.26557" lon="-2.27581">
        <ele>34.200000762939</ele>
        <time>2021-05-16T08:55:59.000Z</time>
      </trkpt>
      <trkpt lat="47.26572" lon="-2.27581">
        <ele>34.200000762939</ele>
        <time>2021-05-16T08:56:02.000Z</time>
      </trkpt>
      <trkpt lat="47.26577" lon="-2.27581">
        <ele>34.200000762939</ele>
        <time>2021-05-16T08:56:03.000Z</time>
      </trkpt>
      <trkpt lat="47.26593" lon="-2.27587">
        <ele>34.200000762939</ele>
        <time>2021-05-16T08:56:06.000Z</time>
      </trkpt>
      <trkpt lat="47.26603" lon="-2.27591">
        <ele>34.200000762939</ele>
        <time>2021-05-16T08:56:08.000Z</time>
      </trkpt>
      <trkpt lat="47.26631" lon="-2.27605">
        <ele>34.200000762939</ele>
        <time>2021-05-16T08:56:14.000Z</time>
      </trkpt>
      <trkpt lat="47.26661" lon="-2.27616">
        <ele>34.200000762939</ele>
        <time>2021-05-16T08:56:20.000Z</time>
      </trkpt>
      <trkpt lat="47.26687" lon="-2.27627">
        <ele>34.200000762939</ele>
        <time>2021-05-16T08:56:25.000Z</time>
      </trkpt>
      <trkpt lat="47.26692" lon="-2.27629">
        <ele>34.200000762939</ele>
        <time>2021-05-16T08:56:26.000Z</time>
      </trkpt>
      <trkpt lat="47.26724" lon="-2.27644">
        <ele>34.200000762939</ele>
        <time>2021-05-16T08:56:32.000Z</time>
      </trkpt>
      <trkpt lat="47.26751" lon="-2.27652">
        <ele>34.200000762939</ele>
        <time>2021-05-16T08:56:37.000Z</time>
      </trkpt>
      <trkpt lat="47.26756" lon="-2.27651">
        <ele>34.200000762939</ele>
        <time>2021-05-16T08:56:38.000Z</time>
      </trkpt>
      <trkpt lat="47.26762" lon="-2.27648">
        <ele>34.200000762939</ele>
        <time>2021-05-16T08:56:41.000Z</time>
      </trkpt>
      <trkpt lat="47.26762" lon="-2.27646">
        <ele>33.799999237061</ele>
        <time>2021-05-16T08:56:42.000Z</time>
      </trkpt>
      <trkpt lat="47.26762" lon="-2.27644">
        <ele>33.400001525879</ele>
        <time>2021-05-16T08:56:43.000Z</time>
      </trkpt>
      <trkpt lat="47.26762" lon="-2.27641">
        <ele>33</ele>
        <time>2021-05-16T08:56:44.000Z</time>
      </trkpt>
      <trkpt lat="47.26761" lon="-2.27637">
        <ele>32.599998474121</ele>
        <time>2021-05-16T08:56:45.000Z</time>
      </trkpt>
      <trkpt lat="47.2676" lon="-2.27631">
        <ele>32.200000762939</ele>
        <time>2021-05-16T08:56:46.000Z</time>
      </trkpt>
      <trkpt lat="47.26757" lon="-2.2761">
        <ele>32.200000762939</ele>
        <time>2021-05-16T08:56:49.000Z</time>
      </trkpt>
      <trkpt lat="47.26752" lon="-2.2757">
        <ele>32.200000762939</ele>
        <time>2021-05-16T08:56:54.000Z</time>
      </trkpt>
      <trkpt lat="47.26751" lon="-2.27561">
        <ele>32.200000762939</ele>
        <time>2021-05-16T08:56:55.000Z</time>
      </trkpt>
      <trkpt lat="47.26751" lon="-2.27543">
        <ele>32.200000762939</ele>
        <time>2021-05-16T08:56:57.000Z</time>
      </trkpt>
      <trkpt lat="47.26751" lon="-2.27516">
        <ele>32.599998474121</ele>
        <time>2021-05-16T08:57:00.000Z</time>
      </trkpt>
      <trkpt lat="47.26751" lon="-2.27508">
        <ele>33</ele>
        <time>2021-05-16T08:57:01.000Z</time>
      </trkpt>
      <trkpt lat="47.26751" lon="-2.275">
        <ele>33.400001525879</ele>
        <time>2021-05-16T08:57:02.000Z</time>
      </trkpt>
      <trkpt lat="47.26751" lon="-2.27492">
        <ele>34.400001525879</ele>
        <time>2021-05-16T08:57:03.000Z</time>
      </trkpt>
      <trkpt lat="47.26752" lon="-2.27452">
        <ele>34.400001525879</ele>
        <time>2021-05-16T08:57:08.000Z</time>
      </trkpt>
      <trkpt lat="47.26752" lon="-2.27422">
        <ele>34.400001525879</ele>
        <time>2021-05-16T08:57:12.000Z</time>
      </trkpt>
      <trkpt lat="47.26754" lon="-2.27416">
        <ele>34.400001525879</ele>
        <time>2021-05-16T08:57:13.000Z</time>
      </trkpt>
      <trkpt lat="47.26762" lon="-2.27408">
        <ele>34.400001525879</ele>
        <time>2021-05-16T08:57:16.000Z</time>
      </trkpt>
      <trkpt lat="47.2678" lon="-2.27406">
        <ele>34.400001525879</ele>
        <time>2021-05-16T08:57:20.000Z</time>
      </trkpt>
      <trkpt lat="47.26798" lon="-2.27405">
        <ele>34.400001525879</ele>
        <time>2021-05-16T08:57:23.000Z</time>
      </trkpt>
      <trkpt lat="47.26809" lon="-2.27404">
        <ele>34.400001525879</ele>
        <time>2021-05-16T08:57:25.000Z</time>
      </trkpt>
      <trkpt lat="47.26829" lon="-2.27401">
        <ele>34.400001525879</ele>
        <time>2021-05-16T08:57:29.000Z</time>
      </trkpt>
      <trkpt lat="47.26843" lon="-2.27398">
        <ele>34</ele>
        <time>2021-05-16T08:57:32.000Z</time>
      </trkpt>
      <trkpt lat="47.26848" lon="-2.27396">
        <ele>33.599998474121</ele>
        <time>2021-05-16T08:57:33.000Z</time>
      </trkpt>
      <trkpt lat="47.26852" lon="-2.27395">
        <ele>33.200000762939</ele>
        <time>2021-05-16T08:57:34.000Z</time>
      </trkpt>
      <trkpt lat="47.26856" lon="-2.27394">
        <ele>32.799999237061</ele>
        <time>2021-05-16T08:57:35.000Z</time>
      </trkpt>
      <trkpt lat="47.26859" lon="-2.27394">
        <ele>32.400001525879</ele>
        <time>2021-05-16T08:57:36.000Z</time>
      </trkpt>
      <trkpt lat="47.26864" lon="-2.27394">
        <ele>32.400001525879</ele>
        <time>2021-05-16T08:57:38.000Z</time>
      </trkpt>
      <trkpt lat="47.26869" lon="-2.27393">
        <ele>32.400001525879</ele>
        <time>2021-05-16T08:57:43.000Z</time>
      </trkpt>
      <trkpt lat="47.26884" lon="-2.27383">
        <ele>30.39999961853</ele>
        <time>2021-05-16T08:58:33.000Z</time>
      </trkpt>
      <trkpt lat="47.26886" lon="-2.27382">
        <ele>30.39999961853</ele>
        <time>2021-05-16T08:58:34.000Z</time>
      </trkpt>
      <trkpt lat="47.26898" lon="-2.27372">
        <ele>30.39999961853</ele>
        <time>2021-05-16T08:58:40.000Z</time>
      </trkpt>
      <trkpt lat="47.26899" lon="-2.2737">
        <ele>30</ele>
        <time>2021-05-16T08:58:41.000Z</time>
      </trkpt>
      <trkpt lat="47.26901" lon="-2.27367">
        <ele>29</ele>
        <time>2021-05-16T08:58:42.000Z</time>
      </trkpt>
      <trkpt lat="47.26902" lon="-2.27365">
        <ele>28.60000038147</ele>
        <time>2021-05-16T08:58:43.000Z</time>
      </trkpt>
      <trkpt lat="47.26903" lon="-2.27363">
        <ele>28.200000762939</ele>
        <time>2021-05-16T08:58:44.000Z</time>
      </trkpt>
      <trkpt lat="47.26907" lon="-2.27356">
        <ele>28.200000762939</ele>
        <time>2021-05-16T08:58:47.000Z</time>
      </trkpt>
      <trkpt lat="47.26911" lon="-2.27341">
        <ele>28.200000762939</ele>
        <time>2021-05-16T08:58:53.000Z</time>
      </trkpt>
      <trkpt lat="47.26914" lon="-2.27328">
        <ele>28.200000762939</ele>
        <time>2021-05-16T08:58:58.000Z</time>
      </trkpt>
      <trkpt lat="47.26918" lon="-2.27314">
        <ele>28.200000762939</ele>
        <time>2021-05-16T08:59:04.000Z</time>
      </trkpt>
      <trkpt lat="47.26919" lon="-2.27311">
        <ele>28.799999237061</ele>
        <time>2021-05-16T08:59:06.000Z</time>
      </trkpt>
      <trkpt lat="47.26918" lon="-2.27309">
        <ele>29.200000762939</ele>
        <time>2021-05-16T08:59:07.000Z</time>
      </trkpt>
      <trkpt lat="47.26919" lon="-2.27301">
        <ele>30</ele>
        <time>2021-05-16T08:59:08.000Z</time>
      </trkpt>
      <trkpt lat="47.2692" lon="-2.27297">
        <ele>30.39999961853</ele>
        <time>2021-05-16T08:59:09.000Z</time>
      </trkpt>
      <trkpt lat="47.26924" lon="-2.27285">
        <ele>30.39999961853</ele>
        <time>2021-05-16T08:59:12.000Z</time>
      </trkpt>
      <trkpt lat="47.26932" lon="-2.27266">
        <ele>30.39999961853</ele>
        <time>2021-05-16T08:59:19.000Z</time>
      </trkpt>
      <trkpt lat="47.26938" lon="-2.27261">
        <ele>30.39999961853</ele>
        <time>2021-05-16T08:59:21.000Z</time>
      </trkpt>
      <trkpt lat="47.26949" lon="-2.27259">
        <ele>30.39999961853</ele>
        <time>2021-05-16T08:59:24.000Z</time>
      </trkpt>
      <trkpt lat="47.26953" lon="-2.27257">
        <ele>30</ele>
        <time>2021-05-16T08:59:26.000Z</time>
      </trkpt>
      <trkpt lat="47.26955" lon="-2.27255">
        <ele>29.60000038147</ele>
        <time>2021-05-16T08:59:27.000Z</time>
      </trkpt>
      <trkpt lat="47.26957" lon="-2.27253">
        <ele>29</ele>
        <time>2021-05-16T08:59:28.000Z</time>
      </trkpt>
      <trkpt lat="47.26959" lon="-2.2725">
        <ele>28.60000038147</ele>
        <time>2021-05-16T08:59:29.000Z</time>
      </trkpt>
      <trkpt lat="47.26961" lon="-2.27247">
        <ele>28.200000762939</ele>
        <time>2021-05-16T08:59:30.000Z</time>
      </trkpt>
      <trkpt lat="47.26967" lon="-2.27225">
        <ele>28.200000762939</ele>
        <time>2021-05-16T08:59:35.000Z</time>
      </trkpt>
      <trkpt lat="47.26966" lon="-2.27217">
        <ele>28.200000762939</ele>
        <time>2021-05-16T08:59:37.000Z</time>
      </trkpt>
      <trkpt lat="47.26967" lon="-2.27207">
        <ele>28.200000762939</ele>
        <time>2021-05-16T08:59:40.000Z</time>
      </trkpt>
      <trkpt lat="47.26971" lon="-2.27201">
        <ele>28.200000762939</ele>
        <time>2021-05-16T08:59:45.000Z</time>
      </trkpt>
      <trkpt lat="47.26975" lon="-2.2719">
        <ele>28.200000762939</ele>
        <time>2021-05-16T08:59:53.000Z</time>
      </trkpt>
      <trkpt lat="47.26976" lon="-2.27187">
        <ele>28.60000038147</ele>
        <time>2021-05-16T08:59:54.000Z</time>
      </trkpt>
      <trkpt lat="47.26976" lon="-2.27183">
        <ele>29</ele>
        <time>2021-05-16T08:59:55.000Z</time>
      </trkpt>
      <trkpt lat="47.26978" lon="-2.2718">
        <ele>29.39999961853</ele>
        <time>2021-05-16T08:59:56.000Z</time>
      </trkpt>
      <trkpt lat="47.26979" lon="-2.27178">
        <ele>30.200000762939</ele>
        <time>2021-05-16T08:59:57.000Z</time>
      </trkpt>
      <trkpt lat="47.26981" lon="-2.27178">
        <ele>30.200000762939</ele>
        <time>2021-05-16T08:59:58.000Z</time>
      </trkpt>
      <trkpt lat="47.26988" lon="-2.27179">
        <ele>30.200000762939</ele>
        <time>2021-05-16T09:00:04.000Z</time>
      </trkpt>
      <trkpt lat="47.26995" lon="-2.27171">
        <ele>30.200000762939</ele>
        <time>2021-05-16T09:00:11.000Z</time>
      </trkpt>
      <trkpt lat="47.26999" lon="-2.27167">
        <ele>30.200000762939</ele>
        <time>2021-05-16T09:00:14.000Z</time>
      </trkpt>
      <trkpt lat="47.27013" lon="-2.27168">
        <ele>28</ele>
        <time>2021-05-16T09:00:28.000Z</time>
      </trkpt>
      <trkpt lat="47.27015" lon="-2.27164">
        <ele>28</ele>
        <time>2021-05-16T09:00:30.000Z</time>
      </trkpt>
      <trkpt lat="47.27019" lon="-2.27159">
        <ele>28</ele>
        <time>2021-05-16T09:00:33.000Z</time>
      </trkpt>
      <trkpt lat="47.27023" lon="-2.27158">
        <ele>28</ele>
        <time>2021-05-16T09:00:35.000Z</time>
      </trkpt>
      <trkpt lat="47.27025" lon="-2.27157">
        <ele>28</ele>
        <time>2021-05-16T09:00:36.000Z</time>
      </trkpt>
      <trkpt lat="47.27027" lon="-2.27156">
        <ele>27.60000038147</ele>
        <time>2021-05-16T09:00:37.000Z</time>
      </trkpt>
      <trkpt lat="47.27029" lon="-2.27154">
        <ele>27.200000762939</ele>
        <time>2021-05-16T09:00:38.000Z</time>
      </trkpt>
      <trkpt lat="47.27031" lon="-2.27151">
        <ele>26.799999237061</ele>
        <time>2021-05-16T09:00:39.000Z</time>
      </trkpt>
      <trkpt lat="47.27033" lon="-2.2715">
        <ele>26.39999961853</ele>
        <time>2021-05-16T09:00:40.000Z</time>
      </trkpt>
      <trkpt lat="47.27033" lon="-2.27148">
        <ele>26</ele>
        <time>2021-05-16T09:00:41.000Z</time>
      </trkpt>
      <trkpt lat="47.27034" lon="-2.27146">
        <ele>26</ele>
        <time>2021-05-16T09:00:42.000Z</time>
      </trkpt>
      <trkpt lat="47.27032" lon="-2.27139">
        <ele>26</ele>
        <time>2021-05-16T09:01:41.000Z</time>
      </trkpt>
      <trkpt lat="47.2703" lon="-2.27133">
        <ele>26</ele>
        <time>2021-05-16T09:01:43.000Z</time>
      </trkpt>
      <trkpt lat="47.27018" lon="-2.27111">
        <ele>26</ele>
        <time>2021-05-16T09:01:50.000Z</time>
      </trkpt>
      <trkpt lat="47.27014" lon="-2.271">
        <ele>26.39999961853</ele>
        <time>2021-05-16T09:01:53.000Z</time>
      </trkpt>
      <trkpt lat="47.27013" lon="-2.27097">
        <ele>26.799999237061</ele>
        <time>2021-05-16T09:01:54.000Z</time>
      </trkpt>
      <trkpt lat="47.27012" lon="-2.27093">
        <ele>27.200000762939</ele>
        <time>2021-05-16T09:01:55.000Z</time>
      </trkpt>
      <trkpt lat="47.27011" lon="-2.27088">
        <ele>27.60000038147</ele>
        <time>2021-05-16T09:01:56.000Z</time>
      </trkpt>
      <trkpt lat="47.27011" lon="-2.27083">
        <ele>28.200000762939</ele>
        <time>2021-05-16T09:01:57.000Z</time>
      </trkpt>
      <trkpt lat="47.27004" lon="-2.27062">
        <ele>28.200000762939</ele>
        <time>2021-05-16T09:02:01.000Z</time>
      </trkpt>
      <trkpt lat="47.26986" lon="-2.2703">
        <ele>28.200000762939</ele>
        <time>2021-05-16T09:02:08.000Z</time>
      </trkpt>
      <trkpt lat="47.26979" lon="-2.27022">
        <ele>28.200000762939</ele>
        <time>2021-05-16T09:02:10.000Z</time>
      </trkpt>
      <trkpt lat="47.26964" lon="-2.27005">
        <ele>28.200000762939</ele>
        <time>2021-05-16T09:02:14.000Z</time>
      </trkpt>
      <trkpt lat="47.26961" lon="-2.27">
        <ele>28.200000762939</ele>
        <time>2021-05-16T09:02:15.000Z</time>
      </trkpt>
      <trkpt lat="47.26955" lon="-2.2698">
        <ele>28.200000762939</ele>
        <time>2021-05-16T09:02:18.000Z</time>
      </trkpt>
      <trkpt lat="47.26948" lon="-2.26948">
        <ele>28.200000762939</ele>
        <time>2021-05-16T09:02:22.000Z</time>
      </trkpt>
      <trkpt lat="47.26947" lon="-2.26932">
        <ele>27.200000762939</ele>
        <time>2021-05-16T09:02:24.000Z</time>
      </trkpt>
      <trkpt lat="47.26946" lon="-2.26926">
        <ele>26.799999237061</ele>
        <time>2021-05-16T09:02:25.000Z</time>
      </trkpt>
      <trkpt lat="47.26947" lon="-2.26918">
        <ele>26.39999961853</ele>
        <time>2021-05-16T09:02:26.000Z</time>
      </trkpt>
      <trkpt lat="47.26948" lon="-2.2691">
        <ele>26</ele>
        <time>2021-05-16T09:02:27.000Z</time>
      </trkpt>
      <trkpt lat="47.26956" lon="-2.26884">
        <ele>26</ele>
        <time>2021-05-16T09:02:30.000Z</time>
      </trkpt>
      <trkpt lat="47.26958" lon="-2.26861">
        <ele>26</ele>
        <time>2021-05-16T09:02:33.000Z</time>
      </trkpt>
      <trkpt lat="47.26956" lon="-2.26841">
        <ele>26</ele>
        <time>2021-05-16T09:02:36.000Z</time>
      </trkpt>
      <trkpt lat="47.26956" lon="-2.2683">
        <ele>26</ele>
        <time>2021-05-16T09:02:40.000Z</time>
      </trkpt>
      <trkpt lat="47.26957" lon="-2.26826">
        <ele>25.60000038147</ele>
        <time>2021-05-16T09:02:43.000Z</time>
      </trkpt>
      <trkpt lat="47.26959" lon="-2.26818">
        <ele>24</ele>
        <time>2021-05-16T09:03:05.000Z</time>
      </trkpt>
      <trkpt lat="47.2696" lon="-2.26816">
        <ele>24</ele>
        <time>2021-05-16T09:03:06.000Z</time>
      </trkpt>
      <trkpt lat="47.26961" lon="-2.26813">
        <ele>24</ele>
        <time>2021-05-16T09:03:07.000Z</time>
      </trkpt>
      <trkpt lat="47.2697" lon="-2.26802">
        <ele>24</ele>
        <time>2021-05-16T09:03:11.000Z</time>
      </trkpt>
      <trkpt lat="47.26982" lon="-2.26792">
        <ele>24</ele>
        <time>2021-05-16T09:03:17.000Z</time>
      </trkpt>
      <trkpt lat="47.26986" lon="-2.2679">
        <ele>24</ele>
        <time>2021-05-16T09:03:20.000Z</time>
      </trkpt>
      <trkpt lat="47.27018" lon="-2.26764">
        <ele>21.799999237061</ele>
        <time>2021-05-16T09:03:47.000Z</time>
      </trkpt>
      <trkpt lat="47.2702" lon="-2.26763">
        <ele>21.799999237061</ele>
        <time>2021-05-16T09:03:48.000Z</time>
      </trkpt>
      <trkpt lat="47.27024" lon="-2.26758">
        <ele>21.799999237061</ele>
        <time>2021-05-16T09:03:51.000Z</time>
      </trkpt>
      <trkpt lat="47.27025" lon="-2.26757">
        <ele>21.799999237061</ele>
        <time>2021-05-16T09:03:53.000Z</time>
      </trkpt>
      <trkpt lat="47.27036" lon="-2.26743">
        <ele>21.799999237061</ele>
        <time>2021-05-16T09:04:06.000Z</time>
      </trkpt>
      <trkpt lat="47.27036" lon="-2.26715">
        <ele>21.799999237061</ele>
        <time>2021-05-16T09:04:11.000Z</time>
      </trkpt>
      <trkpt lat="47.27035" lon="-2.26686">
        <ele>21.799999237061</ele>
        <time>2021-05-16T09:04:17.000Z</time>
      </trkpt>
      <trkpt lat="47.27034" lon="-2.26651">
        <ele>21.799999237061</ele>
        <time>2021-05-16T09:04:23.000Z</time>
      </trkpt>
      <trkpt lat="47.27031" lon="-2.26639">
        <ele>21.799999237061</ele>
        <time>2021-05-16T09:04:25.000Z</time>
      </trkpt>
      <trkpt lat="47.27026" lon="-2.2663">
        <ele>21.799999237061</ele>
        <time>2021-05-16T09:04:27.000Z</time>
      </trkpt>
      <trkpt lat="47.27012" lon="-2.26606">
        <ele>21.799999237061</ele>
        <time>2021-05-16T09:04:32.000Z</time>
      </trkpt>
      <trkpt lat="47.27008" lon="-2.266">
        <ele>22.39999961853</ele>
        <time>2021-05-16T09:04:33.000Z</time>
      </trkpt>
      <trkpt lat="47.27005" lon="-2.26595">
        <ele>22.799999237061</ele>
        <time>2021-05-16T09:04:34.000Z</time>
      </trkpt>
      <trkpt lat="47.27001" lon="-2.2659">
        <ele>23.200000762939</ele>
        <time>2021-05-16T09:04:35.000Z</time>
      </trkpt>
      <trkpt lat="47.26997" lon="-2.26586">
        <ele>23.60000038147</ele>
        <time>2021-05-16T09:04:36.000Z</time>
      </trkpt>
      <trkpt lat="47.26994" lon="-2.26582">
        <ele>24</ele>
        <time>2021-05-16T09:04:37.000Z</time>
      </trkpt>
      <trkpt lat="47.2699" lon="-2.26578">
        <ele>24</ele>
        <time>2021-05-16T09:04:38.000Z</time>
      </trkpt>
      <trkpt lat="47.26986" lon="-2.26566">
        <ele>24</ele>
        <time>2021-05-16T09:04:40.000Z</time>
      </trkpt>
      <trkpt lat="47.26979" lon="-2.26547">
        <ele>24</ele>
        <time>2021-05-16T09:04:42.000Z</time>
      </trkpt>
      <trkpt lat="47.26967" lon="-2.26512">
        <ele>24</ele>
        <time>2021-05-16T09:04:48.000Z</time>
      </trkpt>
      <trkpt lat="47.26967" lon="-2.26508">
        <ele>24.39999961853</ele>
        <time>2021-05-16T09:04:49.000Z</time>
      </trkpt>
      <trkpt lat="47.26967" lon="-2.26504">
        <ele>24.799999237061</ele>
        <time>2021-05-16T09:04:50.000Z</time>
      </trkpt>
      <trkpt lat="47.26968" lon="-2.26501">
        <ele>25.200000762939</ele>
        <time>2021-05-16T09:04:51.000Z</time>
      </trkpt>
      <trkpt lat="47.26969" lon="-2.26497">
        <ele>26</ele>
        <time>2021-05-16T09:04:52.000Z</time>
      </trkpt>
      <trkpt lat="47.26979" lon="-2.26482">
        <ele>26</ele>
        <time>2021-05-16T09:04:57.000Z</time>
      </trkpt>
      <trkpt lat="47.26983" lon="-2.26474">
        <ele>26</ele>
        <time>2021-05-16T09:05:01.000Z</time>
      </trkpt>
      <trkpt lat="47.26986" lon="-2.26474">
        <ele>26</ele>
        <time>2021-05-16T09:05:33.000Z</time>
      </trkpt>
      <trkpt lat="47.2699" lon="-2.2647">
        <ele>26</ele>
        <time>2021-05-16T09:05:35.000Z</time>
      </trkpt>
      <trkpt lat="47.27003" lon="-2.26449">
        <ele>26</ele>
        <time>2021-05-16T09:05:40.000Z</time>
      </trkpt>
      <trkpt lat="47.2701" lon="-2.2644">
        <ele>26</ele>
        <time>2021-05-16T09:05:42.000Z</time>
      </trkpt>
      <trkpt lat="47.27025" lon="-2.26419">
        <ele>26</ele>
        <time>2021-05-16T09:05:46.000Z</time>
      </trkpt>
      <trkpt lat="47.27052" lon="-2.26382">
        <ele>26</ele>
        <time>2021-05-16T09:05:53.000Z</time>
      </trkpt>
      <trkpt lat="47.27084" lon="-2.26338">
        <ele>26</ele>
        <time>2021-05-16T09:06:01.000Z</time>
      </trkpt>
      <trkpt lat="47.27112" lon="-2.26298">
        <ele>26</ele>
        <time>2021-05-16T09:06:08.000Z</time>
      </trkpt>
      <trkpt lat="47.27123" lon="-2.26281">
        <ele>26</ele>
        <time>2021-05-16T09:06:11.000Z</time>
      </trkpt>
      <trkpt lat="47.27136" lon="-2.26261">
        <ele>26</ele>
        <time>2021-05-16T09:06:14.000Z</time>
      </trkpt>
      <trkpt lat="47.27169" lon="-2.26219">
        <ele>26</ele>
        <time>2021-05-16T09:06:20.000Z</time>
      </trkpt>
      <trkpt lat="47.27206" lon="-2.26183">
        <ele>26</ele>
        <time>2021-05-16T09:06:26.000Z</time>
      </trkpt>
      <trkpt lat="47.27222" lon="-2.2617">
        <ele>25.60000038147</ele>
        <time>2021-05-16T09:06:29.000Z</time>
      </trkpt>
      <trkpt lat="47.27228" lon="-2.26166">
        <ele>24.799999237061</ele>
        <time>2021-05-16T09:06:30.000Z</time>
      </trkpt>
      <trkpt lat="47.27234" lon="-2.26162">
        <ele>24.200000762939</ele>
        <time>2021-05-16T09:06:31.000Z</time>
      </trkpt>
      <trkpt lat="47.2724" lon="-2.26159">
        <ele>23.799999237061</ele>
        <time>2021-05-16T09:06:32.000Z</time>
      </trkpt>
      <trkpt lat="47.2727" lon="-2.26145">
        <ele>23.799999237061</ele>
        <time>2021-05-16T09:06:37.000Z</time>
      </trkpt>
      <trkpt lat="47.27289" lon="-2.26138">
        <ele>23.799999237061</ele>
        <time>2021-05-16T09:06:41.000Z</time>
      </trkpt>
      <trkpt lat="47.27292" lon="-2.26136">
        <ele>23.799999237061</ele>
        <time>2021-05-16T09:06:42.000Z</time>
      </trkpt>
      <trkpt lat="47.27306" lon="-2.2613">
        <ele>23.799999237061</ele>
        <time>2021-05-16T09:06:45.000Z</time>
      </trkpt>
      <trkpt lat="47.27316" lon="-2.26127">
        <ele>23.799999237061</ele>
        <time>2021-05-16T09:06:47.000Z</time>
      </trkpt>
      <trkpt lat="47.27336" lon="-2.26121">
        <ele>23.799999237061</ele>
        <time>2021-05-16T09:06:51.000Z</time>
      </trkpt>
      <trkpt lat="47.27341" lon="-2.2611">
        <ele>23.799999237061</ele>
        <time>2021-05-16T09:06:53.000Z</time>
      </trkpt>
      <trkpt lat="47.27335" lon="-2.2609">
        <ele>23.799999237061</ele>
        <time>2021-05-16T09:06:56.000Z</time>
      </trkpt>
      <trkpt lat="47.27325" lon="-2.26071">
        <ele>23.799999237061</ele>
        <time>2021-05-16T09:06:59.000Z</time>
      </trkpt>
      <trkpt lat="47.27319" lon="-2.26056">
        <ele>23.799999237061</ele>
        <time>2021-05-16T09:07:01.000Z</time>
      </trkpt>
      <trkpt lat="47.27295" lon="-2.26013">
        <ele>23.799999237061</ele>
        <time>2021-05-16T09:07:08.000Z</time>
      </trkpt>
      <trkpt lat="47.27287" lon="-2.25996">
        <ele>23.799999237061</ele>
        <time>2021-05-16T09:07:11.000Z</time>
      </trkpt>
      <trkpt lat="47.27288" lon="-2.25991">
        <ele>23.799999237061</ele>
        <time>2021-05-16T09:07:12.000Z</time>
      </trkpt>
      <trkpt lat="47.27293" lon="-2.25983">
        <ele>23.799999237061</ele>
        <time>2021-05-16T09:07:15.000Z</time>
      </trkpt>
      <trkpt lat="47.27305" lon="-2.25973">
        <ele>23.799999237061</ele>
        <time>2021-05-16T09:07:19.000Z</time>
      </trkpt>
      <trkpt lat="47.27308" lon="-2.25971">
        <ele>23.799999237061</ele>
        <time>2021-05-16T09:07:20.000Z</time>
      </trkpt>
      <trkpt lat="47.27332" lon="-2.25954">
        <ele>23.799999237061</ele>
        <time>2021-05-16T09:07:26.000Z</time>
      </trkpt>
      <trkpt lat="47.27358" lon="-2.25941">
        <ele>23.799999237061</ele>
        <time>2021-05-16T09:07:32.000Z</time>
      </trkpt>
      <trkpt lat="47.27362" lon="-2.25936">
        <ele>23.799999237061</ele>
        <time>2021-05-16T09:07:33.000Z</time>
      </trkpt>
      <trkpt lat="47.27375" lon="-2.25918">
        <ele>23.799999237061</ele>
        <time>2021-05-16T09:07:36.000Z</time>
      </trkpt>
      <trkpt lat="47.2738" lon="-2.25913">
        <ele>23.799999237061</ele>
        <time>2021-05-16T09:07:37.000Z</time>
      </trkpt>
      <trkpt lat="47.27396" lon="-2.25894">
        <ele>23.799999237061</ele>
        <time>2021-05-16T09:07:41.000Z</time>
      </trkpt>
      <trkpt lat="47.27403" lon="-2.25881">
        <ele>23.799999237061</ele>
        <time>2021-05-16T09:07:43.000Z</time>
      </trkpt>
      <trkpt lat="47.27412" lon="-2.25862">
        <ele>23.799999237061</ele>
        <time>2021-05-16T09:07:46.000Z</time>
      </trkpt>
      <trkpt lat="47.27425" lon="-2.25839">
        <ele>23.799999237061</ele>
        <time>2021-05-16T09:07:50.000Z</time>
      </trkpt>
      <trkpt lat="47.27432" lon="-2.25829">
        <ele>23.39999961853</ele>
        <time>2021-05-16T09:07:52.000Z</time>
      </trkpt>
      <trkpt lat="47.27435" lon="-2.25824">
        <ele>23</ele>
        <time>2021-05-16T09:07:53.000Z</time>
      </trkpt>
      <trkpt lat="47.27438" lon="-2.25819">
        <ele>22.60000038147</ele>
        <time>2021-05-16T09:07:54.000Z</time>
      </trkpt>
      <trkpt lat="47.27441" lon="-2.25814">
        <ele>22.200000762939</ele>
        <time>2021-05-16T09:07:55.000Z</time>
      </trkpt>
      <trkpt lat="47.27444" lon="-2.25809">
        <ele>21.799999237061</ele>
        <time>2021-05-16T09:07:56.000Z</time>
      </trkpt>
      <trkpt lat="47.27447" lon="-2.25805">
        <ele>21.799999237061</ele>
        <time>2021-05-16T09:07:57.000Z</time>
      </trkpt>
      <trkpt lat="47.27457" lon="-2.25797">
        <ele>21.799999237061</ele>
        <time>2021-05-16T09:08:00.000Z</time>
      </trkpt>
      <trkpt lat="47.2746" lon="-2.25794">
        <ele>21.799999237061</ele>
        <time>2021-05-16T09:08:01.000Z</time>
      </trkpt>
      <trkpt lat="47.27472" lon="-2.25783">
        <ele>21.799999237061</ele>
        <time>2021-05-16T09:08:06.000Z</time>
      </trkpt>
      <trkpt lat="47.2749" lon="-2.25758">
        <ele>21.799999237061</ele>
        <time>2021-05-16T09:08:13.000Z</time>
      </trkpt>
      <trkpt lat="47.27502" lon="-2.25741">
        <ele>21.799999237061</ele>
        <time>2021-05-16T09:08:17.000Z</time>
      </trkpt>
      <trkpt lat="47.27508" lon="-2.25734">
        <ele>21.799999237061</ele>
        <time>2021-05-16T09:08:19.000Z</time>
      </trkpt>
      <trkpt lat="47.2753" lon="-2.25698">
        <ele>21.39999961853</ele>
        <time>2021-05-16T09:08:26.000Z</time>
      </trkpt>
      <trkpt lat="47.27533" lon="-2.25693">
        <ele>21</ele>
        <time>2021-05-16T09:08:27.000Z</time>
      </trkpt>
      <trkpt lat="47.27537" lon="-2.25686">
        <ele>20.60000038147</ele>
        <time>2021-05-16T09:08:28.000Z</time>
      </trkpt>
      <trkpt lat="47.27541" lon="-2.2568">
        <ele>20.200000762939</ele>
        <time>2021-05-16T09:08:29.000Z</time>
      </trkpt>
      <trkpt lat="47.27544" lon="-2.25674">
        <ele>19.799999237061</ele>
        <time>2021-05-16T09:08:30.000Z</time>
      </trkpt>
      <trkpt lat="47.27553" lon="-2.25661">
        <ele>19.799999237061</ele>
        <time>2021-05-16T09:08:33.000Z</time>
      </trkpt>
      <trkpt lat="47.27563" lon="-2.25647">
        <ele>19.799999237061</ele>
        <time>2021-05-16T09:08:37.000Z</time>
      </trkpt>
      <trkpt lat="47.27569" lon="-2.2563">
        <ele>19.39999961853</ele>
        <time>2021-05-16T09:08:41.000Z</time>
      </trkpt>
      <trkpt lat="47.2757" lon="-2.25626">
        <ele>19</ele>
        <time>2021-05-16T09:08:42.000Z</time>
      </trkpt>
      <trkpt lat="47.27572" lon="-2.25623">
        <ele>18.60000038147</ele>
        <time>2021-05-16T09:08:43.000Z</time>
      </trkpt>
      <trkpt lat="47.27573" lon="-2.25619">
        <ele>18.200000762939</ele>
        <time>2021-05-16T09:08:44.000Z</time>
      </trkpt>
      <trkpt lat="47.27573" lon="-2.25616">
        <ele>17.799999237061</ele>
        <time>2021-05-16T09:08:45.000Z</time>
      </trkpt>
      <trkpt lat="47.27572" lon="-2.25614">
        <ele>17.799999237061</ele>
        <time>2021-05-16T09:08:47.000Z</time>
      </trkpt>
      <trkpt lat="47.27571" lon="-2.25614">
        <ele>17.799999237061</ele>
        <time>2021-05-16T09:08:48.000Z</time>
      </trkpt>
      <trkpt lat="47.27564" lon="-2.25602">
        <ele>17.799999237061</ele>
        <time>2021-05-16T09:08:54.000Z</time>
      </trkpt>
      <trkpt lat="47.27563" lon="-2.25598">
        <ele>17.799999237061</ele>
        <time>2021-05-16T09:08:55.000Z</time>
      </trkpt>
      <trkpt lat="47.27563" lon="-2.2558">
        <ele>17.799999237061</ele>
        <time>2021-05-16T09:08:58.000Z</time>
      </trkpt>
      <trkpt lat="47.27558" lon="-2.25553">
        <ele>17.799999237061</ele>
        <time>2021-05-16T09:09:02.000Z</time>
      </trkpt>
      <trkpt lat="47.27549" lon="-2.25523">
        <ele>17.799999237061</ele>
        <time>2021-05-16T09:09:05.000Z</time>
      </trkpt>
      <trkpt lat="47.27543" lon="-2.2551">
        <ele>17.799999237061</ele>
        <time>2021-05-16T09:09:07.000Z</time>
      </trkpt>
      <trkpt lat="47.27532" lon="-2.25492">
        <ele>17.799999237061</ele>
        <time>2021-05-16T09:09:10.000Z</time>
      </trkpt>
      <trkpt lat="47.27524" lon="-2.25483">
        <ele>17.799999237061</ele>
        <time>2021-05-16T09:09:12.000Z</time>
      </trkpt>
      <trkpt lat="47.27504" lon="-2.25461">
        <ele>17.799999237061</ele>
        <time>2021-05-16T09:09:17.000Z</time>
      </trkpt>
      <trkpt lat="47.27488" lon="-2.2546">
        <ele>17.799999237061</ele>
        <time>2021-05-16T09:09:20.000Z</time>
      </trkpt>
      <trkpt lat="47.27483" lon="-2.25461">
        <ele>17.799999237061</ele>
        <time>2021-05-16T09:09:21.000Z</time>
      </trkpt>
      <trkpt lat="47.27471" lon="-2.2546">
        <ele>17.799999237061</ele>
        <time>2021-05-16T09:09:24.000Z</time>
      </trkpt>
      <trkpt lat="47.27456" lon="-2.25456">
        <ele>17.799999237061</ele>
        <time>2021-05-16T09:09:27.000Z</time>
      </trkpt>
      <trkpt lat="47.27446" lon="-2.2545">
        <ele>17.799999237061</ele>
        <time>2021-05-16T09:09:29.000Z</time>
      </trkpt>
      <trkpt lat="47.27432" lon="-2.25435">
        <ele>17.799999237061</ele>
        <time>2021-05-16T09:09:33.000Z</time>
      </trkpt>
      <trkpt lat="47.27425" lon="-2.25428">
        <ele>17.799999237061</ele>
        <time>2021-05-16T09:09:35.000Z</time>
      </trkpt>
      <trkpt lat="47.2742" lon="-2.25417">
        <ele>17.799999237061</ele>
        <time>2021-05-16T09:09:38.000Z</time>
      </trkpt>
      <trkpt lat="47.27411" lon="-2.25401">
        <ele>17.799999237061</ele>
        <time>2021-05-16T09:09:44.000Z</time>
      </trkpt>
      <trkpt lat="47.27406" lon="-2.25383">
        <ele>17.799999237061</ele>
        <time>2021-05-16T09:09:49.000Z</time>
      </trkpt>
      <trkpt lat="47.27404" lon="-2.25354">
        <ele>17.799999237061</ele>
        <time>2021-05-16T09:09:54.000Z</time>
      </trkpt>
      <trkpt lat="47.27396" lon="-2.2533">
        <ele>17.799999237061</ele>
        <time>2021-05-16T09:09:59.000Z</time>
      </trkpt>
      <trkpt lat="47.27395" lon="-2.25317">
        <ele>17.799999237061</ele>
        <time>2021-05-16T09:10:01.000Z</time>
      </trkpt>
      <trkpt lat="47.27395" lon="-2.25304">
        <ele>17.799999237061</ele>
        <time>2021-05-16T09:10:03.000Z</time>
      </trkpt>
      <trkpt lat="47.27393" lon="-2.2527">
        <ele>17.799999237061</ele>
        <time>2021-05-16T09:10:08.000Z</time>
      </trkpt>
      <trkpt lat="47.27391" lon="-2.2523">
        <ele>17.799999237061</ele>
        <time>2021-05-16T09:10:14.000Z</time>
      </trkpt>
      <trkpt lat="47.27391" lon="-2.25209">
        <ele>17.799999237061</ele>
        <time>2021-05-16T09:10:18.000Z</time>
      </trkpt>
      <trkpt lat="47.27389" lon="-2.2518">
        <ele>17.799999237061</ele>
        <time>2021-05-16T09:10:23.000Z</time>
      </trkpt>
      <trkpt lat="47.27378" lon="-2.2515">
        <ele>17.799999237061</ele>
        <time>2021-05-16T09:10:28.000Z</time>
      </trkpt>
      <trkpt lat="47.27371" lon="-2.25127">
        <ele>17.799999237061</ele>
        <time>2021-05-16T09:10:34.000Z</time>
      </trkpt>
      <trkpt lat="47.27358" lon="-2.25107">
        <ele>17.799999237061</ele>
        <time>2021-05-16T09:10:42.000Z</time>
      </trkpt>
      <trkpt lat="47.27349" lon="-2.25099">
        <ele>17.799999237061</ele>
        <time>2021-05-16T09:10:49.000Z</time>
      </trkpt>
      <trkpt lat="47.27344" lon="-2.25069">
        <ele>17.799999237061</ele>
        <time>2021-05-16T09:20:28.000Z</time>
      </trkpt>
      <trkpt lat="47.27344" lon="-2.25065">
        <ele>17.799999237061</ele>
        <time>2021-05-16T09:20:31.000Z</time>
      </trkpt>
      <trkpt lat="47.27344" lon="-2.25063">
        <ele>17.799999237061</ele>
        <time>2021-05-16T09:20:32.000Z</time>
      </trkpt>
      <trkpt lat="47.27344" lon="-2.25054">
        <ele>17.799999237061</ele>
        <time>2021-05-16T09:20:37.000Z</time>
      </trkpt>
      <trkpt lat="47.27346" lon="-2.25038">
        <ele>17.799999237061</ele>
        <time>2021-05-16T09:20:45.000Z</time>
      </trkpt>
      <trkpt lat="47.27352" lon="-2.25022">
        <ele>17.799999237061</ele>
        <time>2021-05-16T09:20:51.000Z</time>
      </trkpt>
      <trkpt lat="47.27363" lon="-2.25">
        <ele>17.799999237061</ele>
        <time>2021-05-16T09:20:56.000Z</time>
      </trkpt>
      <trkpt lat="47.27384" lon="-2.24972">
        <ele>17.799999237061</ele>
        <time>2021-05-16T09:21:04.000Z</time>
      </trkpt>
      <trkpt lat="47.27409" lon="-2.24961">
        <ele>17.799999237061</ele>
        <time>2021-05-16T09:21:11.000Z</time>
      </trkpt>
      <trkpt lat="47.27421" lon="-2.24948">
        <ele>17.799999237061</ele>
        <time>2021-05-16T09:21:16.000Z</time>
      </trkpt>
      <trkpt lat="47.27427" lon="-2.24939">
        <ele>17.799999237061</ele>
        <time>2021-05-16T09:21:20.000Z</time>
      </trkpt>
      <trkpt lat="47.27427" lon="-2.24936">
        <ele>17.799999237061</ele>
        <time>2021-05-16T09:21:21.000Z</time>
      </trkpt>
      <trkpt lat="47.27425" lon="-2.2493">
        <ele>17.799999237061</ele>
        <time>2021-05-16T09:21:24.000Z</time>
      </trkpt>
      <trkpt lat="47.27424" lon="-2.24927">
        <ele>17.799999237061</ele>
        <time>2021-05-16T09:21:26.000Z</time>
      </trkpt>
      <trkpt lat="47.27423" lon="-2.24923">
        <ele>17.799999237061</ele>
        <time>2021-05-16T09:21:27.000Z</time>
      </trkpt>
      <trkpt lat="47.27421" lon="-2.24913">
        <ele>17.799999237061</ele>
        <time>2021-05-16T09:21:31.000Z</time>
      </trkpt>
      <trkpt lat="47.2742" lon="-2.24908">
        <ele>17.799999237061</ele>
        <time>2021-05-16T09:21:33.000Z</time>
      </trkpt>
      <trkpt lat="47.27415" lon="-2.24899">
        <ele>17.799999237061</ele>
        <time>2021-05-16T09:21:39.000Z</time>
      </trkpt>
      <trkpt lat="47.27408" lon="-2.24894">
        <ele>17.799999237061</ele>
        <time>2021-05-16T09:21:46.000Z</time>
      </trkpt>
      <trkpt lat="47.27408" lon="-2.24892">
        <ele>17.799999237061</ele>
        <time>2021-05-16T09:21:47.000Z</time>
      </trkpt>
      <trkpt lat="47.27407" lon="-2.24883">
        <ele>17.799999237061</ele>
        <time>2021-05-16T09:21:59.000Z</time>
      </trkpt>
      <trkpt lat="47.27407" lon="-2.2488">
        <ele>17.799999237061</ele>
        <time>2021-05-16T09:22:00.000Z</time>
      </trkpt>
      <trkpt lat="47.27408" lon="-2.24879">
        <ele>17.799999237061</ele>
        <time>2021-05-16T09:22:01.000Z</time>
      </trkpt>
      <trkpt lat="47.27424" lon="-2.24832">
        <ele>17.799999237061</ele>
        <time>2021-05-16T09:22:15.000Z</time>
      </trkpt>
      <trkpt lat="47.27439" lon="-2.24794">
        <ele>17.799999237061</ele>
        <time>2021-05-16T09:22:21.000Z</time>
      </trkpt>
      <trkpt lat="47.27449" lon="-2.24784">
        <ele>17.799999237061</ele>
        <time>2021-05-16T09:22:24.000Z</time>
      </trkpt>
      <trkpt lat="47.27452" lon="-2.24783">
        <ele>17.799999237061</ele>
        <time>2021-05-16T09:22:25.000Z</time>
      </trkpt>
      <trkpt lat="47.27458" lon="-2.24783">
        <ele>18.200000762939</ele>
        <time>2021-05-16T09:22:27.000Z</time>
      </trkpt>
      <trkpt lat="47.27461" lon="-2.24783">
        <ele>18.60000038147</ele>
        <time>2021-05-16T09:22:28.000Z</time>
      </trkpt>
      <trkpt lat="47.27463" lon="-2.24783">
        <ele>19.39999961853</ele>
        <time>2021-05-16T09:22:29.000Z</time>
      </trkpt>
      <trkpt lat="47.27466" lon="-2.24783">
        <ele>20</ele>
        <time>2021-05-16T09:22:30.000Z</time>
      </trkpt>
      <trkpt lat="47.27477" lon="-2.24784">
        <ele>20.39999961853</ele>
        <time>2021-05-16T09:22:34.000Z</time>
      </trkpt>
      <trkpt lat="47.27479" lon="-2.24785">
        <ele>20.799999237061</ele>
        <time>2021-05-16T09:22:35.000Z</time>
      </trkpt>
      <trkpt lat="47.27482" lon="-2.24786">
        <ele>21.200000762939</ele>
        <time>2021-05-16T09:22:36.000Z</time>
      </trkpt>
      <trkpt lat="47.27485" lon="-2.24786">
        <ele>21.60000038147</ele>
        <time>2021-05-16T09:22:37.000Z</time>
      </trkpt>
      <trkpt lat="47.27487" lon="-2.24786">
        <ele>22</ele>
        <time>2021-05-16T09:22:38.000Z</time>
      </trkpt>
      <trkpt lat="47.27494" lon="-2.24786">
        <ele>22</ele>
        <time>2021-05-16T09:22:41.000Z</time>
      </trkpt>
      <trkpt lat="47.2751" lon="-2.24784">
        <ele>22.39999961853</ele>
        <time>2021-05-16T09:22:47.000Z</time>
      </trkpt>
      <trkpt lat="47.27513" lon="-2.24783">
        <ele>23</ele>
        <time>2021-05-16T09:22:48.000Z</time>
      </trkpt>
      <trkpt lat="47.27515" lon="-2.24783">
        <ele>23.39999961853</ele>
        <time>2021-05-16T09:22:49.000Z</time>
      </trkpt>
      <trkpt lat="47.27518" lon="-2.24782">
        <ele>23.799999237061</ele>
        <time>2021-05-16T09:22:50.000Z</time>
      </trkpt>
      <trkpt lat="47.27521" lon="-2.24781">
        <ele>24.200000762939</ele>
        <time>2021-05-16T09:22:51.000Z</time>
      </trkpt>
      <trkpt lat="47.27531" lon="-2.2478">
        <ele>24.200000762939</ele>
        <time>2021-05-16T09:22:54.000Z</time>
      </trkpt>
      <trkpt lat="47.27552" lon="-2.24781">
        <ele>24.200000762939</ele>
        <time>2021-05-16T09:23:00.000Z</time>
      </trkpt>
      <trkpt lat="47.27576" lon="-2.24782">
        <ele>24.200000762939</ele>
        <time>2021-05-16T09:23:07.000Z</time>
      </trkpt>
      <trkpt lat="47.27594" lon="-2.24781">
        <ele>24.200000762939</ele>
        <time>2021-05-16T09:23:12.000Z</time>
      </trkpt>
      <trkpt lat="47.27611" lon="-2.24779">
        <ele>24.60000038147</ele>
        <time>2021-05-16T09:23:17.000Z</time>
      </trkpt>
      <trkpt lat="47.27614" lon="-2.24779">
        <ele>25</ele>
        <time>2021-05-16T09:23:18.000Z</time>
      </trkpt>
      <trkpt lat="47.27618" lon="-2.24779">
        <ele>25.799999237061</ele>
        <time>2021-05-16T09:23:19.000Z</time>
      </trkpt>
      <trkpt lat="47.27622" lon="-2.2478">
        <ele>26.200000762939</ele>
        <time>2021-05-16T09:23:20.000Z</time>
      </trkpt>
      <trkpt lat="47.27635" lon="-2.24785">
        <ele>26.200000762939</ele>
        <time>2021-05-16T09:23:23.000Z</time>
      </trkpt>
      <trkpt lat="47.2766" lon="-2.24795">
        <ele>26.200000762939</ele>
        <time>2021-05-16T09:23:28.000Z</time>
      </trkpt>
      <trkpt lat="47.27673" lon="-2.24795">
        <ele>25.799999237061</ele>
        <time>2021-05-16T09:23:30.000Z</time>
      </trkpt>
      <trkpt lat="47.27679" lon="-2.24796">
        <ele>25.39999961853</ele>
        <time>2021-05-16T09:23:31.000Z</time>
      </trkpt>
      <trkpt lat="47.27685" lon="-2.24796">
        <ele>25</ele>
        <time>2021-05-16T09:23:32.000Z</time>
      </trkpt>
      <trkpt lat="47.27691" lon="-2.24797">
        <ele>24.60000038147</ele>
        <time>2021-05-16T09:23:33.000Z</time>
      </trkpt>
      <trkpt lat="47.27697" lon="-2.24797">
        <ele>24.200000762939</ele>
        <time>2021-05-16T09:23:34.000Z</time>
      </trkpt>
      <trkpt lat="47.27745" lon="-2.24799">
        <ele>24.200000762939</ele>
        <time>2021-05-16T09:23:42.000Z</time>
      </trkpt>
      <trkpt lat="47.27776" lon="-2.248">
        <ele>24.200000762939</ele>
        <time>2021-05-16T09:23:48.000Z</time>
      </trkpt>
      <trkpt lat="47.27804" lon="-2.24799">
        <ele>24.200000762939</ele>
        <time>2021-05-16T09:23:54.000Z</time>
      </trkpt>
      <trkpt lat="47.27813" lon="-2.24798">
        <ele>24.200000762939</ele>
        <time>2021-05-16T09:23:56.000Z</time>
      </trkpt>
      <trkpt lat="47.27833" lon="-2.24795">
        <ele>24.200000762939</ele>
        <time>2021-05-16T09:24:00.000Z</time>
      </trkpt>
      <trkpt lat="47.27848" lon="-2.24789">
        <ele>24.200000762939</ele>
        <time>2021-05-16T09:24:03.000Z</time>
      </trkpt>
      <trkpt lat="47.27853" lon="-2.2478">
        <ele>24.200000762939</ele>
        <time>2021-05-16T09:24:05.000Z</time>
      </trkpt>
      <trkpt lat="47.27856" lon="-2.24772">
        <ele>24.200000762939</ele>
        <time>2021-05-16T09:24:07.000Z</time>
      </trkpt>
      <trkpt lat="47.27859" lon="-2.2477">
        <ele>24.200000762939</ele>
        <time>2021-05-16T09:24:08.000Z</time>
      </trkpt>
      <trkpt lat="47.27861" lon="-2.2477">
        <ele>24.200000762939</ele>
        <time>2021-05-16T09:24:09.000Z</time>
      </trkpt>
      <trkpt lat="47.27871" lon="-2.24769">
        <ele>24.200000762939</ele>
        <time>2021-05-16T09:24:12.000Z</time>
      </trkpt>
      <trkpt lat="47.27874" lon="-2.24768">
        <ele>24.200000762939</ele>
        <time>2021-05-16T09:24:13.000Z</time>
      </trkpt>
      <trkpt lat="47.27892" lon="-2.24765">
        <ele>24.60000038147</ele>
        <time>2021-05-16T09:24:18.000Z</time>
      </trkpt>
      <trkpt lat="47.27895" lon="-2.24764">
        <ele>25</ele>
        <time>2021-05-16T09:24:19.000Z</time>
      </trkpt>
      <trkpt lat="47.27897" lon="-2.24764">
        <ele>25.39999961853</ele>
        <time>2021-05-16T09:24:20.000Z</time>
      </trkpt>
      <trkpt lat="47.279" lon="-2.24763">
        <ele>25.799999237061</ele>
        <time>2021-05-16T09:24:21.000Z</time>
      </trkpt>
      <trkpt lat="47.27903" lon="-2.24763">
        <ele>26.39999961853</ele>
        <time>2021-05-16T09:24:22.000Z</time>
      </trkpt>
      <trkpt lat="47.27906" lon="-2.24763">
        <ele>26.799999237061</ele>
        <time>2021-05-16T09:24:23.000Z</time>
      </trkpt>
      <trkpt lat="47.27908" lon="-2.24762">
        <ele>27.39999961853</ele>
        <time>2021-05-16T09:24:24.000Z</time>
      </trkpt>
      <trkpt lat="47.2791" lon="-2.24761">
        <ele>27.799999237061</ele>
        <time>2021-05-16T09:24:25.000Z</time>
      </trkpt>
      <trkpt lat="47.27913" lon="-2.24762">
        <ele>28.39999961853</ele>
        <time>2021-05-16T09:24:26.000Z</time>
      </trkpt>
      <trkpt lat="47.27917" lon="-2.2477">
        <ele>28.39999961853</ele>
        <time>2021-05-16T09:24:29.000Z</time>
      </trkpt>
      <trkpt lat="47.27911" lon="-2.24778">
        <ele>28.39999961853</ele>
        <time>2021-05-16T09:24:32.000Z</time>
      </trkpt>
      <trkpt lat="47.27904" lon="-2.24781">
        <ele>28.39999961853</ele>
        <time>2021-05-16T09:24:34.000Z</time>
      </trkpt>
      <trkpt lat="47.27898" lon="-2.24788">
        <ele>28.39999961853</ele>
        <time>2021-05-16T09:24:36.000Z</time>
      </trkpt>
      <trkpt lat="47.27896" lon="-2.24793">
        <ele>28.39999961853</ele>
        <time>2021-05-16T09:24:37.000Z</time>
      </trkpt>
      <trkpt lat="47.27899" lon="-2.24798">
        <ele>28.39999961853</ele>
        <time>2021-05-16T09:24:39.000Z</time>
      </trkpt>
      <trkpt lat="47.27911" lon="-2.24804">
        <ele>28.39999961853</ele>
        <time>2021-05-16T09:24:42.000Z</time>
      </trkpt>
      <trkpt lat="47.2792" lon="-2.24809">
        <ele>28.39999961853</ele>
        <time>2021-05-16T09:24:44.000Z</time>
      </trkpt>
      <trkpt lat="47.27929" lon="-2.24812">
        <ele>28.39999961853</ele>
        <time>2021-05-16T09:24:46.000Z</time>
      </trkpt>
      <trkpt lat="47.27937" lon="-2.24814">
        <ele>28.39999961853</ele>
        <time>2021-05-16T09:24:48.000Z</time>
      </trkpt>
      <trkpt lat="47.27947" lon="-2.2482">
        <ele>28.39999961853</ele>
        <time>2021-05-16T09:24:51.000Z</time>
      </trkpt>
      <trkpt lat="47.27952" lon="-2.2482">
        <ele>28.39999961853</ele>
        <time>2021-05-16T09:24:52.000Z</time>
      </trkpt>
      <trkpt lat="47.27964" lon="-2.24824">
        <ele>28.39999961853</ele>
        <time>2021-05-16T09:24:55.000Z</time>
      </trkpt>
      <trkpt lat="47.27969" lon="-2.24825">
        <ele>28.39999961853</ele>
        <time>2021-05-16T09:24:56.000Z</time>
      </trkpt>
      <trkpt lat="47.27986" lon="-2.24831">
        <ele>28.39999961853</ele>
        <time>2021-05-16T09:25:00.000Z</time>
      </trkpt>
      <trkpt lat="47.28017" lon="-2.24835">
        <ele>28.39999961853</ele>
        <time>2021-05-16T09:25:06.000Z</time>
      </trkpt>
      <trkpt lat="47.28035" lon="-2.24839">
        <ele>28.39999961853</ele>
        <time>2021-05-16T09:25:14.000Z</time>
      </trkpt>
      <trkpt lat="47.2804" lon="-2.2484">
        <ele>28.39999961853</ele>
        <time>2021-05-16T09:25:15.000Z</time>
      </trkpt>
      <trkpt lat="47.28051" lon="-2.24841">
        <ele>28.39999961853</ele>
        <time>2021-05-16T09:25:18.000Z</time>
      </trkpt>
      <trkpt lat="47.2807" lon="-2.24846">
        <ele>28.39999961853</ele>
        <time>2021-05-16T09:25:23.000Z</time>
      </trkpt>
      <trkpt lat="47.28092" lon="-2.24845">
        <ele>28.39999961853</ele>
        <time>2021-05-16T09:25:28.000Z</time>
      </trkpt>
      <trkpt lat="47.28096" lon="-2.24847">
        <ele>28.39999961853</ele>
        <time>2021-05-16T09:25:29.000Z</time>
      </trkpt>
      <trkpt lat="47.28116" lon="-2.24853">
        <ele>28.39999961853</ele>
        <time>2021-05-16T09:25:33.000Z</time>
      </trkpt>
      <trkpt lat="47.28122" lon="-2.24854">
        <ele>28.39999961853</ele>
        <time>2021-05-16T09:25:34.000Z</time>
      </trkpt>
      <trkpt lat="47.28138" lon="-2.24856">
        <ele>28</ele>
        <time>2021-05-16T09:25:37.000Z</time>
      </trkpt>
      <trkpt lat="47.28143" lon="-2.24856">
        <ele>27.60000038147</ele>
        <time>2021-05-16T09:25:38.000Z</time>
      </trkpt>
      <trkpt lat="47.28147" lon="-2.24855">
        <ele>27.200000762939</ele>
        <time>2021-05-16T09:25:39.000Z</time>
      </trkpt>
      <trkpt lat="47.28151" lon="-2.24854">
        <ele>26.60000038147</ele>
        <time>2021-05-16T09:25:40.000Z</time>
      </trkpt>
      <trkpt lat="47.28153" lon="-2.24853">
        <ele>26.200000762939</ele>
        <time>2021-05-16T09:25:41.000Z</time>
      </trkpt>
      <trkpt lat="47.28157" lon="-2.24845">
        <ele>25.799999237061</ele>
        <time>2021-05-16T09:25:43.000Z</time>
      </trkpt>
      <trkpt lat="47.28157" lon="-2.24841">
        <ele>25.39999961853</ele>
        <time>2021-05-16T09:25:44.000Z</time>
      </trkpt>
      <trkpt lat="47.28157" lon="-2.24836">
        <ele>24.799999237061</ele>
        <time>2021-05-16T09:25:45.000Z</time>
      </trkpt>
      <trkpt lat="47.28157" lon="-2.24831">
        <ele>24.39999961853</ele>
        <time>2021-05-16T09:25:46.000Z</time>
      </trkpt>
      <trkpt lat="47.28157" lon="-2.24825">
        <ele>24</ele>
        <time>2021-05-16T09:25:47.000Z</time>
      </trkpt>
      <trkpt lat="47.28158" lon="-2.24816">
        <ele>24</ele>
        <time>2021-05-16T09:25:49.000Z</time>
      </trkpt>
      <trkpt lat="47.28164" lon="-2.24811">
        <ele>24</ele>
        <time>2021-05-16T09:25:51.000Z</time>
      </trkpt>
      <trkpt lat="47.28174" lon="-2.24811">
        <ele>24</ele>
        <time>2021-05-16T09:25:53.000Z</time>
      </trkpt>
      <trkpt lat="47.2818" lon="-2.24811">
        <ele>24</ele>
        <time>2021-05-16T09:25:54.000Z</time>
      </trkpt>
      <trkpt lat="47.28204" lon="-2.24812">
        <ele>23.60000038147</ele>
        <time>2021-05-16T09:25:57.000Z</time>
      </trkpt>
      <trkpt lat="47.28213" lon="-2.24813">
        <ele>23.200000762939</ele>
        <time>2021-05-16T09:25:58.000Z</time>
      </trkpt>
      <trkpt lat="47.28222" lon="-2.24813">
        <ele>22.60000038147</ele>
        <time>2021-05-16T09:25:59.000Z</time>
      </trkpt>
      <trkpt lat="47.2823" lon="-2.24812">
        <ele>22</ele>
        <time>2021-05-16T09:26:00.000Z</time>
      </trkpt>
      <trkpt lat="47.28237" lon="-2.24809">
        <ele>21.200000762939</ele>
        <time>2021-05-16T09:26:01.000Z</time>
      </trkpt>
      <trkpt lat="47.28244" lon="-2.24806">
        <ele>20.39999961853</ele>
        <time>2021-05-16T09:26:02.000Z</time>
      </trkpt>
      <trkpt lat="47.28251" lon="-2.24802">
        <ele>19.60000038147</ele>
        <time>2021-05-16T09:26:03.000Z</time>
      </trkpt>
      <trkpt lat="47.28258" lon="-2.24798">
        <ele>19</ele>
        <time>2021-05-16T09:26:04.000Z</time>
      </trkpt>
      <trkpt lat="47.28265" lon="-2.24794">
        <ele>18.39999961853</ele>
        <time>2021-05-16T09:26:05.000Z</time>
      </trkpt>
      <trkpt lat="47.28271" lon="-2.24789">
        <ele>17.799999237061</ele>
        <time>2021-05-16T09:26:06.000Z</time>
      </trkpt>
      <trkpt lat="47.28277" lon="-2.24785">
        <ele>17.200000762939</ele>
        <time>2021-05-16T09:26:07.000Z</time>
      </trkpt>
      <trkpt lat="47.28284" lon="-2.2478">
        <ele>16.799999237061</ele>
        <time>2021-05-16T09:26:08.000Z</time>
      </trkpt>
      <trkpt lat="47.28291" lon="-2.24775">
        <ele>16.200000762939</ele>
        <time>2021-05-16T09:26:09.000Z</time>
      </trkpt>
      <trkpt lat="47.28297" lon="-2.24771">
        <ele>15.800000190735</ele>
        <time>2021-05-16T09:26:10.000Z</time>
      </trkpt>
      <trkpt lat="47.28303" lon="-2.24767">
        <ele>15.39999961853</ele>
        <time>2021-05-16T09:26:11.000Z</time>
      </trkpt>
      <trkpt lat="47.2831" lon="-2.24763">
        <ele>14.39999961853</ele>
        <time>2021-05-16T09:26:12.000Z</time>
      </trkpt>
      <trkpt lat="47.28324" lon="-2.24757">
        <ele>14.39999961853</ele>
        <time>2021-05-16T09:26:14.000Z</time>
      </trkpt>
      <trkpt lat="47.28336" lon="-2.24752">
        <ele>14</ele>
        <time>2021-05-16T09:26:16.000Z</time>
      </trkpt>
      <trkpt lat="47.28341" lon="-2.2475">
        <ele>13.60000038147</ele>
        <time>2021-05-16T09:26:17.000Z</time>
      </trkpt>
      <trkpt lat="47.28344" lon="-2.24748">
        <ele>13.199999809265</ele>
        <time>2021-05-16T09:26:18.000Z</time>
      </trkpt>
      <trkpt lat="47.28347" lon="-2.24745">
        <ele>12.800000190735</ele>
        <time>2021-05-16T09:26:19.000Z</time>
      </trkpt>
      <trkpt lat="47.2835" lon="-2.24743">
        <ele>12.39999961853</ele>
        <time>2021-05-16T09:26:20.000Z</time>
      </trkpt>
      <trkpt lat="47.28353" lon="-2.24741">
        <ele>12.39999961853</ele>
        <time>2021-05-16T09:26:21.000Z</time>
      </trkpt>
      <trkpt lat="47.28358" lon="-2.24742">
        <ele>12.39999961853</ele>
        <time>2021-05-16T09:26:23.000Z</time>
      </trkpt>
      <trkpt lat="47.2836" lon="-2.24746">
        <ele>12.39999961853</ele>
        <time>2021-05-16T09:26:24.000Z</time>
      </trkpt>
      <trkpt lat="47.28361" lon="-2.24764">
        <ele>12.39999961853</ele>
        <time>2021-05-16T09:26:27.000Z</time>
      </trkpt>
      <trkpt lat="47.28364" lon="-2.2477">
        <ele>12.39999961853</ele>
        <time>2021-05-16T09:26:28.000Z</time>
      </trkpt>
      <trkpt lat="47.28372" lon="-2.24773">
        <ele>12</ele>
        <time>2021-05-16T09:26:30.000Z</time>
      </trkpt>
      <trkpt lat="47.28377" lon="-2.24772">
        <ele>11.39999961853</ele>
        <time>2021-05-16T09:26:31.000Z</time>
      </trkpt>
      <trkpt lat="47.28381" lon="-2.24771">
        <ele>11</ele>
        <time>2021-05-16T09:26:32.000Z</time>
      </trkpt>
      <trkpt lat="47.28386" lon="-2.24769">
        <ele>10.60000038147</ele>
        <time>2021-05-16T09:26:33.000Z</time>
      </trkpt>
      <trkpt lat="47.28391" lon="-2.24767">
        <ele>10.199999809265</ele>
        <time>2021-05-16T09:26:34.000Z</time>
      </trkpt>
      <trkpt lat="47.28397" lon="-2.24764">
        <ele>10.199999809265</ele>
        <time>2021-05-16T09:26:35.000Z</time>
      </trkpt>
      <trkpt lat="47.28403" lon="-2.24761">
        <ele>10.199999809265</ele>
        <time>2021-05-16T09:26:36.000Z</time>
      </trkpt>
      <trkpt lat="47.28418" lon="-2.24747">
        <ele>10.199999809265</ele>
        <time>2021-05-16T09:26:39.000Z</time>
      </trkpt>
      <trkpt lat="47.28462" lon="-2.24717">
        <ele>10.199999809265</ele>
        <time>2021-05-16T09:26:46.000Z</time>
      </trkpt>
      <trkpt lat="47.28507" lon="-2.24684">
        <ele>9.8000001907349</ele>
        <time>2021-05-16T09:26:53.000Z</time>
      </trkpt>
      <trkpt lat="47.28512" lon="-2.24679">
        <ele>9.3999996185303</ele>
        <time>2021-05-16T09:26:54.000Z</time>
      </trkpt>
      <trkpt lat="47.28518" lon="-2.24675">
        <ele>8.8000001907349</ele>
        <time>2021-05-16T09:26:55.000Z</time>
      </trkpt>
      <trkpt lat="47.28524" lon="-2.24671">
        <ele>8.3999996185303</ele>
        <time>2021-05-16T09:26:56.000Z</time>
      </trkpt>
      <trkpt lat="47.2853" lon="-2.24667">
        <ele>8</ele>
        <time>2021-05-16T09:26:57.000Z</time>
      </trkpt>
      <trkpt lat="47.28566" lon="-2.2464">
        <ele>8</ele>
        <time>2021-05-16T09:27:03.000Z</time>
      </trkpt>
      <trkpt lat="47.28582" lon="-2.24628">
        <ele>8</ele>
        <time>2021-05-16T09:27:07.000Z</time>
      </trkpt>
      <trkpt lat="47.28589" lon="-2.24616">
        <ele>8</ele>
        <time>2021-05-16T09:27:11.000Z</time>
      </trkpt>
      <trkpt lat="47.28599" lon="-2.24601">
        <ele>8</ele>
        <time>2021-05-16T09:27:17.000Z</time>
      </trkpt>
      <trkpt lat="47.28607" lon="-2.24581">
        <ele>8</ele>
        <time>2021-05-16T09:27:21.000Z</time>
      </trkpt>
      <trkpt lat="47.28612" lon="-2.24561">
        <ele>8</ele>
        <time>2021-05-16T09:27:24.000Z</time>
      </trkpt>
      <trkpt lat="47.28615" lon="-2.24548">
        <ele>8.3999996185303</ele>
        <time>2021-05-16T09:27:26.000Z</time>
      </trkpt>
      <trkpt lat="47.28617" lon="-2.24541">
        <ele>8.8000001907349</ele>
        <time>2021-05-16T09:27:27.000Z</time>
      </trkpt>
      <trkpt lat="47.28619" lon="-2.24534">
        <ele>9.1999998092651</ele>
        <time>2021-05-16T09:27:28.000Z</time>
      </trkpt>
      <trkpt lat="47.28621" lon="-2.24528">
        <ele>9.6000003814697</ele>
        <time>2021-05-16T09:27:29.000Z</time>
      </trkpt>
      <trkpt lat="47.28623" lon="-2.24521">
        <ele>10</ele>
        <time>2021-05-16T09:27:30.000Z</time>
      </trkpt>
      <trkpt lat="47.28626" lon="-2.24507">
        <ele>10</ele>
        <time>2021-05-16T09:27:32.000Z</time>
      </trkpt>
      <trkpt lat="47.28641" lon="-2.24444">
        <ele>10</ele>
        <time>2021-05-16T09:27:40.000Z</time>
      </trkpt>
      <trkpt lat="47.28654" lon="-2.24388">
        <ele>10</ele>
        <time>2021-05-16T09:27:47.000Z</time>
      </trkpt>
      <trkpt lat="47.28666" lon="-2.24338">
        <ele>10</ele>
        <time>2021-05-16T09:27:53.000Z</time>
      </trkpt>
      <trkpt lat="47.2868" lon="-2.24285">
        <ele>10</ele>
        <time>2021-05-16T09:28:00.000Z</time>
      </trkpt>
      <trkpt lat="47.2869" lon="-2.24262">
        <ele>9.6000003814697</ele>
        <time>2021-05-16T09:28:05.000Z</time>
      </trkpt>
      <trkpt lat="47.28695" lon="-2.24261">
        <ele>9.1999998092651</ele>
        <time>2021-05-16T09:28:06.000Z</time>
      </trkpt>
      <trkpt lat="47.287" lon="-2.24261">
        <ele>8.8000001907349</ele>
        <time>2021-05-16T09:28:07.000Z</time>
      </trkpt>
      <trkpt lat="47.28705" lon="-2.2426">
        <ele>8.3999996185303</ele>
        <time>2021-05-16T09:28:08.000Z</time>
      </trkpt>
      <trkpt lat="47.2871" lon="-2.2426">
        <ele>8</ele>
        <time>2021-05-16T09:28:09.000Z</time>
      </trkpt>
      <trkpt lat="47.28737" lon="-2.24261">
        <ele>8</ele>
        <time>2021-05-16T09:28:14.000Z</time>
      </trkpt>
      <trkpt lat="47.28743" lon="-2.2426">
        <ele>8</ele>
        <time>2021-05-16T09:28:15.000Z</time>
      </trkpt>
      <trkpt lat="47.28754" lon="-2.2426">
        <ele>8</ele>
        <time>2021-05-16T09:28:17.000Z</time>
      </trkpt>
      <trkpt lat="47.28775" lon="-2.24259">
        <ele>8</ele>
        <time>2021-05-16T09:28:21.000Z</time>
      </trkpt>
      <trkpt lat="47.28788" lon="-2.24249">
        <ele>8</ele>
        <time>2021-05-16T09:28:24.000Z</time>
      </trkpt>
      <trkpt lat="47.28796" lon="-2.24228">
        <ele>8</ele>
        <time>2021-05-16T09:28:28.000Z</time>
      </trkpt>
      <trkpt lat="47.28798" lon="-2.24211">
        <ele>8</ele>
        <time>2021-05-16T09:28:30.000Z</time>
      </trkpt>
      <trkpt lat="47.28797" lon="-2.24202">
        <ele>8</ele>
        <time>2021-05-16T09:28:31.000Z</time>
      </trkpt>
      <trkpt lat="47.28795" lon="-2.24182">
        <ele>8</ele>
        <time>2021-05-16T09:28:33.000Z</time>
      </trkpt>
      <trkpt lat="47.28792" lon="-2.24127">
        <ele>8</ele>
        <time>2021-05-16T09:28:39.000Z</time>
      </trkpt>
      <trkpt lat="47.2879" lon="-2.24054">
        <ele>8</ele>
        <time>2021-05-16T09:28:46.000Z</time>
      </trkpt>
      <trkpt lat="47.28791" lon="-2.24027">
        <ele>7.5999999046326</ele>
        <time>2021-05-16T09:28:49.000Z</time>
      </trkpt>
      <trkpt lat="47.28792" lon="-2.24018">
        <ele>7</ele>
        <time>2021-05-16T09:28:50.000Z</time>
      </trkpt>
      <trkpt lat="47.28792" lon="-2.24009">
        <ele>6.5999999046326</ele>
        <time>2021-05-16T09:28:51.000Z</time>
      </trkpt>
      <trkpt lat="47.28792" lon="-2.23999">
        <ele>6.1999998092651</ele>
        <time>2021-05-16T09:28:52.000Z</time>
      </trkpt>
      <trkpt lat="47.28793" lon="-2.23989">
        <ele>5.8000001907349</ele>
        <time>2021-05-16T09:28:53.000Z</time>
      </trkpt>
      <trkpt lat="47.28795" lon="-2.23943">
        <ele>5.8000001907349</ele>
        <time>2021-05-16T09:28:58.000Z</time>
      </trkpt>
      <trkpt lat="47.28796" lon="-2.23934">
        <ele>5.8000001907349</ele>
        <time>2021-05-16T09:28:59.000Z</time>
      </trkpt>
      <trkpt lat="47.28798" lon="-2.239">
        <ele>5.8000001907349</ele>
        <time>2021-05-16T09:29:03.000Z</time>
      </trkpt>
      <trkpt lat="47.288" lon="-2.23854">
        <ele>5.8000001907349</ele>
        <time>2021-05-16T09:29:08.000Z</time>
      </trkpt>
      <trkpt lat="47.28798" lon="-2.23846">
        <ele>5.8000001907349</ele>
        <time>2021-05-16T09:29:09.000Z</time>
      </trkpt>
      <trkpt lat="47.28787" lon="-2.23818">
        <ele>5.8000001907349</ele>
        <time>2021-05-16T09:29:13.000Z</time>
      </trkpt>
      <trkpt lat="47.28784" lon="-2.23812">
        <ele>5.8000001907349</ele>
        <time>2021-05-16T09:29:14.000Z</time>
      </trkpt>
      <trkpt lat="47.2877" lon="-2.23787">
        <ele>5.8000001907349</ele>
        <time>2021-05-16T09:29:19.000Z</time>
      </trkpt>
      <trkpt lat="47.28753" lon="-2.23754">
        <ele>5.8000001907349</ele>
        <time>2021-05-16T09:29:26.000Z</time>
      </trkpt>
      <trkpt lat="47.28744" lon="-2.23734">
        <ele>5.8000001907349</ele>
        <time>2021-05-16T09:29:30.000Z</time>
      </trkpt>
      <trkpt lat="47.28725" lon="-2.23703">
        <ele>5.8000001907349</ele>
        <time>2021-05-16T09:29:36.000Z</time>
      </trkpt>
      <trkpt lat="47.28703" lon="-2.23662">
        <ele>5.8000001907349</ele>
        <time>2021-05-16T09:29:43.000Z</time>
      </trkpt>
      <trkpt lat="47.28691" lon="-2.23642">
        <ele>5.8000001907349</ele>
        <time>2021-05-16T09:29:47.000Z</time>
      </trkpt>
      <trkpt lat="47.28688" lon="-2.23636">
        <ele>5.8000001907349</ele>
        <time>2021-05-16T09:29:48.000Z</time>
      </trkpt>
      <trkpt lat="47.28682" lon="-2.23624">
        <ele>5.8000001907349</ele>
        <time>2021-05-16T09:29:50.000Z</time>
      </trkpt>
      <trkpt lat="47.2867" lon="-2.23603">
        <ele>5.8000001907349</ele>
        <time>2021-05-16T09:29:54.000Z</time>
      </trkpt>
      <trkpt lat="47.28666" lon="-2.23599">
        <ele>5.8000001907349</ele>
        <time>2021-05-16T09:29:55.000Z</time>
      </trkpt>
      <trkpt lat="47.28654" lon="-2.23587">
        <ele>5.8000001907349</ele>
        <time>2021-05-16T09:29:58.000Z</time>
      </trkpt>
      <trkpt lat="47.28644" lon="-2.2358">
        <ele>5.8000001907349</ele>
        <time>2021-05-16T09:30:00.000Z</time>
      </trkpt>
      <trkpt lat="47.28632" lon="-2.23572">
        <ele>5.8000001907349</ele>
        <time>2021-05-16T09:30:03.000Z</time>
      </trkpt>
      <trkpt lat="47.28635" lon="-2.23564">
        <ele>5.8000001907349</ele>
        <time>2021-05-16T09:30:06.000Z</time>
      </trkpt>
      <trkpt lat="47.28644" lon="-2.23555">
        <ele>5.8000001907349</ele>
        <time>2021-05-16T09:30:09.000Z</time>
      </trkpt>
      <trkpt lat="47.28648" lon="-2.23529">
        <ele>5.8000001907349</ele>
        <time>2021-05-16T09:30:13.000Z</time>
      </trkpt>
      <trkpt lat="47.28648" lon="-2.23523">
        <ele>5.8000001907349</ele>
        <time>2021-05-16T09:30:14.000Z</time>
      </trkpt>
      <trkpt lat="47.28648" lon="-2.23511">
        <ele>5.8000001907349</ele>
        <time>2021-05-16T09:30:16.000Z</time>
      </trkpt>
      <trkpt lat="47.2865" lon="-2.23491">
        <ele>5.8000001907349</ele>
        <time>2021-05-16T09:30:19.000Z</time>
      </trkpt>
      <trkpt lat="47.28653" lon="-2.23464">
        <ele>5.8000001907349</ele>
        <time>2021-05-16T09:30:23.000Z</time>
      </trkpt>
      <trkpt lat="47.28652" lon="-2.23457">
        <ele>5.8000001907349</ele>
        <time>2021-05-16T09:30:24.000Z</time>
      </trkpt>
      <trkpt lat="47.28649" lon="-2.23439">
        <ele>5.8000001907349</ele>
        <time>2021-05-16T09:30:27.000Z</time>
      </trkpt>
      <trkpt lat="47.28646" lon="-2.23433">
        <ele>5.8000001907349</ele>
        <time>2021-05-16T09:30:28.000Z</time>
      </trkpt>
      <trkpt lat="47.28644" lon="-2.23425">
        <ele>5.8000001907349</ele>
        <time>2021-05-16T09:30:29.000Z</time>
      </trkpt>
      <trkpt lat="47.28641" lon="-2.23409">
        <ele>5.8000001907349</ele>
        <time>2021-05-16T09:30:31.000Z</time>
      </trkpt>
      <trkpt lat="47.28639" lon="-2.23392">
        <ele>5.8000001907349</ele>
        <time>2021-05-16T09:30:33.000Z</time>
      </trkpt>
      <trkpt lat="47.2864" lon="-2.23383">
        <ele>5.8000001907349</ele>
        <time>2021-05-16T09:30:34.000Z</time>
      </trkpt>
      <trkpt lat="47.28646" lon="-2.23363">
        <ele>5.8000001907349</ele>
        <time>2021-05-16T09:30:37.000Z</time>
      </trkpt>
      <trkpt lat="47.28656" lon="-2.23364">
        <ele>5.8000001907349</ele>
        <time>2021-05-16T09:30:40.000Z</time>
      </trkpt>
      <trkpt lat="47.28659" lon="-2.23367">
        <ele>5.8000001907349</ele>
        <time>2021-05-16T09:30:42.000Z</time>
      </trkpt>
      <trkpt lat="47.2866" lon="-2.23366">
        <ele>5.8000001907349</ele>
        <time>2021-05-16T09:30:45.000Z</time>
      </trkpt>
      <trkpt lat="47.28663" lon="-2.23366">
        <ele>5.8000001907349</ele>
        <time>2021-05-16T09:30:57.000Z</time>
      </trkpt>
      <trkpt lat="47.28665" lon="-2.23362">
        <ele>5.8000001907349</ele>
        <time>2021-05-16T09:30:59.000Z</time>
      </trkpt>
      <trkpt lat="47.28666" lon="-2.23359">
        <ele>5.8000001907349</ele>
        <time>2021-05-16T09:31:00.000Z</time>
      </trkpt>
      <trkpt lat="47.28668" lon="-2.23336">
        <ele>5.8000001907349</ele>
        <time>2021-05-16T09:31:04.000Z</time>
      </trkpt>
      <trkpt lat="47.28671" lon="-2.23307">
        <ele>5.8000001907349</ele>
        <time>2021-05-16T09:31:10.000Z</time>
      </trkpt>
      <trkpt lat="47.28672" lon="-2.23304">
        <ele>6.1999998092651</ele>
        <time>2021-05-16T09:31:11.000Z</time>
      </trkpt>
      <trkpt lat="47.28672" lon="-2.23301">
        <ele>6.8000001907349</ele>
        <time>2021-05-16T09:31:12.000Z</time>
      </trkpt>
      <trkpt lat="47.28672" lon="-2.23298">
        <ele>7.1999998092651</ele>
        <time>2021-05-16T09:31:13.000Z</time>
      </trkpt>
      <trkpt lat="47.28671" lon="-2.23293">
        <ele>7.5999999046326</ele>
        <time>2021-05-16T09:31:14.000Z</time>
      </trkpt>
      <trkpt lat="47.28672" lon="-2.23288">
        <ele>8</ele>
        <time>2021-05-16T09:31:15.000Z</time>
      </trkpt>
      <trkpt lat="47.28674" lon="-2.23283">
        <ele>8</ele>
        <time>2021-05-16T09:31:17.000Z</time>
      </trkpt>
      <trkpt lat="47.28676" lon="-2.2328">
        <ele>8</ele>
        <time>2021-05-16T09:31:18.000Z</time>
      </trkpt>
      <trkpt lat="47.28686" lon="-2.2326">
        <ele>8</ele>
        <time>2021-05-16T09:31:24.000Z</time>
      </trkpt>
      <trkpt lat="47.2869" lon="-2.23244">
        <ele>8</ele>
        <time>2021-05-16T09:31:27.000Z</time>
      </trkpt>
      <trkpt lat="47.2869" lon="-2.23238">
        <ele>8</ele>
        <time>2021-05-16T09:31:28.000Z</time>
      </trkpt>
      <trkpt lat="47.28683" lon="-2.23228">
        <ele>8</ele>
        <time>2021-05-16T09:31:30.000Z</time>
      </trkpt>
      <trkpt lat="47.28664" lon="-2.23214">
        <ele>8</ele>
        <time>2021-05-16T09:31:33.000Z</time>
      </trkpt>
      <trkpt lat="47.28658" lon="-2.23212">
        <ele>8</ele>
        <time>2021-05-16T09:31:34.000Z</time>
      </trkpt>
      <trkpt lat="47.28645" lon="-2.2321">
        <ele>7.5999999046326</ele>
        <time>2021-05-16T09:31:36.000Z</time>
      </trkpt>
      <trkpt lat="47.28639" lon="-2.2321">
        <ele>7.1999998092651</ele>
        <time>2021-05-16T09:31:37.000Z</time>
      </trkpt>
      <trkpt lat="47.28634" lon="-2.2321">
        <ele>6.8000001907349</ele>
        <time>2021-05-16T09:31:38.000Z</time>
      </trkpt>
      <trkpt lat="47.28626" lon="-2.23208">
        <ele>6.4000000953674</ele>
        <time>2021-05-16T09:31:39.000Z</time>
      </trkpt>
      <trkpt lat="47.28621" lon="-2.23209">
        <ele>6</ele>
        <time>2021-05-16T09:31:40.000Z</time>
      </trkpt>
      <trkpt lat="47.28612" lon="-2.23213">
        <ele>6</ele>
        <time>2021-05-16T09:31:42.000Z</time>
      </trkpt>
      <trkpt lat="47.28608" lon="-2.23217">
        <ele>6</ele>
        <time>2021-05-16T09:31:43.000Z</time>
      </trkpt>
      <trkpt lat="47.28598" lon="-2.23232">
        <ele>6</ele>
        <time>2021-05-16T09:31:46.000Z</time>
      </trkpt>
      <trkpt lat="47.28596" lon="-2.23239">
        <ele>6</ele>
        <time>2021-05-16T09:31:47.000Z</time>
      </trkpt>
      <trkpt lat="47.28591" lon="-2.2326">
        <ele>6</ele>
        <time>2021-05-16T09:31:50.000Z</time>
      </trkpt>
      <trkpt lat="47.28591" lon="-2.23267">
        <ele>6</ele>
        <time>2021-05-16T09:31:51.000Z</time>
      </trkpt>
      <trkpt lat="47.28593" lon="-2.23286">
        <ele>6</ele>
        <time>2021-05-16T09:31:54.000Z</time>
      </trkpt>
      <trkpt lat="47.28602" lon="-2.23301">
        <ele>6</ele>
        <time>2021-05-16T09:31:57.000Z</time>
      </trkpt>
      <trkpt lat="47.28607" lon="-2.23304">
        <ele>6</ele>
        <time>2021-05-16T09:31:58.000Z</time>
      </trkpt>
      <trkpt lat="47.28622" lon="-2.23306">
        <ele>6</ele>
        <time>2021-05-16T09:32:01.000Z</time>
      </trkpt>
      <trkpt lat="47.28631" lon="-2.23306">
        <ele>6</ele>
        <time>2021-05-16T09:32:03.000Z</time>
      </trkpt>
      <trkpt lat="47.28638" lon="-2.23304">
        <ele>6</ele>
        <time>2021-05-16T09:32:05.000Z</time>
      </trkpt>
      <trkpt lat="47.28651" lon="-2.23308">
        <ele>6</ele>
        <time>2021-05-16T09:32:09.000Z</time>
      </trkpt>
      <trkpt lat="47.28652" lon="-2.23324">
        <ele>6</ele>
        <time>2021-05-16T09:32:12.000Z</time>
      </trkpt>
      <trkpt lat="47.28651" lon="-2.23334">
        <ele>6</ele>
        <time>2021-05-16T09:32:14.000Z</time>
      </trkpt>
      <trkpt lat="47.28651" lon="-2.23344">
        <ele>6</ele>
        <time>2021-05-16T09:32:17.000Z</time>
      </trkpt>
      <trkpt lat="47.28651" lon="-2.23344">
        <ele>6</ele>
        <time>2021-05-16T09:32:19.000Z</time>
      </trkpt>
      <trkpt lat="47.2865" lon="-2.23349">
        <ele>6</ele>
        <time>2021-05-16T09:33:07.000Z</time>
      </trkpt>
      <trkpt lat="47.2865" lon="-2.23353">
        <ele>6</ele>
        <time>2021-05-16T09:33:08.000Z</time>
      </trkpt>
      <trkpt lat="47.28646" lon="-2.23367">
        <ele>6</ele>
        <time>2021-05-16T09:33:12.000Z</time>
      </trkpt>
      <trkpt lat="47.28644" lon="-2.2339">
        <ele>6</ele>
        <time>2021-05-16T09:33:16.000Z</time>
      </trkpt>
      <trkpt lat="47.28648" lon="-2.23424">
        <ele>6</ele>
        <time>2021-05-16T09:33:22.000Z</time>
      </trkpt>
      <trkpt lat="47.28652" lon="-2.23451">
        <ele>6</ele>
        <time>2021-05-16T09:33:28.000Z</time>
      </trkpt>
      <trkpt lat="47.28649" lon="-2.23491">
        <ele>6</ele>
        <time>2021-05-16T09:33:34.000Z</time>
      </trkpt>
      <trkpt lat="47.28648" lon="-2.23534">
        <ele>6</ele>
        <time>2021-05-16T09:33:40.000Z</time>
      </trkpt>
      <trkpt lat="47.28648" lon="-2.23541">
        <ele>6</ele>
        <time>2021-05-16T09:33:41.000Z</time>
      </trkpt>
      <trkpt lat="47.28657" lon="-2.23554">
        <ele>6</ele>
        <time>2021-05-16T09:33:44.000Z</time>
      </trkpt>
      <trkpt lat="47.28672" lon="-2.23566">
        <ele>6</ele>
        <time>2021-05-16T09:33:48.000Z</time>
      </trkpt>
      <trkpt lat="47.28675" lon="-2.2357">
        <ele>6</ele>
        <time>2021-05-16T09:33:49.000Z</time>
      </trkpt>
      <trkpt lat="47.28683" lon="-2.2358">
        <ele>6</ele>
        <time>2021-05-16T09:33:51.000Z</time>
      </trkpt>
      <trkpt lat="47.28691" lon="-2.23589">
        <ele>6</ele>
        <time>2021-05-16T09:33:53.000Z</time>
      </trkpt>
      <trkpt lat="47.28696" lon="-2.23591">
        <ele>6</ele>
        <time>2021-05-16T09:33:54.000Z</time>
      </trkpt>
      <trkpt lat="47.28709" lon="-2.2359">
        <ele>6</ele>
        <time>2021-05-16T09:33:57.000Z</time>
      </trkpt>
      <trkpt lat="47.28713" lon="-2.23588">
        <ele>6</ele>
        <time>2021-05-16T09:33:58.000Z</time>
      </trkpt>
      <trkpt lat="47.28717" lon="-2.23584">
        <ele>6</ele>
        <time>2021-05-16T09:33:59.000Z</time>
      </trkpt>
      <trkpt lat="47.28723" lon="-2.23575">
        <ele>6</ele>
        <time>2021-05-16T09:34:01.000Z</time>
      </trkpt>
      <trkpt lat="47.28729" lon="-2.23565">
        <ele>6</ele>
        <time>2021-05-16T09:34:03.000Z</time>
      </trkpt>
      <trkpt lat="47.28737" lon="-2.23553">
        <ele>6</ele>
        <time>2021-05-16T09:34:06.000Z</time>
      </trkpt>
      <trkpt lat="47.28751" lon="-2.23538">
        <ele>6</ele>
        <time>2021-05-16T09:34:12.000Z</time>
      </trkpt>
      <trkpt lat="47.28755" lon="-2.23535">
        <ele>6.4000000953674</ele>
        <time>2021-05-16T09:34:14.000Z</time>
      </trkpt>
      <trkpt lat="47.28756" lon="-2.23534">
        <ele>6.8000001907349</ele>
        <time>2021-05-16T09:34:15.000Z</time>
      </trkpt>
      <trkpt lat="47.28758" lon="-2.23532">
        <ele>7.1999998092651</ele>
        <time>2021-05-16T09:34:16.000Z</time>
      </trkpt>
      <trkpt lat="47.2876" lon="-2.23529">
        <ele>7.5999999046326</ele>
        <time>2021-05-16T09:34:17.000Z</time>
      </trkpt>
      <trkpt lat="47.28762" lon="-2.23527">
        <ele>8</ele>
        <time>2021-05-16T09:34:18.000Z</time>
      </trkpt>
      <trkpt lat="47.28784" lon="-2.23516">
        <ele>8.3999996185303</ele>
        <time>2021-05-16T09:34:25.000Z</time>
      </trkpt>
      <trkpt lat="47.28787" lon="-2.23515">
        <ele>8.8000001907349</ele>
        <time>2021-05-16T09:34:26.000Z</time>
      </trkpt>
      <trkpt lat="47.28791" lon="-2.23514">
        <ele>9.1999998092651</ele>
        <time>2021-05-16T09:34:27.000Z</time>
      </trkpt>
      <trkpt lat="47.28794" lon="-2.23513">
        <ele>9.6000003814697</ele>
        <time>2021-05-16T09:34:28.000Z</time>
      </trkpt>
      <trkpt lat="47.28798" lon="-2.23513">
        <ele>10</ele>
        <time>2021-05-16T09:34:29.000Z</time>
      </trkpt>
      <trkpt lat="47.28804" lon="-2.23513">
        <ele>10</ele>
        <time>2021-05-16T09:34:31.000Z</time>
      </trkpt>
      <trkpt lat="47.28825" lon="-2.23513">
        <ele>10</ele>
        <time>2021-05-16T09:34:38.000Z</time>
      </trkpt>
      <trkpt lat="47.28847" lon="-2.23512">
        <ele>10</ele>
        <time>2021-05-16T09:34:46.000Z</time>
      </trkpt>
      <trkpt lat="47.28852" lon="-2.23511">
        <ele>10.39999961853</ele>
        <time>2021-05-16T09:34:48.000Z</time>
      </trkpt>
      <trkpt lat="47.28854" lon="-2.23511">
        <ele>10.800000190735</ele>
        <time>2021-05-16T09:34:49.000Z</time>
      </trkpt>
      <trkpt lat="47.28857" lon="-2.2351">
        <ele>11.60000038147</ele>
        <time>2021-05-16T09:34:50.000Z</time>
      </trkpt>
      <trkpt lat="47.2886" lon="-2.2351">
        <ele>12.199999809265</ele>
        <time>2021-05-16T09:34:51.000Z</time>
      </trkpt>
      <trkpt lat="47.28871" lon="-2.23508">
        <ele>12.199999809265</ele>
        <time>2021-05-16T09:34:55.000Z</time>
      </trkpt>
      <trkpt lat="47.28887" lon="-2.23506">
        <ele>12.60000038147</ele>
        <time>2021-05-16T09:35:00.000Z</time>
      </trkpt>
      <trkpt lat="47.2889" lon="-2.23507">
        <ele>13</ele>
        <time>2021-05-16T09:35:01.000Z</time>
      </trkpt>
      <trkpt lat="47.28894" lon="-2.23507">
        <ele>13.60000038147</ele>
        <time>2021-05-16T09:35:02.000Z</time>
      </trkpt>
      <trkpt lat="47.28897" lon="-2.23506">
        <ele>14</ele>
        <time>2021-05-16T09:35:03.000Z</time>
      </trkpt>
      <trkpt lat="47.28901" lon="-2.23506">
        <ele>14.39999961853</ele>
        <time>2021-05-16T09:35:04.000Z</time>
      </trkpt>
      <trkpt lat="47.28918" lon="-2.23502">
        <ele>14.39999961853</ele>
        <time>2021-05-16T09:35:09.000Z</time>
      </trkpt>
      <trkpt lat="47.28949" lon="-2.23495">
        <ele>14.39999961853</ele>
        <time>2021-05-16T09:35:18.000Z</time>
      </trkpt>
      <trkpt lat="47.28961" lon="-2.23491">
        <ele>14.39999961853</ele>
        <time>2021-05-16T09:35:21.000Z</time>
      </trkpt>
      <trkpt lat="47.28962" lon="-2.23487">
        <ele>14.39999961853</ele>
        <time>2021-05-16T09:35:22.000Z</time>
      </trkpt>
      <trkpt lat="47.28965" lon="-2.23455">
        <ele>14.39999961853</ele>
        <time>2021-05-16T09:35:27.000Z</time>
      </trkpt>
      <trkpt lat="47.28968" lon="-2.23404">
        <ele>14.39999961853</ele>
        <time>2021-05-16T09:35:34.000Z</time>
      </trkpt>
      <trkpt lat="47.28972" lon="-2.23334">
        <ele>14.39999961853</ele>
        <time>2021-05-16T09:35:43.000Z</time>
      </trkpt>
      <trkpt lat="47.28978" lon="-2.23267">
        <ele>14</ele>
        <time>2021-05-16T09:35:50.000Z</time>
      </trkpt>
      <trkpt lat="47.28978" lon="-2.23257">
        <ele>13.60000038147</ele>
        <time>2021-05-16T09:35:51.000Z</time>
      </trkpt>
      <trkpt lat="47.28979" lon="-2.23246">
        <ele>13.199999809265</ele>
        <time>2021-05-16T09:35:52.000Z</time>
      </trkpt>
      <trkpt lat="47.2898" lon="-2.23235">
        <ele>12.800000190735</ele>
        <time>2021-05-16T09:35:53.000Z</time>
      </trkpt>
      <trkpt lat="47.28981" lon="-2.23224">
        <ele>12.39999961853</ele>
        <time>2021-05-16T09:35:54.000Z</time>
      </trkpt>
      <trkpt lat="47.28984" lon="-2.23189">
        <ele>12.39999961853</ele>
        <time>2021-05-16T09:35:57.000Z</time>
      </trkpt>
      <trkpt lat="47.2899" lon="-2.2314">
        <ele>11.800000190735</ele>
        <time>2021-05-16T09:36:01.000Z</time>
      </trkpt>
      <trkpt lat="47.28991" lon="-2.23128">
        <ele>11.39999961853</ele>
        <time>2021-05-16T09:36:02.000Z</time>
      </trkpt>
      <trkpt lat="47.28993" lon="-2.23115">
        <ele>11</ele>
        <time>2021-05-16T09:36:03.000Z</time>
      </trkpt>
      <trkpt lat="47.28995" lon="-2.23102">
        <ele>10.39999961853</ele>
        <time>2021-05-16T09:36:04.000Z</time>
      </trkpt>
      <trkpt lat="47.28996" lon="-2.2309">
        <ele>10</ele>
        <time>2021-05-16T09:36:05.000Z</time>
      </trkpt>
      <trkpt lat="47.29001" lon="-2.23065">
        <ele>9.3999996185303</ele>
        <time>2021-05-16T09:36:07.000Z</time>
      </trkpt>
      <trkpt lat="47.29004" lon="-2.23052">
        <ele>9</ele>
        <time>2021-05-16T09:36:08.000Z</time>
      </trkpt>
      <trkpt lat="47.29007" lon="-2.23041">
        <ele>8.6000003814697</ele>
        <time>2021-05-16T09:36:09.000Z</time>
      </trkpt>
      <trkpt lat="47.29011" lon="-2.23031">
        <ele>8.1999998092651</ele>
        <time>2021-05-16T09:36:10.000Z</time>
      </trkpt>
      <trkpt lat="47.29013" lon="-2.23022">
        <ele>7.5999999046326</ele>
        <time>2021-05-16T09:36:11.000Z</time>
      </trkpt>
      <trkpt lat="47.29015" lon="-2.23014">
        <ele>7</ele>
        <time>2021-05-16T09:36:12.000Z</time>
      </trkpt>
      <trkpt lat="47.29016" lon="-2.23008">
        <ele>6.4000000953674</ele>
        <time>2021-05-16T09:36:13.000Z</time>
      </trkpt>
      <trkpt lat="47.29018" lon="-2.23003">
        <ele>5.8000001907349</ele>
        <time>2021-05-16T09:36:14.000Z</time>
      </trkpt>
      <trkpt lat="47.2902" lon="-2.23">
        <ele>5.1999998092651</ele>
        <time>2021-05-16T09:36:15.000Z</time>
      </trkpt>
      <trkpt lat="47.29024" lon="-2.22987">
        <ele>5.1999998092651</ele>
        <time>2021-05-16T09:36:18.000Z</time>
      </trkpt>
      <trkpt lat="47.29028" lon="-2.22972">
        <ele>5.1999998092651</ele>
        <time>2021-05-16T09:36:21.000Z</time>
      </trkpt>
      <trkpt lat="47.29032" lon="-2.22973">
        <ele>5.1999998092651</ele>
        <time>2021-05-16T09:36:22.000Z</time>
      </trkpt>
      <trkpt lat="47.29039" lon="-2.22982">
        <ele>5.1999998092651</ele>
        <time>2021-05-16T09:36:24.000Z</time>
      </trkpt>
      <trkpt lat="47.29046" lon="-2.22994">
        <ele>5.1999998092651</ele>
        <time>2021-05-16T09:36:26.000Z</time>
      </trkpt>
      <trkpt lat="47.2906" lon="-2.23011">
        <ele>5.1999998092651</ele>
        <time>2021-05-16T09:36:29.000Z</time>
      </trkpt>
      <trkpt lat="47.29097" lon="-2.23057">
        <ele>5.1999998092651</ele>
        <time>2021-05-16T09:36:36.000Z</time>
      </trkpt>
      <trkpt lat="47.29139" lon="-2.23109">
        <ele>5.1999998092651</ele>
        <time>2021-05-16T09:36:43.000Z</time>
      </trkpt>
      <trkpt lat="47.29183" lon="-2.23164">
        <ele>5.5999999046326</ele>
        <time>2021-05-16T09:36:50.000Z</time>
      </trkpt>
      <trkpt lat="47.29188" lon="-2.23173">
        <ele>6.1999998092651</ele>
        <time>2021-05-16T09:36:51.000Z</time>
      </trkpt>
      <trkpt lat="47.29193" lon="-2.23181">
        <ele>6.5999999046326</ele>
        <time>2021-05-16T09:36:52.000Z</time>
      </trkpt>
      <trkpt lat="47.29197" lon="-2.23189">
        <ele>7</ele>
        <time>2021-05-16T09:36:53.000Z</time>
      </trkpt>
      <trkpt lat="47.29201" lon="-2.23199">
        <ele>7.4000000953674</ele>
        <time>2021-05-16T09:36:54.000Z</time>
      </trkpt>
      <trkpt lat="47.29203" lon="-2.2321">
        <ele>7.4000000953674</ele>
        <time>2021-05-16T09:36:55.000Z</time>
      </trkpt>
      <trkpt lat="47.29208" lon="-2.2323">
        <ele>7.4000000953674</ele>
        <time>2021-05-16T09:36:57.000Z</time>
      </trkpt>
      <trkpt lat="47.29218" lon="-2.23246">
        <ele>7.4000000953674</ele>
        <time>2021-05-16T09:36:59.000Z</time>
      </trkpt>
      <trkpt lat="47.29229" lon="-2.2326">
        <ele>7.4000000953674</ele>
        <time>2021-05-16T09:37:01.000Z</time>
      </trkpt>
      <trkpt lat="47.29246" lon="-2.23282">
        <ele>7.4000000953674</ele>
        <time>2021-05-16T09:37:04.000Z</time>
      </trkpt>
      <trkpt lat="47.29256" lon="-2.23299">
        <ele>7.4000000953674</ele>
        <time>2021-05-16T09:37:06.000Z</time>
      </trkpt>
      <trkpt lat="47.29263" lon="-2.23318">
        <ele>7.4000000953674</ele>
        <time>2021-05-16T09:37:08.000Z</time>
      </trkpt>
      <trkpt lat="47.29274" lon="-2.23364">
        <ele>7.4000000953674</ele>
        <time>2021-05-16T09:37:13.000Z</time>
      </trkpt>
      <trkpt lat="47.29286" lon="-2.23426">
        <ele>7.4000000953674</ele>
        <time>2021-05-16T09:37:20.000Z</time>
      </trkpt>
      <trkpt lat="47.293" lon="-2.2349">
        <ele>7.4000000953674</ele>
        <time>2021-05-16T09:37:28.000Z</time>
      </trkpt>
      <trkpt lat="47.29311" lon="-2.23556">
        <ele>7.4000000953674</ele>
        <time>2021-05-16T09:37:36.000Z</time>
      </trkpt>
      <trkpt lat="47.29314" lon="-2.23614">
        <ele>7.4000000953674</ele>
        <time>2021-05-16T09:37:43.000Z</time>
      </trkpt>
      <trkpt lat="47.29313" lon="-2.23644">
        <ele>7.4000000953674</ele>
        <time>2021-05-16T09:37:47.000Z</time>
      </trkpt>
      <trkpt lat="47.29314" lon="-2.23659">
        <ele>7.4000000953674</ele>
        <time>2021-05-16T09:37:49.000Z</time>
      </trkpt>
      <trkpt lat="47.29314" lon="-2.23722">
        <ele>7.4000000953674</ele>
        <time>2021-05-16T09:37:58.000Z</time>
      </trkpt>
      <trkpt lat="47.29313" lon="-2.23784">
        <ele>7</ele>
        <time>2021-05-16T09:38:06.000Z</time>
      </trkpt>
      <trkpt lat="47.29313" lon="-2.23792">
        <ele>6.4000000953674</ele>
        <time>2021-05-16T09:38:07.000Z</time>
      </trkpt>
      <trkpt lat="47.29313" lon="-2.238">
        <ele>5.5999999046326</ele>
        <time>2021-05-16T09:38:08.000Z</time>
      </trkpt>
      <trkpt lat="47.29313" lon="-2.23808">
        <ele>5</ele>
        <time>2021-05-16T09:38:09.000Z</time>
      </trkpt>
      <trkpt lat="47.29316" lon="-2.23857">
        <ele>5</ele>
        <time>2021-05-16T09:38:15.000Z</time>
      </trkpt>
      <trkpt lat="47.29327" lon="-2.23901">
        <ele>5</ele>
        <time>2021-05-16T09:38:21.000Z</time>
      </trkpt>
      <trkpt lat="47.29333" lon="-2.23914">
        <ele>5.4000000953674</ele>
        <time>2021-05-16T09:38:23.000Z</time>
      </trkpt>
      <trkpt lat="47.29335" lon="-2.2392">
        <ele>6</ele>
        <time>2021-05-16T09:38:24.000Z</time>
      </trkpt>
      <trkpt lat="47.29339" lon="-2.23927">
        <ele>6.4000000953674</ele>
        <time>2021-05-16T09:38:25.000Z</time>
      </trkpt>
      <trkpt lat="47.29342" lon="-2.23933">
        <ele>6.8000001907349</ele>
        <time>2021-05-16T09:38:26.000Z</time>
      </trkpt>
      <trkpt lat="47.29344" lon="-2.2394">
        <ele>7.1999998092651</ele>
        <time>2021-05-16T09:38:27.000Z</time>
      </trkpt>
      <trkpt lat="47.29347" lon="-2.23946">
        <ele>7.1999998092651</ele>
        <time>2021-05-16T09:38:28.000Z</time>
      </trkpt>
      <trkpt lat="47.29354" lon="-2.23956">
        <ele>7.1999998092651</ele>
        <time>2021-05-16T09:38:30.000Z</time>
      </trkpt>
      <trkpt lat="47.29361" lon="-2.23969">
        <ele>6.1999998092651</ele>
        <time>2021-05-16T09:38:33.000Z</time>
      </trkpt>
      <trkpt lat="47.29359" lon="-2.23974">
        <ele>5.8000001907349</ele>
        <time>2021-05-16T09:38:34.000Z</time>
      </trkpt>
      <trkpt lat="47.29357" lon="-2.23977">
        <ele>5.4000000953674</ele>
        <time>2021-05-16T09:38:35.000Z</time>
      </trkpt>
      <trkpt lat="47.29353" lon="-2.23978">
        <ele>5</ele>
        <time>2021-05-16T09:38:36.000Z</time>
      </trkpt>
      <trkpt lat="47.29344" lon="-2.23979">
        <ele>5</ele>
        <time>2021-05-16T09:38:38.000Z</time>
      </trkpt>
      <trkpt lat="47.29335" lon="-2.23978">
        <ele>5</ele>
        <time>2021-05-16T09:38:40.000Z</time>
      </trkpt>
      <trkpt lat="47.29304" lon="-2.23971">
        <ele>5</ele>
        <time>2021-05-16T09:38:47.000Z</time>
      </trkpt>
      <trkpt lat="47.29288" lon="-2.23967">
        <ele>5</ele>
        <time>2021-05-16T09:38:51.000Z</time>
      </trkpt>
      <trkpt lat="47.29279" lon="-2.23967">
        <ele>5</ele>
        <time>2021-05-16T09:38:53.000Z</time>
      </trkpt>
      <trkpt lat="47.29275" lon="-2.23967">
        <ele>5</ele>
        <time>2021-05-16T09:38:54.000Z</time>
      </trkpt>
      <trkpt lat="47.29258" lon="-2.23974">
        <ele>5</ele>
        <time>2021-05-16T09:38:58.000Z</time>
      </trkpt>
      <trkpt lat="47.29249" lon="-2.2398">
        <ele>5</ele>
        <time>2021-05-16T09:39:00.000Z</time>
      </trkpt>
      <trkpt lat="47.2924" lon="-2.23991">
        <ele>5</ele>
        <time>2021-05-16T09:39:03.000Z</time>
      </trkpt>
      <trkpt lat="47.29236" lon="-2.23994">
        <ele>5</ele>
        <time>2021-05-16T09:39:04.000Z</time>
      </trkpt>
      <trkpt lat="47.29221" lon="-2.24008">
        <ele>5</ele>
        <time>2021-05-16T09:39:08.000Z</time>
      </trkpt>
      <trkpt lat="47.29218" lon="-2.24011">
        <ele>5.4000000953674</ele>
        <time>2021-05-16T09:39:09.000Z</time>
      </trkpt>
      <trkpt lat="47.29214" lon="-2.24014">
        <ele>5.8000001907349</ele>
        <time>2021-05-16T09:39:10.000Z</time>
      </trkpt>
      <trkpt lat="47.29209" lon="-2.24018">
        <ele>6.1999998092651</ele>
        <time>2021-05-16T09:39:11.000Z</time>
      </trkpt>
      <trkpt lat="47.29205" lon="-2.24021">
        <ele>6.5999999046326</ele>
        <time>2021-05-16T09:39:12.000Z</time>
      </trkpt>
      <trkpt lat="47.29201" lon="-2.24025">
        <ele>7</ele>
        <time>2021-05-16T09:39:13.000Z</time>
      </trkpt>
      <trkpt lat="47.29192" lon="-2.24032">
        <ele>7</ele>
        <time>2021-05-16T09:39:15.000Z</time>
      </trkpt>
      <trkpt lat="47.29184" lon="-2.24038">
        <ele>7</ele>
        <time>2021-05-16T09:39:17.000Z</time>
      </trkpt>
      <trkpt lat="47.29168" lon="-2.24051">
        <ele>7</ele>
        <time>2021-05-16T09:39:21.000Z</time>
      </trkpt>
      <trkpt lat="47.29165" lon="-2.24054">
        <ele>7.5999999046326</ele>
        <time>2021-05-16T09:39:22.000Z</time>
      </trkpt>
      <trkpt lat="47.29161" lon="-2.24057">
        <ele>8</ele>
        <time>2021-05-16T09:39:23.000Z</time>
      </trkpt>
      <trkpt lat="47.29157" lon="-2.24059">
        <ele>8.3999996185303</ele>
        <time>2021-05-16T09:39:24.000Z</time>
      </trkpt>
      <trkpt lat="47.29154" lon="-2.24062">
        <ele>9</ele>
        <time>2021-05-16T09:39:25.000Z</time>
      </trkpt>
      <trkpt lat="47.2915" lon="-2.24064">
        <ele>9.3999996185303</ele>
        <time>2021-05-16T09:39:26.000Z</time>
      </trkpt>
      <trkpt lat="47.29139" lon="-2.24072">
        <ele>9.3999996185303</ele>
        <time>2021-05-16T09:39:29.000Z</time>
      </trkpt>
      <trkpt lat="47.29132" lon="-2.24089">
        <ele>9.3999996185303</ele>
        <time>2021-05-16T09:39:32.000Z</time>
      </trkpt>
      <trkpt lat="47.29131" lon="-2.24094">
        <ele>9.8000001907349</ele>
        <time>2021-05-16T09:39:33.000Z</time>
      </trkpt>
      <trkpt lat="47.29131" lon="-2.24099">
        <ele>10.199999809265</ele>
        <time>2021-05-16T09:39:34.000Z</time>
      </trkpt>
      <trkpt lat="47.29131" lon="-2.24105">
        <ele>10.60000038147</ele>
        <time>2021-05-16T09:39:35.000Z</time>
      </trkpt>
      <trkpt lat="47.29132" lon="-2.24111">
        <ele>11.199999809265</ele>
        <time>2021-05-16T09:39:36.000Z</time>
      </trkpt>
      <trkpt lat="47.29133" lon="-2.24118">
        <ele>11.60000038147</ele>
        <time>2021-05-16T09:39:37.000Z</time>
      </trkpt>
      <trkpt lat="47.29136" lon="-2.24152">
        <ele>11.60000038147</ele>
        <time>2021-05-16T09:39:43.000Z</time>
      </trkpt>
      <trkpt lat="47.29138" lon="-2.24165">
        <ele>12</ele>
        <time>2021-05-16T09:39:45.000Z</time>
      </trkpt>
      <trkpt lat="47.2914" lon="-2.24171">
        <ele>12.39999961853</ele>
        <time>2021-05-16T09:39:46.000Z</time>
      </trkpt>
      <trkpt lat="47.29141" lon="-2.24178">
        <ele>13.199999809265</ele>
        <time>2021-05-16T09:39:47.000Z</time>
      </trkpt>
      <trkpt lat="47.29143" lon="-2.24185">
        <ele>13.60000038147</ele>
        <time>2021-05-16T09:39:48.000Z</time>
      </trkpt>
      <trkpt lat="47.29154" lon="-2.2423">
        <ele>13.60000038147</ele>
        <time>2021-05-16T09:39:54.000Z</time>
      </trkpt>
      <trkpt lat="47.2917" lon="-2.24284">
        <ele>13.60000038147</ele>
        <time>2021-05-16T09:40:00.000Z</time>
      </trkpt>
      <trkpt lat="47.29186" lon="-2.24332">
        <ele>13.60000038147</ele>
        <time>2021-05-16T09:40:06.000Z</time>
      </trkpt>
      <trkpt lat="47.2921" lon="-2.24388">
        <ele>13.60000038147</ele>
        <time>2021-05-16T09:40:13.000Z</time>
      </trkpt>
      <trkpt lat="47.29222" lon="-2.24432">
        <ele>13.60000038147</ele>
        <time>2021-05-16T09:40:19.000Z</time>
      </trkpt>
      <trkpt lat="47.29231" lon="-2.24467">
        <ele>13.60000038147</ele>
        <time>2021-05-16T09:40:25.000Z</time>
      </trkpt>
      <trkpt lat="47.29232" lon="-2.2447">
        <ele>13.60000038147</ele>
        <time>2021-05-16T09:40:28.000Z</time>
      </trkpt>
      <trkpt lat="47.29233" lon="-2.2447">
        <ele>13.60000038147</ele>
        <time>2021-05-16T09:40:46.000Z</time>
      </trkpt>
      <trkpt lat="47.29239" lon="-2.24473">
        <ele>13.60000038147</ele>
        <time>2021-05-16T09:40:49.000Z</time>
      </trkpt>
      <trkpt lat="47.29253" lon="-2.2447">
        <ele>13.60000038147</ele>
        <time>2021-05-16T09:40:54.000Z</time>
      </trkpt>
      <trkpt lat="47.29274" lon="-2.24461">
        <ele>13.60000038147</ele>
        <time>2021-05-16T09:41:00.000Z</time>
      </trkpt>
      <trkpt lat="47.29287" lon="-2.24458">
        <ele>13.60000038147</ele>
        <time>2021-05-16T09:41:03.000Z</time>
      </trkpt>
      <trkpt lat="47.29292" lon="-2.24468">
        <ele>13.60000038147</ele>
        <time>2021-05-16T09:41:05.000Z</time>
      </trkpt>
      <trkpt lat="47.29295" lon="-2.24496">
        <ele>13.60000038147</ele>
        <time>2021-05-16T09:41:09.000Z</time>
      </trkpt>
      <trkpt lat="47.29294" lon="-2.24512">
        <ele>13.60000038147</ele>
        <time>2021-05-16T09:41:11.000Z</time>
      </trkpt>
      <trkpt lat="47.29294" lon="-2.24546">
        <ele>13.60000038147</ele>
        <time>2021-05-16T09:41:15.000Z</time>
      </trkpt>
      <trkpt lat="47.293" lon="-2.24608">
        <ele>13.60000038147</ele>
        <time>2021-05-16T09:41:21.000Z</time>
      </trkpt>
      <trkpt lat="47.29301" lon="-2.24653">
        <ele>13.60000038147</ele>
        <time>2021-05-16T09:41:26.000Z</time>
      </trkpt>
      <trkpt lat="47.29302" lon="-2.24684">
        <ele>13.60000038147</ele>
        <time>2021-05-16T09:41:31.000Z</time>
      </trkpt>
      <trkpt lat="47.29304" lon="-2.2469">
        <ele>13.60000038147</ele>
        <time>2021-05-16T09:41:32.000Z</time>
      </trkpt>
      <trkpt lat="47.29311" lon="-2.24739">
        <ele>13.60000038147</ele>
        <time>2021-05-16T09:41:39.000Z</time>
      </trkpt>
      <trkpt lat="47.29315" lon="-2.24758">
        <ele>14</ele>
        <time>2021-05-16T09:41:42.000Z</time>
      </trkpt>
      <trkpt lat="47.29317" lon="-2.24764">
        <ele>14.60000038147</ele>
        <time>2021-05-16T09:41:43.000Z</time>
      </trkpt>
      <trkpt lat="47.2932" lon="-2.2477">
        <ele>15</ele>
        <time>2021-05-16T09:41:44.000Z</time>
      </trkpt>
      <trkpt lat="47.29321" lon="-2.24776">
        <ele>15.39999961853</ele>
        <time>2021-05-16T09:41:45.000Z</time>
      </trkpt>
      <trkpt lat="47.29323" lon="-2.24782">
        <ele>15.800000190735</ele>
        <time>2021-05-16T09:41:46.000Z</time>
      </trkpt>
      <trkpt lat="47.29326" lon="-2.24801">
        <ele>15.800000190735</ele>
        <time>2021-05-16T09:41:49.000Z</time>
      </trkpt>
      <trkpt lat="47.29332" lon="-2.24847">
        <ele>15.800000190735</ele>
        <time>2021-05-16T09:41:55.000Z</time>
      </trkpt>
      <trkpt lat="47.29336" lon="-2.2489">
        <ele>15.800000190735</ele>
        <time>2021-05-16T09:42:01.000Z</time>
      </trkpt>
      <trkpt lat="47.2933" lon="-2.24907">
        <ele>15.800000190735</ele>
        <time>2021-05-16T09:42:04.000Z</time>
      </trkpt>
      <trkpt lat="47.29326" lon="-2.24909">
        <ele>15.800000190735</ele>
        <time>2021-05-16T09:42:05.000Z</time>
      </trkpt>
      <trkpt lat="47.29313" lon="-2.24913">
        <ele>15.800000190735</ele>
        <time>2021-05-16T09:42:08.000Z</time>
      </trkpt>
      <trkpt lat="47.29308" lon="-2.24914">
        <ele>15.800000190735</ele>
        <time>2021-05-16T09:42:09.000Z</time>
      </trkpt>
      <trkpt lat="47.29271" lon="-2.24918">
        <ele>15.800000190735</ele>
        <time>2021-05-16T09:42:16.000Z</time>
      </trkpt>
      <trkpt lat="47.29258" lon="-2.24922">
        <ele>15.800000190735</ele>
        <time>2021-05-16T09:42:19.000Z</time>
      </trkpt>
      <trkpt lat="47.29251" lon="-2.24931">
        <ele>16.39999961853</ele>
        <time>2021-05-16T09:42:21.000Z</time>
      </trkpt>
      <trkpt lat="47.2925" lon="-2.24936">
        <ele>16.799999237061</ele>
        <time>2021-05-16T09:42:22.000Z</time>
      </trkpt>
      <trkpt lat="47.29249" lon="-2.24943">
        <ele>17.39999961853</ele>
        <time>2021-05-16T09:42:23.000Z</time>
      </trkpt>
      <trkpt lat="47.29249" lon="-2.24948">
        <ele>17.799999237061</ele>
        <time>2021-05-16T09:42:24.000Z</time>
      </trkpt>
      <trkpt lat="47.2925" lon="-2.24955">
        <ele>18.39999961853</ele>
        <time>2021-05-16T09:42:25.000Z</time>
      </trkpt>
      <trkpt lat="47.29251" lon="-2.24961">
        <ele>18.39999961853</ele>
        <time>2021-05-16T09:42:26.000Z</time>
      </trkpt>
      <trkpt lat="47.29257" lon="-2.24984">
        <ele>18</ele>
        <time>2021-05-16T09:42:29.000Z</time>
      </trkpt>
      <trkpt lat="47.29259" lon="-2.2499">
        <ele>17.60000038147</ele>
        <time>2021-05-16T09:42:30.000Z</time>
      </trkpt>
      <trkpt lat="47.2926" lon="-2.24997">
        <ele>17.200000762939</ele>
        <time>2021-05-16T09:42:31.000Z</time>
      </trkpt>
      <trkpt lat="47.29262" lon="-2.25004">
        <ele>16.799999237061</ele>
        <time>2021-05-16T09:42:32.000Z</time>
      </trkpt>
      <trkpt lat="47.29264" lon="-2.25011">
        <ele>16.39999961853</ele>
        <time>2021-05-16T09:42:33.000Z</time>
      </trkpt>
      <trkpt lat="47.29268" lon="-2.25026">
        <ele>16.39999961853</ele>
        <time>2021-05-16T09:42:35.000Z</time>
      </trkpt>
      <trkpt lat="47.2927" lon="-2.25033">
        <ele>16.39999961853</ele>
        <time>2021-05-16T09:42:36.000Z</time>
      </trkpt>
      <trkpt lat="47.29284" lon="-2.25083">
        <ele>16.39999961853</ele>
        <time>2021-05-16T09:42:42.000Z</time>
      </trkpt>
      <trkpt lat="47.29294" lon="-2.25142">
        <ele>16.39999961853</ele>
        <time>2021-05-16T09:42:48.000Z</time>
      </trkpt>
      <trkpt lat="47.29301" lon="-2.2519">
        <ele>15.800000190735</ele>
        <time>2021-05-16T09:42:53.000Z</time>
      </trkpt>
      <trkpt lat="47.29303" lon="-2.25196">
        <ele>15.39999961853</ele>
        <time>2021-05-16T09:42:54.000Z</time>
      </trkpt>
      <trkpt lat="47.29306" lon="-2.25198">
        <ele>14.800000190735</ele>
        <time>2021-05-16T09:42:55.000Z</time>
      </trkpt>
      <trkpt lat="47.29309" lon="-2.25196">
        <ele>14.39999961853</ele>
        <time>2021-05-16T09:42:56.000Z</time>
      </trkpt>
      <trkpt lat="47.29312" lon="-2.25195">
        <ele>13.800000190735</ele>
        <time>2021-05-16T09:42:57.000Z</time>
      </trkpt>
      <trkpt lat="47.2933" lon="-2.25197">
        <ele>13.800000190735</ele>
        <time>2021-05-16T09:43:01.000Z</time>
      </trkpt>
      <trkpt lat="47.29338" lon="-2.25197">
        <ele>13.800000190735</ele>
        <time>2021-05-16T09:43:02.000Z</time>
      </trkpt>
      <trkpt lat="47.29369" lon="-2.25202">
        <ele>13.800000190735</ele>
        <time>2021-05-16T09:43:06.000Z</time>
      </trkpt>
      <trkpt lat="47.29416" lon="-2.25212">
        <ele>13.800000190735</ele>
        <time>2021-05-16T09:43:13.000Z</time>
      </trkpt>
      <trkpt lat="47.29428" lon="-2.25209">
        <ele>13.800000190735</ele>
        <time>2021-05-16T09:43:15.000Z</time>
      </trkpt>
      <trkpt lat="47.29438" lon="-2.25206">
        <ele>13.800000190735</ele>
        <time>2021-05-16T09:43:17.000Z</time>
      </trkpt>
      <trkpt lat="47.29463" lon="-2.25201">
        <ele>13.800000190735</ele>
        <time>2021-05-16T09:43:22.000Z</time>
      </trkpt>
      <trkpt lat="47.29469" lon="-2.25199">
        <ele>13.800000190735</ele>
        <time>2021-05-16T09:43:23.000Z</time>
      </trkpt>
      <trkpt lat="47.29501" lon="-2.25193">
        <ele>14.199999809265</ele>
        <time>2021-05-16T09:43:30.000Z</time>
      </trkpt>
      <trkpt lat="47.29505" lon="-2.25191">
        <ele>14.60000038147</ele>
        <time>2021-05-16T09:43:31.000Z</time>
      </trkpt>
      <trkpt lat="47.29509" lon="-2.25191">
        <ele>15</ele>
        <time>2021-05-16T09:43:32.000Z</time>
      </trkpt>
      <trkpt lat="47.29513" lon="-2.2519">
        <ele>15.39999961853</ele>
        <time>2021-05-16T09:43:33.000Z</time>
      </trkpt>
      <trkpt lat="47.29517" lon="-2.25189">
        <ele>15.800000190735</ele>
        <time>2021-05-16T09:43:34.000Z</time>
      </trkpt>
      <trkpt lat="47.29521" lon="-2.25188">
        <ele>15.800000190735</ele>
        <time>2021-05-16T09:43:35.000Z</time>
      </trkpt>
      <trkpt lat="47.29539" lon="-2.25183">
        <ele>15.800000190735</ele>
        <time>2021-05-16T09:43:41.000Z</time>
      </trkpt>
      <trkpt lat="47.29546" lon="-2.25181">
        <ele>15.800000190735</ele>
        <time>2021-05-16T09:43:45.000Z</time>
      </trkpt>
      <trkpt lat="47.29547" lon="-2.25183">
        <ele>15.800000190735</ele>
        <time>2021-05-16T09:43:46.000Z</time>
      </trkpt>
      <trkpt lat="47.29549" lon="-2.25191">
        <ele>16.200000762939</ele>
        <time>2021-05-16T09:43:48.000Z</time>
      </trkpt>
      <trkpt lat="47.29549" lon="-2.25195">
        <ele>16.60000038147</ele>
        <time>2021-05-16T09:43:49.000Z</time>
      </trkpt>
      <trkpt lat="47.29548" lon="-2.252">
        <ele>17</ele>
        <time>2021-05-16T09:43:50.000Z</time>
      </trkpt>
      <trkpt lat="47.29547" lon="-2.25207">
        <ele>17.39999961853</ele>
        <time>2021-05-16T09:43:51.000Z</time>
      </trkpt>
      <trkpt lat="47.29545" lon="-2.25214">
        <ele>18</ele>
        <time>2021-05-16T09:43:52.000Z</time>
      </trkpt>
      <trkpt lat="47.29543" lon="-2.25228">
        <ele>18</ele>
        <time>2021-05-16T09:43:54.000Z</time>
      </trkpt>
      <trkpt lat="47.2954" lon="-2.25279">
        <ele>18</ele>
        <time>2021-05-16T09:44:01.000Z</time>
      </trkpt>
      <trkpt lat="47.29541" lon="-2.25287">
        <ele>18</ele>
        <time>2021-05-16T09:44:02.000Z</time>
      </trkpt>
      <trkpt lat="47.29547" lon="-2.25307">
        <ele>18</ele>
        <time>2021-05-16T09:44:05.000Z</time>
      </trkpt>
      <trkpt lat="47.29564" lon="-2.25346">
        <ele>18</ele>
        <time>2021-05-16T09:44:11.000Z</time>
      </trkpt>
      <trkpt lat="47.29575" lon="-2.25371">
        <ele>18</ele>
        <time>2021-05-16T09:44:15.000Z</time>
      </trkpt>
      <trkpt lat="47.29578" lon="-2.25386">
        <ele>18</ele>
        <time>2021-05-16T09:44:17.000Z</time>
      </trkpt>
      <trkpt lat="47.29582" lon="-2.25409">
        <ele>18.39999961853</ele>
        <time>2021-05-16T09:44:20.000Z</time>
      </trkpt>
      <trkpt lat="47.29583" lon="-2.25417">
        <ele>18.799999237061</ele>
        <time>2021-05-16T09:44:21.000Z</time>
      </trkpt>
      <trkpt lat="47.29583" lon="-2.25425">
        <ele>19.200000762939</ele>
        <time>2021-05-16T09:44:22.000Z</time>
      </trkpt>
      <trkpt lat="47.29584" lon="-2.25433">
        <ele>19.60000038147</ele>
        <time>2021-05-16T09:44:23.000Z</time>
      </trkpt>
      <trkpt lat="47.29584" lon="-2.2544">
        <ele>20.200000762939</ele>
        <time>2021-05-16T09:44:24.000Z</time>
      </trkpt>
      <trkpt lat="47.29585" lon="-2.25455">
        <ele>20.60000038147</ele>
        <time>2021-05-16T09:44:26.000Z</time>
      </trkpt>
      <trkpt lat="47.29585" lon="-2.25461">
        <ele>21</ele>
        <time>2021-05-16T09:44:27.000Z</time>
      </trkpt>
      <trkpt lat="47.29585" lon="-2.25468">
        <ele>21.39999961853</ele>
        <time>2021-05-16T09:44:28.000Z</time>
      </trkpt>
      <trkpt lat="47.29585" lon="-2.25476">
        <ele>21.799999237061</ele>
        <time>2021-05-16T09:44:29.000Z</time>
      </trkpt>
      <trkpt lat="47.29585" lon="-2.25484">
        <ele>22.200000762939</ele>
        <time>2021-05-16T09:44:30.000Z</time>
      </trkpt>
      <trkpt lat="47.29584" lon="-2.2549">
        <ele>22.200000762939</ele>
        <time>2021-05-16T09:44:31.000Z</time>
      </trkpt>
      <trkpt lat="47.29581" lon="-2.25512">
        <ele>22.200000762939</ele>
        <time>2021-05-16T09:44:34.000Z</time>
      </trkpt>
      <trkpt lat="47.29579" lon="-2.25519">
        <ele>22.200000762939</ele>
        <time>2021-05-16T09:44:35.000Z</time>
      </trkpt>
      <trkpt lat="47.2957" lon="-2.25536">
        <ele>22.200000762939</ele>
        <time>2021-05-16T09:44:38.000Z</time>
      </trkpt>
      <trkpt lat="47.29566" lon="-2.25541">
        <ele>22.200000762939</ele>
        <time>2021-05-16T09:44:39.000Z</time>
      </trkpt>
      <trkpt lat="47.29562" lon="-2.25545">
        <ele>22.200000762939</ele>
        <time>2021-05-16T09:44:40.000Z</time>
      </trkpt>
      <trkpt lat="47.29544" lon="-2.25557">
        <ele>22.200000762939</ele>
        <time>2021-05-16T09:44:44.000Z</time>
      </trkpt>
      <trkpt lat="47.2951" lon="-2.25579">
        <ele>22.200000762939</ele>
        <time>2021-05-16T09:44:52.000Z</time>
      </trkpt>
      <trkpt lat="47.29483" lon="-2.25597">
        <ele>22.60000038147</ele>
        <time>2021-05-16T09:44:58.000Z</time>
      </trkpt>
      <trkpt lat="47.29479" lon="-2.25599">
        <ele>23</ele>
        <time>2021-05-16T09:44:59.000Z</time>
      </trkpt>
      <trkpt lat="47.29474" lon="-2.25601">
        <ele>23.39999961853</ele>
        <time>2021-05-16T09:45:00.000Z</time>
      </trkpt>
      <trkpt lat="47.29469" lon="-2.25603">
        <ele>23.799999237061</ele>
        <time>2021-05-16T09:45:01.000Z</time>
      </trkpt>
      <trkpt lat="47.29464" lon="-2.25606">
        <ele>24.200000762939</ele>
        <time>2021-05-16T09:45:02.000Z</time>
      </trkpt>
      <trkpt lat="47.29428" lon="-2.25621">
        <ele>24.200000762939</ele>
        <time>2021-05-16T09:45:09.000Z</time>
      </trkpt>
      <trkpt lat="47.29394" lon="-2.25638">
        <ele>24.200000762939</ele>
        <time>2021-05-16T09:45:17.000Z</time>
      </trkpt>
      <trkpt lat="47.2939" lon="-2.25644">
        <ele>24.200000762939</ele>
        <time>2021-05-16T09:45:20.000Z</time>
      </trkpt>
      <trkpt lat="47.2939" lon="-2.25647">
        <ele>24.200000762939</ele>
        <time>2021-05-16T09:45:21.000Z</time>
      </trkpt>
      <trkpt lat="47.29393" lon="-2.25652">
        <ele>24.200000762939</ele>
        <time>2021-05-16T09:45:25.000Z</time>
      </trkpt>
      <trkpt lat="47.29395" lon="-2.2565">
        <ele>24.200000762939</ele>
        <time>2021-05-16T09:45:27.000Z</time>
      </trkpt>
      <trkpt lat="47.29399" lon="-2.25651">
        <ele>24.200000762939</ele>
        <time>2021-05-16T09:45:31.000Z</time>
      </trkpt>
      <trkpt lat="47.29402" lon="-2.25652">
        <ele>24.200000762939</ele>
        <time>2021-05-16T09:45:34.000Z</time>
      </trkpt>
      <trkpt lat="47.29407" lon="-2.25656">
        <ele>24.200000762939</ele>
        <time>2021-05-16T09:45:37.000Z</time>
      </trkpt>
      <trkpt lat="47.29415" lon="-2.25667">
        <ele>24.200000762939</ele>
        <time>2021-05-16T09:45:40.000Z</time>
      </trkpt>
      <trkpt lat="47.29419" lon="-2.25675">
        <ele>24.200000762939</ele>
        <time>2021-05-16T09:45:41.000Z</time>
      </trkpt>
      <trkpt lat="47.29423" lon="-2.25684">
        <ele>24.200000762939</ele>
        <time>2021-05-16T09:45:42.000Z</time>
      </trkpt>
      <trkpt lat="47.29433" lon="-2.25712">
        <ele>24.200000762939</ele>
        <time>2021-05-16T09:45:45.000Z</time>
      </trkpt>
      <trkpt lat="47.29438" lon="-2.25726">
        <ele>23.60000038147</ele>
        <time>2021-05-16T09:45:46.000Z</time>
      </trkpt>
      <trkpt lat="47.29441" lon="-2.25735">
        <ele>23.200000762939</ele>
        <time>2021-05-16T09:45:47.000Z</time>
      </trkpt>
      <trkpt lat="47.29443" lon="-2.25744">
        <ele>22.799999237061</ele>
        <time>2021-05-16T09:45:48.000Z</time>
      </trkpt>
      <trkpt lat="47.29446" lon="-2.25751">
        <ele>22.200000762939</ele>
        <time>2021-05-16T09:45:49.000Z</time>
      </trkpt>
      <trkpt lat="47.29448" lon="-2.25757">
        <ele>21.60000038147</ele>
        <time>2021-05-16T09:45:50.000Z</time>
      </trkpt>
      <trkpt lat="47.29449" lon="-2.25762">
        <ele>21.200000762939</ele>
        <time>2021-05-16T09:45:51.000Z</time>
      </trkpt>
      <trkpt lat="47.29449" lon="-2.25766">
        <ele>20.60000038147</ele>
        <time>2021-05-16T09:45:52.000Z</time>
      </trkpt>
      <trkpt lat="47.29448" lon="-2.25769">
        <ele>20</ele>
        <time>2021-05-16T09:45:53.000Z</time>
      </trkpt>
      <trkpt lat="47.29446" lon="-2.25772">
        <ele>19.39999961853</ele>
        <time>2021-05-16T09:45:54.000Z</time>
      </trkpt>
      <trkpt lat="47.2944" lon="-2.25776">
        <ele>19.39999961853</ele>
        <time>2021-05-16T09:45:56.000Z</time>
      </trkpt>
      <trkpt lat="47.29431" lon="-2.25792">
        <ele>19.39999961853</ele>
        <time>2021-05-16T09:46:01.000Z</time>
      </trkpt>
      <trkpt lat="47.29435" lon="-2.25809">
        <ele>19.39999961853</ele>
        <time>2021-05-16T09:46:05.000Z</time>
      </trkpt>
      <trkpt lat="47.29436" lon="-2.25834">
        <ele>19.39999961853</ele>
        <time>2021-05-16T09:46:10.000Z</time>
      </trkpt>
      <trkpt lat="47.29444" lon="-2.2586">
        <ele>19.39999961853</ele>
        <time>2021-05-16T09:46:14.000Z</time>
      </trkpt>
      <trkpt lat="47.29446" lon="-2.25867">
        <ele>19.39999961853</ele>
        <time>2021-05-16T09:46:15.000Z</time>
      </trkpt>
      <trkpt lat="47.29451" lon="-2.2588">
        <ele>19.39999961853</ele>
        <time>2021-05-16T09:46:17.000Z</time>
      </trkpt>
      <trkpt lat="47.29455" lon="-2.259">
        <ele>19.39999961853</ele>
        <time>2021-05-16T09:46:20.000Z</time>
      </trkpt>
      <trkpt lat="47.29454" lon="-2.25907">
        <ele>19</ele>
        <time>2021-05-16T09:46:21.000Z</time>
      </trkpt>
      <trkpt lat="47.29452" lon="-2.25913">
        <ele>18.60000038147</ele>
        <time>2021-05-16T09:46:22.000Z</time>
      </trkpt>
      <trkpt lat="47.29448" lon="-2.25919">
        <ele>18.200000762939</ele>
        <time>2021-05-16T09:46:23.000Z</time>
      </trkpt>
      <trkpt lat="47.29445" lon="-2.25924">
        <ele>17.799999237061</ele>
        <time>2021-05-16T09:46:24.000Z</time>
      </trkpt>
      <trkpt lat="47.29442" lon="-2.25927">
        <ele>17.39999961853</ele>
        <time>2021-05-16T09:46:25.000Z</time>
      </trkpt>
      <trkpt lat="47.29429" lon="-2.25937">
        <ele>17.39999961853</ele>
        <time>2021-05-16T09:46:29.000Z</time>
      </trkpt>
      <trkpt lat="47.29421" lon="-2.25944">
        <ele>17.799999237061</ele>
        <time>2021-05-16T09:46:31.000Z</time>
      </trkpt>
      <trkpt lat="47.29417" lon="-2.25946">
        <ele>18.200000762939</ele>
        <time>2021-05-16T09:46:32.000Z</time>
      </trkpt>
      <trkpt lat="47.29414" lon="-2.25946">
        <ele>18.60000038147</ele>
        <time>2021-05-16T09:46:33.000Z</time>
      </trkpt>
      <trkpt lat="47.2941" lon="-2.25946">
        <ele>19</ele>
        <time>2021-05-16T09:46:34.000Z</time>
      </trkpt>
      <trkpt lat="47.29407" lon="-2.25945">
        <ele>19.39999961853</ele>
        <time>2021-05-16T09:46:35.000Z</time>
      </trkpt>
      <trkpt lat="47.29398" lon="-2.25947">
        <ele>19.39999961853</ele>
        <time>2021-05-16T09:46:39.000Z</time>
      </trkpt>
      <trkpt lat="47.29396" lon="-2.25953">
        <ele>19.39999961853</ele>
        <time>2021-05-16T09:46:41.000Z</time>
      </trkpt>
      <trkpt lat="47.29397" lon="-2.25958">
        <ele>19.39999961853</ele>
        <time>2021-05-16T09:46:42.000Z</time>
      </trkpt>
      <trkpt lat="47.29398" lon="-2.2598">
        <ele>19.39999961853</ele>
        <time>2021-05-16T09:46:46.000Z</time>
      </trkpt>
      <trkpt lat="47.29396" lon="-2.2599">
        <ele>19.39999961853</ele>
        <time>2021-05-16T09:46:47.000Z</time>
      </trkpt>
      <trkpt lat="47.29396" lon="-2.26012">
        <ele>19.39999961853</ele>
        <time>2021-05-16T09:46:50.000Z</time>
      </trkpt>
      <trkpt lat="47.294" lon="-2.26023">
        <ele>19.39999961853</ele>
        <time>2021-05-16T09:46:51.000Z</time>
      </trkpt>
      <trkpt lat="47.29417" lon="-2.26065">
        <ele>19.39999961853</ele>
        <time>2021-05-16T09:46:58.000Z</time>
      </trkpt>
      <trkpt lat="47.29425" lon="-2.26088">
        <ele>19.39999961853</ele>
        <time>2021-05-16T09:47:02.000Z</time>
      </trkpt>
      <trkpt lat="47.29426" lon="-2.26097">
        <ele>19.39999961853</ele>
        <time>2021-05-16T09:47:03.000Z</time>
      </trkpt>
      <trkpt lat="47.2942" lon="-2.26135">
        <ele>19.39999961853</ele>
        <time>2021-05-16T09:47:08.000Z</time>
      </trkpt>
      <trkpt lat="47.29409" lon="-2.26163">
        <ele>19.799999237061</ele>
        <time>2021-05-16T09:47:13.000Z</time>
      </trkpt>
      <trkpt lat="47.29406" lon="-2.26164">
        <ele>20.200000762939</ele>
        <time>2021-05-16T09:47:14.000Z</time>
      </trkpt>
      <trkpt lat="47.29403" lon="-2.26165">
        <ele>20.60000038147</ele>
        <time>2021-05-16T09:47:15.000Z</time>
      </trkpt>
      <trkpt lat="47.294" lon="-2.26166">
        <ele>21</ele>
        <time>2021-05-16T09:47:16.000Z</time>
      </trkpt>
      <trkpt lat="47.29397" lon="-2.26166">
        <ele>21.60000038147</ele>
        <time>2021-05-16T09:47:17.000Z</time>
      </trkpt>
      <trkpt lat="47.29395" lon="-2.26166">
        <ele>21.60000038147</ele>
        <time>2021-05-16T09:47:18.000Z</time>
      </trkpt>
      <trkpt lat="47.29378" lon="-2.26162">
        <ele>21.60000038147</ele>
        <time>2021-05-16T09:47:24.000Z</time>
      </trkpt>
      <trkpt lat="47.29367" lon="-2.26165">
        <ele>21.60000038147</ele>
        <time>2021-05-16T09:47:30.000Z</time>
      </trkpt>
      <trkpt lat="47.2936" lon="-2.26166">
        <ele>21.60000038147</ele>
        <time>2021-05-16T09:47:35.000Z</time>
      </trkpt>
      <trkpt lat="47.2935" lon="-2.26167">
        <ele>21.60000038147</ele>
        <time>2021-05-16T09:47:39.000Z</time>
      </trkpt>
      <trkpt lat="47.2934" lon="-2.26169">
        <ele>22</ele>
        <time>2021-05-16T09:47:44.000Z</time>
      </trkpt>
      <trkpt lat="47.29338" lon="-2.2617">
        <ele>22.39999961853</ele>
        <time>2021-05-16T09:47:45.000Z</time>
      </trkpt>
      <trkpt lat="47.29335" lon="-2.26171">
        <ele>22.799999237061</ele>
        <time>2021-05-16T09:47:46.000Z</time>
      </trkpt>
      <trkpt lat="47.29333" lon="-2.26172">
        <ele>23.200000762939</ele>
        <time>2021-05-16T09:47:47.000Z</time>
      </trkpt>
      <trkpt lat="47.29331" lon="-2.26172">
        <ele>23.799999237061</ele>
        <time>2021-05-16T09:47:48.000Z</time>
      </trkpt>
      <trkpt lat="47.29321" lon="-2.26172">
        <ele>23.799999237061</ele>
        <time>2021-05-16T09:47:53.000Z</time>
      </trkpt>
      <trkpt lat="47.29317" lon="-2.26174">
        <ele>23.799999237061</ele>
        <time>2021-05-16T09:47:57.000Z</time>
      </trkpt>
      <trkpt lat="47.29315" lon="-2.26179">
        <ele>23.799999237061</ele>
        <time>2021-05-16T09:48:00.000Z</time>
      </trkpt>
      <trkpt lat="47.29303" lon="-2.26179">
        <ele>23.799999237061</ele>
        <time>2021-05-16T09:48:04.000Z</time>
      </trkpt>
      <trkpt lat="47.29295" lon="-2.26178">
        <ele>24.200000762939</ele>
        <time>2021-05-16T09:48:06.000Z</time>
      </trkpt>
      <trkpt lat="47.29291" lon="-2.26178">
        <ele>24.60000038147</ele>
        <time>2021-05-16T09:48:07.000Z</time>
      </trkpt>
      <trkpt lat="47.29287" lon="-2.26177">
        <ele>25</ele>
        <time>2021-05-16T09:48:08.000Z</time>
      </trkpt>
      <trkpt lat="47.29283" lon="-2.26176">
        <ele>25.39999961853</ele>
        <time>2021-05-16T09:48:09.000Z</time>
      </trkpt>
      <trkpt lat="47.29279" lon="-2.26176">
        <ele>25.799999237061</ele>
        <time>2021-05-16T09:48:10.000Z</time>
      </trkpt>
      <trkpt lat="47.29269" lon="-2.26177">
        <ele>25.799999237061</ele>
        <time>2021-05-16T09:48:13.000Z</time>
      </trkpt>
      <trkpt lat="47.29263" lon="-2.26186">
        <ele>25.799999237061</ele>
        <time>2021-05-16T09:48:16.000Z</time>
      </trkpt>
      <trkpt lat="47.29262" lon="-2.2619">
        <ele>25.799999237061</ele>
        <time>2021-05-16T09:48:17.000Z</time>
      </trkpt>
      <trkpt lat="47.29262" lon="-2.26194">
        <ele>25.799999237061</ele>
        <time>2021-05-16T09:48:19.000Z</time>
      </trkpt>
      <trkpt lat="47.2926" lon="-2.26197">
        <ele>25.799999237061</ele>
        <time>2021-05-16T09:48:30.000Z</time>
      </trkpt>
      <trkpt lat="47.29242" lon="-2.26203">
        <ele>25.799999237061</ele>
        <time>2021-05-16T09:48:35.000Z</time>
      </trkpt>
      <trkpt lat="47.2921" lon="-2.2621">
        <ele>25.799999237061</ele>
        <time>2021-05-16T09:48:42.000Z</time>
      </trkpt>
      <trkpt lat="47.29178" lon="-2.26221">
        <ele>25.799999237061</ele>
        <time>2021-05-16T09:48:50.000Z</time>
      </trkpt>
      <trkpt lat="47.2916" lon="-2.26228">
        <ele>25.799999237061</ele>
        <time>2021-05-16T09:48:56.000Z</time>
      </trkpt>
      <trkpt lat="47.29147" lon="-2.26235">
        <ele>25.799999237061</ele>
        <time>2021-05-16T09:49:01.000Z</time>
      </trkpt>
      <trkpt lat="47.29137" lon="-2.26239">
        <ele>25.799999237061</ele>
        <time>2021-05-16T09:49:07.000Z</time>
      </trkpt>
      <trkpt lat="47.29137" lon="-2.26242">
        <ele>25.799999237061</ele>
        <time>2021-05-16T09:49:17.000Z</time>
      </trkpt>
      <trkpt lat="47.29138" lon="-2.26249">
        <ele>25.799999237061</ele>
        <time>2021-05-16T09:49:20.000Z</time>
      </trkpt>
      <trkpt lat="47.29139" lon="-2.26256">
        <ele>25.799999237061</ele>
        <time>2021-05-16T09:49:22.000Z</time>
      </trkpt>
      <trkpt lat="47.29142" lon="-2.2627">
        <ele>25.799999237061</ele>
        <time>2021-05-16T09:49:25.000Z</time>
      </trkpt>
      <trkpt lat="47.29147" lon="-2.26296">
        <ele>25.799999237061</ele>
        <time>2021-05-16T09:49:31.000Z</time>
      </trkpt>
      <trkpt lat="47.2915" lon="-2.2633">
        <ele>25.799999237061</ele>
        <time>2021-05-16T09:49:36.000Z</time>
      </trkpt>
      <trkpt lat="47.29157" lon="-2.26379">
        <ele>25.799999237061</ele>
        <time>2021-05-16T09:49:42.000Z</time>
      </trkpt>
      <trkpt lat="47.29161" lon="-2.26417">
        <ele>25.39999961853</ele>
        <time>2021-05-16T09:49:46.000Z</time>
      </trkpt>
      <trkpt lat="47.29162" lon="-2.26428">
        <ele>25</ele>
        <time>2021-05-16T09:49:47.000Z</time>
      </trkpt>
      <trkpt lat="47.29163" lon="-2.26438">
        <ele>24.60000038147</ele>
        <time>2021-05-16T09:49:48.000Z</time>
      </trkpt>
      <trkpt lat="47.29163" lon="-2.26448">
        <ele>24.200000762939</ele>
        <time>2021-05-16T09:49:49.000Z</time>
      </trkpt>
      <trkpt lat="47.29164" lon="-2.26459">
        <ele>23.799999237061</ele>
        <time>2021-05-16T09:49:50.000Z</time>
      </trkpt>
      <trkpt lat="47.29164" lon="-2.2647">
        <ele>23.39999961853</ele>
        <time>2021-05-16T09:49:51.000Z</time>
      </trkpt>
      <trkpt lat="47.29164" lon="-2.2648">
        <ele>23</ele>
        <time>2021-05-16T09:49:52.000Z</time>
      </trkpt>
      <trkpt lat="47.29163" lon="-2.2649">
        <ele>22.60000038147</ele>
        <time>2021-05-16T09:49:53.000Z</time>
      </trkpt>
      <trkpt lat="47.29162" lon="-2.265">
        <ele>22</ele>
        <time>2021-05-16T09:49:54.000Z</time>
      </trkpt>
      <trkpt lat="47.29161" lon="-2.26511">
        <ele>21.60000038147</ele>
        <time>2021-05-16T09:49:55.000Z</time>
      </trkpt>
      <trkpt lat="47.29159" lon="-2.26549">
        <ele>21.200000762939</ele>
        <time>2021-05-16T09:49:59.000Z</time>
      </trkpt>
      <trkpt lat="47.29159" lon="-2.26558">
        <ele>20.799999237061</ele>
        <time>2021-05-16T09:50:00.000Z</time>
      </trkpt>
      <trkpt lat="47.2916" lon="-2.26567">
        <ele>20.39999961853</ele>
        <time>2021-05-16T09:50:01.000Z</time>
      </trkpt>
      <trkpt lat="47.29161" lon="-2.26575">
        <ele>19.799999237061</ele>
        <time>2021-05-16T09:50:02.000Z</time>
      </trkpt>
      <trkpt lat="47.29163" lon="-2.26584">
        <ele>19.39999961853</ele>
        <time>2021-05-16T09:50:03.000Z</time>
      </trkpt>
      <trkpt lat="47.29165" lon="-2.26593">
        <ele>19.39999961853</ele>
        <time>2021-05-16T09:50:04.000Z</time>
      </trkpt>
      <trkpt lat="47.29168" lon="-2.26601">
        <ele>19.39999961853</ele>
        <time>2021-05-16T09:50:05.000Z</time>
      </trkpt>
      <trkpt lat="47.29177" lon="-2.26627">
        <ele>19.39999961853</ele>
        <time>2021-05-16T09:50:08.000Z</time>
      </trkpt>
      <trkpt lat="47.29184" lon="-2.26653">
        <ele>19.39999961853</ele>
        <time>2021-05-16T09:50:11.000Z</time>
      </trkpt>
      <trkpt lat="47.29201" lon="-2.26706">
        <ele>19</ele>
        <time>2021-05-16T09:50:18.000Z</time>
      </trkpt>
      <trkpt lat="47.29203" lon="-2.26714">
        <ele>18.60000038147</ele>
        <time>2021-05-16T09:50:19.000Z</time>
      </trkpt>
      <trkpt lat="47.29205" lon="-2.26722">
        <ele>18.200000762939</ele>
        <time>2021-05-16T09:50:20.000Z</time>
      </trkpt>
      <trkpt lat="47.29207" lon="-2.2673">
        <ele>17.799999237061</ele>
        <time>2021-05-16T09:50:21.000Z</time>
      </trkpt>
      <trkpt lat="47.29208" lon="-2.26738">
        <ele>17.200000762939</ele>
        <time>2021-05-16T09:50:22.000Z</time>
      </trkpt>
      <trkpt lat="47.29213" lon="-2.26764">
        <ele>17.200000762939</ele>
        <time>2021-05-16T09:50:25.000Z</time>
      </trkpt>
      <trkpt lat="47.29223" lon="-2.26831">
        <ele>17.200000762939</ele>
        <time>2021-05-16T09:50:33.000Z</time>
      </trkpt>
      <trkpt lat="47.29232" lon="-2.26886">
        <ele>17.200000762939</ele>
        <time>2021-05-16T09:50:40.000Z</time>
      </trkpt>
      <trkpt lat="47.29236" lon="-2.26925">
        <ele>17.200000762939</ele>
        <time>2021-05-16T09:50:45.000Z</time>
      </trkpt>
      <trkpt lat="47.29234" lon="-2.2693">
        <ele>17.200000762939</ele>
        <time>2021-05-16T09:50:46.000Z</time>
      </trkpt>
      <trkpt lat="47.29224" lon="-2.26946">
        <ele>17.200000762939</ele>
        <time>2021-05-16T09:50:50.000Z</time>
      </trkpt>
      <trkpt lat="47.29223" lon="-2.26969">
        <ele>17.200000762939</ele>
        <time>2021-05-16T09:50:54.000Z</time>
      </trkpt>
      <trkpt lat="47.29223" lon="-2.26975">
        <ele>17.200000762939</ele>
        <time>2021-05-16T09:50:55.000Z</time>
      </trkpt>
      <trkpt lat="47.29222" lon="-2.27001">
        <ele>17.200000762939</ele>
        <time>2021-05-16T09:50:59.000Z</time>
      </trkpt>
      <trkpt lat="47.29222" lon="-2.27008">
        <ele>17.200000762939</ele>
        <time>2021-05-16T09:51:00.000Z</time>
      </trkpt>
      <trkpt lat="47.29225" lon="-2.27047">
        <ele>17.200000762939</ele>
        <time>2021-05-16T09:51:06.000Z</time>
      </trkpt>
      <trkpt lat="47.29227" lon="-2.27075">
        <ele>17.200000762939</ele>
        <time>2021-05-16T09:51:10.000Z</time>
      </trkpt>
      <trkpt lat="47.29228" lon="-2.27081">
        <ele>17.200000762939</ele>
        <time>2021-05-16T09:51:11.000Z</time>
      </trkpt>
      <trkpt lat="47.2923" lon="-2.27105">
        <ele>17.200000762939</ele>
        <time>2021-05-16T09:51:15.000Z</time>
      </trkpt>
      <trkpt lat="47.29227" lon="-2.2713">
        <ele>17.200000762939</ele>
        <time>2021-05-16T09:51:19.000Z</time>
      </trkpt>
      <trkpt lat="47.29223" lon="-2.27144">
        <ele>17.200000762939</ele>
        <time>2021-05-16T09:51:21.000Z</time>
      </trkpt>
      <trkpt lat="47.29219" lon="-2.27154">
        <ele>17.200000762939</ele>
        <time>2021-05-16T09:51:23.000Z</time>
      </trkpt>
      <trkpt lat="47.29216" lon="-2.27157">
        <ele>17.200000762939</ele>
        <time>2021-05-16T09:51:24.000Z</time>
      </trkpt>
      <trkpt lat="47.29197" lon="-2.27171">
        <ele>17.200000762939</ele>
        <time>2021-05-16T09:51:27.000Z</time>
      </trkpt>
      <trkpt lat="47.29191" lon="-2.27174">
        <ele>17.200000762939</ele>
        <time>2021-05-16T09:51:28.000Z</time>
      </trkpt>
      <trkpt lat="47.29176" lon="-2.27181">
        <ele>17.200000762939</ele>
        <time>2021-05-16T09:51:32.000Z</time>
      </trkpt>
      <trkpt lat="47.29165" lon="-2.27187">
        <ele>17.200000762939</ele>
        <time>2021-05-16T09:51:37.000Z</time>
      </trkpt>
      <trkpt lat="47.29163" lon="-2.27187">
        <ele>17.200000762939</ele>
        <time>2021-05-16T09:51:38.000Z</time>
      </trkpt>
      <trkpt lat="47.29157" lon="-2.2719">
        <ele>17.200000762939</ele>
        <time>2021-05-16T09:51:41.000Z</time>
      </trkpt>
      <trkpt lat="47.29153" lon="-2.2719">
        <ele>17.200000762939</ele>
        <time>2021-05-16T09:51:44.000Z</time>
      </trkpt>
      <trkpt lat="47.29142" lon="-2.27194">
        <ele>17.200000762939</ele>
        <time>2021-05-16T09:51:48.000Z</time>
      </trkpt>
      <trkpt lat="47.29133" lon="-2.27203">
        <ele>17.200000762939</ele>
        <time>2021-05-16T09:51:51.000Z</time>
      </trkpt>
      <trkpt lat="47.29132" lon="-2.27207">
        <ele>17.200000762939</ele>
        <time>2021-05-16T09:51:52.000Z</time>
      </trkpt>
      <trkpt lat="47.29128" lon="-2.27219">
        <ele>17.200000762939</ele>
        <time>2021-05-16T09:51:56.000Z</time>
      </trkpt>
      <trkpt lat="47.29126" lon="-2.27238">
        <ele>17.200000762939</ele>
        <time>2021-05-16T09:52:00.000Z</time>
      </trkpt>
      <trkpt lat="47.29121" lon="-2.27267">
        <ele>17.200000762939</ele>
        <time>2021-05-16T09:52:06.000Z</time>
      </trkpt>
      <trkpt lat="47.29117" lon="-2.27286">
        <ele>17.200000762939</ele>
        <time>2021-05-16T09:52:09.000Z</time>
      </trkpt>
      <trkpt lat="47.29114" lon="-2.27292">
        <ele>17.200000762939</ele>
        <time>2021-05-16T09:52:10.000Z</time>
      </trkpt>
      <trkpt lat="47.29111" lon="-2.27303">
        <ele>17.200000762939</ele>
        <time>2021-05-16T09:52:12.000Z</time>
      </trkpt>
      <trkpt lat="47.29106" lon="-2.27329">
        <ele>17.200000762939</ele>
        <time>2021-05-16T09:52:16.000Z</time>
      </trkpt>
      <trkpt lat="47.291" lon="-2.2736">
        <ele>17.200000762939</ele>
        <time>2021-05-16T09:52:22.000Z</time>
      </trkpt>
      <trkpt lat="47.29103" lon="-2.27388">
        <ele>17.200000762939</ele>
        <time>2021-05-16T09:52:27.000Z</time>
      </trkpt>
      <trkpt lat="47.29104" lon="-2.27395">
        <ele>17.200000762939</ele>
        <time>2021-05-16T09:52:28.000Z</time>
      </trkpt>
      <trkpt lat="47.29105" lon="-2.27403">
        <ele>17.200000762939</ele>
        <time>2021-05-16T09:52:29.000Z</time>
      </trkpt>
      <trkpt lat="47.29104" lon="-2.27428">
        <ele>17.200000762939</ele>
        <time>2021-05-16T09:52:32.000Z</time>
      </trkpt>
      <trkpt lat="47.291" lon="-2.27482">
        <ele>17.200000762939</ele>
        <time>2021-05-16T09:52:39.000Z</time>
      </trkpt>
      <trkpt lat="47.29101" lon="-2.27508">
        <ele>17.200000762939</ele>
        <time>2021-05-16T09:52:44.000Z</time>
      </trkpt>
      <trkpt lat="47.29099" lon="-2.27515">
        <ele>17.200000762939</ele>
        <time>2021-05-16T09:52:49.000Z</time>
      </trkpt>
      <trkpt lat="47.29096" lon="-2.27518">
        <ele>17.200000762939</ele>
        <time>2021-05-16T09:52:53.000Z</time>
      </trkpt>
      <trkpt lat="47.29094" lon="-2.27519">
        <ele>17.200000762939</ele>
        <time>2021-05-16T09:52:54.000Z</time>
      </trkpt>
      <trkpt lat="47.29077" lon="-2.27526">
        <ele>17.200000762939</ele>
        <time>2021-05-16T09:52:58.000Z</time>
      </trkpt>
      <trkpt lat="47.29072" lon="-2.27527">
        <ele>17.200000762939</ele>
        <time>2021-05-16T09:52:59.000Z</time>
      </trkpt>
      <trkpt lat="47.29035" lon="-2.27525">
        <ele>17.200000762939</ele>
        <time>2021-05-16T09:53:05.000Z</time>
      </trkpt>
      <trkpt lat="47.29023" lon="-2.27524">
        <ele>17.60000038147</ele>
        <time>2021-05-16T09:53:07.000Z</time>
      </trkpt>
      <trkpt lat="47.29017" lon="-2.27524">
        <ele>18</ele>
        <time>2021-05-16T09:53:08.000Z</time>
      </trkpt>
      <trkpt lat="47.2901" lon="-2.27524">
        <ele>18.60000038147</ele>
        <time>2021-05-16T09:53:09.000Z</time>
      </trkpt>
      <trkpt lat="47.29004" lon="-2.27524">
        <ele>19</ele>
        <time>2021-05-16T09:53:10.000Z</time>
      </trkpt>
      <trkpt lat="47.28998" lon="-2.27524">
        <ele>19.39999961853</ele>
        <time>2021-05-16T09:53:11.000Z</time>
      </trkpt>
      <trkpt lat="47.2898" lon="-2.27524">
        <ele>19.39999961853</ele>
        <time>2021-05-16T09:53:14.000Z</time>
      </trkpt>
      <trkpt lat="47.28941" lon="-2.27523">
        <ele>19.39999961853</ele>
        <time>2021-05-16T09:53:20.000Z</time>
      </trkpt>
      <trkpt lat="47.28902" lon="-2.27527">
        <ele>19.39999961853</ele>
        <time>2021-05-16T09:53:26.000Z</time>
      </trkpt>
      <trkpt lat="47.28866" lon="-2.27535">
        <ele>19.39999961853</ele>
        <time>2021-05-16T09:53:32.000Z</time>
      </trkpt>
      <trkpt lat="47.28824" lon="-2.2754">
        <ele>19.39999961853</ele>
        <time>2021-05-16T09:53:39.000Z</time>
      </trkpt>
      <trkpt lat="47.28812" lon="-2.27543">
        <ele>19.39999961853</ele>
        <time>2021-05-16T09:53:41.000Z</time>
      </trkpt>
      <trkpt lat="47.28801" lon="-2.27552">
        <ele>19.39999961853</ele>
        <time>2021-05-16T09:53:43.000Z</time>
      </trkpt>
      <trkpt lat="47.28792" lon="-2.27564">
        <ele>19.39999961853</ele>
        <time>2021-05-16T09:53:45.000Z</time>
      </trkpt>
      <trkpt lat="47.28787" lon="-2.27569">
        <ele>19.39999961853</ele>
        <time>2021-05-16T09:53:46.000Z</time>
      </trkpt>
      <trkpt lat="47.28778" lon="-2.27579">
        <ele>19.39999961853</ele>
        <time>2021-05-16T09:53:48.000Z</time>
      </trkpt>
      <trkpt lat="47.28762" lon="-2.276">
        <ele>19.39999961853</ele>
        <time>2021-05-16T09:53:52.000Z</time>
      </trkpt>
      <trkpt lat="47.28754" lon="-2.27611">
        <ele>19.39999961853</ele>
        <time>2021-05-16T09:53:54.000Z</time>
      </trkpt>
      <trkpt lat="47.2873" lon="-2.27648">
        <ele>19.39999961853</ele>
        <time>2021-05-16T09:54:00.000Z</time>
      </trkpt>
      <trkpt lat="47.28705" lon="-2.27689">
        <ele>19.39999961853</ele>
        <time>2021-05-16T09:54:06.000Z</time>
      </trkpt>
      <trkpt lat="47.28701" lon="-2.27696">
        <ele>19.39999961853</ele>
        <time>2021-05-16T09:54:07.000Z</time>
      </trkpt>
      <trkpt lat="47.28686" lon="-2.27722">
        <ele>19.39999961853</ele>
        <time>2021-05-16T09:54:11.000Z</time>
      </trkpt>
      <trkpt lat="47.28683" lon="-2.27728">
        <ele>19.39999961853</ele>
        <time>2021-05-16T09:54:12.000Z</time>
      </trkpt>
      <trkpt lat="47.28672" lon="-2.27754">
        <ele>19.39999961853</ele>
        <time>2021-05-16T09:54:16.000Z</time>
      </trkpt>
      <trkpt lat="47.28656" lon="-2.278">
        <ele>19.39999961853</ele>
        <time>2021-05-16T09:54:22.000Z</time>
      </trkpt>
      <trkpt lat="47.28641" lon="-2.27847">
        <ele>19.39999961853</ele>
        <time>2021-05-16T09:54:28.000Z</time>
      </trkpt>
      <trkpt lat="47.28632" lon="-2.27902">
        <ele>19.39999961853</ele>
        <time>2021-05-16T09:54:35.000Z</time>
      </trkpt>
      <trkpt lat="47.28628" lon="-2.27936">
        <ele>19.39999961853</ele>
        <time>2021-05-16T09:54:40.000Z</time>
      </trkpt>
      <trkpt lat="47.28626" lon="-2.2794">
        <ele>19.39999961853</ele>
        <time>2021-05-16T09:54:41.000Z</time>
      </trkpt>
      <trkpt lat="47.2862" lon="-2.27948">
        <ele>19.39999961853</ele>
        <time>2021-05-16T09:54:43.000Z</time>
      </trkpt>
      <trkpt lat="47.28614" lon="-2.27959">
        <ele>19.39999961853</ele>
        <time>2021-05-16T09:54:45.000Z</time>
      </trkpt>
      <trkpt lat="47.28608" lon="-2.27978">
        <ele>19.39999961853</ele>
        <time>2021-05-16T09:54:48.000Z</time>
      </trkpt>
      <trkpt lat="47.286" lon="-2.28009">
        <ele>19.39999961853</ele>
        <time>2021-05-16T09:54:53.000Z</time>
      </trkpt>
      <trkpt lat="47.28597" lon="-2.28014">
        <ele>19.799999237061</ele>
        <time>2021-05-16T09:54:54.000Z</time>
      </trkpt>
      <trkpt lat="47.28594" lon="-2.28019">
        <ele>20.200000762939</ele>
        <time>2021-05-16T09:54:55.000Z</time>
      </trkpt>
      <trkpt lat="47.28592" lon="-2.28023">
        <ele>20.60000038147</ele>
        <time>2021-05-16T09:54:56.000Z</time>
      </trkpt>
      <trkpt lat="47.28588" lon="-2.28028">
        <ele>21</ele>
        <time>2021-05-16T09:54:57.000Z</time>
      </trkpt>
      <trkpt lat="47.28585" lon="-2.28032">
        <ele>21.39999961853</ele>
        <time>2021-05-16T09:54:58.000Z</time>
      </trkpt>
      <trkpt lat="47.28582" lon="-2.28036">
        <ele>21.39999961853</ele>
        <time>2021-05-16T09:54:59.000Z</time>
      </trkpt>
      <trkpt lat="47.28569" lon="-2.28048">
        <ele>21.39999961853</ele>
        <time>2021-05-16T09:55:03.000Z</time>
      </trkpt>
      <trkpt lat="47.28556" lon="-2.2805">
        <ele>21.39999961853</ele>
        <time>2021-05-16T09:55:07.000Z</time>
      </trkpt>
      <trkpt lat="47.28549" lon="-2.28048">
        <ele>21.39999961853</ele>
        <time>2021-05-16T09:55:10.000Z</time>
      </trkpt>
      <trkpt lat="47.28546" lon="-2.28048">
        <ele>21.39999961853</ele>
        <time>2021-05-16T09:55:12.000Z</time>
      </trkpt>
      <trkpt lat="47.28544" lon="-2.28048">
        <ele>21.799999237061</ele>
        <time>2021-05-16T09:55:13.000Z</time>
      </trkpt>
      <trkpt lat="47.28542" lon="-2.28048">
        <ele>22.200000762939</ele>
        <time>2021-05-16T09:55:14.000Z</time>
      </trkpt>
      <trkpt lat="47.2854" lon="-2.28047">
        <ele>22.799999237061</ele>
        <time>2021-05-16T09:55:15.000Z</time>
      </trkpt>
      <trkpt lat="47.28538" lon="-2.28048">
        <ele>23.200000762939</ele>
        <time>2021-05-16T09:55:16.000Z</time>
      </trkpt>
      <trkpt lat="47.28535" lon="-2.28048">
        <ele>23.60000038147</ele>
        <time>2021-05-16T09:55:17.000Z</time>
      </trkpt>
      <trkpt lat="47.2853" lon="-2.28049">
        <ele>24</ele>
        <time>2021-05-16T09:55:19.000Z</time>
      </trkpt>
      <trkpt lat="47.28528" lon="-2.28049">
        <ele>24.39999961853</ele>
        <time>2021-05-16T09:55:20.000Z</time>
      </trkpt>
      <trkpt lat="47.28526" lon="-2.28048">
        <ele>24.799999237061</ele>
        <time>2021-05-16T09:55:21.000Z</time>
      </trkpt>
      <trkpt lat="47.28524" lon="-2.28048">
        <ele>25.200000762939</ele>
        <time>2021-05-16T09:55:22.000Z</time>
      </trkpt>
      <trkpt lat="47.28523" lon="-2.28047">
        <ele>25.799999237061</ele>
        <time>2021-05-16T09:55:23.000Z</time>
      </trkpt>
      <trkpt lat="47.2852" lon="-2.28046">
        <ele>25.799999237061</ele>
        <time>2021-05-16T09:55:25.000Z</time>
      </trkpt>
      <trkpt lat="47.28517" lon="-2.28042">
        <ele>26.200000762939</ele>
        <time>2021-05-16T09:55:27.000Z</time>
      </trkpt>
      <trkpt lat="47.28516" lon="-2.2804">
        <ele>26.60000038147</ele>
        <time>2021-05-16T09:55:28.000Z</time>
      </trkpt>
      <trkpt lat="47.28514" lon="-2.28039">
        <ele>27</ele>
        <time>2021-05-16T09:55:29.000Z</time>
      </trkpt>
      <trkpt lat="47.28513" lon="-2.28038">
        <ele>27.39999961853</ele>
        <time>2021-05-16T09:55:30.000Z</time>
      </trkpt>
      <trkpt lat="47.28511" lon="-2.28037">
        <ele>27.799999237061</ele>
        <time>2021-05-16T09:55:31.000Z</time>
      </trkpt>
      <trkpt lat="47.2851" lon="-2.28037">
        <ele>27.799999237061</ele>
        <time>2021-05-16T09:55:32.000Z</time>
      </trkpt>
      <trkpt lat="47.28506" lon="-2.2804">
        <ele>27.799999237061</ele>
        <time>2021-05-16T09:55:34.000Z</time>
      </trkpt>
      <trkpt lat="47.285" lon="-2.28043">
        <ele>27.799999237061</ele>
        <time>2021-05-16T09:55:37.000Z</time>
      </trkpt>
      <trkpt lat="47.28495" lon="-2.28055">
        <ele>27.799999237061</ele>
        <time>2021-05-16T09:55:42.000Z</time>
      </trkpt>
      <trkpt lat="47.28501" lon="-2.28069">
        <ele>27.799999237061</ele>
        <time>2021-05-16T09:55:46.000Z</time>
      </trkpt>
      <trkpt lat="47.28502" lon="-2.28073">
        <ele>27.799999237061</ele>
        <time>2021-05-16T09:55:47.000Z</time>
      </trkpt>
      <trkpt lat="47.28499" lon="-2.28078">
        <ele>27.799999237061</ele>
        <time>2021-05-16T09:55:49.000Z</time>
      </trkpt>
      <trkpt lat="47.28486" lon="-2.2809">
        <ele>27.799999237061</ele>
        <time>2021-05-16T09:55:53.000Z</time>
      </trkpt>
      <trkpt lat="47.28481" lon="-2.28091">
        <ele>27.39999961853</ele>
        <time>2021-05-16T09:55:55.000Z</time>
      </trkpt>
      <trkpt lat="47.28479" lon="-2.2809">
        <ele>27</ele>
        <time>2021-05-16T09:55:56.000Z</time>
      </trkpt>
      <trkpt lat="47.28477" lon="-2.28088">
        <ele>26.60000038147</ele>
        <time>2021-05-16T09:55:57.000Z</time>
      </trkpt>
      <trkpt lat="47.28475" lon="-2.28087">
        <ele>26.200000762939</ele>
        <time>2021-05-16T09:55:58.000Z</time>
      </trkpt>
      <trkpt lat="47.28474" lon="-2.28086">
        <ele>25.799999237061</ele>
        <time>2021-05-16T09:55:59.000Z</time>
      </trkpt>
      <trkpt lat="47.28469" lon="-2.28086">
        <ele>25.799999237061</ele>
        <time>2021-05-16T09:56:01.000Z</time>
      </trkpt>
      <trkpt lat="47.28465" lon="-2.28083">
        <ele>25.799999237061</ele>
        <time>2021-05-16T09:56:03.000Z</time>
      </trkpt>
      <trkpt lat="47.28462" lon="-2.28082">
        <ele>25.799999237061</ele>
        <time>2021-05-16T09:56:04.000Z</time>
      </trkpt>
      <trkpt lat="47.28455" lon="-2.28085">
        <ele>25.799999237061</ele>
        <time>2021-05-16T09:56:07.000Z</time>
      </trkpt>
      <trkpt lat="47.28452" lon="-2.28084">
        <ele>25.799999237061</ele>
        <time>2021-05-16T09:56:08.000Z</time>
      </trkpt>
      <trkpt lat="47.28443" lon="-2.28083">
        <ele>25.799999237061</ele>
        <time>2021-05-16T09:56:11.000Z</time>
      </trkpt>
      <trkpt lat="47.28439" lon="-2.28084">
        <ele>25.799999237061</ele>
        <time>2021-05-16T09:56:13.000Z</time>
      </trkpt>
      <trkpt lat="47.28431" lon="-2.28084">
        <ele>25.799999237061</ele>
        <time>2021-05-16T09:56:16.000Z</time>
      </trkpt>
      <trkpt lat="47.28427" lon="-2.28082">
        <ele>25.799999237061</ele>
        <time>2021-05-16T09:56:17.000Z</time>
      </trkpt>
      <trkpt lat="47.2841" lon="-2.28081">
        <ele>25.799999237061</ele>
        <time>2021-05-16T09:56:21.000Z</time>
      </trkpt>
      <trkpt lat="47.284" lon="-2.2808">
        <ele>25.799999237061</ele>
        <time>2021-05-16T09:56:25.000Z</time>
      </trkpt>
      <trkpt lat="47.28395" lon="-2.28079">
        <ele>25.799999237061</ele>
        <time>2021-05-16T09:56:29.000Z</time>
      </trkpt>
      <trkpt lat="47.28395" lon="-2.28079">
        <ele>25.799999237061</ele>
        <time>2021-05-16T09:56:37.000Z</time>
      </trkpt>
      <trkpt lat="47.28395" lon="-2.2809">
        <ele>25.799999237061</ele>
        <time>2021-05-16T09:56:41.000Z</time>
      </trkpt>
      <trkpt lat="47.28393" lon="-2.28097">
        <ele>25.799999237061</ele>
        <time>2021-05-16T09:56:48.000Z</time>
      </trkpt>
      <trkpt lat="47.28391" lon="-2.28108">
        <ele>25.799999237061</ele>
        <time>2021-05-16T09:57:07.000Z</time>
      </trkpt>
      <trkpt lat="47.28392" lon="-2.28116">
        <ele>25.799999237061</ele>
        <time>2021-05-16T09:57:09.000Z</time>
      </trkpt>
      <trkpt lat="47.28388" lon="-2.28139">
        <ele>25.799999237061</ele>
        <time>2021-05-16T09:57:15.000Z</time>
      </trkpt>
      <trkpt lat="47.28388" lon="-2.28158">
        <ele>26.200000762939</ele>
        <time>2021-05-16T09:57:19.000Z</time>
      </trkpt>
      <trkpt lat="47.28388" lon="-2.28165">
        <ele>26.799999237061</ele>
        <time>2021-05-16T09:57:20.000Z</time>
      </trkpt>
      <trkpt lat="47.28387" lon="-2.28171">
        <ele>27.200000762939</ele>
        <time>2021-05-16T09:57:21.000Z</time>
      </trkpt>
      <trkpt lat="47.28387" lon="-2.28177">
        <ele>27.60000038147</ele>
        <time>2021-05-16T09:57:22.000Z</time>
      </trkpt>
      <trkpt lat="47.28387" lon="-2.28183">
        <ele>28</ele>
        <time>2021-05-16T09:57:23.000Z</time>
      </trkpt>
      <trkpt lat="47.28387" lon="-2.28201">
        <ele>28.39999961853</ele>
        <time>2021-05-16T09:57:26.000Z</time>
      </trkpt>
      <trkpt lat="47.28387" lon="-2.28207">
        <ele>28.799999237061</ele>
        <time>2021-05-16T09:57:27.000Z</time>
      </trkpt>
      <trkpt lat="47.28388" lon="-2.28213">
        <ele>29.60000038147</ele>
        <time>2021-05-16T09:57:28.000Z</time>
      </trkpt>
      <trkpt lat="47.28388" lon="-2.28219">
        <ele>30</ele>
        <time>2021-05-16T09:57:29.000Z</time>
      </trkpt>
      <trkpt lat="47.28389" lon="-2.28246">
        <ele>30.60000038147</ele>
        <time>2021-05-16T09:57:33.000Z</time>
      </trkpt>
      <trkpt lat="47.28389" lon="-2.28252">
        <ele>31</ele>
        <time>2021-05-16T09:57:34.000Z</time>
      </trkpt>
      <trkpt lat="47.28389" lon="-2.28259">
        <ele>31.39999961853</ele>
        <time>2021-05-16T09:57:35.000Z</time>
      </trkpt>
      <trkpt lat="47.28389" lon="-2.28265">
        <ele>31.799999237061</ele>
        <time>2021-05-16T09:57:36.000Z</time>
      </trkpt>
      <trkpt lat="47.2839" lon="-2.2827">
        <ele>32.200000762939</ele>
        <time>2021-05-16T09:57:37.000Z</time>
      </trkpt>
      <trkpt lat="47.2839" lon="-2.28289">
        <ele>32.200000762939</ele>
        <time>2021-05-16T09:57:40.000Z</time>
      </trkpt>
      <trkpt lat="47.2839" lon="-2.28322">
        <ele>32.200000762939</ele>
        <time>2021-05-16T09:57:45.000Z</time>
      </trkpt>
      <trkpt lat="47.28389" lon="-2.28335">
        <ele>32.200000762939</ele>
        <time>2021-05-16T09:57:47.000Z</time>
      </trkpt>
      <trkpt lat="47.28388" lon="-2.28342">
        <ele>32.799999237061</ele>
        <time>2021-05-16T09:57:48.000Z</time>
      </trkpt>
      <trkpt lat="47.28387" lon="-2.2835">
        <ele>33.200000762939</ele>
        <time>2021-05-16T09:57:49.000Z</time>
      </trkpt>
      <trkpt lat="47.28386" lon="-2.28357">
        <ele>33.599998474121</ele>
        <time>2021-05-16T09:57:50.000Z</time>
      </trkpt>
      <trkpt lat="47.28385" lon="-2.28363">
        <ele>34</ele>
        <time>2021-05-16T09:57:51.000Z</time>
      </trkpt>
      <trkpt lat="47.28382" lon="-2.28371">
        <ele>34.400001525879</ele>
        <time>2021-05-16T09:57:52.000Z</time>
      </trkpt>
      <trkpt lat="47.28379" lon="-2.28386">
        <ele>34.400001525879</ele>
        <time>2021-05-16T09:57:54.000Z</time>
      </trkpt>
      <trkpt lat="47.28379" lon="-2.28393">
        <ele>34.400001525879</ele>
        <time>2021-05-16T09:57:55.000Z</time>
      </trkpt>
      <trkpt lat="47.28379" lon="-2.28416">
        <ele>34.400001525879</ele>
        <time>2021-05-16T09:57:58.000Z</time>
      </trkpt>
      <trkpt lat="47.28379" lon="-2.28441">
        <ele>34.400001525879</ele>
        <time>2021-05-16T09:58:01.000Z</time>
      </trkpt>
      <trkpt lat="47.28379" lon="-2.28501">
        <ele>34.400001525879</ele>
        <time>2021-05-16T09:58:08.000Z</time>
      </trkpt>
      <trkpt lat="47.2838" lon="-2.28518">
        <ele>34.400001525879</ele>
        <time>2021-05-16T09:58:10.000Z</time>
      </trkpt>
      <trkpt lat="47.2838" lon="-2.2856">
        <ele>34.400001525879</ele>
        <time>2021-05-16T09:58:15.000Z</time>
      </trkpt>
      <trkpt lat="47.28382" lon="-2.2862">
        <ele>34.400001525879</ele>
        <time>2021-05-16T09:58:22.000Z</time>
      </trkpt>
      <trkpt lat="47.28382" lon="-2.28654">
        <ele>34.400001525879</ele>
        <time>2021-05-16T09:58:26.000Z</time>
      </trkpt>
      <trkpt lat="47.28383" lon="-2.2867">
        <ele>34.400001525879</ele>
        <time>2021-05-16T09:58:28.000Z</time>
      </trkpt>
      <trkpt lat="47.28384" lon="-2.28721">
        <ele>34.400001525879</ele>
        <time>2021-05-16T09:58:34.000Z</time>
      </trkpt>
      <trkpt lat="47.28386" lon="-2.28792">
        <ele>34.400001525879</ele>
        <time>2021-05-16T09:58:42.000Z</time>
      </trkpt>
      <trkpt lat="47.28389" lon="-2.2887">
        <ele>34.400001525879</ele>
        <time>2021-05-16T09:58:50.000Z</time>
      </trkpt>
      <trkpt lat="47.28392" lon="-2.28928">
        <ele>34.400001525879</ele>
        <time>2021-05-16T09:58:56.000Z</time>
      </trkpt>
      <trkpt lat="47.28393" lon="-2.28952">
        <ele>34.400001525879</ele>
        <time>2021-05-16T09:58:59.000Z</time>
      </trkpt>
      <trkpt lat="47.28393" lon="-2.28973">
        <ele>34.400001525879</ele>
        <time>2021-05-16T09:59:02.000Z</time>
      </trkpt>
      <trkpt lat="47.28395" lon="-2.28988">
        <ele>34.400001525879</ele>
        <time>2021-05-16T09:59:05.000Z</time>
      </trkpt>
      <trkpt lat="47.28398" lon="-2.28988">
        <ele>34.400001525879</ele>
        <time>2021-05-16T09:59:06.000Z</time>
      </trkpt>
      <trkpt lat="47.28405" lon="-2.2899">
        <ele>34</ele>
        <time>2021-05-16T09:59:08.000Z</time>
      </trkpt>
      <trkpt lat="47.28409" lon="-2.28991">
        <ele>33.599998474121</ele>
        <time>2021-05-16T09:59:09.000Z</time>
      </trkpt>
      <trkpt lat="47.28414" lon="-2.28991">
        <ele>33.200000762939</ele>
        <time>2021-05-16T09:59:10.000Z</time>
      </trkpt>
      <trkpt lat="47.28418" lon="-2.28991">
        <ele>32.799999237061</ele>
        <time>2021-05-16T09:59:11.000Z</time>
      </trkpt>
      <trkpt lat="47.28423" lon="-2.28991">
        <ele>32.400001525879</ele>
        <time>2021-05-16T09:59:12.000Z</time>
      </trkpt>
      <trkpt lat="47.28451" lon="-2.28994">
        <ele>32.400001525879</ele>
        <time>2021-05-16T09:59:17.000Z</time>
      </trkpt>
      <trkpt lat="47.28456" lon="-2.28995">
        <ele>32</ele>
        <time>2021-05-16T09:59:18.000Z</time>
      </trkpt>
      <trkpt lat="47.28462" lon="-2.28996">
        <ele>31.39999961853</ele>
        <time>2021-05-16T09:59:19.000Z</time>
      </trkpt>
      <trkpt lat="47.28468" lon="-2.28997">
        <ele>31</ele>
        <time>2021-05-16T09:59:20.000Z</time>
      </trkpt>
      <trkpt lat="47.28474" lon="-2.28998">
        <ele>30.60000038147</ele>
        <time>2021-05-16T09:59:21.000Z</time>
      </trkpt>
      <trkpt lat="47.28481" lon="-2.29">
        <ele>30</ele>
        <time>2021-05-16T09:59:22.000Z</time>
      </trkpt>
      <trkpt lat="47.28505" lon="-2.2901">
        <ele>30</ele>
        <time>2021-05-16T09:59:26.000Z</time>
      </trkpt>
      <trkpt lat="47.28516" lon="-2.29017">
        <ele>30</ele>
        <time>2021-05-16T09:59:28.000Z</time>
      </trkpt>
      <trkpt lat="47.28527" lon="-2.29021">
        <ele>30</ele>
        <time>2021-05-16T09:59:30.000Z</time>
      </trkpt>
      <trkpt lat="47.28532" lon="-2.29022">
        <ele>29.60000038147</ele>
        <time>2021-05-16T09:59:31.000Z</time>
      </trkpt>
      <trkpt lat="47.28536" lon="-2.29022">
        <ele>28.799999237061</ele>
        <time>2021-05-16T09:59:32.000Z</time>
      </trkpt>
      <trkpt lat="47.2854" lon="-2.29023">
        <ele>28.200000762939</ele>
        <time>2021-05-16T09:59:33.000Z</time>
      </trkpt>
      <trkpt lat="47.28545" lon="-2.29024">
        <ele>27.799999237061</ele>
        <time>2021-05-16T09:59:34.000Z</time>
      </trkpt>
      <trkpt lat="47.2856" lon="-2.29031">
        <ele>27.799999237061</ele>
        <time>2021-05-16T09:59:37.000Z</time>
      </trkpt>
      <trkpt lat="47.28566" lon="-2.29033">
        <ele>27.799999237061</ele>
        <time>2021-05-16T09:59:38.000Z</time>
      </trkpt>
      <trkpt lat="47.28583" lon="-2.29038">
        <ele>27.799999237061</ele>
        <time>2021-05-16T09:59:42.000Z</time>
      </trkpt>
      <trkpt lat="47.28596" lon="-2.29059">
        <ele>27.799999237061</ele>
        <time>2021-05-16T09:59:46.000Z</time>
      </trkpt>
      <trkpt lat="47.28596" lon="-2.2909">
        <ele>27.799999237061</ele>
        <time>2021-05-16T09:59:50.000Z</time>
      </trkpt>
      <trkpt lat="47.28593" lon="-2.29106">
        <ele>27.799999237061</ele>
        <time>2021-05-16T09:59:52.000Z</time>
      </trkpt>
      <trkpt lat="47.28583" lon="-2.29136">
        <ele>27.799999237061</ele>
        <time>2021-05-16T09:59:56.000Z</time>
      </trkpt>
      <trkpt lat="47.28564" lon="-2.29165">
        <ele>27.799999237061</ele>
        <time>2021-05-16T10:00:01.000Z</time>
      </trkpt>
      <trkpt lat="47.28559" lon="-2.29169">
        <ele>27.799999237061</ele>
        <time>2021-05-16T10:00:02.000Z</time>
      </trkpt>
      <trkpt lat="47.28529" lon="-2.29197">
        <ele>27.799999237061</ele>
        <time>2021-05-16T10:00:09.000Z</time>
      </trkpt>
      <trkpt lat="47.28522" lon="-2.29205">
        <ele>27.799999237061</ele>
        <time>2021-05-16T10:00:11.000Z</time>
      </trkpt>
      <trkpt lat="47.28519" lon="-2.29218">
        <ele>27.799999237061</ele>
        <time>2021-05-16T10:00:13.000Z</time>
      </trkpt>
      <trkpt lat="47.28518" lon="-2.29265">
        <ele>27.799999237061</ele>
        <time>2021-05-16T10:00:20.000Z</time>
      </trkpt>
      <trkpt lat="47.28515" lon="-2.29291">
        <ele>27.799999237061</ele>
        <time>2021-05-16T10:00:26.000Z</time>
      </trkpt>
      <trkpt lat="47.28508" lon="-2.29303">
        <ele>27.799999237061</ele>
        <time>2021-05-16T10:00:29.000Z</time>
      </trkpt>
      <trkpt lat="47.285" lon="-2.29309">
        <ele>27.799999237061</ele>
        <time>2021-05-16T10:00:31.000Z</time>
      </trkpt>
      <trkpt lat="47.28486" lon="-2.29317">
        <ele>27.799999237061</ele>
        <time>2021-05-16T10:00:34.000Z</time>
      </trkpt>
      <trkpt lat="47.28476" lon="-2.29321">
        <ele>27.799999237061</ele>
        <time>2021-05-16T10:00:36.000Z</time>
      </trkpt>
      <trkpt lat="47.28456" lon="-2.2933">
        <ele>28.200000762939</ele>
        <time>2021-05-16T10:00:40.000Z</time>
      </trkpt>
      <trkpt lat="47.28451" lon="-2.29332">
        <ele>28.60000038147</ele>
        <time>2021-05-16T10:00:41.000Z</time>
      </trkpt>
      <trkpt lat="47.28447" lon="-2.29333">
        <ele>29</ele>
        <time>2021-05-16T10:00:42.000Z</time>
      </trkpt>
      <trkpt lat="47.28442" lon="-2.29335">
        <ele>29.39999961853</ele>
        <time>2021-05-16T10:00:43.000Z</time>
      </trkpt>
      <trkpt lat="47.28437" lon="-2.29336">
        <ele>29.799999237061</ele>
        <time>2021-05-16T10:00:44.000Z</time>
      </trkpt>
      <trkpt lat="47.28433" lon="-2.29338">
        <ele>29.799999237061</ele>
        <time>2021-05-16T10:00:45.000Z</time>
      </trkpt>
      <trkpt lat="47.28423" lon="-2.29341">
        <ele>29.799999237061</ele>
        <time>2021-05-16T10:00:47.000Z</time>
      </trkpt>
      <trkpt lat="47.2841" lon="-2.29348">
        <ele>29.799999237061</ele>
        <time>2021-05-16T10:00:50.000Z</time>
      </trkpt>
      <trkpt lat="47.28405" lon="-2.2935">
        <ele>29.799999237061</ele>
        <time>2021-05-16T10:00:51.000Z</time>
      </trkpt>
      <trkpt lat="47.28397" lon="-2.29356">
        <ele>30.200000762939</ele>
        <time>2021-05-16T10:00:53.000Z</time>
      </trkpt>
      <trkpt lat="47.28393" lon="-2.29358">
        <ele>30.60000038147</ele>
        <time>2021-05-16T10:00:54.000Z</time>
      </trkpt>
      <trkpt lat="47.28388" lon="-2.29361">
        <ele>31.200000762939</ele>
        <time>2021-05-16T10:00:55.000Z</time>
      </trkpt>
      <trkpt lat="47.28384" lon="-2.29363">
        <ele>31.60000038147</ele>
        <time>2021-05-16T10:00:56.000Z</time>
      </trkpt>
      <trkpt lat="47.28379" lon="-2.29366">
        <ele>32</ele>
        <time>2021-05-16T10:00:57.000Z</time>
      </trkpt>
      <trkpt lat="47.28366" lon="-2.29375">
        <ele>32</ele>
        <time>2021-05-16T10:01:00.000Z</time>
      </trkpt>
      <trkpt lat="47.28337" lon="-2.29402">
        <ele>32</ele>
        <time>2021-05-16T10:01:06.000Z</time>
      </trkpt>
      <trkpt lat="47.28306" lon="-2.29437">
        <ele>32</ele>
        <time>2021-05-16T10:01:13.000Z</time>
      </trkpt>
      <trkpt lat="47.28285" lon="-2.29453">
        <ele>31.60000038147</ele>
        <time>2021-05-16T10:01:18.000Z</time>
      </trkpt>
      <trkpt lat="47.28281" lon="-2.29456">
        <ele>31.200000762939</ele>
        <time>2021-05-16T10:01:19.000Z</time>
      </trkpt>
      <trkpt lat="47.28277" lon="-2.29458">
        <ele>30.799999237061</ele>
        <time>2021-05-16T10:01:20.000Z</time>
      </trkpt>
      <trkpt lat="47.28273" lon="-2.29461">
        <ele>30.39999961853</ele>
        <time>2021-05-16T10:01:21.000Z</time>
      </trkpt>
      <trkpt lat="47.28269" lon="-2.29464">
        <ele>30</ele>
        <time>2021-05-16T10:01:22.000Z</time>
      </trkpt>
      <trkpt lat="47.28253" lon="-2.29475">
        <ele>30</ele>
        <time>2021-05-16T10:01:26.000Z</time>
      </trkpt>
      <trkpt lat="47.28228" lon="-2.29489">
        <ele>30.39999961853</ele>
        <time>2021-05-16T10:01:31.000Z</time>
      </trkpt>
      <trkpt lat="47.28224" lon="-2.29492">
        <ele>30.799999237061</ele>
        <time>2021-05-16T10:01:32.000Z</time>
      </trkpt>
      <trkpt lat="47.28219" lon="-2.29495">
        <ele>31.200000762939</ele>
        <time>2021-05-16T10:01:33.000Z</time>
      </trkpt>
      <trkpt lat="47.28215" lon="-2.29497">
        <ele>31.60000038147</ele>
        <time>2021-05-16T10:01:34.000Z</time>
      </trkpt>
      <trkpt lat="47.2821" lon="-2.29499">
        <ele>32</ele>
        <time>2021-05-16T10:01:35.000Z</time>
      </trkpt>
      <trkpt lat="47.28194" lon="-2.29508">
        <ele>32</ele>
        <time>2021-05-16T10:01:39.000Z</time>
      </trkpt>
      <trkpt lat="47.28178" lon="-2.29515">
        <ele>32</ele>
        <time>2021-05-16T10:01:43.000Z</time>
      </trkpt>
      <trkpt lat="47.28171" lon="-2.29518">
        <ele>32</ele>
        <time>2021-05-16T10:01:45.000Z</time>
      </trkpt>
      <trkpt lat="47.28163" lon="-2.29521">
        <ele>32.400001525879</ele>
        <time>2021-05-16T10:01:47.000Z</time>
      </trkpt>
      <trkpt lat="47.28159" lon="-2.29522">
        <ele>32.799999237061</ele>
        <time>2021-05-16T10:01:48.000Z</time>
      </trkpt>
      <trkpt lat="47.28155" lon="-2.29524">
        <ele>33.200000762939</ele>
        <time>2021-05-16T10:01:49.000Z</time>
      </trkpt>
      <trkpt lat="47.2815" lon="-2.29526">
        <ele>33.599998474121</ele>
        <time>2021-05-16T10:01:50.000Z</time>
      </trkpt>
      <trkpt lat="47.28145" lon="-2.29528">
        <ele>34</ele>
        <time>2021-05-16T10:01:51.000Z</time>
      </trkpt>
      <trkpt lat="47.28108" lon="-2.29543">
        <ele>34</ele>
        <time>2021-05-16T10:01:58.000Z</time>
      </trkpt>
      <trkpt lat="47.28096" lon="-2.29547">
        <ele>34.400001525879</ele>
        <time>2021-05-16T10:02:00.000Z</time>
      </trkpt>
      <trkpt lat="47.28091" lon="-2.29549">
        <ele>35.200000762939</ele>
        <time>2021-05-16T10:02:01.000Z</time>
      </trkpt>
      <trkpt lat="47.28086" lon="-2.29551">
        <ele>35.599998474121</ele>
        <time>2021-05-16T10:02:03.000Z</time>
      </trkpt>
      <trkpt lat="47.28082" lon="-2.29553">
        <ele>36</ele>
        <time>2021-05-16T10:02:04.000Z</time>
      </trkpt>
      <trkpt lat="47.28072" lon="-2.29557">
        <ele>36</ele>
        <time>2021-05-16T10:02:06.000Z</time>
      </trkpt>
      <trkpt lat="47.28034" lon="-2.29573">
        <ele>36</ele>
        <time>2021-05-16T10:02:14.000Z</time>
      </trkpt>
      <trkpt lat="47.28029" lon="-2.29576">
        <ele>36</ele>
        <time>2021-05-16T10:02:15.000Z</time>
      </trkpt>
      <trkpt lat="47.28009" lon="-2.29584">
        <ele>36</ele>
        <time>2021-05-16T10:02:19.000Z</time>
      </trkpt>
      <trkpt lat="47.2797" lon="-2.29595">
        <ele>36</ele>
        <time>2021-05-16T10:02:26.000Z</time>
      </trkpt>
      <trkpt lat="47.27933" lon="-2.29599">
        <ele>36</ele>
        <time>2021-05-16T10:02:33.000Z</time>
      </trkpt>
      <trkpt lat="47.27889" lon="-2.29596">
        <ele>36</ele>
        <time>2021-05-16T10:02:41.000Z</time>
      </trkpt>
      <trkpt lat="47.27868" lon="-2.29593">
        <ele>36</ele>
        <time>2021-05-16T10:02:46.000Z</time>
      </trkpt>
      <trkpt lat="47.27865" lon="-2.29593">
        <ele>35.599998474121</ele>
        <time>2021-05-16T10:02:47.000Z</time>
      </trkpt>
      <trkpt lat="47.27862" lon="-2.29593">
        <ele>35.200000762939</ele>
        <time>2021-05-16T10:02:48.000Z</time>
      </trkpt>
      <trkpt lat="47.27859" lon="-2.29594">
        <ele>34.799999237061</ele>
        <time>2021-05-16T10:02:49.000Z</time>
      </trkpt>
      <trkpt lat="47.27856" lon="-2.29595">
        <ele>34.400001525879</ele>
        <time>2021-05-16T10:02:50.000Z</time>
      </trkpt>
      <trkpt lat="47.27853" lon="-2.29596">
        <ele>34</ele>
        <time>2021-05-16T10:02:51.000Z</time>
      </trkpt>
      <trkpt lat="47.27848" lon="-2.29596">
        <ele>34</ele>
        <time>2021-05-16T10:02:53.000Z</time>
      </trkpt>
      <trkpt lat="47.27829" lon="-2.29594">
        <ele>34</ele>
        <time>2021-05-16T10:02:58.000Z</time>
      </trkpt>
      <trkpt lat="47.27801" lon="-2.29595">
        <ele>34</ele>
        <time>2021-05-16T10:03:04.000Z</time>
      </trkpt>
      <trkpt lat="47.2777" lon="-2.29595">
        <ele>34</ele>
        <time>2021-05-16T10:03:10.000Z</time>
      </trkpt>
      <trkpt lat="47.27739" lon="-2.29597">
        <ele>34</ele>
        <time>2021-05-16T10:03:16.000Z</time>
      </trkpt>
      <trkpt lat="47.27701" lon="-2.29596">
        <ele>34</ele>
        <time>2021-05-16T10:03:23.000Z</time>
      </trkpt>
      <trkpt lat="47.27659" lon="-2.29595">
        <ele>34</ele>
        <time>2021-05-16T10:03:31.000Z</time>
      </trkpt>
      <trkpt lat="47.27619" lon="-2.29596">
        <ele>34</ele>
        <time>2021-05-16T10:03:38.000Z</time>
      </trkpt>
      <trkpt lat="47.27613" lon="-2.29596">
        <ele>33.400001525879</ele>
        <time>2021-05-16T10:03:39.000Z</time>
      </trkpt>
      <trkpt lat="47.27608" lon="-2.29596">
        <ele>32.599998474121</ele>
        <time>2021-05-16T10:03:40.000Z</time>
      </trkpt>
      <trkpt lat="47.27603" lon="-2.29596">
        <ele>32.200000762939</ele>
        <time>2021-05-16T10:03:41.000Z</time>
      </trkpt>
      <trkpt lat="47.27597" lon="-2.29596">
        <ele>31.799999237061</ele>
        <time>2021-05-16T10:03:42.000Z</time>
      </trkpt>
      <trkpt lat="47.27581" lon="-2.29596">
        <ele>31.799999237061</ele>
        <time>2021-05-16T10:03:45.000Z</time>
      </trkpt>
      <trkpt lat="47.27543" lon="-2.29594">
        <ele>31.799999237061</ele>
        <time>2021-05-16T10:03:53.000Z</time>
      </trkpt>
      <trkpt lat="47.27514" lon="-2.29598">
        <ele>31.799999237061</ele>
        <time>2021-05-16T10:03:59.000Z</time>
      </trkpt>
      <trkpt lat="47.27471" lon="-2.2961">
        <ele>31.799999237061</ele>
        <time>2021-05-16T10:04:07.000Z</time>
      </trkpt>
      <trkpt lat="47.27435" lon="-2.29619">
        <ele>31.799999237061</ele>
        <time>2021-05-16T10:04:14.000Z</time>
      </trkpt>
      <trkpt lat="47.274" lon="-2.29627">
        <ele>31.799999237061</ele>
        <time>2021-05-16T10:04:21.000Z</time>
      </trkpt>
      <trkpt lat="47.27369" lon="-2.29631">
        <ele>31.799999237061</ele>
        <time>2021-05-16T10:04:27.000Z</time>
      </trkpt>
      <trkpt lat="47.27332" lon="-2.29636">
        <ele>31.799999237061</ele>
        <time>2021-05-16T10:04:34.000Z</time>
      </trkpt>
      <trkpt lat="47.2729" lon="-2.29641">
        <ele>31.799999237061</ele>
        <time>2021-05-16T10:04:42.000Z</time>
      </trkpt>
      <trkpt lat="47.27271" lon="-2.29644">
        <ele>31.799999237061</ele>
        <time>2021-05-16T10:04:46.000Z</time>
      </trkpt>
      <trkpt lat="47.27265" lon="-2.29651">
        <ele>31.799999237061</ele>
        <time>2021-05-16T10:04:48.000Z</time>
      </trkpt>
      <trkpt lat="47.27263" lon="-2.2967">
        <ele>31.799999237061</ele>
        <time>2021-05-16T10:04:51.000Z</time>
      </trkpt>
      <trkpt lat="47.27271" lon="-2.29703">
        <ele>31.799999237061</ele>
        <time>2021-05-16T10:04:55.000Z</time>
      </trkpt>
      <trkpt lat="47.27277" lon="-2.2973">
        <ele>32.200000762939</ele>
        <time>2021-05-16T10:04:58.000Z</time>
      </trkpt>
      <trkpt lat="47.2728" lon="-2.29739">
        <ele>32.599998474121</ele>
        <time>2021-05-16T10:04:59.000Z</time>
      </trkpt>
      <trkpt lat="47.27283" lon="-2.29748">
        <ele>33</ele>
        <time>2021-05-16T10:05:00.000Z</time>
      </trkpt>
      <trkpt lat="47.27285" lon="-2.29757">
        <ele>33.400001525879</ele>
        <time>2021-05-16T10:05:01.000Z</time>
      </trkpt>
      <trkpt lat="47.27288" lon="-2.29767">
        <ele>33.799999237061</ele>
        <time>2021-05-16T10:05:02.000Z</time>
      </trkpt>
      <trkpt lat="47.27291" lon="-2.29774">
        <ele>33.799999237061</ele>
        <time>2021-05-16T10:05:03.000Z</time>
      </trkpt>
      <trkpt lat="47.27306" lon="-2.29808">
        <ele>33.799999237061</ele>
        <time>2021-05-16T10:05:07.000Z</time>
      </trkpt>
      <trkpt lat="47.27319" lon="-2.29829">
        <ele>33.799999237061</ele>
        <time>2021-05-16T10:05:10.000Z</time>
      </trkpt>
      <trkpt lat="47.27327" lon="-2.29843">
        <ele>33.799999237061</ele>
        <time>2021-05-16T10:05:12.000Z</time>
      </trkpt>
      <trkpt lat="47.27351" lon="-2.29883">
        <ele>33.799999237061</ele>
        <time>2021-05-16T10:05:18.000Z</time>
      </trkpt>
      <trkpt lat="47.27373" lon="-2.29928">
        <ele>33.799999237061</ele>
        <time>2021-05-16T10:05:24.000Z</time>
      </trkpt>
      <trkpt lat="47.27376" lon="-2.29934">
        <ele>33.799999237061</ele>
        <time>2021-05-16T10:05:25.000Z</time>
      </trkpt>
      <trkpt lat="47.27395" lon="-2.29974">
        <ele>33.799999237061</ele>
        <time>2021-05-16T10:05:31.000Z</time>
      </trkpt>
      <trkpt lat="47.27415" lon="-2.30022">
        <ele>33.799999237061</ele>
        <time>2021-05-16T10:05:37.000Z</time>
      </trkpt>
      <trkpt lat="47.27425" lon="-2.30045">
        <ele>33.400001525879</ele>
        <time>2021-05-16T10:05:40.000Z</time>
      </trkpt>
      <trkpt lat="47.27428" lon="-2.30054">
        <ele>33</ele>
        <time>2021-05-16T10:05:41.000Z</time>
      </trkpt>
      <trkpt lat="47.27431" lon="-2.30063">
        <ele>32.599998474121</ele>
        <time>2021-05-16T10:05:42.000Z</time>
      </trkpt>
      <trkpt lat="47.27434" lon="-2.30072">
        <ele>32.200000762939</ele>
        <time>2021-05-16T10:05:43.000Z</time>
      </trkpt>
      <trkpt lat="47.27436" lon="-2.30082">
        <ele>31.799999237061</ele>
        <time>2021-05-16T10:05:44.000Z</time>
      </trkpt>
      <trkpt lat="47.27445" lon="-2.30125">
        <ele>31.799999237061</ele>
        <time>2021-05-16T10:05:48.000Z</time>
      </trkpt>
      <trkpt lat="47.27453" lon="-2.30168">
        <ele>31.39999961853</ele>
        <time>2021-05-16T10:05:52.000Z</time>
      </trkpt>
      <trkpt lat="47.27455" lon="-2.30177">
        <ele>31</ele>
        <time>2021-05-16T10:05:53.000Z</time>
      </trkpt>
      <trkpt lat="47.27456" lon="-2.30186">
        <ele>30.60000038147</ele>
        <time>2021-05-16T10:05:54.000Z</time>
      </trkpt>
      <trkpt lat="47.27457" lon="-2.30193">
        <ele>30.200000762939</ele>
        <time>2021-05-16T10:05:55.000Z</time>
      </trkpt>
      <trkpt lat="47.27457" lon="-2.30198">
        <ele>29.799999237061</ele>
        <time>2021-05-16T10:05:56.000Z</time>
      </trkpt>
      <trkpt lat="47.27455" lon="-2.30201">
        <ele>29.799999237061</ele>
        <time>2021-05-16T10:05:57.000Z</time>
      </trkpt>
      <trkpt lat="47.27446" lon="-2.30209">
        <ele>29.799999237061</ele>
        <time>2021-05-16T10:06:01.000Z</time>
      </trkpt>
      <trkpt lat="47.27443" lon="-2.30212">
        <ele>29.799999237061</ele>
        <time>2021-05-16T10:06:02.000Z</time>
      </trkpt>
      <trkpt lat="47.2742" lon="-2.30229">
        <ele>29.799999237061</ele>
        <time>2021-05-16T10:06:07.000Z</time>
      </trkpt>
      <trkpt lat="47.27385" lon="-2.30247">
        <ele>29.799999237061</ele>
        <time>2021-05-16T10:06:13.000Z</time>
      </trkpt>
      <trkpt lat="47.27349" lon="-2.30252">
        <ele>29.799999237061</ele>
        <time>2021-05-16T10:06:18.000Z</time>
      </trkpt>
      <trkpt lat="47.27311" lon="-2.30257">
        <ele>29.200000762939</ele>
        <time>2021-05-16T10:06:23.000Z</time>
      </trkpt>
      <trkpt lat="47.27304" lon="-2.30258">
        <ele>28.799999237061</ele>
        <time>2021-05-16T10:06:24.000Z</time>
      </trkpt>
      <trkpt lat="47.27296" lon="-2.30258">
        <ele>28.39999961853</ele>
        <time>2021-05-16T10:06:25.000Z</time>
      </trkpt>
      <trkpt lat="47.27289" lon="-2.30259">
        <ele>28</ele>
        <time>2021-05-16T10:06:26.000Z</time>
      </trkpt>
      <trkpt lat="47.27281" lon="-2.3026">
        <ele>27.60000038147</ele>
        <time>2021-05-16T10:06:27.000Z</time>
      </trkpt>
      <trkpt lat="47.27267" lon="-2.30263">
        <ele>27.60000038147</ele>
        <time>2021-05-16T10:06:29.000Z</time>
      </trkpt>
      <trkpt lat="47.27261" lon="-2.30263">
        <ele>27.60000038147</ele>
        <time>2021-05-16T10:06:30.000Z</time>
      </trkpt>
      <trkpt lat="47.27255" lon="-2.30263">
        <ele>27.200000762939</ele>
        <time>2021-05-16T10:06:31.000Z</time>
      </trkpt>
      <trkpt lat="47.2725" lon="-2.30262">
        <ele>26.799999237061</ele>
        <time>2021-05-16T10:06:32.000Z</time>
      </trkpt>
      <trkpt lat="47.27247" lon="-2.30261">
        <ele>26.39999961853</ele>
        <time>2021-05-16T10:06:33.000Z</time>
      </trkpt>
      <trkpt lat="47.27243" lon="-2.30259">
        <ele>25.39999961853</ele>
        <time>2021-05-16T10:06:34.000Z</time>
      </trkpt>
      <trkpt lat="47.27228" lon="-2.30255">
        <ele>25.39999961853</ele>
        <time>2021-05-16T10:06:38.000Z</time>
      </trkpt>
      <trkpt lat="47.27212" lon="-2.30257">
        <ele>25.39999961853</ele>
        <time>2021-05-16T10:06:42.000Z</time>
      </trkpt>
      <trkpt lat="47.27208" lon="-2.30259">
        <ele>25.39999961853</ele>
        <time>2021-05-16T10:06:43.000Z</time>
      </trkpt>
      <trkpt lat="47.27194" lon="-2.30262">
        <ele>25.39999961853</ele>
        <time>2021-05-16T10:06:47.000Z</time>
      </trkpt>
      <trkpt lat="47.27191" lon="-2.30258">
        <ele>25.39999961853</ele>
        <time>2021-05-16T10:06:48.000Z</time>
      </trkpt>
      <trkpt lat="47.27162" lon="-2.30251">
        <ele>25.39999961853</ele>
        <time>2021-05-16T10:06:53.000Z</time>
      </trkpt>
      <trkpt lat="47.27157" lon="-2.30251">
        <ele>25.39999961853</ele>
        <time>2021-05-16T10:06:54.000Z</time>
      </trkpt>
      <trkpt lat="47.27141" lon="-2.30256">
        <ele>25.39999961853</ele>
        <time>2021-05-16T10:06:57.000Z</time>
      </trkpt>
      <trkpt lat="47.27113" lon="-2.30265">
        <ele>25.39999961853</ele>
        <time>2021-05-16T10:07:03.000Z</time>
      </trkpt>
      <trkpt lat="47.27105" lon="-2.30268">
        <ele>25.39999961853</ele>
        <time>2021-05-16T10:07:05.000Z</time>
      </trkpt>
      <trkpt lat="47.27093" lon="-2.3028">
        <ele>25.39999961853</ele>
        <time>2021-05-16T10:07:08.000Z</time>
      </trkpt>
      <trkpt lat="47.27082" lon="-2.30298">
        <ele>26</ele>
        <time>2021-05-16T10:07:11.000Z</time>
      </trkpt>
      <trkpt lat="47.27078" lon="-2.30304">
        <ele>26.39999961853</ele>
        <time>2021-05-16T10:07:12.000Z</time>
      </trkpt>
      <trkpt lat="47.27076" lon="-2.30311">
        <ele>26.799999237061</ele>
        <time>2021-05-16T10:07:13.000Z</time>
      </trkpt>
      <trkpt lat="47.27074" lon="-2.30318">
        <ele>27.39999961853</ele>
        <time>2021-05-16T10:07:14.000Z</time>
      </trkpt>
      <trkpt lat="47.27071" lon="-2.30326">
        <ele>27.799999237061</ele>
        <time>2021-05-16T10:07:15.000Z</time>
      </trkpt>
      <trkpt lat="47.27066" lon="-2.3035">
        <ele>27.799999237061</ele>
        <time>2021-05-16T10:07:18.000Z</time>
      </trkpt>
      <trkpt lat="47.27056" lon="-2.30404">
        <ele>27.799999237061</ele>
        <time>2021-05-16T10:07:24.000Z</time>
      </trkpt>
      <trkpt lat="47.27048" lon="-2.30469">
        <ele>27.799999237061</ele>
        <time>2021-05-16T10:07:31.000Z</time>
      </trkpt>
      <trkpt lat="47.27037" lon="-2.30512">
        <ele>27.799999237061</ele>
        <time>2021-05-16T10:07:36.000Z</time>
      </trkpt>
      <trkpt lat="47.27024" lon="-2.30561">
        <ele>27.799999237061</ele>
        <time>2021-05-16T10:07:42.000Z</time>
      </trkpt>
      <trkpt lat="47.27012" lon="-2.30595">
        <ele>27.799999237061</ele>
        <time>2021-05-16T10:07:47.000Z</time>
      </trkpt>
      <trkpt lat="47.27007" lon="-2.306">
        <ele>27.799999237061</ele>
        <time>2021-05-16T10:07:48.000Z</time>
      </trkpt>
      <trkpt lat="47.26988" lon="-2.30611">
        <ele>27.799999237061</ele>
        <time>2021-05-16T10:07:51.000Z</time>
      </trkpt>
      <trkpt lat="47.26982" lon="-2.30615">
        <ele>27.799999237061</ele>
        <time>2021-05-16T10:07:52.000Z</time>
      </trkpt>
      <trkpt lat="47.26976" lon="-2.30617">
        <ele>27.799999237061</ele>
        <time>2021-05-16T10:07:53.000Z</time>
      </trkpt>
      <trkpt lat="47.26951" lon="-2.30627">
        <ele>27.799999237061</ele>
        <time>2021-05-16T10:07:57.000Z</time>
      </trkpt>
      <trkpt lat="47.26941" lon="-2.3063">
        <ele>27.799999237061</ele>
        <time>2021-05-16T10:07:59.000Z</time>
      </trkpt>
      <trkpt lat="47.2693" lon="-2.30632">
        <ele>27.799999237061</ele>
        <time>2021-05-16T10:08:01.000Z</time>
      </trkpt>
      <trkpt lat="47.26925" lon="-2.30634">
        <ele>27.799999237061</ele>
        <time>2021-05-16T10:08:02.000Z</time>
      </trkpt>
      <trkpt lat="47.26921" lon="-2.30637">
        <ele>28.200000762939</ele>
        <time>2021-05-16T10:08:03.000Z</time>
      </trkpt>
      <trkpt lat="47.26917" lon="-2.30639">
        <ele>28.60000038147</ele>
        <time>2021-05-16T10:08:04.000Z</time>
      </trkpt>
      <trkpt lat="47.26914" lon="-2.30643">
        <ele>29.200000762939</ele>
        <time>2021-05-16T10:08:05.000Z</time>
      </trkpt>
      <trkpt lat="47.26911" lon="-2.30647">
        <ele>29.60000038147</ele>
        <time>2021-05-16T10:08:06.000Z</time>
      </trkpt>
      <trkpt lat="47.26908" lon="-2.3065">
        <ele>30</ele>
        <time>2021-05-16T10:08:07.000Z</time>
      </trkpt>
      <trkpt lat="47.26902" lon="-2.30666">
        <ele>30</ele>
        <time>2021-05-16T10:08:10.000Z</time>
      </trkpt>
      <trkpt lat="47.26906" lon="-2.30686">
        <ele>30</ele>
        <time>2021-05-16T10:08:14.000Z</time>
      </trkpt>
      <trkpt lat="47.26917" lon="-2.30704">
        <ele>30</ele>
        <time>2021-05-16T10:08:18.000Z</time>
      </trkpt>
      <trkpt lat="47.26936" lon="-2.30732">
        <ele>30</ele>
        <time>2021-05-16T10:08:24.000Z</time>
      </trkpt>
      <trkpt lat="47.26964" lon="-2.30772">
        <ele>30</ele>
        <time>2021-05-16T10:08:31.000Z</time>
      </trkpt>
      <trkpt lat="47.26968" lon="-2.30778">
        <ele>29.60000038147</ele>
        <time>2021-05-16T10:08:32.000Z</time>
      </trkpt>
      <trkpt lat="47.26972" lon="-2.30784">
        <ele>29</ele>
        <time>2021-05-16T10:08:33.000Z</time>
      </trkpt>
      <trkpt lat="47.26976" lon="-2.30789">
        <ele>28.60000038147</ele>
        <time>2021-05-16T10:08:34.000Z</time>
      </trkpt>
      <trkpt lat="47.26981" lon="-2.30795">
        <ele>28.200000762939</ele>
        <time>2021-05-16T10:08:35.000Z</time>
      </trkpt>
      <trkpt lat="47.26985" lon="-2.308">
        <ele>27.799999237061</ele>
        <time>2021-05-16T10:08:36.000Z</time>
      </trkpt>
      <trkpt lat="47.26994" lon="-2.30812">
        <ele>27.799999237061</ele>
        <time>2021-05-16T10:08:38.000Z</time>
      </trkpt>
      <trkpt lat="47.27016" lon="-2.30844">
        <ele>27.799999237061</ele>
        <time>2021-05-16T10:08:43.000Z</time>
      </trkpt>
      <trkpt lat="47.27024" lon="-2.30858">
        <ele>27.200000762939</ele>
        <time>2021-05-16T10:08:45.000Z</time>
      </trkpt>
      <trkpt lat="47.27028" lon="-2.30865">
        <ele>26.799999237061</ele>
        <time>2021-05-16T10:08:46.000Z</time>
      </trkpt>
      <trkpt lat="47.27031" lon="-2.30872">
        <ele>26.39999961853</ele>
        <time>2021-05-16T10:08:47.000Z</time>
      </trkpt>
      <trkpt lat="47.27035" lon="-2.30877">
        <ele>26</ele>
        <time>2021-05-16T10:08:48.000Z</time>
      </trkpt>
      <trkpt lat="47.27038" lon="-2.30882">
        <ele>25.39999961853</ele>
        <time>2021-05-16T10:08:49.000Z</time>
      </trkpt>
      <trkpt lat="47.27042" lon="-2.30887">
        <ele>25</ele>
        <time>2021-05-16T10:08:50.000Z</time>
      </trkpt>
      <trkpt lat="47.27045" lon="-2.30891">
        <ele>24.39999961853</ele>
        <time>2021-05-16T10:08:51.000Z</time>
      </trkpt>
      <trkpt lat="47.27048" lon="-2.30894">
        <ele>24</ele>
        <time>2021-05-16T10:08:52.000Z</time>
      </trkpt>
      <trkpt lat="47.27049" lon="-2.30898">
        <ele>23.39999961853</ele>
        <time>2021-05-16T10:08:53.000Z</time>
      </trkpt>
      <trkpt lat="47.27051" lon="-2.30914">
        <ele>23.39999961853</ele>
        <time>2021-05-16T10:08:57.000Z</time>
      </trkpt>
      <trkpt lat="47.27054" lon="-2.30923">
        <ele>23.39999961853</ele>
        <time>2021-05-16T10:08:59.000Z</time>
      </trkpt>
      <trkpt lat="47.27064" lon="-2.30957">
        <ele>23.39999961853</ele>
        <time>2021-05-16T10:09:06.000Z</time>
      </trkpt>
      <trkpt lat="47.27067" lon="-2.30993">
        <ele>23.39999961853</ele>
        <time>2021-05-16T10:09:13.000Z</time>
      </trkpt>
      <trkpt lat="47.27056" lon="-2.31013">
        <ele>23.39999961853</ele>
        <time>2021-05-16T10:09:19.000Z</time>
      </trkpt>
      <trkpt lat="47.27031" lon="-2.31037">
        <ele>23.39999961853</ele>
        <time>2021-05-16T10:09:26.000Z</time>
      </trkpt>
      <trkpt lat="47.27015" lon="-2.31066">
        <ele>23.799999237061</ele>
        <time>2021-05-16T10:09:30.000Z</time>
      </trkpt>
      <trkpt lat="47.27013" lon="-2.31074">
        <ele>24.200000762939</ele>
        <time>2021-05-16T10:09:31.000Z</time>
      </trkpt>
      <trkpt lat="47.27012" lon="-2.31081">
        <ele>24.60000038147</ele>
        <time>2021-05-16T10:09:32.000Z</time>
      </trkpt>
      <trkpt lat="47.27011" lon="-2.31089">
        <ele>25</ele>
        <time>2021-05-16T10:09:33.000Z</time>
      </trkpt>
      <trkpt lat="47.27009" lon="-2.31096">
        <ele>25.39999961853</ele>
        <time>2021-05-16T10:09:34.000Z</time>
      </trkpt>
      <trkpt lat="47.27006" lon="-2.31119">
        <ele>25.39999961853</ele>
        <time>2021-05-16T10:09:37.000Z</time>
      </trkpt>
      <trkpt lat="47.27004" lon="-2.31127">
        <ele>25.39999961853</ele>
        <time>2021-05-16T10:09:38.000Z</time>
      </trkpt>
      <trkpt lat="47.26997" lon="-2.31168">
        <ele>26</ele>
        <time>2021-05-16T10:09:43.000Z</time>
      </trkpt>
      <trkpt lat="47.26994" lon="-2.31176">
        <ele>26.39999961853</ele>
        <time>2021-05-16T10:09:44.000Z</time>
      </trkpt>
      <trkpt lat="47.26992" lon="-2.31183">
        <ele>26.799999237061</ele>
        <time>2021-05-16T10:09:45.000Z</time>
      </trkpt>
      <trkpt lat="47.26991" lon="-2.3119">
        <ele>27.200000762939</ele>
        <time>2021-05-16T10:09:46.000Z</time>
      </trkpt>
      <trkpt lat="47.2699" lon="-2.31198">
        <ele>27.60000038147</ele>
        <time>2021-05-16T10:09:47.000Z</time>
      </trkpt>
      <trkpt lat="47.26988" lon="-2.31212">
        <ele>27.60000038147</ele>
        <time>2021-05-16T10:09:49.000Z</time>
      </trkpt>
      <trkpt lat="47.26986" lon="-2.31219">
        <ele>27.60000038147</ele>
        <time>2021-05-16T10:09:50.000Z</time>
      </trkpt>
      <trkpt lat="47.26984" lon="-2.31226">
        <ele>28.200000762939</ele>
        <time>2021-05-16T10:09:51.000Z</time>
      </trkpt>
      <trkpt lat="47.26983" lon="-2.31233">
        <ele>28.60000038147</ele>
        <time>2021-05-16T10:09:52.000Z</time>
      </trkpt>
      <trkpt lat="47.26982" lon="-2.31241">
        <ele>29</ele>
        <time>2021-05-16T10:09:53.000Z</time>
      </trkpt>
      <trkpt lat="47.26982" lon="-2.31249">
        <ele>29.39999961853</ele>
        <time>2021-05-16T10:09:54.000Z</time>
      </trkpt>
      <trkpt lat="47.26981" lon="-2.31257">
        <ele>29.799999237061</ele>
        <time>2021-05-16T10:09:55.000Z</time>
      </trkpt>
      <trkpt lat="47.26981" lon="-2.31282">
        <ele>29.799999237061</ele>
        <time>2021-05-16T10:09:59.000Z</time>
      </trkpt>
      <trkpt lat="47.26981" lon="-2.31301">
        <ele>29.799999237061</ele>
        <time>2021-05-16T10:10:02.000Z</time>
      </trkpt>
      <trkpt lat="47.26983" lon="-2.31314">
        <ele>29.799999237061</ele>
        <time>2021-05-16T10:10:04.000Z</time>
      </trkpt>
      <trkpt lat="47.26985" lon="-2.31334">
        <ele>29.799999237061</ele>
        <time>2021-05-16T10:10:07.000Z</time>
      </trkpt>
      <trkpt lat="47.26986" lon="-2.31361">
        <ele>29.799999237061</ele>
        <time>2021-05-16T10:10:11.000Z</time>
      </trkpt>
      <trkpt lat="47.26986" lon="-2.31368">
        <ele>29.799999237061</ele>
        <time>2021-05-16T10:10:12.000Z</time>
      </trkpt>
      <trkpt lat="47.26988" lon="-2.31403">
        <ele>29.799999237061</ele>
        <time>2021-05-16T10:10:16.000Z</time>
      </trkpt>
      <trkpt lat="47.2699" lon="-2.31431">
        <ele>29.39999961853</ele>
        <time>2021-05-16T10:10:19.000Z</time>
      </trkpt>
      <trkpt lat="47.2699" lon="-2.3144">
        <ele>29</ele>
        <time>2021-05-16T10:10:20.000Z</time>
      </trkpt>
      <trkpt lat="47.2699" lon="-2.31449">
        <ele>28.39999961853</ele>
        <time>2021-05-16T10:10:21.000Z</time>
      </trkpt>
      <trkpt lat="47.26991" lon="-2.31458">
        <ele>28</ele>
        <time>2021-05-16T10:10:22.000Z</time>
      </trkpt>
      <trkpt lat="47.26992" lon="-2.31466">
        <ele>27.60000038147</ele>
        <time>2021-05-16T10:10:23.000Z</time>
      </trkpt>
      <trkpt lat="47.26993" lon="-2.31474">
        <ele>27.60000038147</ele>
        <time>2021-05-16T10:10:24.000Z</time>
      </trkpt>
      <trkpt lat="47.26996" lon="-2.31491">
        <ele>27.60000038147</ele>
        <time>2021-05-16T10:10:26.000Z</time>
      </trkpt>
      <trkpt lat="47.27005" lon="-2.31527">
        <ele>27.200000762939</ele>
        <time>2021-05-16T10:10:30.000Z</time>
      </trkpt>
      <trkpt lat="47.27007" lon="-2.31537">
        <ele>26.799999237061</ele>
        <time>2021-05-16T10:10:31.000Z</time>
      </trkpt>
      <trkpt lat="47.2701" lon="-2.31546">
        <ele>26.39999961853</ele>
        <time>2021-05-16T10:10:32.000Z</time>
      </trkpt>
      <trkpt lat="47.27013" lon="-2.31555">
        <ele>26</ele>
        <time>2021-05-16T10:10:33.000Z</time>
      </trkpt>
      <trkpt lat="47.27016" lon="-2.31563">
        <ele>25.60000038147</ele>
        <time>2021-05-16T10:10:34.000Z</time>
      </trkpt>
      <trkpt lat="47.27018" lon="-2.3157">
        <ele>25</ele>
        <time>2021-05-16T10:10:35.000Z</time>
      </trkpt>
      <trkpt lat="47.27021" lon="-2.31577">
        <ele>24.60000038147</ele>
        <time>2021-05-16T10:10:36.000Z</time>
      </trkpt>
      <trkpt lat="47.27024" lon="-2.31584">
        <ele>24.200000762939</ele>
        <time>2021-05-16T10:10:37.000Z</time>
      </trkpt>
      <trkpt lat="47.27027" lon="-2.3159">
        <ele>23.60000038147</ele>
        <time>2021-05-16T10:10:38.000Z</time>
      </trkpt>
      <trkpt lat="47.27029" lon="-2.31597">
        <ele>23.200000762939</ele>
        <time>2021-05-16T10:10:39.000Z</time>
      </trkpt>
      <trkpt lat="47.27031" lon="-2.31604">
        <ele>22</ele>
        <time>2021-05-16T10:10:40.000Z</time>
      </trkpt>
      <trkpt lat="47.27033" lon="-2.31613">
        <ele>21.39999961853</ele>
        <time>2021-05-16T10:10:41.000Z</time>
      </trkpt>
      <trkpt lat="47.27035" lon="-2.31622">
        <ele>21</ele>
        <time>2021-05-16T10:10:42.000Z</time>
      </trkpt>
      <trkpt lat="47.27037" lon="-2.31632">
        <ele>20.60000038147</ele>
        <time>2021-05-16T10:10:43.000Z</time>
      </trkpt>
      <trkpt lat="47.27039" lon="-2.3164">
        <ele>20</ele>
        <time>2021-05-16T10:10:44.000Z</time>
      </trkpt>
      <trkpt lat="47.27041" lon="-2.31649">
        <ele>19.60000038147</ele>
        <time>2021-05-16T10:10:45.000Z</time>
      </trkpt>
      <trkpt lat="47.27043" lon="-2.31657">
        <ele>19.200000762939</ele>
        <time>2021-05-16T10:10:46.000Z</time>
      </trkpt>
      <trkpt lat="47.27044" lon="-2.31665">
        <ele>19.200000762939</ele>
        <time>2021-05-16T10:10:47.000Z</time>
      </trkpt>
      <trkpt lat="47.27043" lon="-2.31672">
        <ele>19.200000762939</ele>
        <time>2021-05-16T10:10:48.000Z</time>
      </trkpt>
      <trkpt lat="47.2704" lon="-2.31685">
        <ele>18.799999237061</ele>
        <time>2021-05-16T10:10:50.000Z</time>
      </trkpt>
      <trkpt lat="47.27038" lon="-2.31689">
        <ele>18.200000762939</ele>
        <time>2021-05-16T10:10:51.000Z</time>
      </trkpt>
      <trkpt lat="47.27038" lon="-2.31692">
        <ele>17.60000038147</ele>
        <time>2021-05-16T10:10:52.000Z</time>
      </trkpt>
      <trkpt lat="47.27037" lon="-2.31695">
        <ele>17.200000762939</ele>
        <time>2021-05-16T10:10:53.000Z</time>
      </trkpt>
      <trkpt lat="47.27036" lon="-2.31698">
        <ele>16.60000038147</ele>
        <time>2021-05-16T10:10:54.000Z</time>
      </trkpt>
      <trkpt lat="47.27036" lon="-2.31705">
        <ele>16.60000038147</ele>
        <time>2021-05-16T10:10:56.000Z</time>
      </trkpt>
      <trkpt lat="47.27038" lon="-2.31717">
        <ele>16.200000762939</ele>
        <time>2021-05-16T10:11:00.000Z</time>
      </trkpt>
      <trkpt lat="47.27039" lon="-2.3172">
        <ele>15.800000190735</ele>
        <time>2021-05-16T10:11:01.000Z</time>
      </trkpt>
      <trkpt lat="47.27041" lon="-2.31722">
        <ele>15.39999961853</ele>
        <time>2021-05-16T10:11:02.000Z</time>
      </trkpt>
      <trkpt lat="47.27043" lon="-2.31725">
        <ele>15</ele>
        <time>2021-05-16T10:11:03.000Z</time>
      </trkpt>
      <trkpt lat="47.27045" lon="-2.31729">
        <ele>14.39999961853</ele>
        <time>2021-05-16T10:11:04.000Z</time>
      </trkpt>
      <trkpt lat="47.27052" lon="-2.31743">
        <ele>14.39999961853</ele>
        <time>2021-05-16T10:11:07.000Z</time>
      </trkpt>
      <trkpt lat="47.27055" lon="-2.31755">
        <ele>14.39999961853</ele>
        <time>2021-05-16T10:11:09.000Z</time>
      </trkpt>
      <trkpt lat="47.27056" lon="-2.31776">
        <ele>14.39999961853</ele>
        <time>2021-05-16T10:11:12.000Z</time>
      </trkpt>
      <trkpt lat="47.2706" lon="-2.31826">
        <ele>14.39999961853</ele>
        <time>2021-05-16T10:11:18.000Z</time>
      </trkpt>
      <trkpt lat="47.27061" lon="-2.31844">
        <ele>14</ele>
        <time>2021-05-16T10:11:21.000Z</time>
      </trkpt>
      <trkpt lat="47.27063" lon="-2.31848">
        <ele>13.60000038147</ele>
        <time>2021-05-16T10:11:22.000Z</time>
      </trkpt>
      <trkpt lat="47.27065" lon="-2.3185">
        <ele>13.199999809265</ele>
        <time>2021-05-16T10:11:23.000Z</time>
      </trkpt>
      <trkpt lat="47.27068" lon="-2.31852">
        <ele>12.800000190735</ele>
        <time>2021-05-16T10:11:24.000Z</time>
      </trkpt>
      <trkpt lat="47.2707" lon="-2.31854">
        <ele>12.39999961853</ele>
        <time>2021-05-16T10:11:25.000Z</time>
      </trkpt>
      <trkpt lat="47.27072" lon="-2.31863">
        <ele>12.39999961853</ele>
        <time>2021-05-16T10:11:29.000Z</time>
      </trkpt>
      <trkpt lat="47.27072" lon="-2.31866">
        <ele>12.39999961853</ele>
        <time>2021-05-16T10:11:30.000Z</time>
      </trkpt>
      <trkpt lat="47.27071" lon="-2.31874">
        <ele>12.39999961853</ele>
        <time>2021-05-16T10:11:34.000Z</time>
      </trkpt>
      <trkpt lat="47.27072" lon="-2.31895">
        <ele>12.39999961853</ele>
        <time>2021-05-16T10:11:39.000Z</time>
      </trkpt>
      <trkpt lat="47.27077" lon="-2.31923">
        <ele>11.800000190735</ele>
        <time>2021-05-16T10:11:45.000Z</time>
      </trkpt>
      <trkpt lat="47.27078" lon="-2.31927">
        <ele>11.39999961853</ele>
        <time>2021-05-16T10:11:46.000Z</time>
      </trkpt>
      <trkpt lat="47.27079" lon="-2.31931">
        <ele>11</ele>
        <time>2021-05-16T10:11:47.000Z</time>
      </trkpt>
      <trkpt lat="47.27079" lon="-2.31935">
        <ele>10.60000038147</ele>
        <time>2021-05-16T10:11:48.000Z</time>
      </trkpt>
      <trkpt lat="47.27079" lon="-2.31939">
        <ele>10.199999809265</ele>
        <time>2021-05-16T10:11:49.000Z</time>
      </trkpt>
      <trkpt lat="47.27078" lon="-2.31944">
        <ele>10.199999809265</ele>
        <time>2021-05-16T10:11:51.000Z</time>
      </trkpt>
      <trkpt lat="47.27075" lon="-2.31947">
        <ele>10.199999809265</ele>
        <time>2021-05-16T10:11:53.000Z</time>
      </trkpt>
      <trkpt lat="47.2707" lon="-2.31947">
        <ele>10.199999809265</ele>
        <time>2021-05-16T10:11:55.000Z</time>
      </trkpt>
      <trkpt lat="47.27053" lon="-2.31948">
        <ele>10.199999809265</ele>
        <time>2021-05-16T10:12:01.000Z</time>
      </trkpt>
      <trkpt lat="47.27046" lon="-2.31953">
        <ele>10.199999809265</ele>
        <time>2021-05-16T10:12:06.000Z</time>
      </trkpt>
      <trkpt lat="47.27042" lon="-2.31955">
        <ele>10.199999809265</ele>
        <time>2021-05-16T10:12:10.000Z</time>
      </trkpt>
      <trkpt lat="47.27029" lon="-2.31966">
        <ele>10.199999809265</ele>
        <time>2021-05-16T10:12:32.000Z</time>
      </trkpt>
      <trkpt lat="47.2702" lon="-2.31977">
        <ele>10.199999809265</ele>
        <time>2021-05-16T10:12:40.000Z</time>
      </trkpt>
      <trkpt lat="47.27017" lon="-2.31983">
        <ele>10.199999809265</ele>
        <time>2021-05-16T10:12:45.000Z</time>
      </trkpt>
      <trkpt lat="47.27017" lon="-2.31988">
        <ele>10.199999809265</ele>
        <time>2021-05-16T10:13:04.000Z</time>
      </trkpt>
      <trkpt lat="47.27018" lon="-2.32001">
        <ele>10.199999809265</ele>
        <time>2021-05-16T10:13:10.000Z</time>
      </trkpt>
      <trkpt lat="47.27022" lon="-2.32017">
        <ele>9.8000001907349</ele>
        <time>2021-05-16T10:13:14.000Z</time>
      </trkpt>
      <trkpt lat="47.27023" lon="-2.32022">
        <ele>9.3999996185303</ele>
        <time>2021-05-16T10:13:15.000Z</time>
      </trkpt>
      <trkpt lat="47.27024" lon="-2.32028">
        <ele>9</ele>
        <time>2021-05-16T10:13:16.000Z</time>
      </trkpt>
      <trkpt lat="47.27025" lon="-2.32033">
        <ele>8.3999996185303</ele>
        <time>2021-05-16T10:13:17.000Z</time>
      </trkpt>
      <trkpt lat="47.27026" lon="-2.32038">
        <ele>8</ele>
        <time>2021-05-16T10:13:18.000Z</time>
      </trkpt>
      <trkpt lat="47.27028" lon="-2.32061">
        <ele>8</ele>
        <time>2021-05-16T10:13:22.000Z</time>
      </trkpt>
      <trkpt lat="47.27025" lon="-2.32087">
        <ele>7.5999999046326</ele>
        <time>2021-05-16T10:13:26.000Z</time>
      </trkpt>
      <trkpt lat="47.27025" lon="-2.32092">
        <ele>7.1999998092651</ele>
        <time>2021-05-16T10:13:27.000Z</time>
      </trkpt>
      <trkpt lat="47.27024" lon="-2.32096">
        <ele>6.8000001907349</ele>
        <time>2021-05-16T10:13:28.000Z</time>
      </trkpt>
      <trkpt lat="47.27023" lon="-2.321">
        <ele>6.4000000953674</ele>
        <time>2021-05-16T10:13:29.000Z</time>
      </trkpt>
      <trkpt lat="47.27022" lon="-2.32105">
        <ele>6</ele>
        <time>2021-05-16T10:13:30.000Z</time>
      </trkpt>
      <trkpt lat="47.27018" lon="-2.32123">
        <ele>6</ele>
        <time>2021-05-16T10:13:34.000Z</time>
      </trkpt>
      <trkpt lat="47.27015" lon="-2.32151">
        <ele>6</ele>
        <time>2021-05-16T10:13:39.000Z</time>
      </trkpt>
      <trkpt lat="47.27018" lon="-2.32163">
        <ele>6</ele>
        <time>2021-05-16T10:13:41.000Z</time>
      </trkpt>
      <trkpt lat="47.27024" lon="-2.32176">
        <ele>6</ele>
        <time>2021-05-16T10:13:43.000Z</time>
      </trkpt>
      <trkpt lat="47.27036" lon="-2.32209">
        <ele>6</ele>
        <time>2021-05-16T10:13:48.000Z</time>
      </trkpt>
      <trkpt lat="47.27037" lon="-2.32216">
        <ele>6</ele>
        <time>2021-05-16T10:13:49.000Z</time>
      </trkpt>
      <trkpt lat="47.27039" lon="-2.32237">
        <ele>6</ele>
        <time>2021-05-16T10:13:52.000Z</time>
      </trkpt>
      <trkpt lat="47.27043" lon="-2.32282">
        <ele>6</ele>
        <time>2021-05-16T10:13:58.000Z</time>
      </trkpt>
      <trkpt lat="47.27042" lon="-2.3229">
        <ele>6</ele>
        <time>2021-05-16T10:13:59.000Z</time>
      </trkpt>
      <trkpt lat="47.27035" lon="-2.32341">
        <ele>6</ele>
        <time>2021-05-16T10:14:05.000Z</time>
      </trkpt>
      <trkpt lat="47.27037" lon="-2.32371">
        <ele>6</ele>
        <time>2021-05-16T10:14:09.000Z</time>
      </trkpt>
      <trkpt lat="47.27038" lon="-2.32379">
        <ele>6</ele>
        <time>2021-05-16T10:14:10.000Z</time>
      </trkpt>
      <trkpt lat="47.27045" lon="-2.32436">
        <ele>6</ele>
        <time>2021-05-16T10:14:17.000Z</time>
      </trkpt>
      <trkpt lat="47.27048" lon="-2.32481">
        <ele>6</ele>
        <time>2021-05-16T10:14:23.000Z</time>
      </trkpt>
      <trkpt lat="47.27045" lon="-2.32492">
        <ele>6</ele>
        <time>2021-05-16T10:14:25.000Z</time>
      </trkpt>
      <trkpt lat="47.27037" lon="-2.32499">
        <ele>6</ele>
        <time>2021-05-16T10:14:27.000Z</time>
      </trkpt>
      <trkpt lat="47.27024" lon="-2.32492">
        <ele>6</ele>
        <time>2021-05-16T10:14:31.000Z</time>
      </trkpt>
      <trkpt lat="47.27018" lon="-2.32479">
        <ele>6</ele>
        <time>2021-05-16T10:14:33.000Z</time>
      </trkpt>
      <trkpt lat="47.27005" lon="-2.32455">
        <ele>6</ele>
        <time>2021-05-16T10:14:37.000Z</time>
      </trkpt>
      <trkpt lat="47.26984" lon="-2.32424">
        <ele>6</ele>
        <time>2021-05-16T10:14:43.000Z</time>
      </trkpt>
      <trkpt lat="47.26969" lon="-2.32392">
        <ele>6.4000000953674</ele>
        <time>2021-05-16T10:14:48.000Z</time>
      </trkpt>
      <trkpt lat="47.26966" lon="-2.32385">
        <ele>6.8000001907349</ele>
        <time>2021-05-16T10:14:49.000Z</time>
      </trkpt>
      <trkpt lat="47.26963" lon="-2.32379">
        <ele>7.1999998092651</ele>
        <time>2021-05-16T10:14:50.000Z</time>
      </trkpt>
      <trkpt lat="47.26959" lon="-2.32373">
        <ele>7.5999999046326</ele>
        <time>2021-05-16T10:14:51.000Z</time>
      </trkpt>
      <trkpt lat="47.26955" lon="-2.32366">
        <ele>8</ele>
        <time>2021-05-16T10:14:52.000Z</time>
      </trkpt>
      <trkpt lat="47.2695" lon="-2.32353">
        <ele>8</ele>
        <time>2021-05-16T10:14:54.000Z</time>
      </trkpt>
      <trkpt lat="47.26946" lon="-2.3234">
        <ele>8</ele>
        <time>2021-05-16T10:14:56.000Z</time>
      </trkpt>
      <trkpt lat="47.26942" lon="-2.32328">
        <ele>8</ele>
        <time>2021-05-16T10:15:00.000Z</time>
      </trkpt>
      <trkpt lat="47.26941" lon="-2.32328">
        <ele>8.3999996185303</ele>
        <time>2021-05-16T10:15:01.000Z</time>
      </trkpt>
      <trkpt lat="47.26939" lon="-2.3233">
        <ele>8.8000001907349</ele>
        <time>2021-05-16T10:15:02.000Z</time>
      </trkpt>
      <trkpt lat="47.26937" lon="-2.32331">
        <ele>9.1999998092651</ele>
        <time>2021-05-16T10:15:03.000Z</time>
      </trkpt>
      <trkpt lat="47.26934" lon="-2.32332">
        <ele>9.6000003814697</ele>
        <time>2021-05-16T10:15:04.000Z</time>
      </trkpt>
      <trkpt lat="47.2693" lon="-2.32333">
        <ele>10</ele>
        <time>2021-05-16T10:15:05.000Z</time>
      </trkpt>
      <trkpt lat="47.26914" lon="-2.32336">
        <ele>10</ele>
        <time>2021-05-16T10:15:10.000Z</time>
      </trkpt>
      <trkpt lat="47.26892" lon="-2.32343">
        <ele>10.39999961853</ele>
        <time>2021-05-16T10:15:15.000Z</time>
      </trkpt>
      <trkpt lat="47.26888" lon="-2.32343">
        <ele>11</ele>
        <time>2021-05-16T10:15:16.000Z</time>
      </trkpt>
      <trkpt lat="47.26884" lon="-2.32344">
        <ele>11.39999961853</ele>
        <time>2021-05-16T10:15:17.000Z</time>
      </trkpt>
      <trkpt lat="47.26879" lon="-2.32345">
        <ele>11.800000190735</ele>
        <time>2021-05-16T10:15:18.000Z</time>
      </trkpt>
      <trkpt lat="47.26875" lon="-2.32346">
        <ele>12.199999809265</ele>
        <time>2021-05-16T10:15:19.000Z</time>
      </trkpt>
      <trkpt lat="47.26856" lon="-2.32351">
        <ele>12.60000038147</ele>
        <time>2021-05-16T10:15:23.000Z</time>
      </trkpt>
      <trkpt lat="47.2685" lon="-2.32353">
        <ele>13</ele>
        <time>2021-05-16T10:15:24.000Z</time>
      </trkpt>
      <trkpt lat="47.26845" lon="-2.32354">
        <ele>13.39999961853</ele>
        <time>2021-05-16T10:15:25.000Z</time>
      </trkpt>
      <trkpt lat="47.26841" lon="-2.32355">
        <ele>14</ele>
        <time>2021-05-16T10:15:26.000Z</time>
      </trkpt>
      <trkpt lat="47.26836" lon="-2.32356">
        <ele>14.39999961853</ele>
        <time>2021-05-16T10:15:27.000Z</time>
      </trkpt>
      <trkpt lat="47.2683" lon="-2.32358">
        <ele>14.800000190735</ele>
        <time>2021-05-16T10:15:28.000Z</time>
      </trkpt>
      <trkpt lat="47.26826" lon="-2.32359">
        <ele>15.199999809265</ele>
        <time>2021-05-16T10:15:29.000Z</time>
      </trkpt>
      <trkpt lat="47.26822" lon="-2.3236">
        <ele>15.60000038147</ele>
        <time>2021-05-16T10:15:30.000Z</time>
      </trkpt>
      <trkpt lat="47.26818" lon="-2.32361">
        <ele>16</ele>
        <time>2021-05-16T10:15:31.000Z</time>
      </trkpt>
      <trkpt lat="47.26813" lon="-2.32362">
        <ele>16.39999961853</ele>
        <time>2021-05-16T10:15:32.000Z</time>
      </trkpt>
      <trkpt lat="47.26808" lon="-2.32365">
        <ele>16.39999961853</ele>
        <time>2021-05-16T10:15:33.000Z</time>
      </trkpt>
      <trkpt lat="47.26799" lon="-2.32375">
        <ele>16.799999237061</ele>
        <time>2021-05-16T10:15:35.000Z</time>
      </trkpt>
      <trkpt lat="47.26797" lon="-2.32382">
        <ele>17.799999237061</ele>
        <time>2021-05-16T10:15:36.000Z</time>
      </trkpt>
      <trkpt lat="47.26796" lon="-2.32388">
        <ele>18.200000762939</ele>
        <time>2021-05-16T10:15:37.000Z</time>
      </trkpt>
      <trkpt lat="47.26796" lon="-2.32395">
        <ele>18.60000038147</ele>
        <time>2021-05-16T10:15:38.000Z</time>
      </trkpt>
      <trkpt lat="47.26795" lon="-2.32401">
        <ele>18.60000038147</ele>
        <time>2021-05-16T10:15:39.000Z</time>
      </trkpt>
      <trkpt lat="47.26796" lon="-2.32415">
        <ele>18.60000038147</ele>
        <time>2021-05-16T10:15:41.000Z</time>
      </trkpt>
      <trkpt lat="47.26796" lon="-2.32462">
        <ele>18.60000038147</ele>
        <time>2021-05-16T10:15:47.000Z</time>
      </trkpt>
      <trkpt lat="47.26799" lon="-2.3252">
        <ele>18.60000038147</ele>
        <time>2021-05-16T10:15:54.000Z</time>
      </trkpt>
      <trkpt lat="47.26801" lon="-2.32583">
        <ele>18.60000038147</ele>
        <time>2021-05-16T10:16:01.000Z</time>
      </trkpt>
      <trkpt lat="47.26809" lon="-2.3264">
        <ele>18.60000038147</ele>
        <time>2021-05-16T10:16:08.000Z</time>
      </trkpt>
      <trkpt lat="47.26813" lon="-2.32677">
        <ele>18.60000038147</ele>
        <time>2021-05-16T10:16:14.000Z</time>
      </trkpt>
      <trkpt lat="47.26811" lon="-2.32685">
        <ele>18.60000038147</ele>
        <time>2021-05-16T10:16:15.000Z</time>
      </trkpt>
      <trkpt lat="47.26811" lon="-2.327">
        <ele>18.60000038147</ele>
        <time>2021-05-16T10:16:17.000Z</time>
      </trkpt>
      <trkpt lat="47.26813" lon="-2.32722">
        <ele>18.60000038147</ele>
        <time>2021-05-16T10:16:20.000Z</time>
      </trkpt>
      <trkpt lat="47.26817" lon="-2.32738">
        <ele>18.60000038147</ele>
        <time>2021-05-16T10:16:22.000Z</time>
      </trkpt>
      <trkpt lat="47.2682" lon="-2.32745">
        <ele>18.60000038147</ele>
        <time>2021-05-16T10:16:23.000Z</time>
      </trkpt>
      <trkpt lat="47.26831" lon="-2.32772">
        <ele>18.60000038147</ele>
        <time>2021-05-16T10:16:26.000Z</time>
      </trkpt>
      <trkpt lat="47.26838" lon="-2.32793">
        <ele>18.200000762939</ele>
        <time>2021-05-16T10:16:28.000Z</time>
      </trkpt>
      <trkpt lat="47.26843" lon="-2.32803">
        <ele>17.60000038147</ele>
        <time>2021-05-16T10:16:29.000Z</time>
      </trkpt>
      <trkpt lat="47.26847" lon="-2.32814">
        <ele>17.200000762939</ele>
        <time>2021-05-16T10:16:30.000Z</time>
      </trkpt>
      <trkpt lat="47.26852" lon="-2.32824">
        <ele>16.60000038147</ele>
        <time>2021-05-16T10:16:31.000Z</time>
      </trkpt>
      <trkpt lat="47.26856" lon="-2.32833">
        <ele>15.800000190735</ele>
        <time>2021-05-16T10:16:32.000Z</time>
      </trkpt>
      <trkpt lat="47.26861" lon="-2.32842">
        <ele>15.199999809265</ele>
        <time>2021-05-16T10:16:33.000Z</time>
      </trkpt>
      <trkpt lat="47.26867" lon="-2.32852">
        <ele>14.39999961853</ele>
        <time>2021-05-16T10:16:34.000Z</time>
      </trkpt>
      <trkpt lat="47.26872" lon="-2.3286">
        <ele>13.60000038147</ele>
        <time>2021-05-16T10:16:35.000Z</time>
      </trkpt>
      <trkpt lat="47.26876" lon="-2.32867">
        <ele>12.800000190735</ele>
        <time>2021-05-16T10:16:36.000Z</time>
      </trkpt>
      <trkpt lat="47.2688" lon="-2.32874">
        <ele>11.800000190735</ele>
        <time>2021-05-16T10:16:37.000Z</time>
      </trkpt>
      <trkpt lat="47.26884" lon="-2.32879">
        <ele>10.800000190735</ele>
        <time>2021-05-16T10:16:38.000Z</time>
      </trkpt>
      <trkpt lat="47.26887" lon="-2.3288">
        <ele>9.8000001907349</ele>
        <time>2021-05-16T10:16:39.000Z</time>
      </trkpt>
      <trkpt lat="47.2689" lon="-2.32881">
        <ele>9</ele>
        <time>2021-05-16T10:16:40.000Z</time>
      </trkpt>
      <trkpt lat="47.26893" lon="-2.32882">
        <ele>8</ele>
        <time>2021-05-16T10:16:41.000Z</time>
      </trkpt>
      <trkpt lat="47.26895" lon="-2.32882">
        <ele>7.1999998092651</ele>
        <time>2021-05-16T10:16:42.000Z</time>
      </trkpt>
      <trkpt lat="47.26898" lon="-2.32883">
        <ele>6.4000000953674</ele>
        <time>2021-05-16T10:16:43.000Z</time>
      </trkpt>
      <trkpt lat="47.26899" lon="-2.32886">
        <ele>5.5999999046326</ele>
        <time>2021-05-16T10:16:44.000Z</time>
      </trkpt>
      <trkpt lat="47.269" lon="-2.3289">
        <ele>5.5999999046326</ele>
        <time>2021-05-16T10:16:45.000Z</time>
      </trkpt>
      <trkpt lat="47.26808" lon="-2.32909">
        <ele>5.5999999046326</ele>
        <time>2021-05-16T10:16:47.000Z</time>
      </trkpt>
      <trkpt lat="47.26804" lon="-2.32914">
        <ele>5.5999999046326</ele>
        <time>2021-05-16T10:16:48.000Z</time>
      </trkpt>
      <trkpt lat="47.26799" lon="-2.32919">
        <ele>5.5999999046326</ele>
        <time>2021-05-16T10:16:49.000Z</time>
      </trkpt>
      <trkpt lat="47.26789" lon="-2.32925">
        <ele>6.4000000953674</ele>
        <time>2021-05-16T10:16:51.000Z</time>
      </trkpt>
      <trkpt lat="47.26783" lon="-2.32929">
        <ele>7</ele>
        <time>2021-05-16T10:16:52.000Z</time>
      </trkpt>
      <trkpt lat="47.26778" lon="-2.32933">
        <ele>7.4000000953674</ele>
        <time>2021-05-16T10:16:53.000Z</time>
      </trkpt>
      <trkpt lat="47.26774" lon="-2.32938">
        <ele>7</ele>
        <time>2021-05-16T10:16:54.000Z</time>
      </trkpt>
      <trkpt lat="47.2677" lon="-2.32945">
        <ele>6.5999999046326</ele>
        <time>2021-05-16T10:16:55.000Z</time>
      </trkpt>
      <trkpt lat="47.26765" lon="-2.32951">
        <ele>6.1999998092651</ele>
        <time>2021-05-16T10:16:56.000Z</time>
      </trkpt>
      <trkpt lat="47.2676" lon="-2.32957">
        <ele>5.8000001907349</ele>
        <time>2021-05-16T10:16:57.000Z</time>
      </trkpt>
      <trkpt lat="47.26755" lon="-2.32962">
        <ele>5.4000000953674</ele>
        <time>2021-05-16T10:16:58.000Z</time>
      </trkpt>
      <trkpt lat="47.26733" lon="-2.32997">
        <ele>5.4000000953674</ele>
        <time>2021-05-16T10:17:03.000Z</time>
      </trkpt>
      <trkpt lat="47.26727" lon="-2.3303">
        <ele>5.4000000953674</ele>
        <time>2021-05-16T10:17:07.000Z</time>
      </trkpt>
      <trkpt lat="47.26726" lon="-2.33038">
        <ele>5.4000000953674</ele>
        <time>2021-05-16T10:17:08.000Z</time>
      </trkpt>
      <trkpt lat="47.26718" lon="-2.33075">
        <ele>5.4000000953674</ele>
        <time>2021-05-16T10:17:13.000Z</time>
      </trkpt>
      <trkpt lat="47.267" lon="-2.33098">
        <ele>5.4000000953674</ele>
        <time>2021-05-16T10:17:17.000Z</time>
      </trkpt>
      <trkpt lat="47.26663" lon="-2.33128">
        <ele>5.4000000953674</ele>
        <time>2021-05-16T10:17:24.000Z</time>
      </trkpt>
      <trkpt lat="47.26629" lon="-2.33155">
        <ele>5.4000000953674</ele>
        <time>2021-05-16T10:17:31.000Z</time>
      </trkpt>
      <trkpt lat="47.26625" lon="-2.33155">
        <ele>5.4000000953674</ele>
        <time>2021-05-16T10:17:32.000Z</time>
      </trkpt>
      <trkpt lat="47.26616" lon="-2.33152">
        <ele>5.4000000953674</ele>
        <time>2021-05-16T10:17:34.000Z</time>
      </trkpt>
      <trkpt lat="47.26608" lon="-2.33154">
        <ele>5.4000000953674</ele>
        <time>2021-05-16T10:17:36.000Z</time>
      </trkpt>
      <trkpt lat="47.26603" lon="-2.33163">
        <ele>5.4000000953674</ele>
        <time>2021-05-16T10:17:38.000Z</time>
      </trkpt>
      <trkpt lat="47.26599" lon="-2.33173">
        <ele>5</ele>
        <time>2021-05-16T10:17:40.000Z</time>
      </trkpt>
      <trkpt lat="47.26597" lon="-2.33178">
        <ele>4.5999999046326</ele>
        <time>2021-05-16T10:17:41.000Z</time>
      </trkpt>
      <trkpt lat="47.26596" lon="-2.33182">
        <ele>4</ele>
        <time>2021-05-16T10:17:42.000Z</time>
      </trkpt>
      <trkpt lat="47.26594" lon="-2.33188">
        <ele>3.5999999046326</ele>
        <time>2021-05-16T10:17:43.000Z</time>
      </trkpt>
      <trkpt lat="47.26592" lon="-2.33193">
        <ele>3.2000000476837</ele>
        <time>2021-05-16T10:17:44.000Z</time>
      </trkpt>
      <trkpt lat="47.26587" lon="-2.33204">
        <ele>3.2000000476837</ele>
        <time>2021-05-16T10:17:47.000Z</time>
      </trkpt>
      <trkpt lat="47.26583" lon="-2.33206">
        <ele>3.2000000476837</ele>
        <time>2021-05-16T10:17:48.000Z</time>
      </trkpt>
      <trkpt lat="47.2657" lon="-2.33216">
        <ele>3.2000000476837</ele>
        <time>2021-05-16T10:17:51.000Z</time>
      </trkpt>
      <trkpt lat="47.26565" lon="-2.33219">
        <ele>3.2000000476837</ele>
        <time>2021-05-16T10:17:52.000Z</time>
      </trkpt>
      <trkpt lat="47.26537" lon="-2.33236">
        <ele>3.2000000476837</ele>
        <time>2021-05-16T10:17:58.000Z</time>
      </trkpt>
      <trkpt lat="47.26519" lon="-2.33248">
        <ele>3.2000000476837</ele>
        <time>2021-05-16T10:18:03.000Z</time>
      </trkpt>
      <trkpt lat="47.26504" lon="-2.33258">
        <ele>3.2000000476837</ele>
        <time>2021-05-16T10:18:09.000Z</time>
      </trkpt>
      <trkpt lat="47.26496" lon="-2.33267">
        <ele>3.2000000476837</ele>
        <time>2021-05-16T10:18:14.000Z</time>
      </trkpt>
      <trkpt lat="47.26495" lon="-2.33271">
        <ele>3.2000000476837</ele>
        <time>2021-05-16T10:18:15.000Z</time>
      </trkpt>
      <trkpt lat="47.26485" lon="-2.33284">
        <ele>3.2000000476837</ele>
        <time>2021-05-16T10:18:20.000Z</time>
      </trkpt>
      <trkpt lat="47.26481" lon="-2.33289">
        <ele>3.2000000476837</ele>
        <time>2021-05-16T10:18:25.000Z</time>
      </trkpt>
      <trkpt lat="47.2648" lon="-2.33286">
        <ele>3.2000000476837</ele>
        <time>2021-05-16T10:19:17.000Z</time>
      </trkpt>
      <trkpt lat="47.26475" lon="-2.33289">
        <ele>3.2000000476837</ele>
        <time>2021-05-16T10:19:20.000Z</time>
      </trkpt>
      <trkpt lat="47.2647" lon="-2.33305">
        <ele>3.2000000476837</ele>
        <time>2021-05-16T10:19:24.000Z</time>
      </trkpt>
      <trkpt lat="47.26456" lon="-2.33316">
        <ele>3.2000000476837</ele>
        <time>2021-05-16T10:19:28.000Z</time>
      </trkpt>
      <trkpt lat="47.2644" lon="-2.33329">
        <ele>3.5999999046326</ele>
        <time>2021-05-16T10:19:32.000Z</time>
      </trkpt>
      <trkpt lat="47.26436" lon="-2.33332">
        <ele>4</ele>
        <time>2021-05-16T10:19:33.000Z</time>
      </trkpt>
      <trkpt lat="47.26433" lon="-2.33335">
        <ele>4.4000000953674</ele>
        <time>2021-05-16T10:19:34.000Z</time>
      </trkpt>
      <trkpt lat="47.26429" lon="-2.33338">
        <ele>4.8000001907349</ele>
        <time>2021-05-16T10:19:35.000Z</time>
      </trkpt>
      <trkpt lat="47.26425" lon="-2.33341">
        <ele>5.1999998092651</ele>
        <time>2021-05-16T10:19:36.000Z</time>
      </trkpt>
      <trkpt lat="47.2639" lon="-2.33366">
        <ele>5.1999998092651</ele>
        <time>2021-05-16T10:19:43.000Z</time>
      </trkpt>
      <trkpt lat="47.2635" lon="-2.33388">
        <ele>5.1999998092651</ele>
        <time>2021-05-16T10:19:51.000Z</time>
      </trkpt>
      <trkpt lat="47.26325" lon="-2.33401">
        <ele>5.1999998092651</ele>
        <time>2021-05-16T10:19:56.000Z</time>
      </trkpt>
      <trkpt lat="47.26315" lon="-2.33408">
        <ele>5.1999998092651</ele>
        <time>2021-05-16T10:19:58.000Z</time>
      </trkpt>
      <trkpt lat="47.2631" lon="-2.33413">
        <ele>5.1999998092651</ele>
        <time>2021-05-16T10:19:59.000Z</time>
      </trkpt>
      <trkpt lat="47.26302" lon="-2.33421">
        <ele>5.1999998092651</ele>
        <time>2021-05-16T10:20:01.000Z</time>
      </trkpt>
      <trkpt lat="47.26297" lon="-2.33422">
        <ele>5.1999998092651</ele>
        <time>2021-05-16T10:20:02.000Z</time>
      </trkpt>
      <trkpt lat="47.26271" lon="-2.33426">
        <ele>5.1999998092651</ele>
        <time>2021-05-16T10:20:07.000Z</time>
      </trkpt>
      <trkpt lat="47.26221" lon="-2.33437">
        <ele>5.1999998092651</ele>
        <time>2021-05-16T10:20:16.000Z</time>
      </trkpt>
      <trkpt lat="47.26191" lon="-2.33443">
        <ele>5.1999998092651</ele>
        <time>2021-05-16T10:20:22.000Z</time>
      </trkpt>
      <trkpt lat="47.26176" lon="-2.33443">
        <ele>5.1999998092651</ele>
        <time>2021-05-16T10:20:25.000Z</time>
      </trkpt>
      <trkpt lat="47.26166" lon="-2.33441">
        <ele>5.1999998092651</ele>
        <time>2021-05-16T10:20:27.000Z</time>
      </trkpt>
      <trkpt lat="47.26158" lon="-2.33437">
        <ele>5.1999998092651</ele>
        <time>2021-05-16T10:20:29.000Z</time>
      </trkpt>
      <trkpt lat="47.26141" lon="-2.33429">
        <ele>5.1999998092651</ele>
        <time>2021-05-16T10:20:33.000Z</time>
      </trkpt>
      <trkpt lat="47.26138" lon="-2.33434">
        <ele>5.1999998092651</ele>
        <time>2021-05-16T10:20:34.000Z</time>
      </trkpt>
      <trkpt lat="47.26137" lon="-2.33439">
        <ele>5.1999998092651</ele>
        <time>2021-05-16T10:20:35.000Z</time>
      </trkpt>
      <trkpt lat="47.26125" lon="-2.33465">
        <ele>5.1999998092651</ele>
        <time>2021-05-16T10:20:40.000Z</time>
      </trkpt>
      <trkpt lat="47.26123" lon="-2.33471">
        <ele>5.1999998092651</ele>
        <time>2021-05-16T10:20:41.000Z</time>
      </trkpt>
      <trkpt lat="47.26117" lon="-2.33488">
        <ele>5.1999998092651</ele>
        <time>2021-05-16T10:20:44.000Z</time>
      </trkpt>
      <trkpt lat="47.2611" lon="-2.33492">
        <ele>5.1999998092651</ele>
        <time>2021-05-16T10:20:46.000Z</time>
      </trkpt>
      <trkpt lat="47.26097" lon="-2.33488">
        <ele>5.1999998092651</ele>
        <time>2021-05-16T10:20:49.000Z</time>
      </trkpt>
      <trkpt lat="47.26093" lon="-2.33487">
        <ele>5.1999998092651</ele>
        <time>2021-05-16T10:20:50.000Z</time>
      </trkpt>
      <trkpt lat="47.26085" lon="-2.33485">
        <ele>5.1999998092651</ele>
        <time>2021-05-16T10:20:52.000Z</time>
      </trkpt>
      <trkpt lat="47.26081" lon="-2.33481">
        <ele>5.1999998092651</ele>
        <time>2021-05-16T10:20:53.000Z</time>
      </trkpt>
      <trkpt lat="47.26067" lon="-2.33459">
        <ele>5.1999998092651</ele>
        <time>2021-05-16T10:20:57.000Z</time>
      </trkpt>
      <trkpt lat="47.26058" lon="-2.33451">
        <ele>5.1999998092651</ele>
        <time>2021-05-16T10:20:59.000Z</time>
      </trkpt>
      <trkpt lat="47.2605" lon="-2.33451">
        <ele>5.1999998092651</ele>
        <time>2021-05-16T10:21:01.000Z</time>
      </trkpt>
      <trkpt lat="47.26038" lon="-2.3347">
        <ele>5.1999998092651</ele>
        <time>2021-05-16T10:21:04.000Z</time>
      </trkpt>
      <trkpt lat="47.26031" lon="-2.33481">
        <ele>5.1999998092651</ele>
        <time>2021-05-16T10:21:06.000Z</time>
      </trkpt>
      <trkpt lat="47.2602" lon="-2.33487">
        <ele>5.1999998092651</ele>
        <time>2021-05-16T10:21:08.000Z</time>
      </trkpt>
      <trkpt lat="47.26005" lon="-2.3349">
        <ele>5.1999998092651</ele>
        <time>2021-05-16T10:21:10.000Z</time>
      </trkpt>
      <trkpt lat="47.25988" lon="-2.33494">
        <ele>5.1999998092651</ele>
        <time>2021-05-16T10:21:13.000Z</time>
      </trkpt>
      <trkpt lat="47.25984" lon="-2.33498">
        <ele>5.1999998092651</ele>
        <time>2021-05-16T10:21:14.000Z</time>
      </trkpt>
      <trkpt lat="47.25973" lon="-2.33505">
        <ele>5.1999998092651</ele>
        <time>2021-05-16T10:21:16.000Z</time>
      </trkpt>
      <trkpt lat="47.25962" lon="-2.33504">
        <ele>5.1999998092651</ele>
        <time>2021-05-16T10:21:18.000Z</time>
      </trkpt>
      <trkpt lat="47.25952" lon="-2.33508">
        <ele>5.1999998092651</ele>
        <time>2021-05-16T10:21:20.000Z</time>
      </trkpt>
      <trkpt lat="47.25937" lon="-2.33522">
        <ele>5.1999998092651</ele>
        <time>2021-05-16T10:21:23.000Z</time>
      </trkpt>
      <trkpt lat="47.25932" lon="-2.33527">
        <ele>5.1999998092651</ele>
        <time>2021-05-16T10:21:24.000Z</time>
      </trkpt>
      <trkpt lat="47.25886" lon="-2.33568">
        <ele>5.1999998092651</ele>
        <time>2021-05-16T10:21:34.000Z</time>
      </trkpt>
      <trkpt lat="47.25881" lon="-2.33571">
        <ele>5.5999999046326</ele>
        <time>2021-05-16T10:21:35.000Z</time>
      </trkpt>
      <trkpt lat="47.25876" lon="-2.33574">
        <ele>6</ele>
        <time>2021-05-16T10:21:36.000Z</time>
      </trkpt>
      <trkpt lat="47.2587" lon="-2.33575">
        <ele>6.4000000953674</ele>
        <time>2021-05-16T10:21:37.000Z</time>
      </trkpt>
      <trkpt lat="47.25865" lon="-2.33576">
        <ele>6.8000001907349</ele>
        <time>2021-05-16T10:21:38.000Z</time>
      </trkpt>
      <trkpt lat="47.2586" lon="-2.33576">
        <ele>7.1999998092651</ele>
        <time>2021-05-16T10:21:39.000Z</time>
      </trkpt>
      <trkpt lat="47.25827" lon="-2.33578">
        <ele>7.1999998092651</ele>
        <time>2021-05-16T10:21:45.000Z</time>
      </trkpt>
      <trkpt lat="47.25771" lon="-2.33583">
        <ele>7.1999998092651</ele>
        <time>2021-05-16T10:21:55.000Z</time>
      </trkpt>
      <trkpt lat="47.25744" lon="-2.33588">
        <ele>7.1999998092651</ele>
        <time>2021-05-16T10:22:00.000Z</time>
      </trkpt>
      <trkpt lat="47.25738" lon="-2.33586">
        <ele>7.1999998092651</ele>
        <time>2021-05-16T10:22:01.000Z</time>
      </trkpt>
      <trkpt lat="47.25727" lon="-2.33584">
        <ele>7.1999998092651</ele>
        <time>2021-05-16T10:22:03.000Z</time>
      </trkpt>
      <trkpt lat="47.25704" lon="-2.33586">
        <ele>7.1999998092651</ele>
        <time>2021-05-16T10:22:07.000Z</time>
      </trkpt>
      <trkpt lat="47.25692" lon="-2.33585">
        <ele>7.1999998092651</ele>
        <time>2021-05-16T10:22:09.000Z</time>
      </trkpt>
      <trkpt lat="47.25675" lon="-2.33582">
        <ele>7.1999998092651</ele>
        <time>2021-05-16T10:22:12.000Z</time>
      </trkpt>
      <trkpt lat="47.25664" lon="-2.33579">
        <ele>7.5999999046326</ele>
        <time>2021-05-16T10:22:14.000Z</time>
      </trkpt>
      <trkpt lat="47.25658" lon="-2.33577">
        <ele>8.1999998092651</ele>
        <time>2021-05-16T10:22:15.000Z</time>
      </trkpt>
      <trkpt lat="47.25653" lon="-2.33574">
        <ele>8.6000003814697</ele>
        <time>2021-05-16T10:22:16.000Z</time>
      </trkpt>
      <trkpt lat="47.25647" lon="-2.33571">
        <ele>9</ele>
        <time>2021-05-16T10:22:17.000Z</time>
      </trkpt>
      <trkpt lat="47.25642" lon="-2.33568">
        <ele>9.3999996185303</ele>
        <time>2021-05-16T10:22:18.000Z</time>
      </trkpt>
      <trkpt lat="47.2562" lon="-2.33555">
        <ele>9.3999996185303</ele>
        <time>2021-05-16T10:22:22.000Z</time>
      </trkpt>
      <trkpt lat="47.25609" lon="-2.33545">
        <ele>9.3999996185303</ele>
        <time>2021-05-16T10:22:24.000Z</time>
      </trkpt>
      <trkpt lat="47.25584" lon="-2.33518">
        <ele>9.3999996185303</ele>
        <time>2021-05-16T10:22:29.000Z</time>
      </trkpt>
      <trkpt lat="47.25574" lon="-2.33504">
        <ele>9.3999996185303</ele>
        <time>2021-05-16T10:22:31.000Z</time>
      </trkpt>
      <trkpt lat="47.25565" lon="-2.3349">
        <ele>9.3999996185303</ele>
        <time>2021-05-16T10:22:33.000Z</time>
      </trkpt>
      <trkpt lat="47.2555" lon="-2.33458">
        <ele>9.3999996185303</ele>
        <time>2021-05-16T10:22:37.000Z</time>
      </trkpt>
      <trkpt lat="47.25533" lon="-2.33404">
        <ele>9.3999996185303</ele>
        <time>2021-05-16T10:22:43.000Z</time>
      </trkpt>
      <trkpt lat="47.25521" lon="-2.33324">
        <ele>9.3999996185303</ele>
        <time>2021-05-16T10:22:51.000Z</time>
      </trkpt>
      <trkpt lat="47.25511" lon="-2.33239">
        <ele>9.3999996185303</ele>
        <time>2021-05-16T10:22:59.000Z</time>
      </trkpt>
      <trkpt lat="47.2551" lon="-2.33229">
        <ele>9.3999996185303</ele>
        <time>2021-05-16T10:23:00.000Z</time>
      </trkpt>
      <trkpt lat="47.25499" lon="-2.33156">
        <ele>9.3999996185303</ele>
        <time>2021-05-16T10:23:07.000Z</time>
      </trkpt>
      <trkpt lat="47.2549" lon="-2.33094">
        <ele>9.3999996185303</ele>
        <time>2021-05-16T10:23:14.000Z</time>
      </trkpt>
      <trkpt lat="47.25487" lon="-2.3309">
        <ele>9.3999996185303</ele>
        <time>2021-05-16T10:23:15.000Z</time>
      </trkpt>
      <trkpt lat="47.25478" lon="-2.33093">
        <ele>9.3999996185303</ele>
        <time>2021-05-16T10:23:17.000Z</time>
      </trkpt>
      <trkpt lat="47.25437" lon="-2.33113">
        <ele>9.3999996185303</ele>
        <time>2021-05-16T10:23:25.000Z</time>
      </trkpt>
      <trkpt lat="47.25432" lon="-2.33116">
        <ele>9.3999996185303</ele>
        <time>2021-05-16T10:23:26.000Z</time>
      </trkpt>
      <trkpt lat="47.25412" lon="-2.33125">
        <ele>9.3999996185303</ele>
        <time>2021-05-16T10:23:30.000Z</time>
      </trkpt>
      <trkpt lat="47.25407" lon="-2.33127">
        <ele>9.3999996185303</ele>
        <time>2021-05-16T10:23:31.000Z</time>
      </trkpt>
      <trkpt lat="47.25387" lon="-2.33137">
        <ele>9.3999996185303</ele>
        <time>2021-05-16T10:23:35.000Z</time>
      </trkpt>
      <trkpt lat="47.25375" lon="-2.33125">
        <ele>9.3999996185303</ele>
        <time>2021-05-16T10:23:38.000Z</time>
      </trkpt>
      <trkpt lat="47.25369" lon="-2.3311">
        <ele>9.3999996185303</ele>
        <time>2021-05-16T10:23:41.000Z</time>
      </trkpt>
      <trkpt lat="47.25367" lon="-2.33107">
        <ele>9.3999996185303</ele>
        <time>2021-05-16T10:23:42.000Z</time>
      </trkpt>
      <trkpt lat="47.25367" lon="-2.33106">
        <ele>9.3999996185303</ele>
        <time>2021-05-16T10:23:43.000Z</time>
      </trkpt>
      <trkpt lat="47.25365" lon="-2.33099">
        <ele>9.3999996185303</ele>
        <time>2021-05-16T10:37:03.000Z</time>
      </trkpt>
      <trkpt lat="47.25364" lon="-2.33097">
        <ele>9.3999996185303</ele>
        <time>2021-05-16T10:37:04.000Z</time>
      </trkpt>
      <trkpt lat="47.25356" lon="-2.33078">
        <ele>9.3999996185303</ele>
        <time>2021-05-16T10:37:09.000Z</time>
      </trkpt>
      <trkpt lat="47.25343" lon="-2.33044">
        <ele>9.3999996185303</ele>
        <time>2021-05-16T10:37:15.000Z</time>
      </trkpt>
      <trkpt lat="47.25329" lon="-2.33002">
        <ele>9.3999996185303</ele>
        <time>2021-05-16T10:37:22.000Z</time>
      </trkpt>
      <trkpt lat="47.2532" lon="-2.32978">
        <ele>10.199999809265</ele>
        <time>2021-05-16T10:37:26.000Z</time>
      </trkpt>
      <trkpt lat="47.25318" lon="-2.32972">
        <ele>10.60000038147</ele>
        <time>2021-05-16T10:37:27.000Z</time>
      </trkpt>
      <trkpt lat="47.25317" lon="-2.32967">
        <ele>11</ele>
        <time>2021-05-16T10:37:28.000Z</time>
      </trkpt>
      <trkpt lat="47.25314" lon="-2.32962">
        <ele>11.39999961853</ele>
        <time>2021-05-16T10:37:29.000Z</time>
      </trkpt>
      <trkpt lat="47.25306" lon="-2.3294">
        <ele>11.39999961853</ele>
        <time>2021-05-16T10:37:33.000Z</time>
      </trkpt>
      <trkpt lat="47.25307" lon="-2.32929">
        <ele>11.39999961853</ele>
        <time>2021-05-16T10:37:35.000Z</time>
      </trkpt>
      <trkpt lat="47.25314" lon="-2.32915">
        <ele>11.39999961853</ele>
        <time>2021-05-16T10:37:38.000Z</time>
      </trkpt>
      <trkpt lat="47.25323" lon="-2.32906">
        <ele>11.39999961853</ele>
        <time>2021-05-16T10:37:40.000Z</time>
      </trkpt>
      <trkpt lat="47.2534" lon="-2.32889">
        <ele>11.39999961853</ele>
        <time>2021-05-16T10:37:44.000Z</time>
      </trkpt>
      <trkpt lat="47.25367" lon="-2.32861">
        <ele>11.39999961853</ele>
        <time>2021-05-16T10:37:51.000Z</time>
      </trkpt>
      <trkpt lat="47.25371" lon="-2.32856">
        <ele>11.39999961853</ele>
        <time>2021-05-16T10:37:52.000Z</time>
      </trkpt>
      <trkpt lat="47.25399" lon="-2.32823">
        <ele>11.39999961853</ele>
        <time>2021-05-16T10:37:59.000Z</time>
      </trkpt>
      <trkpt lat="47.25421" lon="-2.32795">
        <ele>11.39999961853</ele>
        <time>2021-05-16T10:38:05.000Z</time>
      </trkpt>
      <trkpt lat="47.25433" lon="-2.32766">
        <ele>11.39999961853</ele>
        <time>2021-05-16T10:38:11.000Z</time>
      </trkpt>
      <trkpt lat="47.25436" lon="-2.32761">
        <ele>11.39999961853</ele>
        <time>2021-05-16T10:38:12.000Z</time>
      </trkpt>
      <trkpt lat="47.25447" lon="-2.32746">
        <ele>11.39999961853</ele>
        <time>2021-05-16T10:38:15.000Z</time>
      </trkpt>
      <trkpt lat="47.25472" lon="-2.32714">
        <ele>11.800000190735</ele>
        <time>2021-05-16T10:38:21.000Z</time>
      </trkpt>
      <trkpt lat="47.25476" lon="-2.32709">
        <ele>12.199999809265</ele>
        <time>2021-05-16T10:38:22.000Z</time>
      </trkpt>
      <trkpt lat="47.25479" lon="-2.32703">
        <ele>12.60000038147</ele>
        <time>2021-05-16T10:38:23.000Z</time>
      </trkpt>
      <trkpt lat="47.25483" lon="-2.32697">
        <ele>13.199999809265</ele>
        <time>2021-05-16T10:38:24.000Z</time>
      </trkpt>
      <trkpt lat="47.25486" lon="-2.32691">
        <ele>13.60000038147</ele>
        <time>2021-05-16T10:38:25.000Z</time>
      </trkpt>
      <trkpt lat="47.25489" lon="-2.32676">
        <ele>13.60000038147</ele>
        <time>2021-05-16T10:38:27.000Z</time>
      </trkpt>
      <trkpt lat="47.2549" lon="-2.32669">
        <ele>13.60000038147</ele>
        <time>2021-05-16T10:38:28.000Z</time>
      </trkpt>
      <trkpt lat="47.25488" lon="-2.32646">
        <ele>13.60000038147</ele>
        <time>2021-05-16T10:38:31.000Z</time>
      </trkpt>
      <trkpt lat="47.25486" lon="-2.32639">
        <ele>13.60000038147</ele>
        <time>2021-05-16T10:38:32.000Z</time>
      </trkpt>
      <trkpt lat="47.25479" lon="-2.32595">
        <ele>13.60000038147</ele>
        <time>2021-05-16T10:38:38.000Z</time>
      </trkpt>
      <trkpt lat="47.25479" lon="-2.3258">
        <ele>13.60000038147</ele>
        <time>2021-05-16T10:38:40.000Z</time>
      </trkpt>
      <trkpt lat="47.25484" lon="-2.32562">
        <ele>13.60000038147</ele>
        <time>2021-05-16T10:38:43.000Z</time>
      </trkpt>
      <trkpt lat="47.25495" lon="-2.32546">
        <ele>13.60000038147</ele>
        <time>2021-05-16T10:38:46.000Z</time>
      </trkpt>
      <trkpt lat="47.255" lon="-2.32541">
        <ele>13.60000038147</ele>
        <time>2021-05-16T10:38:47.000Z</time>
      </trkpt>
      <trkpt lat="47.25531" lon="-2.32512">
        <ele>13.60000038147</ele>
        <time>2021-05-16T10:38:53.000Z</time>
      </trkpt>
      <trkpt lat="47.25574" lon="-2.32472">
        <ele>13.60000038147</ele>
        <time>2021-05-16T10:39:00.000Z</time>
      </trkpt>
      <trkpt lat="47.25594" lon="-2.32452">
        <ele>13.199999809265</ele>
        <time>2021-05-16T10:39:03.000Z</time>
      </trkpt>
      <trkpt lat="47.256" lon="-2.32445">
        <ele>12.60000038147</ele>
        <time>2021-05-16T10:39:04.000Z</time>
      </trkpt>
      <trkpt lat="47.25607" lon="-2.32438">
        <ele>11.800000190735</ele>
        <time>2021-05-16T10:39:05.000Z</time>
      </trkpt>
      <trkpt lat="47.25613" lon="-2.32431">
        <ele>11.39999961853</ele>
        <time>2021-05-16T10:39:06.000Z</time>
      </trkpt>
      <trkpt lat="47.2562" lon="-2.32424">
        <ele>11</ele>
        <time>2021-05-16T10:39:07.000Z</time>
      </trkpt>
      <trkpt lat="47.25626" lon="-2.32417">
        <ele>10.60000038147</ele>
        <time>2021-05-16T10:39:08.000Z</time>
      </trkpt>
      <trkpt lat="47.25633" lon="-2.3241">
        <ele>10</ele>
        <time>2021-05-16T10:39:09.000Z</time>
      </trkpt>
      <trkpt lat="47.2564" lon="-2.32405">
        <ele>9.6000003814697</ele>
        <time>2021-05-16T10:39:10.000Z</time>
      </trkpt>
      <trkpt lat="47.25646" lon="-2.324">
        <ele>9.1999998092651</ele>
        <time>2021-05-16T10:39:11.000Z</time>
      </trkpt>
      <trkpt lat="47.25652" lon="-2.32398">
        <ele>9.1999998092651</ele>
        <time>2021-05-16T10:39:12.000Z</time>
      </trkpt>
      <trkpt lat="47.25672" lon="-2.32407">
        <ele>9.1999998092651</ele>
        <time>2021-05-16T10:39:16.000Z</time>
      </trkpt>
      <trkpt lat="47.25677" lon="-2.32411">
        <ele>9.1999998092651</ele>
        <time>2021-05-16T10:39:17.000Z</time>
      </trkpt>
      <trkpt lat="47.25682" lon="-2.32415">
        <ele>9.1999998092651</ele>
        <time>2021-05-16T10:39:18.000Z</time>
      </trkpt>
      <trkpt lat="47.25688" lon="-2.32416">
        <ele>8.8000001907349</ele>
        <time>2021-05-16T10:39:19.000Z</time>
      </trkpt>
      <trkpt lat="47.25694" lon="-2.32417">
        <ele>8.3999996185303</ele>
        <time>2021-05-16T10:39:20.000Z</time>
      </trkpt>
      <trkpt lat="47.257" lon="-2.32417">
        <ele>8</ele>
        <time>2021-05-16T10:39:21.000Z</time>
      </trkpt>
      <trkpt lat="47.25706" lon="-2.32418">
        <ele>7.5999999046326</ele>
        <time>2021-05-16T10:39:22.000Z</time>
      </trkpt>
      <trkpt lat="47.25712" lon="-2.32419">
        <ele>7.1999998092651</ele>
        <time>2021-05-16T10:39:23.000Z</time>
      </trkpt>
      <trkpt lat="47.25738" lon="-2.3242">
        <ele>7.1999998092651</ele>
        <time>2021-05-16T10:39:27.000Z</time>
      </trkpt>
      <trkpt lat="47.25765" lon="-2.32417">
        <ele>7.1999998092651</ele>
        <time>2021-05-16T10:39:32.000Z</time>
      </trkpt>
      <trkpt lat="47.2577" lon="-2.32415">
        <ele>7.1999998092651</ele>
        <time>2021-05-16T10:39:33.000Z</time>
      </trkpt>
      <trkpt lat="47.25779" lon="-2.32413">
        <ele>7.1999998092651</ele>
        <time>2021-05-16T10:39:35.000Z</time>
      </trkpt>
      <trkpt lat="47.25784" lon="-2.32417">
        <ele>7.1999998092651</ele>
        <time>2021-05-16T10:39:36.000Z</time>
      </trkpt>
      <trkpt lat="47.25787" lon="-2.32423">
        <ele>7.5999999046326</ele>
        <time>2021-05-16T10:39:37.000Z</time>
      </trkpt>
      <trkpt lat="47.25791" lon="-2.32428">
        <ele>8</ele>
        <time>2021-05-16T10:39:38.000Z</time>
      </trkpt>
      <trkpt lat="47.25794" lon="-2.32434">
        <ele>8.6000003814697</ele>
        <time>2021-05-16T10:39:39.000Z</time>
      </trkpt>
      <trkpt lat="47.25798" lon="-2.32441">
        <ele>9</ele>
        <time>2021-05-16T10:39:40.000Z</time>
      </trkpt>
      <trkpt lat="47.25802" lon="-2.32446">
        <ele>9.3999996185303</ele>
        <time>2021-05-16T10:39:41.000Z</time>
      </trkpt>
      <trkpt lat="47.25806" lon="-2.32452">
        <ele>9</ele>
        <time>2021-05-16T10:39:42.000Z</time>
      </trkpt>
      <trkpt lat="47.25811" lon="-2.32455">
        <ele>8.6000003814697</ele>
        <time>2021-05-16T10:39:43.000Z</time>
      </trkpt>
      <trkpt lat="47.25816" lon="-2.32459">
        <ele>8.1999998092651</ele>
        <time>2021-05-16T10:39:44.000Z</time>
      </trkpt>
      <trkpt lat="47.25822" lon="-2.32462">
        <ele>7.8000001907349</ele>
        <time>2021-05-16T10:39:45.000Z</time>
      </trkpt>
      <trkpt lat="47.25828" lon="-2.32466">
        <ele>7.4000000953674</ele>
        <time>2021-05-16T10:39:46.000Z</time>
      </trkpt>
      <trkpt lat="47.25834" lon="-2.32469">
        <ele>7.4000000953674</ele>
        <time>2021-05-16T10:39:47.000Z</time>
      </trkpt>
      <trkpt lat="47.25846" lon="-2.32473">
        <ele>7.4000000953674</ele>
        <time>2021-05-16T10:39:49.000Z</time>
      </trkpt>
      <trkpt lat="47.25858" lon="-2.32474">
        <ele>7.4000000953674</ele>
        <time>2021-05-16T10:39:51.000Z</time>
      </trkpt>
      <trkpt lat="47.25864" lon="-2.32474">
        <ele>7.4000000953674</ele>
        <time>2021-05-16T10:39:52.000Z</time>
      </trkpt>
      <trkpt lat="47.25875" lon="-2.32472">
        <ele>7.4000000953674</ele>
        <time>2021-05-16T10:39:54.000Z</time>
      </trkpt>
      <trkpt lat="47.25897" lon="-2.32462">
        <ele>7.4000000953674</ele>
        <time>2021-05-16T10:39:58.000Z</time>
      </trkpt>
      <trkpt lat="47.25902" lon="-2.32457">
        <ele>7.4000000953674</ele>
        <time>2021-05-16T10:39:59.000Z</time>
      </trkpt>
      <trkpt lat="47.25931" lon="-2.32421">
        <ele>7.4000000953674</ele>
        <time>2021-05-16T10:40:05.000Z</time>
      </trkpt>
      <trkpt lat="47.25935" lon="-2.32414">
        <ele>7.4000000953674</ele>
        <time>2021-05-16T10:40:06.000Z</time>
      </trkpt>
      <trkpt lat="47.2596" lon="-2.32384">
        <ele>7.4000000953674</ele>
        <time>2021-05-16T10:40:11.000Z</time>
      </trkpt>
      <trkpt lat="47.2599" lon="-2.32342">
        <ele>7.4000000953674</ele>
        <time>2021-05-16T10:40:18.000Z</time>
      </trkpt>
      <trkpt lat="47.26025" lon="-2.32295">
        <ele>7.4000000953674</ele>
        <time>2021-05-16T10:40:26.000Z</time>
      </trkpt>
      <trkpt lat="47.26056" lon="-2.32258">
        <ele>7.4000000953674</ele>
        <time>2021-05-16T10:40:33.000Z</time>
      </trkpt>
      <trkpt lat="47.26081" lon="-2.32226">
        <ele>7.4000000953674</ele>
        <time>2021-05-16T10:40:39.000Z</time>
      </trkpt>
      <trkpt lat="47.26107" lon="-2.32181">
        <ele>7.4000000953674</ele>
        <time>2021-05-16T10:40:46.000Z</time>
      </trkpt>
      <trkpt lat="47.26114" lon="-2.32167">
        <ele>7.4000000953674</ele>
        <time>2021-05-16T10:40:48.000Z</time>
      </trkpt>
      <trkpt lat="47.26127" lon="-2.32138">
        <ele>7.4000000953674</ele>
        <time>2021-05-16T10:40:52.000Z</time>
      </trkpt>
      <trkpt lat="47.2614" lon="-2.32092">
        <ele>7.4000000953674</ele>
        <time>2021-05-16T10:40:58.000Z</time>
      </trkpt>
      <trkpt lat="47.26153" lon="-2.3205">
        <ele>7.4000000953674</ele>
        <time>2021-05-16T10:41:04.000Z</time>
      </trkpt>
      <trkpt lat="47.26156" lon="-2.32043">
        <ele>7.4000000953674</ele>
        <time>2021-05-16T10:41:05.000Z</time>
      </trkpt>
      <trkpt lat="47.26167" lon="-2.32023">
        <ele>7.4000000953674</ele>
        <time>2021-05-16T10:41:09.000Z</time>
      </trkpt>
      <trkpt lat="47.26182" lon="-2.32022">
        <ele>7.4000000953674</ele>
        <time>2021-05-16T10:41:13.000Z</time>
      </trkpt>
      <trkpt lat="47.26189" lon="-2.32023">
        <ele>7.4000000953674</ele>
        <time>2021-05-16T10:41:17.000Z</time>
      </trkpt>
      <trkpt lat="47.26194" lon="-2.32022">
        <ele>7</ele>
        <time>2021-05-16T10:41:20.000Z</time>
      </trkpt>
      <trkpt lat="47.26196" lon="-2.3202">
        <ele>6.5999999046326</ele>
        <time>2021-05-16T10:41:21.000Z</time>
      </trkpt>
      <trkpt lat="47.26197" lon="-2.32017">
        <ele>6.1999998092651</ele>
        <time>2021-05-16T10:41:22.000Z</time>
      </trkpt>
      <trkpt lat="47.26199" lon="-2.32014">
        <ele>5.8000001907349</ele>
        <time>2021-05-16T10:41:23.000Z</time>
      </trkpt>
      <trkpt lat="47.262" lon="-2.32011">
        <ele>5.4000000953674</ele>
        <time>2021-05-16T10:41:24.000Z</time>
      </trkpt>
      <trkpt lat="47.26207" lon="-2.32001">
        <ele>5.4000000953674</ele>
        <time>2021-05-16T10:41:28.000Z</time>
      </trkpt>
      <trkpt lat="47.26214" lon="-2.31992">
        <ele>5.4000000953674</ele>
        <time>2021-05-16T10:41:31.000Z</time>
      </trkpt>
      <trkpt lat="47.26221" lon="-2.31981">
        <ele>5.4000000953674</ele>
        <time>2021-05-16T10:41:34.000Z</time>
      </trkpt>
      <trkpt lat="47.26227" lon="-2.31979">
        <ele>5.4000000953674</ele>
        <time>2021-05-16T10:41:36.000Z</time>
      </trkpt>
      <trkpt lat="47.26233" lon="-2.31977">
        <ele>5.4000000953674</ele>
        <time>2021-05-16T10:41:38.000Z</time>
      </trkpt>
      <trkpt lat="47.26243" lon="-2.31961">
        <ele>5.4000000953674</ele>
        <time>2021-05-16T10:41:42.000Z</time>
      </trkpt>
      <trkpt lat="47.26248" lon="-2.31944">
        <ele>5.4000000953674</ele>
        <time>2021-05-16T10:41:47.000Z</time>
      </trkpt>
      <trkpt lat="47.26261" lon="-2.31918">
        <ele>5.4000000953674</ele>
        <time>2021-05-16T10:41:54.000Z</time>
      </trkpt>
      <trkpt lat="47.26286" lon="-2.31896">
        <ele>5.4000000953674</ele>
        <time>2021-05-16T10:41:59.000Z</time>
      </trkpt>
      <trkpt lat="47.263" lon="-2.31875">
        <ele>5.4000000953674</ele>
        <time>2021-05-16T10:42:05.000Z</time>
      </trkpt>
      <trkpt lat="47.26302" lon="-2.31836">
        <ele>5.4000000953674</ele>
        <time>2021-05-16T10:42:11.000Z</time>
      </trkpt>
      <trkpt lat="47.26303" lon="-2.31814">
        <ele>5.8000001907349</ele>
        <time>2021-05-16T10:42:15.000Z</time>
      </trkpt>
      <trkpt lat="47.26304" lon="-2.31808">
        <ele>6.1999998092651</ele>
        <time>2021-05-16T10:42:16.000Z</time>
      </trkpt>
      <trkpt lat="47.26304" lon="-2.31802">
        <ele>6.5999999046326</ele>
        <time>2021-05-16T10:42:17.000Z</time>
      </trkpt>
      <trkpt lat="47.26304" lon="-2.31796">
        <ele>7</ele>
        <time>2021-05-16T10:42:18.000Z</time>
      </trkpt>
      <trkpt lat="47.26303" lon="-2.31791">
        <ele>7.4000000953674</ele>
        <time>2021-05-16T10:42:19.000Z</time>
      </trkpt>
      <trkpt lat="47.26299" lon="-2.31755">
        <ele>7.4000000953674</ele>
        <time>2021-05-16T10:42:25.000Z</time>
      </trkpt>
      <trkpt lat="47.263" lon="-2.31717">
        <ele>7.4000000953674</ele>
        <time>2021-05-16T10:42:31.000Z</time>
      </trkpt>
      <trkpt lat="47.26302" lon="-2.31713">
        <ele>7.4000000953674</ele>
        <time>2021-05-16T10:42:32.000Z</time>
      </trkpt>
      <trkpt lat="47.2631" lon="-2.31708">
        <ele>7.4000000953674</ele>
        <time>2021-05-16T10:42:34.000Z</time>
      </trkpt>
      <trkpt lat="47.26318" lon="-2.31704">
        <ele>7.4000000953674</ele>
        <time>2021-05-16T10:42:36.000Z</time>
      </trkpt>
      <trkpt lat="47.26327" lon="-2.31694">
        <ele>7.4000000953674</ele>
        <time>2021-05-16T10:42:39.000Z</time>
      </trkpt>
      <trkpt lat="47.26337" lon="-2.31686">
        <ele>7.4000000953674</ele>
        <time>2021-05-16T10:42:42.000Z</time>
      </trkpt>
      <trkpt lat="47.26352" lon="-2.31678">
        <ele>7.8000001907349</ele>
        <time>2021-05-16T10:42:46.000Z</time>
      </trkpt>
      <trkpt lat="47.26356" lon="-2.31676">
        <ele>8.1999998092651</ele>
        <time>2021-05-16T10:42:47.000Z</time>
      </trkpt>
      <trkpt lat="47.26359" lon="-2.31675">
        <ele>8.6000003814697</ele>
        <time>2021-05-16T10:42:48.000Z</time>
      </trkpt>
      <trkpt lat="47.26363" lon="-2.31673">
        <ele>9.6000003814697</ele>
        <time>2021-05-16T10:42:49.000Z</time>
      </trkpt>
      <trkpt lat="47.26367" lon="-2.31672">
        <ele>9.6000003814697</ele>
        <time>2021-05-16T10:42:50.000Z</time>
      </trkpt>
      <trkpt lat="47.2637" lon="-2.3167">
        <ele>10</ele>
        <time>2021-05-16T10:42:51.000Z</time>
      </trkpt>
      <trkpt lat="47.26374" lon="-2.31669">
        <ele>10.39999961853</ele>
        <time>2021-05-16T10:42:52.000Z</time>
      </trkpt>
      <trkpt lat="47.26377" lon="-2.31668">
        <ele>11</ele>
        <time>2021-05-16T10:42:53.000Z</time>
      </trkpt>
      <trkpt lat="47.2638" lon="-2.31666">
        <ele>11.39999961853</ele>
        <time>2021-05-16T10:42:54.000Z</time>
      </trkpt>
      <trkpt lat="47.26383" lon="-2.31664">
        <ele>11.800000190735</ele>
        <time>2021-05-16T10:42:55.000Z</time>
      </trkpt>
      <trkpt lat="47.26389" lon="-2.31662">
        <ele>11.800000190735</ele>
        <time>2021-05-16T10:42:57.000Z</time>
      </trkpt>
      <trkpt lat="47.26409" lon="-2.31649">
        <ele>11.800000190735</ele>
        <time>2021-05-16T10:43:04.000Z</time>
      </trkpt>
      <trkpt lat="47.26408" lon="-2.31631">
        <ele>11.800000190735</ele>
        <time>2021-05-16T10:43:08.000Z</time>
      </trkpt>
      <trkpt lat="47.26408" lon="-2.31627">
        <ele>11.800000190735</ele>
        <time>2021-05-16T10:43:09.000Z</time>
      </trkpt>
      <trkpt lat="47.26408" lon="-2.31623">
        <ele>11.800000190735</ele>
        <time>2021-05-16T10:43:10.000Z</time>
      </trkpt>
      <trkpt lat="47.26408" lon="-2.31603">
        <ele>11.800000190735</ele>
        <time>2021-05-16T10:43:14.000Z</time>
      </trkpt>
      <trkpt lat="47.26408" lon="-2.31574">
        <ele>11.800000190735</ele>
        <time>2021-05-16T10:43:20.000Z</time>
      </trkpt>
      <trkpt lat="47.26409" lon="-2.31554">
        <ele>11.800000190735</ele>
        <time>2021-05-16T10:43:25.000Z</time>
      </trkpt>
      <trkpt lat="47.26411" lon="-2.31554">
        <ele>11.800000190735</ele>
        <time>2021-05-16T10:43:26.000Z</time>
      </trkpt>
      <trkpt lat="47.26414" lon="-2.31554">
        <ele>11.800000190735</ele>
        <time>2021-05-16T10:43:28.000Z</time>
      </trkpt>
      <trkpt lat="47.26415" lon="-2.31554">
        <ele>11.800000190735</ele>
        <time>2021-05-16T10:43:33.000Z</time>
      </trkpt>
    </trkseg>
  </trk>
</gpx>